<?xml version="1.0" encoding="UTF-8" standalone="no" ?>
<gpx xmlns="http://www.topografix.com/GPX/1/1" xmlns:xsi="http://www.w3.org/2001/XMLSchema-instance" xsi:schemaLocation="http://www.topografix.com/GPX/1/1 http://www.topografix.com/GPX/1/1/gpx.xsd" version="1.1" creator="VisuGPX - https://www.visugpx.com">
  <metadata>
    <name>La Mouille,Le Belvédère du Repenty</name>
  </metadata>
  <trk>
    <name><![CDATA[La Mouille,Le Belvédère du Repenty_1]]></name>
    <trkseg>
      <trkpt lat="46.50548" lon="5.98108">
        <ele>918.8</ele>
        <time>2019-07-30T06:47:56Z</time>
      </trkpt>
      <trkpt lat="46.50549" lon="5.98114">
        <ele>919.5</ele>
        <time>2019-07-30T06:47:59Z</time>
      </trkpt>
      <trkpt lat="46.50544" lon="5.98119">
        <ele>916.8</ele>
        <time>2019-07-30T06:48:06Z</time>
      </trkpt>
      <trkpt lat="46.50542" lon="5.98112">
        <ele>913.1</ele>
        <time>2019-07-30T06:52:18Z</time>
      </trkpt>
      <trkpt lat="46.50539" lon="5.98103">
        <ele>913</ele>
        <time>2019-07-30T06:52:26Z</time>
      </trkpt>
      <trkpt lat="46.50537" lon="5.98092">
        <ele>913</ele>
        <time>2019-07-30T06:52:33Z</time>
      </trkpt>
      <trkpt lat="46.50536" lon="5.98086">
        <ele>913.2</ele>
        <time>2019-07-30T06:52:44Z</time>
      </trkpt>
      <trkpt lat="46.50532" lon="5.98079">
        <ele>913.4</ele>
        <time>2019-07-30T06:52:47Z</time>
      </trkpt>
      <trkpt lat="46.50529" lon="5.98074">
        <ele>913.5</ele>
        <time>2019-07-30T06:52:49Z</time>
      </trkpt>
      <trkpt lat="46.50524" lon="5.9807">
        <ele>913.6</ele>
        <time>2019-07-30T06:52:53Z</time>
      </trkpt>
      <trkpt lat="46.5052" lon="5.98067">
        <ele>913.8</ele>
        <time>2019-07-30T06:52:59Z</time>
      </trkpt>
      <trkpt lat="46.50516" lon="5.98061">
        <ele>914.2</ele>
        <time>2019-07-30T06:53:07Z</time>
      </trkpt>
      <trkpt lat="46.50512" lon="5.98057">
        <ele>914.4</ele>
        <time>2019-07-30T06:53:12Z</time>
      </trkpt>
      <trkpt lat="46.50508" lon="5.98054">
        <ele>914.6</ele>
        <time>2019-07-30T06:53:16Z</time>
      </trkpt>
      <trkpt lat="46.50504" lon="5.9805">
        <ele>914.6</ele>
        <time>2019-07-30T06:53:20Z</time>
      </trkpt>
      <trkpt lat="46.505" lon="5.98046">
        <ele>914.6</ele>
        <time>2019-07-30T06:53:27Z</time>
      </trkpt>
      <trkpt lat="46.50495" lon="5.98042">
        <ele>913.9</ele>
        <time>2019-07-30T06:53:35Z</time>
      </trkpt>
      <trkpt lat="46.50492" lon="5.98038">
        <ele>913.5</ele>
        <time>2019-07-30T06:53:39Z</time>
      </trkpt>
      <trkpt lat="46.50487" lon="5.98034">
        <ele>912.8</ele>
        <time>2019-07-30T06:53:45Z</time>
      </trkpt>
      <trkpt lat="46.50483" lon="5.9803">
        <ele>912.2</ele>
        <time>2019-07-30T06:53:51Z</time>
      </trkpt>
      <trkpt lat="46.50468" lon="5.98033">
        <ele>911.7</ele>
        <time>2019-07-30T06:54:03Z</time>
      </trkpt>
      <trkpt lat="46.50464" lon="5.98037">
        <ele>911.6</ele>
        <time>2019-07-30T06:54:08Z</time>
      </trkpt>
      <trkpt lat="46.50461" lon="5.98043">
        <ele>911.4</ele>
        <time>2019-07-30T06:54:14Z</time>
      </trkpt>
      <trkpt lat="46.50458" lon="5.98049">
        <ele>911.3</ele>
        <time>2019-07-30T06:54:20Z</time>
      </trkpt>
      <trkpt lat="46.50454" lon="5.98056">
        <ele>911.3</ele>
        <time>2019-07-30T06:54:25Z</time>
      </trkpt>
      <trkpt lat="46.50452" lon="5.98063">
        <ele>911.5</ele>
        <time>2019-07-30T06:54:30Z</time>
      </trkpt>
      <trkpt lat="46.5045" lon="5.9807">
        <ele>911.7</ele>
        <time>2019-07-30T06:54:34Z</time>
      </trkpt>
      <trkpt lat="46.50447" lon="5.98076">
        <ele>912.1</ele>
        <time>2019-07-30T06:54:38Z</time>
      </trkpt>
      <trkpt lat="46.50445" lon="5.98082">
        <ele>912.5</ele>
        <time>2019-07-30T06:54:43Z</time>
      </trkpt>
      <trkpt lat="46.50442" lon="5.98089">
        <ele>913</ele>
        <time>2019-07-30T06:54:48Z</time>
      </trkpt>
      <trkpt lat="46.50439" lon="5.98095">
        <ele>913.3</ele>
        <time>2019-07-30T06:54:53Z</time>
      </trkpt>
      <trkpt lat="46.50437" lon="5.981">
        <ele>913.6</ele>
        <time>2019-07-30T06:54:58Z</time>
      </trkpt>
      <trkpt lat="46.50434" lon="5.98107">
        <ele>913.7</ele>
        <time>2019-07-30T06:55:03Z</time>
      </trkpt>
      <trkpt lat="46.50432" lon="5.98114">
        <ele>913.6</ele>
        <time>2019-07-30T06:55:08Z</time>
      </trkpt>
      <trkpt lat="46.50429" lon="5.98121">
        <ele>913.7</ele>
        <time>2019-07-30T06:55:13Z</time>
      </trkpt>
      <trkpt lat="46.50426" lon="5.98127">
        <ele>913.9</ele>
        <time>2019-07-30T06:55:18Z</time>
      </trkpt>
      <trkpt lat="46.50423" lon="5.98133">
        <ele>914.2</ele>
        <time>2019-07-30T06:55:23Z</time>
      </trkpt>
      <trkpt lat="46.5042" lon="5.98139">
        <ele>914.6</ele>
        <time>2019-07-30T06:55:28Z</time>
      </trkpt>
      <trkpt lat="46.50418" lon="5.98145">
        <ele>915</ele>
        <time>2019-07-30T06:55:32Z</time>
      </trkpt>
      <trkpt lat="46.50415" lon="5.98152">
        <ele>915.4</ele>
        <time>2019-07-30T06:55:37Z</time>
      </trkpt>
      <trkpt lat="46.50412" lon="5.98158">
        <ele>915.9</ele>
        <time>2019-07-30T06:55:41Z</time>
      </trkpt>
      <trkpt lat="46.5041" lon="5.98164">
        <ele>916.6</ele>
        <time>2019-07-30T06:55:47Z</time>
      </trkpt>
      <trkpt lat="46.50407" lon="5.9817">
        <ele>917.1</ele>
        <time>2019-07-30T06:55:51Z</time>
      </trkpt>
      <trkpt lat="46.50404" lon="5.98176">
        <ele>917.5</ele>
        <time>2019-07-30T06:55:55Z</time>
      </trkpt>
      <trkpt lat="46.50401" lon="5.98183">
        <ele>917.9</ele>
        <time>2019-07-30T06:56:00Z</time>
      </trkpt>
      <trkpt lat="46.50399" lon="5.9819">
        <ele>918.1</ele>
        <time>2019-07-30T06:56:04Z</time>
      </trkpt>
      <trkpt lat="46.50396" lon="5.98195">
        <ele>918.5</ele>
        <time>2019-07-30T06:56:08Z</time>
      </trkpt>
      <trkpt lat="46.50393" lon="5.982">
        <ele>919.1</ele>
        <time>2019-07-30T06:56:13Z</time>
      </trkpt>
      <trkpt lat="46.50389" lon="5.98206">
        <ele>919.5</ele>
        <time>2019-07-30T06:56:17Z</time>
      </trkpt>
      <trkpt lat="46.50386" lon="5.98211">
        <ele>920.1</ele>
        <time>2019-07-30T06:56:24Z</time>
      </trkpt>
      <trkpt lat="46.50381" lon="5.98215">
        <ele>920.4</ele>
        <time>2019-07-30T06:56:29Z</time>
      </trkpt>
      <trkpt lat="46.50376" lon="5.98217">
        <ele>920.7</ele>
        <time>2019-07-30T06:56:34Z</time>
      </trkpt>
      <trkpt lat="46.50371" lon="5.98219">
        <ele>920.9</ele>
        <time>2019-07-30T06:56:39Z</time>
      </trkpt>
      <trkpt lat="46.50366" lon="5.98218">
        <ele>921</ele>
        <time>2019-07-30T06:56:44Z</time>
      </trkpt>
      <trkpt lat="46.50361" lon="5.98218">
        <ele>921.2</ele>
        <time>2019-07-30T06:56:49Z</time>
      </trkpt>
      <trkpt lat="46.50356" lon="5.98218">
        <ele>921.4</ele>
        <time>2019-07-30T06:56:54Z</time>
      </trkpt>
      <trkpt lat="46.50351" lon="5.98218">
        <ele>922</ele>
        <time>2019-07-30T06:56:59Z</time>
      </trkpt>
      <trkpt lat="46.50346" lon="5.98217">
        <ele>922.6</ele>
        <time>2019-07-30T06:57:04Z</time>
      </trkpt>
      <trkpt lat="46.50341" lon="5.98216">
        <ele>923</ele>
        <time>2019-07-30T06:57:09Z</time>
      </trkpt>
      <trkpt lat="46.50336" lon="5.98216">
        <ele>923.5</ele>
        <time>2019-07-30T06:57:13Z</time>
      </trkpt>
      <trkpt lat="46.50331" lon="5.98216">
        <ele>923.9</ele>
        <time>2019-07-30T06:57:17Z</time>
      </trkpt>
      <trkpt lat="46.50326" lon="5.98216">
        <ele>924.6</ele>
        <time>2019-07-30T06:57:22Z</time>
      </trkpt>
      <trkpt lat="46.50317" lon="5.98211">
        <ele>926.4</ele>
        <time>2019-07-30T06:57:32Z</time>
      </trkpt>
      <trkpt lat="46.50312" lon="5.9821">
        <ele>926.4</ele>
        <time>2019-07-30T06:57:41Z</time>
      </trkpt>
      <trkpt lat="46.50302" lon="5.9821">
        <ele>926.2</ele>
        <time>2019-07-30T06:57:51Z</time>
      </trkpt>
      <trkpt lat="46.50298" lon="5.98212">
        <ele>926</ele>
        <time>2019-07-30T06:57:55Z</time>
      </trkpt>
      <trkpt lat="46.50294" lon="5.98215">
        <ele>925.9</ele>
        <time>2019-07-30T06:58:00Z</time>
      </trkpt>
      <trkpt lat="46.5029" lon="5.98219">
        <ele>925.7</ele>
        <time>2019-07-30T06:58:07Z</time>
      </trkpt>
      <trkpt lat="46.50287" lon="5.98225">
        <ele>925.7</ele>
        <time>2019-07-30T06:58:11Z</time>
      </trkpt>
      <trkpt lat="46.50283" lon="5.9823">
        <ele>925.7</ele>
        <time>2019-07-30T06:58:15Z</time>
      </trkpt>
      <trkpt lat="46.50278" lon="5.98235">
        <ele>925.6</ele>
        <time>2019-07-30T06:58:19Z</time>
      </trkpt>
      <trkpt lat="46.50274" lon="5.98238">
        <ele>925.6</ele>
        <time>2019-07-30T06:58:24Z</time>
      </trkpt>
      <trkpt lat="46.5027" lon="5.9824">
        <ele>925.5</ele>
        <time>2019-07-30T06:58:34Z</time>
      </trkpt>
      <trkpt lat="46.5027" lon="5.98243">
        <ele>927.4</ele>
        <time>2019-07-30T06:59:20Z</time>
      </trkpt>
      <trkpt lat="46.50265" lon="5.98244">
        <ele>927.4</ele>
        <time>2019-07-30T06:59:25Z</time>
      </trkpt>
      <trkpt lat="46.50245" lon="5.98247">
        <ele>929.9</ele>
        <time>2019-07-30T06:59:50Z</time>
      </trkpt>
      <trkpt lat="46.50236" lon="5.98253">
        <ele>932.3</ele>
        <time>2019-07-30T07:00:01Z</time>
      </trkpt>
      <trkpt lat="46.50224" lon="5.98263">
        <ele>935.6</ele>
        <time>2019-07-30T07:00:19Z</time>
      </trkpt>
      <trkpt lat="46.50212" lon="5.98259">
        <ele>936.8</ele>
        <time>2019-07-30T07:00:33Z</time>
      </trkpt>
      <trkpt lat="46.50208" lon="5.98254">
        <ele>936.5</ele>
        <time>2019-07-30T07:00:39Z</time>
      </trkpt>
      <trkpt lat="46.50204" lon="5.98251">
        <ele>936.1</ele>
        <time>2019-07-30T07:00:45Z</time>
      </trkpt>
      <trkpt lat="46.502" lon="5.98249">
        <ele>936.1</ele>
        <time>2019-07-30T07:00:47Z</time>
      </trkpt>
      <trkpt lat="46.50194" lon="5.98247">
        <ele>936.2</ele>
        <time>2019-07-30T07:00:49Z</time>
      </trkpt>
      <trkpt lat="46.5019" lon="5.98244">
        <ele>936.4</ele>
        <time>2019-07-30T07:00:52Z</time>
      </trkpt>
      <trkpt lat="46.50186" lon="5.98241">
        <ele>936.8</ele>
        <time>2019-07-30T07:00:57Z</time>
      </trkpt>
      <trkpt lat="46.50183" lon="5.98235">
        <ele>937.1</ele>
        <time>2019-07-30T07:01:04Z</time>
      </trkpt>
      <trkpt lat="46.50179" lon="5.9823">
        <ele>937.2</ele>
        <time>2019-07-30T07:01:09Z</time>
      </trkpt>
      <trkpt lat="46.50177" lon="5.98224">
        <ele>937.5</ele>
        <time>2019-07-30T07:01:14Z</time>
      </trkpt>
      <trkpt lat="46.50176" lon="5.98217">
        <ele>937.8</ele>
        <time>2019-07-30T07:01:19Z</time>
      </trkpt>
      <trkpt lat="46.50173" lon="5.98212">
        <ele>937.8</ele>
        <time>2019-07-30T07:01:24Z</time>
      </trkpt>
      <trkpt lat="46.50169" lon="5.98209">
        <ele>937.5</ele>
        <time>2019-07-30T07:01:30Z</time>
      </trkpt>
      <trkpt lat="46.50164" lon="5.98206">
        <ele>937.3</ele>
        <time>2019-07-30T07:01:36Z</time>
      </trkpt>
      <trkpt lat="46.50159" lon="5.98201">
        <ele>937.1</ele>
        <time>2019-07-30T07:01:41Z</time>
      </trkpt>
      <trkpt lat="46.50157" lon="5.98196">
        <ele>937</ele>
        <time>2019-07-30T07:01:45Z</time>
      </trkpt>
      <trkpt lat="46.50153" lon="5.98191">
        <ele>937</ele>
        <time>2019-07-30T07:01:51Z</time>
      </trkpt>
      <trkpt lat="46.50148" lon="5.98189">
        <ele>937.1</ele>
        <time>2019-07-30T07:01:57Z</time>
      </trkpt>
      <trkpt lat="46.50143" lon="5.98189">
        <ele>937.1</ele>
        <time>2019-07-30T07:02:01Z</time>
      </trkpt>
      <trkpt lat="46.50139" lon="5.98188">
        <ele>936.9</ele>
        <time>2019-07-30T07:02:10Z</time>
      </trkpt>
      <trkpt lat="46.50128" lon="5.98182">
        <ele>937.8</ele>
        <time>2019-07-30T07:02:22Z</time>
      </trkpt>
      <trkpt lat="46.50124" lon="5.98178">
        <ele>938.2</ele>
        <time>2019-07-30T07:02:28Z</time>
      </trkpt>
      <trkpt lat="46.50118" lon="5.98176">
        <ele>938.3</ele>
        <time>2019-07-30T07:02:31Z</time>
      </trkpt>
      <trkpt lat="46.50114" lon="5.98174">
        <ele>938.5</ele>
        <time>2019-07-30T07:02:35Z</time>
      </trkpt>
      <trkpt lat="46.50109" lon="5.9817">
        <ele>938.7</ele>
        <time>2019-07-30T07:02:40Z</time>
      </trkpt>
      <trkpt lat="46.50105" lon="5.98165">
        <ele>939</ele>
        <time>2019-07-30T07:02:45Z</time>
      </trkpt>
      <trkpt lat="46.50101" lon="5.98162">
        <ele>939.2</ele>
        <time>2019-07-30T07:02:50Z</time>
      </trkpt>
      <trkpt lat="46.50096" lon="5.98158">
        <ele>939.1</ele>
        <time>2019-07-30T07:02:56Z</time>
      </trkpt>
      <trkpt lat="46.50092" lon="5.98153">
        <ele>938.8</ele>
        <time>2019-07-30T07:03:03Z</time>
      </trkpt>
      <trkpt lat="46.50089" lon="5.98148">
        <ele>938.8</ele>
        <time>2019-07-30T07:03:11Z</time>
      </trkpt>
      <trkpt lat="46.50084" lon="5.98146">
        <ele>939.4</ele>
        <time>2019-07-30T07:03:17Z</time>
      </trkpt>
      <trkpt lat="46.50078" lon="5.98146">
        <ele>939.8</ele>
        <time>2019-07-30T07:03:20Z</time>
      </trkpt>
      <trkpt lat="46.50072" lon="5.98145">
        <ele>940.3</ele>
        <time>2019-07-30T07:03:23Z</time>
      </trkpt>
      <trkpt lat="46.50068" lon="5.98143">
        <ele>941</ele>
        <time>2019-07-30T07:03:28Z</time>
      </trkpt>
      <trkpt lat="46.50063" lon="5.98139">
        <ele>942</ele>
        <time>2019-07-30T07:03:36Z</time>
      </trkpt>
      <trkpt lat="46.50058" lon="5.98136">
        <ele>942.6</ele>
        <time>2019-07-30T07:03:41Z</time>
      </trkpt>
      <trkpt lat="46.50054" lon="5.98132">
        <ele>943.1</ele>
        <time>2019-07-30T07:03:46Z</time>
      </trkpt>
      <trkpt lat="46.50048" lon="5.98128">
        <ele>943.5</ele>
        <time>2019-07-30T07:03:51Z</time>
      </trkpt>
      <trkpt lat="46.50043" lon="5.98124">
        <ele>943.9</ele>
        <time>2019-07-30T07:03:53Z</time>
      </trkpt>
      <trkpt lat="46.50038" lon="5.98121">
        <ele>944.4</ele>
        <time>2019-07-30T07:03:57Z</time>
      </trkpt>
      <trkpt lat="46.50034" lon="5.98118">
        <ele>944.5</ele>
        <time>2019-07-30T07:04:10Z</time>
      </trkpt>
      <trkpt lat="46.50031" lon="5.98112">
        <ele>944.3</ele>
        <time>2019-07-30T07:04:14Z</time>
      </trkpt>
      <trkpt lat="46.50027" lon="5.98107">
        <ele>943.7</ele>
        <time>2019-07-30T07:04:20Z</time>
      </trkpt>
      <trkpt lat="46.50022" lon="5.98105">
        <ele>943.8</ele>
        <time>2019-07-30T07:04:24Z</time>
      </trkpt>
      <trkpt lat="46.50018" lon="5.98102">
        <ele>944.1</ele>
        <time>2019-07-30T07:04:27Z</time>
      </trkpt>
      <trkpt lat="46.50015" lon="5.98097">
        <ele>944.4</ele>
        <time>2019-07-30T07:04:31Z</time>
      </trkpt>
      <trkpt lat="46.5001" lon="5.98094">
        <ele>944.7</ele>
        <time>2019-07-30T07:04:35Z</time>
      </trkpt>
      <trkpt lat="46.50005" lon="5.98091">
        <ele>945.3</ele>
        <time>2019-07-30T07:04:40Z</time>
      </trkpt>
      <trkpt lat="46.50001" lon="5.98087">
        <ele>945.7</ele>
        <time>2019-07-30T07:04:45Z</time>
      </trkpt>
      <trkpt lat="46.49998" lon="5.98081">
        <ele>946</ele>
        <time>2019-07-30T07:04:50Z</time>
      </trkpt>
      <trkpt lat="46.49995" lon="5.98075">
        <ele>946.3</ele>
        <time>2019-07-30T07:04:56Z</time>
      </trkpt>
      <trkpt lat="46.49991" lon="5.98069">
        <ele>946.5</ele>
        <time>2019-07-30T07:05:01Z</time>
      </trkpt>
      <trkpt lat="46.49989" lon="5.98062">
        <ele>946.5</ele>
        <time>2019-07-30T07:05:06Z</time>
      </trkpt>
      <trkpt lat="46.49983" lon="5.98056">
        <ele>949.1</ele>
        <time>2019-07-30T07:06:04Z</time>
      </trkpt>
      <trkpt lat="46.49979" lon="5.98051">
        <ele>948.6</ele>
        <time>2019-07-30T07:06:09Z</time>
      </trkpt>
      <trkpt lat="46.49975" lon="5.98047">
        <ele>948.4</ele>
        <time>2019-07-30T07:06:13Z</time>
      </trkpt>
      <trkpt lat="46.49971" lon="5.98043">
        <ele>948.3</ele>
        <time>2019-07-30T07:06:17Z</time>
      </trkpt>
      <trkpt lat="46.49968" lon="5.98038">
        <ele>948.2</ele>
        <time>2019-07-30T07:06:20Z</time>
      </trkpt>
      <trkpt lat="46.49965" lon="5.98033">
        <ele>948.3</ele>
        <time>2019-07-30T07:06:25Z</time>
      </trkpt>
      <trkpt lat="46.49961" lon="5.98027">
        <ele>948.5</ele>
        <time>2019-07-30T07:06:30Z</time>
      </trkpt>
      <trkpt lat="46.49959" lon="5.98022">
        <ele>948.5</ele>
        <time>2019-07-30T07:06:36Z</time>
      </trkpt>
      <trkpt lat="46.49954" lon="5.98016">
        <ele>948.4</ele>
        <time>2019-07-30T07:06:41Z</time>
      </trkpt>
      <trkpt lat="46.49949" lon="5.98013">
        <ele>948.3</ele>
        <time>2019-07-30T07:06:45Z</time>
      </trkpt>
      <trkpt lat="46.49945" lon="5.98007">
        <ele>947.9</ele>
        <time>2019-07-30T07:06:50Z</time>
      </trkpt>
      <trkpt lat="46.49941" lon="5.98004">
        <ele>947.6</ele>
        <time>2019-07-30T07:06:54Z</time>
      </trkpt>
      <trkpt lat="46.49937" lon="5.97999">
        <ele>947.3</ele>
        <time>2019-07-30T07:07:00Z</time>
      </trkpt>
      <trkpt lat="46.49934" lon="5.97994">
        <ele>947.2</ele>
        <time>2019-07-30T07:07:05Z</time>
      </trkpt>
      <trkpt lat="46.4993" lon="5.97989">
        <ele>947.2</ele>
        <time>2019-07-30T07:07:10Z</time>
      </trkpt>
      <trkpt lat="46.49926" lon="5.97985">
        <ele>947.3</ele>
        <time>2019-07-30T07:07:15Z</time>
      </trkpt>
      <trkpt lat="46.49922" lon="5.9798">
        <ele>947.5</ele>
        <time>2019-07-30T07:07:20Z</time>
      </trkpt>
      <trkpt lat="46.49919" lon="5.97975">
        <ele>947.6</ele>
        <time>2019-07-30T07:07:25Z</time>
      </trkpt>
      <trkpt lat="46.49915" lon="5.97971">
        <ele>947.7</ele>
        <time>2019-07-30T07:07:30Z</time>
      </trkpt>
      <trkpt lat="46.49912" lon="5.97966">
        <ele>947.8</ele>
        <time>2019-07-30T07:07:35Z</time>
      </trkpt>
      <trkpt lat="46.49906" lon="5.97959">
        <ele>947.9</ele>
        <time>2019-07-30T07:07:39Z</time>
      </trkpt>
      <trkpt lat="46.49903" lon="5.97955">
        <ele>948</ele>
        <time>2019-07-30T07:07:42Z</time>
      </trkpt>
      <trkpt lat="46.49899" lon="5.97951">
        <ele>948.1</ele>
        <time>2019-07-30T07:07:46Z</time>
      </trkpt>
      <trkpt lat="46.49895" lon="5.97946">
        <ele>948.2</ele>
        <time>2019-07-30T07:07:50Z</time>
      </trkpt>
      <trkpt lat="46.4989" lon="5.97942">
        <ele>948.3</ele>
        <time>2019-07-30T07:07:55Z</time>
      </trkpt>
      <trkpt lat="46.49885" lon="5.9794">
        <ele>948.5</ele>
        <time>2019-07-30T07:08:00Z</time>
      </trkpt>
      <trkpt lat="46.49881" lon="5.97936">
        <ele>948.7</ele>
        <time>2019-07-30T07:08:05Z</time>
      </trkpt>
      <trkpt lat="46.49878" lon="5.97931">
        <ele>948.8</ele>
        <time>2019-07-30T07:08:10Z</time>
      </trkpt>
      <trkpt lat="46.49874" lon="5.97926">
        <ele>948.8</ele>
        <time>2019-07-30T07:08:14Z</time>
      </trkpt>
      <trkpt lat="46.4987" lon="5.97921">
        <ele>948.5</ele>
        <time>2019-07-30T07:08:19Z</time>
      </trkpt>
      <trkpt lat="46.49867" lon="5.97915">
        <ele>948.1</ele>
        <time>2019-07-30T07:08:23Z</time>
      </trkpt>
      <trkpt lat="46.49864" lon="5.9791">
        <ele>947.2</ele>
        <time>2019-07-30T07:08:29Z</time>
      </trkpt>
      <trkpt lat="46.49861" lon="5.97905">
        <ele>946.3</ele>
        <time>2019-07-30T07:08:35Z</time>
      </trkpt>
      <trkpt lat="46.49857" lon="5.979">
        <ele>945.4</ele>
        <time>2019-07-30T07:08:41Z</time>
      </trkpt>
      <trkpt lat="46.49854" lon="5.97896">
        <ele>944.9</ele>
        <time>2019-07-30T07:08:45Z</time>
      </trkpt>
      <trkpt lat="46.49849" lon="5.97891">
        <ele>944.4</ele>
        <time>2019-07-30T07:08:50Z</time>
      </trkpt>
      <trkpt lat="46.49845" lon="5.97886">
        <ele>944.1</ele>
        <time>2019-07-30T07:08:53Z</time>
      </trkpt>
      <trkpt lat="46.49841" lon="5.97881">
        <ele>943.8</ele>
        <time>2019-07-30T07:08:58Z</time>
      </trkpt>
      <trkpt lat="46.49837" lon="5.97878">
        <ele>943.8</ele>
        <time>2019-07-30T07:09:01Z</time>
      </trkpt>
      <trkpt lat="46.49832" lon="5.97874">
        <ele>943.7</ele>
        <time>2019-07-30T07:09:05Z</time>
      </trkpt>
      <trkpt lat="46.49828" lon="5.97871">
        <ele>943.6</ele>
        <time>2019-07-30T07:09:09Z</time>
      </trkpt>
      <trkpt lat="46.49824" lon="5.97867">
        <ele>943.6</ele>
        <time>2019-07-30T07:09:14Z</time>
      </trkpt>
      <trkpt lat="46.49821" lon="5.97861">
        <ele>943.6</ele>
        <time>2019-07-30T07:09:19Z</time>
      </trkpt>
      <trkpt lat="46.49818" lon="5.97855">
        <ele>943.4</ele>
        <time>2019-07-30T07:09:25Z</time>
      </trkpt>
      <trkpt lat="46.49813" lon="5.97851">
        <ele>943.5</ele>
        <time>2019-07-30T07:09:31Z</time>
      </trkpt>
      <trkpt lat="46.49809" lon="5.9785">
        <ele>943.5</ele>
        <time>2019-07-30T07:09:34Z</time>
      </trkpt>
      <trkpt lat="46.49804" lon="5.97849">
        <ele>943.5</ele>
        <time>2019-07-30T07:09:37Z</time>
      </trkpt>
      <trkpt lat="46.49799" lon="5.97848">
        <ele>943.5</ele>
        <time>2019-07-30T07:09:41Z</time>
      </trkpt>
      <trkpt lat="46.49795" lon="5.97845">
        <ele>943.5</ele>
        <time>2019-07-30T07:09:47Z</time>
      </trkpt>
      <trkpt lat="46.49791" lon="5.9784">
        <ele>943.1</ele>
        <time>2019-07-30T07:09:52Z</time>
      </trkpt>
      <trkpt lat="46.49787" lon="5.97836">
        <ele>942.8</ele>
        <time>2019-07-30T07:09:56Z</time>
      </trkpt>
      <trkpt lat="46.49783" lon="5.97832">
        <ele>942.7</ele>
        <time>2019-07-30T07:10:01Z</time>
      </trkpt>
      <trkpt lat="46.49779" lon="5.97826">
        <ele>942.6</ele>
        <time>2019-07-30T07:10:05Z</time>
      </trkpt>
      <trkpt lat="46.49775" lon="5.97823">
        <ele>942.7</ele>
        <time>2019-07-30T07:10:08Z</time>
      </trkpt>
      <trkpt lat="46.49771" lon="5.97822">
        <ele>942.8</ele>
        <time>2019-07-30T07:10:11Z</time>
      </trkpt>
      <trkpt lat="46.49767" lon="5.97817">
        <ele>943</ele>
        <time>2019-07-30T07:10:18Z</time>
      </trkpt>
      <trkpt lat="46.49763" lon="5.97812">
        <ele>943.2</ele>
        <time>2019-07-30T07:10:23Z</time>
      </trkpt>
      <trkpt lat="46.49759" lon="5.97807">
        <ele>943.2</ele>
        <time>2019-07-30T07:10:28Z</time>
      </trkpt>
      <trkpt lat="46.49755" lon="5.97802">
        <ele>943.3</ele>
        <time>2019-07-30T07:10:34Z</time>
      </trkpt>
      <trkpt lat="46.49752" lon="5.97796">
        <ele>943.3</ele>
        <time>2019-07-30T07:10:39Z</time>
      </trkpt>
      <trkpt lat="46.49748" lon="5.97791">
        <ele>943.3</ele>
        <time>2019-07-30T07:10:43Z</time>
      </trkpt>
      <trkpt lat="46.49745" lon="5.97785">
        <ele>942.8</ele>
        <time>2019-07-30T07:10:51Z</time>
      </trkpt>
      <trkpt lat="46.49741" lon="5.97779">
        <ele>942.6</ele>
        <time>2019-07-30T07:10:56Z</time>
      </trkpt>
      <trkpt lat="46.49737" lon="5.97774">
        <ele>942.5</ele>
        <time>2019-07-30T07:11:01Z</time>
      </trkpt>
      <trkpt lat="46.49733" lon="5.9777">
        <ele>942.4</ele>
        <time>2019-07-30T07:11:05Z</time>
      </trkpt>
      <trkpt lat="46.49728" lon="5.97767">
        <ele>942.1</ele>
        <time>2019-07-30T07:11:09Z</time>
      </trkpt>
      <trkpt lat="46.49724" lon="5.97764">
        <ele>941.8</ele>
        <time>2019-07-30T07:11:14Z</time>
      </trkpt>
      <trkpt lat="46.4972" lon="5.9776">
        <ele>941.5</ele>
        <time>2019-07-30T07:11:19Z</time>
      </trkpt>
      <trkpt lat="46.49716" lon="5.97755">
        <ele>941.1</ele>
        <time>2019-07-30T07:11:24Z</time>
      </trkpt>
      <trkpt lat="46.49712" lon="5.97751">
        <ele>940.9</ele>
        <time>2019-07-30T07:11:29Z</time>
      </trkpt>
      <trkpt lat="46.49707" lon="5.97749">
        <ele>940.8</ele>
        <time>2019-07-30T07:11:33Z</time>
      </trkpt>
      <trkpt lat="46.49703" lon="5.97745">
        <ele>941</ele>
        <time>2019-07-30T07:11:38Z</time>
      </trkpt>
      <trkpt lat="46.497" lon="5.97738">
        <ele>941.2</ele>
        <time>2019-07-30T07:11:44Z</time>
      </trkpt>
      <trkpt lat="46.49696" lon="5.97734">
        <ele>941.1</ele>
        <time>2019-07-30T07:11:48Z</time>
      </trkpt>
      <trkpt lat="46.49692" lon="5.97732">
        <ele>941.1</ele>
        <time>2019-07-30T07:11:53Z</time>
      </trkpt>
      <trkpt lat="46.49688" lon="5.97728">
        <ele>940.5</ele>
        <time>2019-07-30T07:11:59Z</time>
      </trkpt>
      <trkpt lat="46.49683" lon="5.97725">
        <ele>939.8</ele>
        <time>2019-07-30T07:12:04Z</time>
      </trkpt>
      <trkpt lat="46.49678" lon="5.97722">
        <ele>939.6</ele>
        <time>2019-07-30T07:12:07Z</time>
      </trkpt>
      <trkpt lat="46.49675" lon="5.97716">
        <ele>939.2</ele>
        <time>2019-07-30T07:12:12Z</time>
      </trkpt>
      <trkpt lat="46.49673" lon="5.9771">
        <ele>939.1</ele>
        <time>2019-07-30T07:12:19Z</time>
      </trkpt>
      <trkpt lat="46.4967" lon="5.97703">
        <ele>939.3</ele>
        <time>2019-07-30T07:12:24Z</time>
      </trkpt>
      <trkpt lat="46.49666" lon="5.977">
        <ele>939.4</ele>
        <time>2019-07-30T07:12:28Z</time>
      </trkpt>
      <trkpt lat="46.49661" lon="5.97698">
        <ele>939.4</ele>
        <time>2019-07-30T07:12:32Z</time>
      </trkpt>
      <trkpt lat="46.49657" lon="5.97694">
        <ele>939.2</ele>
        <time>2019-07-30T07:12:36Z</time>
      </trkpt>
      <trkpt lat="46.49653" lon="5.97689">
        <ele>939.2</ele>
        <time>2019-07-30T07:12:42Z</time>
      </trkpt>
      <trkpt lat="46.49649" lon="5.97685">
        <ele>939.6</ele>
        <time>2019-07-30T07:12:46Z</time>
      </trkpt>
      <trkpt lat="46.49638" lon="5.97677">
        <ele>942</ele>
        <time>2019-07-30T07:12:53Z</time>
      </trkpt>
      <trkpt lat="46.49634" lon="5.97675">
        <ele>942.4</ele>
        <time>2019-07-30T07:12:56Z</time>
      </trkpt>
      <trkpt lat="46.49629" lon="5.97673">
        <ele>943.1</ele>
        <time>2019-07-30T07:13:00Z</time>
      </trkpt>
      <trkpt lat="46.49624" lon="5.9767">
        <ele>943.7</ele>
        <time>2019-07-30T07:13:03Z</time>
      </trkpt>
      <trkpt lat="46.49619" lon="5.97668">
        <ele>945</ele>
        <time>2019-07-30T07:13:08Z</time>
      </trkpt>
      <trkpt lat="46.49614" lon="5.97668">
        <ele>945.5</ele>
        <time>2019-07-30T07:13:10Z</time>
      </trkpt>
      <trkpt lat="46.4961" lon="5.97667">
        <ele>946</ele>
        <time>2019-07-30T07:13:12Z</time>
      </trkpt>
      <trkpt lat="46.49605" lon="5.97665">
        <ele>947.1</ele>
        <time>2019-07-30T07:13:17Z</time>
      </trkpt>
      <trkpt lat="46.496" lon="5.97661">
        <ele>948.1</ele>
        <time>2019-07-30T07:13:21Z</time>
      </trkpt>
      <trkpt lat="46.49595" lon="5.97659">
        <ele>949</ele>
        <time>2019-07-30T07:13:26Z</time>
      </trkpt>
      <trkpt lat="46.49591" lon="5.97654">
        <ele>949.3</ele>
        <time>2019-07-30T07:13:32Z</time>
      </trkpt>
      <trkpt lat="46.49588" lon="5.97649">
        <ele>949</ele>
        <time>2019-07-30T07:13:37Z</time>
      </trkpt>
      <trkpt lat="46.49585" lon="5.97643">
        <ele>948.5</ele>
        <time>2019-07-30T07:13:42Z</time>
      </trkpt>
      <trkpt lat="46.49583" lon="5.97636">
        <ele>947.8</ele>
        <time>2019-07-30T07:13:46Z</time>
      </trkpt>
      <trkpt lat="46.4958" lon="5.9763">
        <ele>946.5</ele>
        <time>2019-07-30T07:13:53Z</time>
      </trkpt>
      <trkpt lat="46.49576" lon="5.97626">
        <ele>945.6</ele>
        <time>2019-07-30T07:13:59Z</time>
      </trkpt>
      <trkpt lat="46.49572" lon="5.97622">
        <ele>944.7</ele>
        <time>2019-07-30T07:14:05Z</time>
      </trkpt>
      <trkpt lat="46.49568" lon="5.97618">
        <ele>944</ele>
        <time>2019-07-30T07:14:10Z</time>
      </trkpt>
      <trkpt lat="46.49564" lon="5.97613">
        <ele>943.2</ele>
        <time>2019-07-30T07:14:15Z</time>
      </trkpt>
      <trkpt lat="46.4956" lon="5.97608">
        <ele>942.4</ele>
        <time>2019-07-30T07:14:19Z</time>
      </trkpt>
      <trkpt lat="46.49557" lon="5.97603">
        <ele>941.5</ele>
        <time>2019-07-30T07:14:25Z</time>
      </trkpt>
      <trkpt lat="46.49554" lon="5.97597">
        <ele>940.9</ele>
        <time>2019-07-30T07:14:30Z</time>
      </trkpt>
      <trkpt lat="46.4955" lon="5.97591">
        <ele>940.3</ele>
        <time>2019-07-30T07:14:35Z</time>
      </trkpt>
      <trkpt lat="46.49546" lon="5.97587">
        <ele>939.7</ele>
        <time>2019-07-30T07:14:39Z</time>
      </trkpt>
      <trkpt lat="46.49542" lon="5.97584">
        <ele>939.1</ele>
        <time>2019-07-30T07:14:44Z</time>
      </trkpt>
      <trkpt lat="46.49538" lon="5.97579">
        <ele>938.5</ele>
        <time>2019-07-30T07:14:50Z</time>
      </trkpt>
      <trkpt lat="46.49534" lon="5.97574">
        <ele>937.8</ele>
        <time>2019-07-30T07:14:56Z</time>
      </trkpt>
      <trkpt lat="46.49529" lon="5.97572">
        <ele>937.5</ele>
        <time>2019-07-30T07:14:59Z</time>
      </trkpt>
      <trkpt lat="46.49524" lon="5.9757">
        <ele>937.2</ele>
        <time>2019-07-30T07:15:03Z</time>
      </trkpt>
      <trkpt lat="46.4952" lon="5.97567">
        <ele>937.1</ele>
        <time>2019-07-30T07:15:06Z</time>
      </trkpt>
      <trkpt lat="46.49516" lon="5.97563">
        <ele>937</ele>
        <time>2019-07-30T07:15:09Z</time>
      </trkpt>
      <trkpt lat="46.49512" lon="5.97559">
        <ele>936.9</ele>
        <time>2019-07-30T07:15:13Z</time>
      </trkpt>
      <trkpt lat="46.4951" lon="5.97552">
        <ele>936.9</ele>
        <time>2019-07-30T07:15:17Z</time>
      </trkpt>
      <trkpt lat="46.49508" lon="5.97546">
        <ele>937</ele>
        <time>2019-07-30T07:15:22Z</time>
      </trkpt>
      <trkpt lat="46.49505" lon="5.97541">
        <ele>937</ele>
        <time>2019-07-30T07:15:27Z</time>
      </trkpt>
      <trkpt lat="46.49502" lon="5.97537">
        <ele>937</ele>
        <time>2019-07-30T07:15:31Z</time>
      </trkpt>
      <trkpt lat="46.49498" lon="5.97532">
        <ele>937.3</ele>
        <time>2019-07-30T07:15:36Z</time>
      </trkpt>
      <trkpt lat="46.49495" lon="5.97525">
        <ele>937.7</ele>
        <time>2019-07-30T07:15:40Z</time>
      </trkpt>
      <trkpt lat="46.49492" lon="5.97521">
        <ele>938.2</ele>
        <time>2019-07-30T07:15:45Z</time>
      </trkpt>
      <trkpt lat="46.49488" lon="5.97515">
        <ele>938.4</ele>
        <time>2019-07-30T07:15:53Z</time>
      </trkpt>
      <trkpt lat="46.49484" lon="5.97511">
        <ele>938.5</ele>
        <time>2019-07-30T07:15:59Z</time>
      </trkpt>
      <trkpt lat="46.49482" lon="5.97505">
        <ele>938.5</ele>
        <time>2019-07-30T07:16:03Z</time>
      </trkpt>
      <trkpt lat="46.49478" lon="5.97501">
        <ele>938.4</ele>
        <time>2019-07-30T07:16:12Z</time>
      </trkpt>
      <trkpt lat="46.49482" lon="5.97505">
        <ele>938.7</ele>
        <time>2019-07-30T07:16:24Z</time>
      </trkpt>
      <trkpt lat="46.49485" lon="5.9751">
        <ele>938.9</ele>
        <time>2019-07-30T07:16:28Z</time>
      </trkpt>
      <trkpt lat="46.49489" lon="5.97515">
        <ele>939</ele>
        <time>2019-07-30T07:16:32Z</time>
      </trkpt>
      <trkpt lat="46.49492" lon="5.97521">
        <ele>938.8</ele>
        <time>2019-07-30T07:16:37Z</time>
      </trkpt>
      <trkpt lat="46.49488" lon="5.97534">
        <ele>937.6</ele>
        <time>2019-07-30T07:16:51Z</time>
      </trkpt>
      <trkpt lat="46.49484" lon="5.97539">
        <ele>938.3</ele>
        <time>2019-07-30T07:17:01Z</time>
      </trkpt>
      <trkpt lat="46.4948" lon="5.97541">
        <ele>939.5</ele>
        <time>2019-07-30T07:17:07Z</time>
      </trkpt>
      <trkpt lat="46.49475" lon="5.97541">
        <ele>940.8</ele>
        <time>2019-07-30T07:17:13Z</time>
      </trkpt>
      <trkpt lat="46.4947" lon="5.97539">
        <ele>941.5</ele>
        <time>2019-07-30T07:17:17Z</time>
      </trkpt>
      <trkpt lat="46.49465" lon="5.97535">
        <ele>942.4</ele>
        <time>2019-07-30T07:17:25Z</time>
      </trkpt>
      <trkpt lat="46.49461" lon="5.97531">
        <ele>943.2</ele>
        <time>2019-07-30T07:17:34Z</time>
      </trkpt>
      <trkpt lat="46.49457" lon="5.97527">
        <ele>943.8</ele>
        <time>2019-07-30T07:17:40Z</time>
      </trkpt>
      <trkpt lat="46.49453" lon="5.97524">
        <ele>944.1</ele>
        <time>2019-07-30T07:17:46Z</time>
      </trkpt>
      <trkpt lat="46.49449" lon="5.97521">
        <ele>943.8</ele>
        <time>2019-07-30T07:17:50Z</time>
      </trkpt>
      <trkpt lat="46.49444" lon="5.97515">
        <ele>942.9</ele>
        <time>2019-07-30T07:17:57Z</time>
      </trkpt>
      <trkpt lat="46.49439" lon="5.97511">
        <ele>942.4</ele>
        <time>2019-07-30T07:18:02Z</time>
      </trkpt>
      <trkpt lat="46.49435" lon="5.97508">
        <ele>942.2</ele>
        <time>2019-07-30T07:18:10Z</time>
      </trkpt>
      <trkpt lat="46.49431" lon="5.97502">
        <ele>942.4</ele>
        <time>2019-07-30T07:18:13Z</time>
      </trkpt>
      <trkpt lat="46.49427" lon="5.97498">
        <ele>942.6</ele>
        <time>2019-07-30T07:18:16Z</time>
      </trkpt>
      <trkpt lat="46.49423" lon="5.97494">
        <ele>942.7</ele>
        <time>2019-07-30T07:18:21Z</time>
      </trkpt>
      <trkpt lat="46.49419" lon="5.9749">
        <ele>943</ele>
        <time>2019-07-30T07:18:26Z</time>
      </trkpt>
      <trkpt lat="46.49414" lon="5.97486">
        <ele>943.2</ele>
        <time>2019-07-30T07:18:31Z</time>
      </trkpt>
      <trkpt lat="46.49411" lon="5.97481">
        <ele>943.4</ele>
        <time>2019-07-30T07:18:34Z</time>
      </trkpt>
      <trkpt lat="46.49407" lon="5.97476">
        <ele>943.6</ele>
        <time>2019-07-30T07:18:39Z</time>
      </trkpt>
      <trkpt lat="46.49403" lon="5.97472">
        <ele>943.7</ele>
        <time>2019-07-30T07:18:44Z</time>
      </trkpt>
      <trkpt lat="46.494" lon="5.97467">
        <ele>944</ele>
        <time>2019-07-30T07:18:49Z</time>
      </trkpt>
      <trkpt lat="46.49397" lon="5.97461">
        <ele>944.1</ele>
        <time>2019-07-30T07:18:54Z</time>
      </trkpt>
      <trkpt lat="46.49394" lon="5.97455">
        <ele>944.4</ele>
        <time>2019-07-30T07:19:01Z</time>
      </trkpt>
      <trkpt lat="46.49391" lon="5.9745">
        <ele>944.6</ele>
        <time>2019-07-30T07:19:07Z</time>
      </trkpt>
      <trkpt lat="46.49387" lon="5.97444">
        <ele>944.9</ele>
        <time>2019-07-30T07:19:13Z</time>
      </trkpt>
      <trkpt lat="46.49384" lon="5.97438">
        <ele>945.1</ele>
        <time>2019-07-30T07:19:17Z</time>
      </trkpt>
      <trkpt lat="46.4938" lon="5.97433">
        <ele>945.2</ele>
        <time>2019-07-30T07:19:22Z</time>
      </trkpt>
      <trkpt lat="46.49376" lon="5.97429">
        <ele>945.1</ele>
        <time>2019-07-30T07:19:28Z</time>
      </trkpt>
      <trkpt lat="46.49372" lon="5.97424">
        <ele>945.1</ele>
        <time>2019-07-30T07:19:35Z</time>
      </trkpt>
      <trkpt lat="46.49368" lon="5.97419">
        <ele>944.8</ele>
        <time>2019-07-30T07:19:42Z</time>
      </trkpt>
      <trkpt lat="46.49365" lon="5.97412">
        <ele>944.3</ele>
        <time>2019-07-30T07:19:49Z</time>
      </trkpt>
      <trkpt lat="46.49361" lon="5.97406">
        <ele>944.1</ele>
        <time>2019-07-30T07:19:52Z</time>
      </trkpt>
      <trkpt lat="46.49358" lon="5.97401">
        <ele>944</ele>
        <time>2019-07-30T07:19:56Z</time>
      </trkpt>
      <trkpt lat="46.49356" lon="5.97394">
        <ele>944.2</ele>
        <time>2019-07-30T07:20:03Z</time>
      </trkpt>
      <trkpt lat="46.49353" lon="5.97388">
        <ele>944.5</ele>
        <time>2019-07-30T07:20:10Z</time>
      </trkpt>
      <trkpt lat="46.49349" lon="5.97382">
        <ele>944.5</ele>
        <time>2019-07-30T07:20:12Z</time>
      </trkpt>
      <trkpt lat="46.49348" lon="5.97376">
        <ele>944.5</ele>
        <time>2019-07-30T07:20:15Z</time>
      </trkpt>
      <trkpt lat="46.49348" lon="5.97369">
        <ele>944.4</ele>
        <time>2019-07-30T07:20:19Z</time>
      </trkpt>
      <trkpt lat="46.49347" lon="5.97362">
        <ele>944.1</ele>
        <time>2019-07-30T07:20:23Z</time>
      </trkpt>
      <trkpt lat="46.49347" lon="5.97355">
        <ele>943.8</ele>
        <time>2019-07-30T07:20:27Z</time>
      </trkpt>
      <trkpt lat="46.49346" lon="5.97348">
        <ele>943.4</ele>
        <time>2019-07-30T07:20:32Z</time>
      </trkpt>
      <trkpt lat="46.49344" lon="5.97342">
        <ele>943.4</ele>
        <time>2019-07-30T07:20:36Z</time>
      </trkpt>
      <trkpt lat="46.49341" lon="5.97336">
        <ele>943.4</ele>
        <time>2019-07-30T07:20:41Z</time>
      </trkpt>
      <trkpt lat="46.49338" lon="5.97328">
        <ele>943.4</ele>
        <time>2019-07-30T07:20:47Z</time>
      </trkpt>
      <trkpt lat="46.49336" lon="5.97321">
        <ele>943.4</ele>
        <time>2019-07-30T07:20:50Z</time>
      </trkpt>
      <trkpt lat="46.49333" lon="5.97315">
        <ele>943.5</ele>
        <time>2019-07-30T07:20:54Z</time>
      </trkpt>
      <trkpt lat="46.49332" lon="5.97308">
        <ele>943.6</ele>
        <time>2019-07-30T07:21:00Z</time>
      </trkpt>
      <trkpt lat="46.49331" lon="5.97301">
        <ele>943.6</ele>
        <time>2019-07-30T07:21:06Z</time>
      </trkpt>
      <trkpt lat="46.49329" lon="5.97295">
        <ele>943.7</ele>
        <time>2019-07-30T07:21:10Z</time>
      </trkpt>
      <trkpt lat="46.49325" lon="5.97291">
        <ele>943.7</ele>
        <time>2019-07-30T07:21:13Z</time>
      </trkpt>
      <trkpt lat="46.49322" lon="5.97285">
        <ele>943.8</ele>
        <time>2019-07-30T07:21:21Z</time>
      </trkpt>
      <trkpt lat="46.49318" lon="5.97281">
        <ele>943.7</ele>
        <time>2019-07-30T07:21:27Z</time>
      </trkpt>
      <trkpt lat="46.49314" lon="5.97276">
        <ele>943.5</ele>
        <time>2019-07-30T07:21:31Z</time>
      </trkpt>
      <trkpt lat="46.49312" lon="5.9727">
        <ele>943.3</ele>
        <time>2019-07-30T07:21:35Z</time>
      </trkpt>
      <trkpt lat="46.49312" lon="5.97263">
        <ele>943.1</ele>
        <time>2019-07-30T07:21:39Z</time>
      </trkpt>
      <trkpt lat="46.49311" lon="5.97256">
        <ele>942.5</ele>
        <time>2019-07-30T07:21:45Z</time>
      </trkpt>
      <trkpt lat="46.49309" lon="5.9725">
        <ele>941.9</ele>
        <time>2019-07-30T07:21:50Z</time>
      </trkpt>
      <trkpt lat="46.49306" lon="5.97245">
        <ele>941.4</ele>
        <time>2019-07-30T07:21:55Z</time>
      </trkpt>
      <trkpt lat="46.49303" lon="5.97239">
        <ele>941.4</ele>
        <time>2019-07-30T07:22:00Z</time>
      </trkpt>
      <trkpt lat="46.49299" lon="5.97235">
        <ele>941.3</ele>
        <time>2019-07-30T07:22:03Z</time>
      </trkpt>
      <trkpt lat="46.49294" lon="5.97232">
        <ele>941</ele>
        <time>2019-07-30T07:22:09Z</time>
      </trkpt>
      <trkpt lat="46.49293" lon="5.97225">
        <ele>940.9</ele>
        <time>2019-07-30T07:22:14Z</time>
      </trkpt>
      <trkpt lat="46.49291" lon="5.97219">
        <ele>940.6</ele>
        <time>2019-07-30T07:22:20Z</time>
      </trkpt>
      <trkpt lat="46.4929" lon="5.97212">
        <ele>940</ele>
        <time>2019-07-30T07:22:27Z</time>
      </trkpt>
      <trkpt lat="46.49289" lon="5.97205">
        <ele>939.3</ele>
        <time>2019-07-30T07:22:33Z</time>
      </trkpt>
      <trkpt lat="46.49288" lon="5.97198">
        <ele>938.1</ele>
        <time>2019-07-30T07:22:39Z</time>
      </trkpt>
      <trkpt lat="46.49287" lon="5.97191">
        <ele>937.1</ele>
        <time>2019-07-30T07:22:44Z</time>
      </trkpt>
      <trkpt lat="46.49287" lon="5.97183">
        <ele>936.4</ele>
        <time>2019-07-30T07:22:47Z</time>
      </trkpt>
      <trkpt lat="46.49286" lon="5.97176">
        <ele>935.1</ele>
        <time>2019-07-30T07:22:52Z</time>
      </trkpt>
      <trkpt lat="46.49286" lon="5.97169">
        <ele>934</ele>
        <time>2019-07-30T07:22:56Z</time>
      </trkpt>
      <trkpt lat="46.49284" lon="5.97163">
        <ele>932.7</ele>
        <time>2019-07-30T07:23:01Z</time>
      </trkpt>
      <trkpt lat="46.49282" lon="5.97157">
        <ele>931.8</ele>
        <time>2019-07-30T07:23:06Z</time>
      </trkpt>
      <trkpt lat="46.49279" lon="5.9715">
        <ele>931.1</ele>
        <time>2019-07-30T07:23:11Z</time>
      </trkpt>
      <trkpt lat="46.49277" lon="5.97144">
        <ele>930.3</ele>
        <time>2019-07-30T07:23:16Z</time>
      </trkpt>
      <trkpt lat="46.49276" lon="5.97136">
        <ele>929.4</ele>
        <time>2019-07-30T07:23:21Z</time>
      </trkpt>
      <trkpt lat="46.49276" lon="5.97129">
        <ele>928.8</ele>
        <time>2019-07-30T07:23:25Z</time>
      </trkpt>
      <trkpt lat="46.49277" lon="5.97122">
        <ele>928.4</ele>
        <time>2019-07-30T07:23:29Z</time>
      </trkpt>
      <trkpt lat="46.49278" lon="5.97115">
        <ele>928.1</ele>
        <time>2019-07-30T07:23:35Z</time>
      </trkpt>
      <trkpt lat="46.4928" lon="5.97108">
        <ele>927.8</ele>
        <time>2019-07-30T07:23:40Z</time>
      </trkpt>
      <trkpt lat="46.49281" lon="5.971">
        <ele>927.1</ele>
        <time>2019-07-30T07:23:47Z</time>
      </trkpt>
      <trkpt lat="46.49279" lon="5.97094">
        <ele>926.3</ele>
        <time>2019-07-30T07:23:53Z</time>
      </trkpt>
      <trkpt lat="46.49275" lon="5.97089">
        <ele>925.6</ele>
        <time>2019-07-30T07:23:58Z</time>
      </trkpt>
      <trkpt lat="46.49271" lon="5.97086">
        <ele>925</ele>
        <time>2019-07-30T07:24:02Z</time>
      </trkpt>
      <trkpt lat="46.49266" lon="5.97084">
        <ele>924.5</ele>
        <time>2019-07-30T07:24:07Z</time>
      </trkpt>
      <trkpt lat="46.49261" lon="5.97085">
        <ele>924.3</ele>
        <time>2019-07-30T07:24:14Z</time>
      </trkpt>
      <trkpt lat="46.49256" lon="5.97083">
        <ele>923.9</ele>
        <time>2019-07-30T07:24:20Z</time>
      </trkpt>
      <trkpt lat="46.49251" lon="5.97081">
        <ele>923.2</ele>
        <time>2019-07-30T07:24:25Z</time>
      </trkpt>
      <trkpt lat="46.49246" lon="5.9708">
        <ele>922.5</ele>
        <time>2019-07-30T07:24:30Z</time>
      </trkpt>
      <trkpt lat="46.49242" lon="5.97079">
        <ele>921.7</ele>
        <time>2019-07-30T07:24:35Z</time>
      </trkpt>
      <trkpt lat="46.49237" lon="5.97076">
        <ele>921</ele>
        <time>2019-07-30T07:24:41Z</time>
      </trkpt>
      <trkpt lat="46.49232" lon="5.97073">
        <ele>920.6</ele>
        <time>2019-07-30T07:24:46Z</time>
      </trkpt>
      <trkpt lat="46.49228" lon="5.97071">
        <ele>920</ele>
        <time>2019-07-30T07:24:53Z</time>
      </trkpt>
      <trkpt lat="46.49224" lon="5.97067">
        <ele>919.7</ele>
        <time>2019-07-30T07:24:58Z</time>
      </trkpt>
      <trkpt lat="46.4922" lon="5.97064">
        <ele>919.5</ele>
        <time>2019-07-30T07:25:01Z</time>
      </trkpt>
      <trkpt lat="46.49215" lon="5.97061">
        <ele>919.1</ele>
        <time>2019-07-30T07:25:05Z</time>
      </trkpt>
      <trkpt lat="46.49211" lon="5.97055">
        <ele>918.8</ele>
        <time>2019-07-30T07:25:10Z</time>
      </trkpt>
      <trkpt lat="46.49207" lon="5.97051">
        <ele>919</ele>
        <time>2019-07-30T07:25:16Z</time>
      </trkpt>
      <trkpt lat="46.49204" lon="5.97046">
        <ele>920.7</ele>
        <time>2019-07-30T07:25:25Z</time>
      </trkpt>
      <trkpt lat="46.49201" lon="5.97039">
        <ele>921.4</ele>
        <time>2019-07-30T07:25:29Z</time>
      </trkpt>
      <trkpt lat="46.49198" lon="5.97034">
        <ele>921.9</ele>
        <time>2019-07-30T07:25:32Z</time>
      </trkpt>
      <trkpt lat="46.49194" lon="5.9703">
        <ele>922.4</ele>
        <time>2019-07-30T07:25:36Z</time>
      </trkpt>
      <trkpt lat="46.49191" lon="5.97025">
        <ele>922.9</ele>
        <time>2019-07-30T07:25:41Z</time>
      </trkpt>
      <trkpt lat="46.49188" lon="5.9702">
        <ele>924.3</ele>
        <time>2019-07-30T07:25:54Z</time>
      </trkpt>
      <trkpt lat="46.49183" lon="5.97018">
        <ele>925.6</ele>
        <time>2019-07-30T07:26:06Z</time>
      </trkpt>
      <trkpt lat="46.49179" lon="5.97014">
        <ele>925.9</ele>
        <time>2019-07-30T07:26:14Z</time>
      </trkpt>
      <trkpt lat="46.49175" lon="5.97009">
        <ele>926.1</ele>
        <time>2019-07-30T07:26:17Z</time>
      </trkpt>
      <trkpt lat="46.49172" lon="5.97004">
        <ele>926.4</ele>
        <time>2019-07-30T07:26:22Z</time>
      </trkpt>
      <trkpt lat="46.49168" lon="5.96998">
        <ele>926.8</ele>
        <time>2019-07-30T07:26:28Z</time>
      </trkpt>
      <trkpt lat="46.49164" lon="5.96995">
        <ele>927.3</ele>
        <time>2019-07-30T07:26:34Z</time>
      </trkpt>
      <trkpt lat="46.4916" lon="5.9699">
        <ele>928</ele>
        <time>2019-07-30T07:26:41Z</time>
      </trkpt>
      <trkpt lat="46.49155" lon="5.96988">
        <ele>928.2</ele>
        <time>2019-07-30T07:26:45Z</time>
      </trkpt>
      <trkpt lat="46.49142" lon="5.96973">
        <ele>933</ele>
        <time>2019-07-30T07:27:13Z</time>
      </trkpt>
      <trkpt lat="46.49138" lon="5.96962">
        <ele>937</ele>
        <time>2019-07-30T07:28:12Z</time>
      </trkpt>
      <trkpt lat="46.49135" lon="5.96953">
        <ele>937.2</ele>
        <time>2019-07-30T07:28:15Z</time>
      </trkpt>
      <trkpt lat="46.49131" lon="5.96944">
        <ele>937.5</ele>
        <time>2019-07-30T07:28:19Z</time>
      </trkpt>
      <trkpt lat="46.49128" lon="5.96936">
        <ele>937.6</ele>
        <time>2019-07-30T07:28:21Z</time>
      </trkpt>
      <trkpt lat="46.49124" lon="5.9693">
        <ele>938</ele>
        <time>2019-07-30T07:28:24Z</time>
      </trkpt>
      <trkpt lat="46.4912" lon="5.96926">
        <ele>938.7</ele>
        <time>2019-07-30T07:28:29Z</time>
      </trkpt>
      <trkpt lat="46.49116" lon="5.96923">
        <ele>939.8</ele>
        <time>2019-07-30T07:28:35Z</time>
      </trkpt>
      <trkpt lat="46.49111" lon="5.96918">
        <ele>940.3</ele>
        <time>2019-07-30T07:28:39Z</time>
      </trkpt>
      <trkpt lat="46.49107" lon="5.96912">
        <ele>941.2</ele>
        <time>2019-07-30T07:28:44Z</time>
      </trkpt>
      <trkpt lat="46.49103" lon="5.96907">
        <ele>943</ele>
        <time>2019-07-30T07:28:51Z</time>
      </trkpt>
      <trkpt lat="46.49099" lon="5.96906">
        <ele>943.8</ele>
        <time>2019-07-30T07:28:56Z</time>
      </trkpt>
      <trkpt lat="46.49094" lon="5.96903">
        <ele>944.5</ele>
        <time>2019-07-30T07:29:03Z</time>
      </trkpt>
      <trkpt lat="46.4909" lon="5.969">
        <ele>945</ele>
        <time>2019-07-30T07:29:08Z</time>
      </trkpt>
      <trkpt lat="46.49085" lon="5.96897">
        <ele>946.1</ele>
        <time>2019-07-30T07:29:15Z</time>
      </trkpt>
      <trkpt lat="46.4908" lon="5.96892">
        <ele>946.6</ele>
        <time>2019-07-30T07:29:18Z</time>
      </trkpt>
      <trkpt lat="46.49077" lon="5.96888">
        <ele>947</ele>
        <time>2019-07-30T07:29:21Z</time>
      </trkpt>
      <trkpt lat="46.49074" lon="5.96883">
        <ele>947.3</ele>
        <time>2019-07-30T07:29:25Z</time>
      </trkpt>
      <trkpt lat="46.49072" lon="5.96877">
        <ele>947.6</ele>
        <time>2019-07-30T07:29:29Z</time>
      </trkpt>
      <trkpt lat="46.49068" lon="5.96871">
        <ele>948.7</ele>
        <time>2019-07-30T07:29:39Z</time>
      </trkpt>
      <trkpt lat="46.49066" lon="5.96865">
        <ele>950.7</ele>
        <time>2019-07-30T07:29:48Z</time>
      </trkpt>
      <trkpt lat="46.49064" lon="5.96857">
        <ele>952</ele>
        <time>2019-07-30T07:29:53Z</time>
      </trkpt>
      <trkpt lat="46.49063" lon="5.9685">
        <ele>953.6</ele>
        <time>2019-07-30T07:29:59Z</time>
      </trkpt>
      <trkpt lat="46.4906" lon="5.96843">
        <ele>954.6</ele>
        <time>2019-07-30T07:30:04Z</time>
      </trkpt>
      <trkpt lat="46.49057" lon="5.96836">
        <ele>955.3</ele>
        <time>2019-07-30T07:30:08Z</time>
      </trkpt>
      <trkpt lat="46.49054" lon="5.96831">
        <ele>956.1</ele>
        <time>2019-07-30T07:30:13Z</time>
      </trkpt>
      <trkpt lat="46.49051" lon="5.96826">
        <ele>957</ele>
        <time>2019-07-30T07:30:18Z</time>
      </trkpt>
      <trkpt lat="46.49048" lon="5.9682">
        <ele>958.5</ele>
        <time>2019-07-30T07:30:24Z</time>
      </trkpt>
      <trkpt lat="46.49042" lon="5.96801">
        <ele>961.8</ele>
        <time>2019-07-30T07:30:41Z</time>
      </trkpt>
      <trkpt lat="46.49039" lon="5.96795">
        <ele>962</ele>
        <time>2019-07-30T07:30:48Z</time>
      </trkpt>
      <trkpt lat="46.49035" lon="5.9679">
        <ele>962.5</ele>
        <time>2019-07-30T07:30:53Z</time>
      </trkpt>
      <trkpt lat="46.49032" lon="5.96783">
        <ele>962.9</ele>
        <time>2019-07-30T07:30:56Z</time>
      </trkpt>
      <trkpt lat="46.4903" lon="5.96777">
        <ele>963.4</ele>
        <time>2019-07-30T07:30:59Z</time>
      </trkpt>
      <trkpt lat="46.49028" lon="5.96771">
        <ele>964.2</ele>
        <time>2019-07-30T07:31:04Z</time>
      </trkpt>
      <trkpt lat="46.49026" lon="5.96765">
        <ele>964.5</ele>
        <time>2019-07-30T07:31:08Z</time>
      </trkpt>
      <trkpt lat="46.49023" lon="5.9676">
        <ele>964.9</ele>
        <time>2019-07-30T07:31:14Z</time>
      </trkpt>
      <trkpt lat="46.49019" lon="5.96755">
        <ele>965.1</ele>
        <time>2019-07-30T07:31:18Z</time>
      </trkpt>
      <trkpt lat="46.49015" lon="5.96751">
        <ele>965.2</ele>
        <time>2019-07-30T07:31:21Z</time>
      </trkpt>
      <trkpt lat="46.49012" lon="5.96747">
        <ele>965.2</ele>
        <time>2019-07-30T07:31:25Z</time>
      </trkpt>
      <trkpt lat="46.49008" lon="5.96743">
        <ele>965.3</ele>
        <time>2019-07-30T07:31:31Z</time>
      </trkpt>
      <trkpt lat="46.49004" lon="5.96739">
        <ele>965.4</ele>
        <time>2019-07-30T07:31:37Z</time>
      </trkpt>
      <trkpt lat="46.49" lon="5.96736">
        <ele>965.8</ele>
        <time>2019-07-30T07:31:47Z</time>
      </trkpt>
      <trkpt lat="46.48995" lon="5.96733">
        <ele>966.4</ele>
        <time>2019-07-30T07:31:54Z</time>
      </trkpt>
      <trkpt lat="46.4899" lon="5.96732">
        <ele>966.7</ele>
        <time>2019-07-30T07:32:04Z</time>
      </trkpt>
      <trkpt lat="46.48985" lon="5.96729">
        <ele>966.9</ele>
        <time>2019-07-30T07:32:11Z</time>
      </trkpt>
      <trkpt lat="46.48981" lon="5.96727">
        <ele>967.6</ele>
        <time>2019-07-30T07:32:18Z</time>
      </trkpt>
      <trkpt lat="46.48976" lon="5.9672">
        <ele>968</ele>
        <time>2019-07-30T07:32:22Z</time>
      </trkpt>
      <trkpt lat="46.48971" lon="5.96713">
        <ele>968.4</ele>
        <time>2019-07-30T07:32:26Z</time>
      </trkpt>
      <trkpt lat="46.48967" lon="5.96709">
        <ele>968.7</ele>
        <time>2019-07-30T07:32:28Z</time>
      </trkpt>
      <trkpt lat="46.48963" lon="5.96704">
        <ele>969.4</ele>
        <time>2019-07-30T07:32:32Z</time>
      </trkpt>
      <trkpt lat="46.48959" lon="5.967">
        <ele>971</ele>
        <time>2019-07-30T07:32:39Z</time>
      </trkpt>
      <trkpt lat="46.48955" lon="5.96697">
        <ele>972.5</ele>
        <time>2019-07-30T07:32:46Z</time>
      </trkpt>
      <trkpt lat="46.48951" lon="5.9669">
        <ele>973.8</ele>
        <time>2019-07-30T07:32:55Z</time>
      </trkpt>
      <trkpt lat="46.48949" lon="5.96684">
        <ele>974.2</ele>
        <time>2019-07-30T07:32:59Z</time>
      </trkpt>
      <trkpt lat="46.48945" lon="5.96679">
        <ele>974.4</ele>
        <time>2019-07-30T07:33:06Z</time>
      </trkpt>
      <trkpt lat="46.48942" lon="5.96674">
        <ele>974.1</ele>
        <time>2019-07-30T07:33:13Z</time>
      </trkpt>
      <trkpt lat="46.48936" lon="5.96659">
        <ele>973.5</ele>
        <time>2019-07-30T07:33:23Z</time>
      </trkpt>
      <trkpt lat="46.48933" lon="5.96654">
        <ele>973.6</ele>
        <time>2019-07-30T07:33:26Z</time>
      </trkpt>
      <trkpt lat="46.48929" lon="5.96648">
        <ele>973.6</ele>
        <time>2019-07-30T07:33:28Z</time>
      </trkpt>
      <trkpt lat="46.48918" lon="5.96636">
        <ele>974.2</ele>
        <time>2019-07-30T07:33:38Z</time>
      </trkpt>
      <trkpt lat="46.48915" lon="5.96631">
        <ele>974.5</ele>
        <time>2019-07-30T07:33:43Z</time>
      </trkpt>
      <trkpt lat="46.48913" lon="5.96625">
        <ele>974.4</ele>
        <time>2019-07-30T07:33:54Z</time>
      </trkpt>
      <trkpt lat="46.48911" lon="5.96619">
        <ele>974.5</ele>
        <time>2019-07-30T07:34:00Z</time>
      </trkpt>
      <trkpt lat="46.48908" lon="5.96612">
        <ele>974.5</ele>
        <time>2019-07-30T07:34:02Z</time>
      </trkpt>
      <trkpt lat="46.48906" lon="5.96606">
        <ele>974.7</ele>
        <time>2019-07-30T07:34:09Z</time>
      </trkpt>
      <trkpt lat="46.48903" lon="5.96599">
        <ele>974.7</ele>
        <time>2019-07-30T07:34:15Z</time>
      </trkpt>
      <trkpt lat="46.48901" lon="5.96594">
        <ele>974.7</ele>
        <time>2019-07-30T07:34:19Z</time>
      </trkpt>
      <trkpt lat="46.48898" lon="5.96589">
        <ele>974.5</ele>
        <time>2019-07-30T07:34:26Z</time>
      </trkpt>
      <trkpt lat="46.48894" lon="5.96585">
        <ele>974.1</ele>
        <time>2019-07-30T07:34:34Z</time>
      </trkpt>
      <trkpt lat="46.48884" lon="5.96568">
        <ele>981.6</ele>
        <time>2019-07-30T07:36:35Z</time>
      </trkpt>
      <trkpt lat="46.48878" lon="5.96552">
        <ele>978.5</ele>
        <time>2019-07-30T07:36:50Z</time>
      </trkpt>
      <trkpt lat="46.48876" lon="5.96546">
        <ele>977</ele>
        <time>2019-07-30T07:36:59Z</time>
      </trkpt>
      <trkpt lat="46.48874" lon="5.96538">
        <ele>975.7</ele>
        <time>2019-07-30T07:37:06Z</time>
      </trkpt>
      <trkpt lat="46.48873" lon="5.96532">
        <ele>974.7</ele>
        <time>2019-07-30T07:37:12Z</time>
      </trkpt>
      <trkpt lat="46.4887" lon="5.96526">
        <ele>973.9</ele>
        <time>2019-07-30T07:37:16Z</time>
      </trkpt>
      <trkpt lat="46.48868" lon="5.96519">
        <ele>972.9</ele>
        <time>2019-07-30T07:37:23Z</time>
      </trkpt>
      <trkpt lat="46.48864" lon="5.96514">
        <ele>972.4</ele>
        <time>2019-07-30T07:37:28Z</time>
      </trkpt>
      <trkpt lat="46.48861" lon="5.96509">
        <ele>971.4</ele>
        <time>2019-07-30T07:37:37Z</time>
      </trkpt>
      <trkpt lat="46.48859" lon="5.96502">
        <ele>970.3</ele>
        <time>2019-07-30T07:37:44Z</time>
      </trkpt>
      <trkpt lat="46.48859" lon="5.96494">
        <ele>969.9</ele>
        <time>2019-07-30T07:37:47Z</time>
      </trkpt>
      <trkpt lat="46.48857" lon="5.96487">
        <ele>969.4</ele>
        <time>2019-07-30T07:37:50Z</time>
      </trkpt>
      <trkpt lat="46.48853" lon="5.96479">
        <ele>969.1</ele>
        <time>2019-07-30T07:37:53Z</time>
      </trkpt>
      <trkpt lat="46.48849" lon="5.96475">
        <ele>968.6</ele>
        <time>2019-07-30T07:37:57Z</time>
      </trkpt>
      <trkpt lat="46.48845" lon="5.9647">
        <ele>968.3</ele>
        <time>2019-07-30T07:38:03Z</time>
      </trkpt>
      <trkpt lat="46.48842" lon="5.96466">
        <ele>968.3</ele>
        <time>2019-07-30T07:38:08Z</time>
      </trkpt>
      <trkpt lat="46.4884" lon="5.96458">
        <ele>968.4</ele>
        <time>2019-07-30T07:38:14Z</time>
      </trkpt>
      <trkpt lat="46.48837" lon="5.96444">
        <ele>968.6</ele>
        <time>2019-07-30T07:38:23Z</time>
      </trkpt>
      <trkpt lat="46.48835" lon="5.96437">
        <ele>968.5</ele>
        <time>2019-07-30T07:38:26Z</time>
      </trkpt>
      <trkpt lat="46.48834" lon="5.9643">
        <ele>967.9</ele>
        <time>2019-07-30T07:38:33Z</time>
      </trkpt>
      <trkpt lat="46.48832" lon="5.96423">
        <ele>967.1</ele>
        <time>2019-07-30T07:38:38Z</time>
      </trkpt>
      <trkpt lat="46.48831" lon="5.96416">
        <ele>966.3</ele>
        <time>2019-07-30T07:38:44Z</time>
      </trkpt>
      <trkpt lat="46.4883" lon="5.96407">
        <ele>965.7</ele>
        <time>2019-07-30T07:38:56Z</time>
      </trkpt>
      <trkpt lat="46.48831" lon="5.96397">
        <ele>965.5</ele>
        <time>2019-07-30T07:39:00Z</time>
      </trkpt>
      <trkpt lat="46.48831" lon="5.96391">
        <ele>965.4</ele>
        <time>2019-07-30T07:39:02Z</time>
      </trkpt>
      <trkpt lat="46.48831" lon="5.96384">
        <ele>964.8</ele>
        <time>2019-07-30T07:39:06Z</time>
      </trkpt>
      <trkpt lat="46.48827" lon="5.96378">
        <ele>963.1</ele>
        <time>2019-07-30T07:39:18Z</time>
      </trkpt>
      <trkpt lat="46.48824" lon="5.96371">
        <ele>961.7</ele>
        <time>2019-07-30T07:39:25Z</time>
      </trkpt>
      <trkpt lat="46.4882" lon="5.96366">
        <ele>961.4</ele>
        <time>2019-07-30T07:39:27Z</time>
      </trkpt>
      <trkpt lat="46.48815" lon="5.96361">
        <ele>961</ele>
        <time>2019-07-30T07:39:30Z</time>
      </trkpt>
      <trkpt lat="46.48811" lon="5.96358">
        <ele>960.1</ele>
        <time>2019-07-30T07:39:37Z</time>
      </trkpt>
      <trkpt lat="46.48807" lon="5.96353">
        <ele>959.6</ele>
        <time>2019-07-30T07:39:44Z</time>
      </trkpt>
      <trkpt lat="46.48812" lon="5.96355">
        <ele>959.8</ele>
        <time>2019-07-30T07:40:10Z</time>
      </trkpt>
      <trkpt lat="46.4881" lon="5.96369">
        <ele>959.6</ele>
        <time>2019-07-30T07:40:17Z</time>
      </trkpt>
      <trkpt lat="46.4881" lon="5.96387">
        <ele>957.9</ele>
        <time>2019-07-30T07:40:27Z</time>
      </trkpt>
      <trkpt lat="46.48808" lon="5.96394">
        <ele>956.9</ele>
        <time>2019-07-30T07:40:36Z</time>
      </trkpt>
      <trkpt lat="46.48806" lon="5.96401">
        <ele>956.2</ele>
        <time>2019-07-30T07:40:42Z</time>
      </trkpt>
      <trkpt lat="46.48802" lon="5.96405">
        <ele>955.2</ele>
        <time>2019-07-30T07:40:52Z</time>
      </trkpt>
      <trkpt lat="46.48799" lon="5.96412">
        <ele>954.9</ele>
        <time>2019-07-30T07:40:57Z</time>
      </trkpt>
      <trkpt lat="46.48796" lon="5.96416">
        <ele>954.8</ele>
        <time>2019-07-30T07:41:02Z</time>
      </trkpt>
      <trkpt lat="46.48791" lon="5.96418">
        <ele>955.1</ele>
        <time>2019-07-30T07:41:08Z</time>
      </trkpt>
      <trkpt lat="46.48786" lon="5.96418">
        <ele>955.7</ele>
        <time>2019-07-30T07:41:15Z</time>
      </trkpt>
      <trkpt lat="46.48783" lon="5.96412">
        <ele>957.7</ele>
        <time>2019-07-30T07:41:32Z</time>
      </trkpt>
      <trkpt lat="46.4878" lon="5.96407">
        <ele>958.8</ele>
        <time>2019-07-30T07:41:37Z</time>
      </trkpt>
      <trkpt lat="46.48776" lon="5.96402">
        <ele>961.2</ele>
        <time>2019-07-30T07:41:46Z</time>
      </trkpt>
      <trkpt lat="46.48772" lon="5.96395">
        <ele>963.4</ele>
        <time>2019-07-30T07:41:53Z</time>
      </trkpt>
      <trkpt lat="46.48766" lon="5.9639">
        <ele>966.4</ele>
        <time>2019-07-30T07:42:10Z</time>
      </trkpt>
      <trkpt lat="46.48762" lon="5.96386">
        <ele>966.9</ele>
        <time>2019-07-30T07:42:16Z</time>
      </trkpt>
      <trkpt lat="46.4876" lon="5.96379">
        <ele>967.4</ele>
        <time>2019-07-30T07:42:20Z</time>
      </trkpt>
      <trkpt lat="46.48759" lon="5.96371">
        <ele>968</ele>
        <time>2019-07-30T07:42:24Z</time>
      </trkpt>
      <trkpt lat="46.48757" lon="5.96364">
        <ele>968.9</ele>
        <time>2019-07-30T07:42:37Z</time>
      </trkpt>
      <trkpt lat="46.48755" lon="5.96358">
        <ele>969.3</ele>
        <time>2019-07-30T07:42:42Z</time>
      </trkpt>
      <trkpt lat="46.48751" lon="5.96348">
        <ele>970.4</ele>
        <time>2019-07-30T07:42:55Z</time>
      </trkpt>
      <trkpt lat="46.48748" lon="5.96343">
        <ele>970.3</ele>
        <time>2019-07-30T07:42:59Z</time>
      </trkpt>
      <trkpt lat="46.48744" lon="5.96338">
        <ele>970.2</ele>
        <time>2019-07-30T07:43:02Z</time>
      </trkpt>
      <trkpt lat="46.4874" lon="5.96333">
        <ele>970</ele>
        <time>2019-07-30T07:43:10Z</time>
      </trkpt>
      <trkpt lat="46.48737" lon="5.96326">
        <ele>969.8</ele>
        <time>2019-07-30T07:43:12Z</time>
      </trkpt>
      <trkpt lat="46.48732" lon="5.9631">
        <ele>969.5</ele>
        <time>2019-07-30T07:43:21Z</time>
      </trkpt>
      <trkpt lat="46.48731" lon="5.96301">
        <ele>969.2</ele>
        <time>2019-07-30T07:43:26Z</time>
      </trkpt>
      <trkpt lat="46.48728" lon="5.96295">
        <ele>969</ele>
        <time>2019-07-30T07:43:28Z</time>
      </trkpt>
      <trkpt lat="46.48725" lon="5.96289">
        <ele>968.5</ele>
        <time>2019-07-30T07:43:31Z</time>
      </trkpt>
      <trkpt lat="46.48721" lon="5.96283">
        <ele>968.1</ele>
        <time>2019-07-30T07:43:34Z</time>
      </trkpt>
      <trkpt lat="46.48719" lon="5.96277">
        <ele>967.5</ele>
        <time>2019-07-30T07:43:38Z</time>
      </trkpt>
      <trkpt lat="46.48715" lon="5.96271">
        <ele>966.4</ele>
        <time>2019-07-30T07:43:44Z</time>
      </trkpt>
      <trkpt lat="46.48712" lon="5.96265">
        <ele>965.7</ele>
        <time>2019-07-30T07:43:48Z</time>
      </trkpt>
      <trkpt lat="46.48709" lon="5.9626">
        <ele>965.2</ele>
        <time>2019-07-30T07:43:54Z</time>
      </trkpt>
      <trkpt lat="46.48701" lon="5.96246">
        <ele>961</ele>
        <time>2019-07-30T07:45:04Z</time>
      </trkpt>
      <trkpt lat="46.48699" lon="5.96239">
        <ele>960.4</ele>
        <time>2019-07-30T07:45:13Z</time>
      </trkpt>
      <trkpt lat="46.48695" lon="5.96234">
        <ele>960.2</ele>
        <time>2019-07-30T07:45:15Z</time>
      </trkpt>
      <trkpt lat="46.48692" lon="5.96229">
        <ele>960.1</ele>
        <time>2019-07-30T07:45:17Z</time>
      </trkpt>
      <trkpt lat="46.48689" lon="5.96224">
        <ele>960</ele>
        <time>2019-07-30T07:45:21Z</time>
      </trkpt>
      <trkpt lat="46.48685" lon="5.9622">
        <ele>960</ele>
        <time>2019-07-30T07:45:24Z</time>
      </trkpt>
      <trkpt lat="46.48674" lon="5.9621">
        <ele>960</ele>
        <time>2019-07-30T07:45:41Z</time>
      </trkpt>
      <trkpt lat="46.4867" lon="5.96207">
        <ele>959.6</ele>
        <time>2019-07-30T07:45:47Z</time>
      </trkpt>
      <trkpt lat="46.48666" lon="5.96204">
        <ele>959.4</ele>
        <time>2019-07-30T07:45:52Z</time>
      </trkpt>
      <trkpt lat="46.48661" lon="5.96197">
        <ele>959.2</ele>
        <time>2019-07-30T07:45:57Z</time>
      </trkpt>
      <trkpt lat="46.48658" lon="5.96193">
        <ele>958.2</ele>
        <time>2019-07-30T07:46:07Z</time>
      </trkpt>
      <trkpt lat="46.48653" lon="5.96191">
        <ele>957.8</ele>
        <time>2019-07-30T07:46:16Z</time>
      </trkpt>
      <trkpt lat="46.4865" lon="5.96187">
        <ele>957.6</ele>
        <time>2019-07-30T07:46:28Z</time>
      </trkpt>
      <trkpt lat="46.48645" lon="5.96183">
        <ele>957</ele>
        <time>2019-07-30T07:46:34Z</time>
      </trkpt>
      <trkpt lat="46.48641" lon="5.96178">
        <ele>956.8</ele>
        <time>2019-07-30T07:46:37Z</time>
      </trkpt>
      <trkpt lat="46.48638" lon="5.96173">
        <ele>956.9</ele>
        <time>2019-07-30T07:46:48Z</time>
      </trkpt>
      <trkpt lat="46.48634" lon="5.9617">
        <ele>957.2</ele>
        <time>2019-07-30T07:46:53Z</time>
      </trkpt>
      <trkpt lat="46.48631" lon="5.96165">
        <ele>958.2</ele>
        <time>2019-07-30T07:47:03Z</time>
      </trkpt>
      <trkpt lat="46.48627" lon="5.96161">
        <ele>958.6</ele>
        <time>2019-07-30T07:47:08Z</time>
      </trkpt>
      <trkpt lat="46.48621" lon="5.96158">
        <ele>959</ele>
        <time>2019-07-30T07:47:12Z</time>
      </trkpt>
      <trkpt lat="46.48617" lon="5.96155">
        <ele>959.2</ele>
        <time>2019-07-30T07:47:14Z</time>
      </trkpt>
      <trkpt lat="46.48611" lon="5.96152">
        <ele>959.6</ele>
        <time>2019-07-30T07:47:17Z</time>
      </trkpt>
      <trkpt lat="46.48606" lon="5.9615">
        <ele>960</ele>
        <time>2019-07-30T07:47:21Z</time>
      </trkpt>
      <trkpt lat="46.48601" lon="5.96151">
        <ele>960.5</ele>
        <time>2019-07-30T07:47:27Z</time>
      </trkpt>
      <trkpt lat="46.48597" lon="5.96152">
        <ele>961.2</ele>
        <time>2019-07-30T07:47:33Z</time>
      </trkpt>
      <trkpt lat="46.48592" lon="5.96153">
        <ele>961.7</ele>
        <time>2019-07-30T07:47:37Z</time>
      </trkpt>
      <trkpt lat="46.48588" lon="5.9615">
        <ele>962.3</ele>
        <time>2019-07-30T07:47:41Z</time>
      </trkpt>
      <trkpt lat="46.48584" lon="5.96146">
        <ele>962.9</ele>
        <time>2019-07-30T07:47:45Z</time>
      </trkpt>
      <trkpt lat="46.48579" lon="5.96143">
        <ele>963.2</ele>
        <time>2019-07-30T07:47:48Z</time>
      </trkpt>
      <trkpt lat="46.48575" lon="5.96139">
        <ele>963.6</ele>
        <time>2019-07-30T07:47:52Z</time>
      </trkpt>
      <trkpt lat="46.48572" lon="5.96135">
        <ele>964</ele>
        <time>2019-07-30T07:47:59Z</time>
      </trkpt>
      <trkpt lat="46.48567" lon="5.96134">
        <ele>964.5</ele>
        <time>2019-07-30T07:48:05Z</time>
      </trkpt>
      <trkpt lat="46.48563" lon="5.96134">
        <ele>965.1</ele>
        <time>2019-07-30T07:48:12Z</time>
      </trkpt>
      <trkpt lat="46.48557" lon="5.96135">
        <ele>965.6</ele>
        <time>2019-07-30T07:48:20Z</time>
      </trkpt>
      <trkpt lat="46.48552" lon="5.96137">
        <ele>965.8</ele>
        <time>2019-07-30T07:48:24Z</time>
      </trkpt>
      <trkpt lat="46.48547" lon="5.96136">
        <ele>965.9</ele>
        <time>2019-07-30T07:48:30Z</time>
      </trkpt>
      <trkpt lat="46.48543" lon="5.96132">
        <ele>965.8</ele>
        <time>2019-07-30T07:48:37Z</time>
      </trkpt>
      <trkpt lat="46.48538" lon="5.96129">
        <ele>965.6</ele>
        <time>2019-07-30T07:48:42Z</time>
      </trkpt>
      <trkpt lat="46.48536" lon="5.96123">
        <ele>965.5</ele>
        <time>2019-07-30T07:48:48Z</time>
      </trkpt>
      <trkpt lat="46.48534" lon="5.96117">
        <ele>965.5</ele>
        <time>2019-07-30T07:48:53Z</time>
      </trkpt>
      <trkpt lat="46.48531" lon="5.96111">
        <ele>965.6</ele>
        <time>2019-07-30T07:48:59Z</time>
      </trkpt>
      <trkpt lat="46.48528" lon="5.96105">
        <ele>965.5</ele>
        <time>2019-07-30T07:49:04Z</time>
      </trkpt>
      <trkpt lat="46.48523" lon="5.96102">
        <ele>965.4</ele>
        <time>2019-07-30T07:49:11Z</time>
      </trkpt>
      <trkpt lat="46.48519" lon="5.96098">
        <ele>965.3</ele>
        <time>2019-07-30T07:49:14Z</time>
      </trkpt>
      <trkpt lat="46.48516" lon="5.96092">
        <ele>965.3</ele>
        <time>2019-07-30T07:49:19Z</time>
      </trkpt>
      <trkpt lat="46.48513" lon="5.96086">
        <ele>965.5</ele>
        <time>2019-07-30T07:49:24Z</time>
      </trkpt>
      <trkpt lat="46.4851" lon="5.96079">
        <ele>965.4</ele>
        <time>2019-07-30T07:49:30Z</time>
      </trkpt>
      <trkpt lat="46.48507" lon="5.96073">
        <ele>965.2</ele>
        <time>2019-07-30T07:49:37Z</time>
      </trkpt>
      <trkpt lat="46.48504" lon="5.96068">
        <ele>965.1</ele>
        <time>2019-07-30T07:49:41Z</time>
      </trkpt>
      <trkpt lat="46.48501" lon="5.96063">
        <ele>965.1</ele>
        <time>2019-07-30T07:49:46Z</time>
      </trkpt>
      <trkpt lat="46.48498" lon="5.96057">
        <ele>965.4</ele>
        <time>2019-07-30T07:49:52Z</time>
      </trkpt>
      <trkpt lat="46.48494" lon="5.96052">
        <ele>965.6</ele>
        <time>2019-07-30T07:49:58Z</time>
      </trkpt>
      <trkpt lat="46.48491" lon="5.96047">
        <ele>966</ele>
        <time>2019-07-30T07:50:05Z</time>
      </trkpt>
      <trkpt lat="46.48487" lon="5.96043">
        <ele>966.1</ele>
        <time>2019-07-30T07:50:12Z</time>
      </trkpt>
      <trkpt lat="46.48482" lon="5.96039">
        <ele>966.1</ele>
        <time>2019-07-30T07:50:18Z</time>
      </trkpt>
      <trkpt lat="46.48478" lon="5.96034">
        <ele>966.5</ele>
        <time>2019-07-30T07:50:24Z</time>
      </trkpt>
      <trkpt lat="46.48473" lon="5.96031">
        <ele>966.9</ele>
        <time>2019-07-30T07:50:28Z</time>
      </trkpt>
      <trkpt lat="46.48469" lon="5.96028">
        <ele>967.2</ele>
        <time>2019-07-30T07:50:32Z</time>
      </trkpt>
      <trkpt lat="46.48465" lon="5.96023">
        <ele>967.4</ele>
        <time>2019-07-30T07:50:38Z</time>
      </trkpt>
      <trkpt lat="46.48463" lon="5.96018">
        <ele>967.5</ele>
        <time>2019-07-30T07:50:42Z</time>
      </trkpt>
      <trkpt lat="46.48459" lon="5.96012">
        <ele>967.5</ele>
        <time>2019-07-30T07:50:45Z</time>
      </trkpt>
      <trkpt lat="46.48454" lon="5.96008">
        <ele>967.5</ele>
        <time>2019-07-30T07:50:49Z</time>
      </trkpt>
      <trkpt lat="46.4845" lon="5.96004">
        <ele>967.5</ele>
        <time>2019-07-30T07:50:52Z</time>
      </trkpt>
      <trkpt lat="46.48446" lon="5.95999">
        <ele>967.6</ele>
        <time>2019-07-30T07:50:58Z</time>
      </trkpt>
      <trkpt lat="46.48443" lon="5.95993">
        <ele>967.5</ele>
        <time>2019-07-30T07:51:03Z</time>
      </trkpt>
      <trkpt lat="46.4844" lon="5.95988">
        <ele>967.3</ele>
        <time>2019-07-30T07:51:09Z</time>
      </trkpt>
      <trkpt lat="46.48438" lon="5.9598">
        <ele>966.9</ele>
        <time>2019-07-30T07:51:15Z</time>
      </trkpt>
      <trkpt lat="46.48436" lon="5.95974">
        <ele>966</ele>
        <time>2019-07-30T07:51:21Z</time>
      </trkpt>
      <trkpt lat="46.48431" lon="5.95974">
        <ele>963.7</ele>
        <time>2019-07-30T07:51:34Z</time>
      </trkpt>
      <trkpt lat="46.48429" lon="5.9598">
        <ele>962.9</ele>
        <time>2019-07-30T07:51:41Z</time>
      </trkpt>
      <trkpt lat="46.48432" lon="5.95987">
        <ele>962.2</ele>
        <time>2019-07-30T07:51:49Z</time>
      </trkpt>
      <trkpt lat="46.48434" lon="5.95994">
        <ele>961.9</ele>
        <time>2019-07-30T07:51:53Z</time>
      </trkpt>
      <trkpt lat="46.48434" lon="5.96001">
        <ele>961.4</ele>
        <time>2019-07-30T07:51:58Z</time>
      </trkpt>
      <trkpt lat="46.48432" lon="5.96007">
        <ele>960.6</ele>
        <time>2019-07-30T07:52:04Z</time>
      </trkpt>
      <trkpt lat="46.48426" lon="5.96002">
        <ele>965</ele>
        <time>2019-07-30T07:53:25Z</time>
      </trkpt>
      <trkpt lat="46.48422" lon="5.95998">
        <ele>965.4</ele>
        <time>2019-07-30T07:53:30Z</time>
      </trkpt>
      <trkpt lat="46.48418" lon="5.95995">
        <ele>965.8</ele>
        <time>2019-07-30T07:53:33Z</time>
      </trkpt>
      <trkpt lat="46.48413" lon="5.95993">
        <ele>966.7</ele>
        <time>2019-07-30T07:53:38Z</time>
      </trkpt>
      <trkpt lat="46.48409" lon="5.95989">
        <ele>968</ele>
        <time>2019-07-30T07:53:46Z</time>
      </trkpt>
      <trkpt lat="46.48404" lon="5.95986">
        <ele>968.5</ele>
        <time>2019-07-30T07:53:50Z</time>
      </trkpt>
      <trkpt lat="46.48399" lon="5.95984">
        <ele>969.1</ele>
        <time>2019-07-30T07:53:54Z</time>
      </trkpt>
      <trkpt lat="46.48394" lon="5.9598">
        <ele>970.4</ele>
        <time>2019-07-30T07:54:04Z</time>
      </trkpt>
      <trkpt lat="46.48391" lon="5.95975">
        <ele>970.9</ele>
        <time>2019-07-30T07:54:08Z</time>
      </trkpt>
      <trkpt lat="46.48387" lon="5.95969">
        <ele>971.8</ele>
        <time>2019-07-30T07:54:14Z</time>
      </trkpt>
      <trkpt lat="46.48383" lon="5.95965">
        <ele>974</ele>
        <time>2019-07-30T07:54:23Z</time>
      </trkpt>
      <trkpt lat="46.48378" lon="5.95963">
        <ele>974.8</ele>
        <time>2019-07-30T07:54:28Z</time>
      </trkpt>
      <trkpt lat="46.48373" lon="5.95956">
        <ele>976.3</ele>
        <time>2019-07-30T07:54:40Z</time>
      </trkpt>
      <trkpt lat="46.48368" lon="5.95948">
        <ele>976.9</ele>
        <time>2019-07-30T07:54:44Z</time>
      </trkpt>
      <trkpt lat="46.48365" lon="5.95943">
        <ele>977.3</ele>
        <time>2019-07-30T07:54:47Z</time>
      </trkpt>
      <trkpt lat="46.48362" lon="5.95938">
        <ele>978</ele>
        <time>2019-07-30T07:54:51Z</time>
      </trkpt>
      <trkpt lat="46.48356" lon="5.95936">
        <ele>979.1</ele>
        <time>2019-07-30T07:54:59Z</time>
      </trkpt>
      <trkpt lat="46.48352" lon="5.95932">
        <ele>979.4</ele>
        <time>2019-07-30T07:55:04Z</time>
      </trkpt>
      <trkpt lat="46.48348" lon="5.95928">
        <ele>979.4</ele>
        <time>2019-07-30T07:55:07Z</time>
      </trkpt>
      <trkpt lat="46.48343" lon="5.95924">
        <ele>979.4</ele>
        <time>2019-07-30T07:55:10Z</time>
      </trkpt>
      <trkpt lat="46.48338" lon="5.95918">
        <ele>979.5</ele>
        <time>2019-07-30T07:55:13Z</time>
      </trkpt>
      <trkpt lat="46.48333" lon="5.95914">
        <ele>979.5</ele>
        <time>2019-07-30T07:55:15Z</time>
      </trkpt>
      <trkpt lat="46.48329" lon="5.95911">
        <ele>979.4</ele>
        <time>2019-07-30T07:55:18Z</time>
      </trkpt>
      <trkpt lat="46.48325" lon="5.95909">
        <ele>979</ele>
        <time>2019-07-30T07:55:23Z</time>
      </trkpt>
      <trkpt lat="46.4832" lon="5.95907">
        <ele>978.4</ele>
        <time>2019-07-30T07:55:30Z</time>
      </trkpt>
      <trkpt lat="46.48315" lon="5.95903">
        <ele>978.2</ele>
        <time>2019-07-30T07:55:36Z</time>
      </trkpt>
      <trkpt lat="46.4831" lon="5.95904">
        <ele>978.3</ele>
        <time>2019-07-30T07:55:40Z</time>
      </trkpt>
      <trkpt lat="46.48305" lon="5.95902">
        <ele>978.8</ele>
        <time>2019-07-30T07:55:47Z</time>
      </trkpt>
      <trkpt lat="46.48301" lon="5.95898">
        <ele>980</ele>
        <time>2019-07-30T07:55:53Z</time>
      </trkpt>
      <trkpt lat="46.48298" lon="5.95893">
        <ele>980.9</ele>
        <time>2019-07-30T07:55:58Z</time>
      </trkpt>
      <trkpt lat="46.48294" lon="5.95888">
        <ele>981.3</ele>
        <time>2019-07-30T07:56:01Z</time>
      </trkpt>
      <trkpt lat="46.48289" lon="5.95884">
        <ele>981.5</ele>
        <time>2019-07-30T07:56:05Z</time>
      </trkpt>
      <trkpt lat="46.48284" lon="5.95882">
        <ele>981.4</ele>
        <time>2019-07-30T07:56:10Z</time>
      </trkpt>
      <trkpt lat="46.48279" lon="5.95878">
        <ele>981.1</ele>
        <time>2019-07-30T07:56:14Z</time>
      </trkpt>
      <trkpt lat="46.48262" lon="5.95877">
        <ele>980.8</ele>
        <time>2019-07-30T07:56:31Z</time>
      </trkpt>
      <trkpt lat="46.48257" lon="5.95878">
        <ele>981.1</ele>
        <time>2019-07-30T07:56:36Z</time>
      </trkpt>
      <trkpt lat="46.48252" lon="5.9588">
        <ele>981.1</ele>
        <time>2019-07-30T07:56:40Z</time>
      </trkpt>
      <trkpt lat="46.48236" lon="5.95878">
        <ele>982.2</ele>
        <time>2019-07-30T07:56:54Z</time>
      </trkpt>
      <trkpt lat="46.48231" lon="5.95879">
        <ele>982.3</ele>
        <time>2019-07-30T07:56:59Z</time>
      </trkpt>
      <trkpt lat="46.48226" lon="5.95877">
        <ele>982.3</ele>
        <time>2019-07-30T07:57:04Z</time>
      </trkpt>
      <trkpt lat="46.48221" lon="5.95875">
        <ele>982.3</ele>
        <time>2019-07-30T07:57:09Z</time>
      </trkpt>
      <trkpt lat="46.48216" lon="5.95873">
        <ele>982.2</ele>
        <time>2019-07-30T07:57:16Z</time>
      </trkpt>
      <trkpt lat="46.48212" lon="5.95869">
        <ele>981.9</ele>
        <time>2019-07-30T07:57:21Z</time>
      </trkpt>
      <trkpt lat="46.48208" lon="5.95865">
        <ele>981.7</ele>
        <time>2019-07-30T07:57:26Z</time>
      </trkpt>
      <trkpt lat="46.48203" lon="5.95862">
        <ele>981.5</ele>
        <time>2019-07-30T07:57:32Z</time>
      </trkpt>
      <trkpt lat="46.48197" lon="5.95862">
        <ele>981.2</ele>
        <time>2019-07-30T07:57:38Z</time>
      </trkpt>
      <trkpt lat="46.48193" lon="5.95862">
        <ele>981</ele>
        <time>2019-07-30T07:57:46Z</time>
      </trkpt>
      <trkpt lat="46.48188" lon="5.95864">
        <ele>980.6</ele>
        <time>2019-07-30T07:57:56Z</time>
      </trkpt>
      <trkpt lat="46.48184" lon="5.95867">
        <ele>980.1</ele>
        <time>2019-07-30T07:58:01Z</time>
      </trkpt>
      <trkpt lat="46.48179" lon="5.95868">
        <ele>979.4</ele>
        <time>2019-07-30T07:58:06Z</time>
      </trkpt>
      <trkpt lat="46.48176" lon="5.95872">
        <ele>978.6</ele>
        <time>2019-07-30T07:58:13Z</time>
      </trkpt>
      <trkpt lat="46.48171" lon="5.95876">
        <ele>978.4</ele>
        <time>2019-07-30T07:58:15Z</time>
      </trkpt>
      <trkpt lat="46.48167" lon="5.9588">
        <ele>978.1</ele>
        <time>2019-07-30T07:58:18Z</time>
      </trkpt>
      <trkpt lat="46.48163" lon="5.95884">
        <ele>978.1</ele>
        <time>2019-07-30T07:58:21Z</time>
      </trkpt>
      <trkpt lat="46.48158" lon="5.95888">
        <ele>978.2</ele>
        <time>2019-07-30T07:58:25Z</time>
      </trkpt>
      <trkpt lat="46.48154" lon="5.95892">
        <ele>978.6</ele>
        <time>2019-07-30T07:58:31Z</time>
      </trkpt>
      <trkpt lat="46.48151" lon="5.95897">
        <ele>978.6</ele>
        <time>2019-07-30T07:58:36Z</time>
      </trkpt>
      <trkpt lat="46.48148" lon="5.95902">
        <ele>978.2</ele>
        <time>2019-07-30T07:58:42Z</time>
      </trkpt>
      <trkpt lat="46.48144" lon="5.95906">
        <ele>977.3</ele>
        <time>2019-07-30T07:58:49Z</time>
      </trkpt>
      <trkpt lat="46.48139" lon="5.95908">
        <ele>977.1</ele>
        <time>2019-07-30T07:58:53Z</time>
      </trkpt>
      <trkpt lat="46.48129" lon="5.95917">
        <ele>976.3</ele>
        <time>2019-07-30T07:59:10Z</time>
      </trkpt>
      <trkpt lat="46.48125" lon="5.95922">
        <ele>976.2</ele>
        <time>2019-07-30T07:59:14Z</time>
      </trkpt>
      <trkpt lat="46.48121" lon="5.95927">
        <ele>976.5</ele>
        <time>2019-07-30T07:59:19Z</time>
      </trkpt>
      <trkpt lat="46.48117" lon="5.95929">
        <ele>977</ele>
        <time>2019-07-30T07:59:27Z</time>
      </trkpt>
      <trkpt lat="46.48108" lon="5.95979">
        <ele>975.4</ele>
        <time>2019-07-30T08:01:21Z</time>
      </trkpt>
      <trkpt lat="46.48108" lon="5.95987">
        <ele>975.2</ele>
        <time>2019-07-30T08:01:26Z</time>
      </trkpt>
      <trkpt lat="46.48108" lon="5.95995">
        <ele>975.6</ele>
        <time>2019-07-30T08:01:34Z</time>
      </trkpt>
      <trkpt lat="46.48109" lon="5.96001">
        <ele>976.3</ele>
        <time>2019-07-30T08:01:39Z</time>
      </trkpt>
      <trkpt lat="46.48109" lon="5.96008">
        <ele>976.6</ele>
        <time>2019-07-30T08:01:46Z</time>
      </trkpt>
      <trkpt lat="46.48111" lon="5.96016">
        <ele>976.7</ele>
        <time>2019-07-30T08:01:52Z</time>
      </trkpt>
      <trkpt lat="46.48113" lon="5.96022">
        <ele>976.8</ele>
        <time>2019-07-30T08:01:56Z</time>
      </trkpt>
      <trkpt lat="46.48113" lon="5.96029">
        <ele>976.9</ele>
        <time>2019-07-30T08:02:00Z</time>
      </trkpt>
      <trkpt lat="46.48113" lon="5.96037">
        <ele>976.9</ele>
        <time>2019-07-30T08:02:06Z</time>
      </trkpt>
      <trkpt lat="46.48113" lon="5.96044">
        <ele>977.1</ele>
        <time>2019-07-30T08:02:09Z</time>
      </trkpt>
      <trkpt lat="46.48113" lon="5.96051">
        <ele>977.3</ele>
        <time>2019-07-30T08:02:16Z</time>
      </trkpt>
      <trkpt lat="46.48113" lon="5.96057">
        <ele>977.7</ele>
        <time>2019-07-30T08:02:21Z</time>
      </trkpt>
      <trkpt lat="46.48109" lon="5.96065">
        <ele>978</ele>
        <time>2019-07-30T08:02:26Z</time>
      </trkpt>
      <trkpt lat="46.48107" lon="5.96071">
        <ele>978.5</ele>
        <time>2019-07-30T08:02:32Z</time>
      </trkpt>
      <trkpt lat="46.48113" lon="5.96139">
        <ele>1000.8</ele>
        <time>2019-07-30T08:04:12Z</time>
      </trkpt>
      <trkpt lat="46.48115" lon="5.96147">
        <ele>1001</ele>
        <time>2019-07-30T08:04:14Z</time>
      </trkpt>
      <trkpt lat="46.48117" lon="5.96155">
        <ele>1001.3</ele>
        <time>2019-07-30T08:04:18Z</time>
      </trkpt>
      <trkpt lat="46.48119" lon="5.96161">
        <ele>1001.5</ele>
        <time>2019-07-30T08:04:20Z</time>
      </trkpt>
      <trkpt lat="46.48121" lon="5.96168">
        <ele>1001.8</ele>
        <time>2019-07-30T08:04:25Z</time>
      </trkpt>
      <trkpt lat="46.48118" lon="5.96204">
        <ele>1005</ele>
        <time>2019-07-30T08:05:10Z</time>
      </trkpt>
      <trkpt lat="46.48118" lon="5.96211">
        <ele>1005.2</ele>
        <time>2019-07-30T08:05:13Z</time>
      </trkpt>
      <trkpt lat="46.48117" lon="5.9622">
        <ele>1005.5</ele>
        <time>2019-07-30T08:05:19Z</time>
      </trkpt>
      <trkpt lat="46.48118" lon="5.96229">
        <ele>1005.6</ele>
        <time>2019-07-30T08:05:21Z</time>
      </trkpt>
      <trkpt lat="46.48118" lon="5.96236">
        <ele>1005.8</ele>
        <time>2019-07-30T08:05:26Z</time>
      </trkpt>
      <trkpt lat="46.48118" lon="5.96245">
        <ele>1006</ele>
        <time>2019-07-30T08:05:28Z</time>
      </trkpt>
      <trkpt lat="46.48119" lon="5.96251">
        <ele>1006.2</ele>
        <time>2019-07-30T08:05:34Z</time>
      </trkpt>
      <trkpt lat="46.48116" lon="5.96269">
        <ele>1007.3</ele>
        <time>2019-07-30T08:05:50Z</time>
      </trkpt>
      <trkpt lat="46.48113" lon="5.96275">
        <ele>1007.5</ele>
        <time>2019-07-30T08:05:53Z</time>
      </trkpt>
      <trkpt lat="46.48111" lon="5.96281">
        <ele>1007.4</ele>
        <time>2019-07-30T08:06:02Z</time>
      </trkpt>
      <trkpt lat="46.4811" lon="5.96289">
        <ele>1006.9</ele>
        <time>2019-07-30T08:06:10Z</time>
      </trkpt>
      <trkpt lat="46.48108" lon="5.96296">
        <ele>1006.6</ele>
        <time>2019-07-30T08:06:14Z</time>
      </trkpt>
      <trkpt lat="46.48107" lon="5.96304">
        <ele>1006.5</ele>
        <time>2019-07-30T08:06:18Z</time>
      </trkpt>
      <trkpt lat="46.48108" lon="5.96311">
        <ele>1006.7</ele>
        <time>2019-07-30T08:06:23Z</time>
      </trkpt>
      <trkpt lat="46.48108" lon="5.96333">
        <ele>1008.3</ele>
        <time>2019-07-30T08:06:57Z</time>
      </trkpt>
      <trkpt lat="46.48106" lon="5.9634">
        <ele>1008.4</ele>
        <time>2019-07-30T08:07:03Z</time>
      </trkpt>
      <trkpt lat="46.48105" lon="5.96347">
        <ele>1008.3</ele>
        <time>2019-07-30T08:07:07Z</time>
      </trkpt>
      <trkpt lat="46.4811" lon="5.96354">
        <ele>1008.1</ele>
        <time>2019-07-30T08:07:13Z</time>
      </trkpt>
      <trkpt lat="46.48112" lon="5.96361">
        <ele>1007.7</ele>
        <time>2019-07-30T08:07:16Z</time>
      </trkpt>
      <trkpt lat="46.48114" lon="5.96367">
        <ele>1007.3</ele>
        <time>2019-07-30T08:07:20Z</time>
      </trkpt>
      <trkpt lat="46.48113" lon="5.96376">
        <ele>1007.2</ele>
        <time>2019-07-30T08:07:23Z</time>
      </trkpt>
      <trkpt lat="46.48113" lon="5.96386">
        <ele>1007.1</ele>
        <time>2019-07-30T08:07:26Z</time>
      </trkpt>
      <trkpt lat="46.48113" lon="5.96395">
        <ele>1007</ele>
        <time>2019-07-30T08:07:30Z</time>
      </trkpt>
      <trkpt lat="46.48111" lon="5.96404">
        <ele>1007.2</ele>
        <time>2019-07-30T08:07:35Z</time>
      </trkpt>
      <trkpt lat="46.4811" lon="5.96411">
        <ele>1007.4</ele>
        <time>2019-07-30T08:07:38Z</time>
      </trkpt>
      <trkpt lat="46.48108" lon="5.96416">
        <ele>1007.5</ele>
        <time>2019-07-30T08:07:45Z</time>
      </trkpt>
      <trkpt lat="46.48103" lon="5.96422">
        <ele>1008.8</ele>
        <time>2019-07-30T08:07:54Z</time>
      </trkpt>
      <trkpt lat="46.48099" lon="5.96427">
        <ele>1009.2</ele>
        <time>2019-07-30T08:07:57Z</time>
      </trkpt>
      <trkpt lat="46.48096" lon="5.96433">
        <ele>1009.5</ele>
        <time>2019-07-30T08:08:02Z</time>
      </trkpt>
      <trkpt lat="46.48096" lon="5.96443">
        <ele>1000.4</ele>
        <time>2019-07-30T08:09:17Z</time>
      </trkpt>
      <trkpt lat="46.48094" lon="5.9645">
        <ele>999.5</ele>
        <time>2019-07-30T08:09:24Z</time>
      </trkpt>
      <trkpt lat="46.48092" lon="5.96457">
        <ele>999.5</ele>
        <time>2019-07-30T08:09:27Z</time>
      </trkpt>
      <trkpt lat="46.48091" lon="5.96464">
        <ele>999.9</ele>
        <time>2019-07-30T08:09:35Z</time>
      </trkpt>
      <trkpt lat="46.4809" lon="5.96471">
        <ele>1000.2</ele>
        <time>2019-07-30T08:09:45Z</time>
      </trkpt>
      <trkpt lat="46.48089" lon="5.9648">
        <ele>999.9</ele>
        <time>2019-07-30T08:09:48Z</time>
      </trkpt>
      <trkpt lat="46.48088" lon="5.96487">
        <ele>999.7</ele>
        <time>2019-07-30T08:09:50Z</time>
      </trkpt>
      <trkpt lat="46.48087" lon="5.96495">
        <ele>999.3</ele>
        <time>2019-07-30T08:09:54Z</time>
      </trkpt>
      <trkpt lat="46.48087" lon="5.96502">
        <ele>998.7</ele>
        <time>2019-07-30T08:09:58Z</time>
      </trkpt>
      <trkpt lat="46.48086" lon="5.96509">
        <ele>998</ele>
        <time>2019-07-30T08:10:06Z</time>
      </trkpt>
      <trkpt lat="46.48085" lon="5.96518">
        <ele>997.9</ele>
        <time>2019-07-30T08:10:10Z</time>
      </trkpt>
      <trkpt lat="46.48084" lon="5.96525">
        <ele>997.8</ele>
        <time>2019-07-30T08:10:14Z</time>
      </trkpt>
      <trkpt lat="46.48083" lon="5.96532">
        <ele>998.6</ele>
        <time>2019-07-30T08:10:23Z</time>
      </trkpt>
      <trkpt lat="46.48082" lon="5.96539">
        <ele>1000.1</ele>
        <time>2019-07-30T08:10:33Z</time>
      </trkpt>
      <trkpt lat="46.4808" lon="5.96546">
        <ele>1000.7</ele>
        <time>2019-07-30T08:10:38Z</time>
      </trkpt>
      <trkpt lat="46.4808" lon="5.96553">
        <ele>1001.2</ele>
        <time>2019-07-30T08:10:42Z</time>
      </trkpt>
      <trkpt lat="46.48079" lon="5.96563">
        <ele>1001.5</ele>
        <time>2019-07-30T08:10:44Z</time>
      </trkpt>
      <trkpt lat="46.48077" lon="5.96572">
        <ele>1001.9</ele>
        <time>2019-07-30T08:10:45Z</time>
      </trkpt>
      <trkpt lat="46.48075" lon="5.96579">
        <ele>1002.5</ele>
        <time>2019-07-30T08:10:49Z</time>
      </trkpt>
      <trkpt lat="46.48074" lon="5.96586">
        <ele>1003.3</ele>
        <time>2019-07-30T08:10:53Z</time>
      </trkpt>
      <trkpt lat="46.48072" lon="5.96593">
        <ele>1003.8</ele>
        <time>2019-07-30T08:10:58Z</time>
      </trkpt>
      <trkpt lat="46.48069" lon="5.966">
        <ele>1003.7</ele>
        <time>2019-07-30T08:11:02Z</time>
      </trkpt>
      <trkpt lat="46.48067" lon="5.96606">
        <ele>1003.4</ele>
        <time>2019-07-30T08:11:07Z</time>
      </trkpt>
      <trkpt lat="46.48066" lon="5.96613">
        <ele>1002.9</ele>
        <time>2019-07-30T08:11:13Z</time>
      </trkpt>
      <trkpt lat="46.48065" lon="5.96619">
        <ele>1002.4</ele>
        <time>2019-07-30T08:11:18Z</time>
      </trkpt>
      <trkpt lat="46.48062" lon="5.96626">
        <ele>1001.9</ele>
        <time>2019-07-30T08:11:21Z</time>
      </trkpt>
      <trkpt lat="46.4806" lon="5.96632">
        <ele>1001.3</ele>
        <time>2019-07-30T08:11:26Z</time>
      </trkpt>
      <trkpt lat="46.48056" lon="5.96639">
        <ele>1000.8</ele>
        <time>2019-07-30T08:11:30Z</time>
      </trkpt>
      <trkpt lat="46.48054" lon="5.96644">
        <ele>1000.5</ele>
        <time>2019-07-30T08:11:35Z</time>
      </trkpt>
      <trkpt lat="46.48055" lon="5.96651">
        <ele>998.2</ele>
        <time>2019-07-30T08:11:52Z</time>
      </trkpt>
      <trkpt lat="46.48047" lon="5.9665">
        <ele>982.9</ele>
        <time>2019-07-30T08:23:43Z</time>
      </trkpt>
      <trkpt lat="46.48043" lon="5.96653">
        <ele>979.9</ele>
        <time>2019-07-30T08:23:54Z</time>
      </trkpt>
      <trkpt lat="46.48038" lon="5.96659">
        <ele>978.8</ele>
        <time>2019-07-30T08:24:00Z</time>
      </trkpt>
      <trkpt lat="46.48035" lon="5.96663">
        <ele>978.1</ele>
        <time>2019-07-30T08:24:05Z</time>
      </trkpt>
      <trkpt lat="46.4803" lon="5.96667">
        <ele>977.7</ele>
        <time>2019-07-30T08:24:11Z</time>
      </trkpt>
      <trkpt lat="46.48025" lon="5.96671">
        <ele>977.3</ele>
        <time>2019-07-30T08:24:15Z</time>
      </trkpt>
      <trkpt lat="46.4802" lon="5.96674">
        <ele>977</ele>
        <time>2019-07-30T08:24:17Z</time>
      </trkpt>
      <trkpt lat="46.48015" lon="5.96676">
        <ele>976.5</ele>
        <time>2019-07-30T08:24:20Z</time>
      </trkpt>
      <trkpt lat="46.48012" lon="5.96681">
        <ele>976</ele>
        <time>2019-07-30T08:24:31Z</time>
      </trkpt>
      <trkpt lat="46.48007" lon="5.96686">
        <ele>976.7</ele>
        <time>2019-07-30T08:24:38Z</time>
      </trkpt>
      <trkpt lat="46.48004" lon="5.96691">
        <ele>977.4</ele>
        <time>2019-07-30T08:24:42Z</time>
      </trkpt>
      <trkpt lat="46.48" lon="5.96694">
        <ele>978.1</ele>
        <time>2019-07-30T08:24:47Z</time>
      </trkpt>
      <trkpt lat="46.47995" lon="5.96695">
        <ele>978.9</ele>
        <time>2019-07-30T08:24:52Z</time>
      </trkpt>
      <trkpt lat="46.4799" lon="5.96698">
        <ele>979.7</ele>
        <time>2019-07-30T08:24:57Z</time>
      </trkpt>
      <trkpt lat="46.47985" lon="5.96699">
        <ele>980.5</ele>
        <time>2019-07-30T08:25:03Z</time>
      </trkpt>
      <trkpt lat="46.4798" lon="5.96701">
        <ele>980.3</ele>
        <time>2019-07-30T08:25:09Z</time>
      </trkpt>
      <trkpt lat="46.47977" lon="5.96707">
        <ele>979.7</ele>
        <time>2019-07-30T08:25:13Z</time>
      </trkpt>
      <trkpt lat="46.47976" lon="5.96715">
        <ele>979</ele>
        <time>2019-07-30T08:25:18Z</time>
      </trkpt>
      <trkpt lat="46.47976" lon="5.96722">
        <ele>977.9</ele>
        <time>2019-07-30T08:25:25Z</time>
      </trkpt>
      <trkpt lat="46.47975" lon="5.9673">
        <ele>977.4</ele>
        <time>2019-07-30T08:25:31Z</time>
      </trkpt>
      <trkpt lat="46.47974" lon="5.96736">
        <ele>977.3</ele>
        <time>2019-07-30T08:25:34Z</time>
      </trkpt>
      <trkpt lat="46.47975" lon="5.96745">
        <ele>977.2</ele>
        <time>2019-07-30T08:25:39Z</time>
      </trkpt>
      <trkpt lat="46.47976" lon="5.96751">
        <ele>977.3</ele>
        <time>2019-07-30T08:25:42Z</time>
      </trkpt>
      <trkpt lat="46.47978" lon="5.96758">
        <ele>977.3</ele>
        <time>2019-07-30T08:25:46Z</time>
      </trkpt>
      <trkpt lat="46.4798" lon="5.96765">
        <ele>977.4</ele>
        <time>2019-07-30T08:25:51Z</time>
      </trkpt>
      <trkpt lat="46.47982" lon="5.96772">
        <ele>977.9</ele>
        <time>2019-07-30T08:25:56Z</time>
      </trkpt>
      <trkpt lat="46.47985" lon="5.96778">
        <ele>978.3</ele>
        <time>2019-07-30T08:25:59Z</time>
      </trkpt>
      <trkpt lat="46.47986" lon="5.96785">
        <ele>978.9</ele>
        <time>2019-07-30T08:26:04Z</time>
      </trkpt>
      <trkpt lat="46.47987" lon="5.96792">
        <ele>979.5</ele>
        <time>2019-07-30T08:26:08Z</time>
      </trkpt>
      <trkpt lat="46.47988" lon="5.96798">
        <ele>980.1</ele>
        <time>2019-07-30T08:26:11Z</time>
      </trkpt>
      <trkpt lat="46.47989" lon="5.96805">
        <ele>981.2</ele>
        <time>2019-07-30T08:26:15Z</time>
      </trkpt>
      <trkpt lat="46.4799" lon="5.96812">
        <ele>982.3</ele>
        <time>2019-07-30T08:26:19Z</time>
      </trkpt>
      <trkpt lat="46.4799" lon="5.96819">
        <ele>983.4</ele>
        <time>2019-07-30T08:26:24Z</time>
      </trkpt>
      <trkpt lat="46.47989" lon="5.96826">
        <ele>984.4</ele>
        <time>2019-07-30T08:26:29Z</time>
      </trkpt>
      <trkpt lat="46.47988" lon="5.96833">
        <ele>985.4</ele>
        <time>2019-07-30T08:26:34Z</time>
      </trkpt>
      <trkpt lat="46.47984" lon="5.96839">
        <ele>986.5</ele>
        <time>2019-07-30T08:26:40Z</time>
      </trkpt>
      <trkpt lat="46.47981" lon="5.96844">
        <ele>987.2</ele>
        <time>2019-07-30T08:26:46Z</time>
      </trkpt>
      <trkpt lat="46.47979" lon="5.96851">
        <ele>987.4</ele>
        <time>2019-07-30T08:26:52Z</time>
      </trkpt>
      <trkpt lat="46.4798" lon="5.96858">
        <ele>987.4</ele>
        <time>2019-07-30T08:26:58Z</time>
      </trkpt>
      <trkpt lat="46.4798" lon="5.96864">
        <ele>987.3</ele>
        <time>2019-07-30T08:27:03Z</time>
      </trkpt>
      <trkpt lat="46.4798" lon="5.96871">
        <ele>986.9</ele>
        <time>2019-07-30T08:27:08Z</time>
      </trkpt>
      <trkpt lat="46.47981" lon="5.96878">
        <ele>986.8</ele>
        <time>2019-07-30T08:27:13Z</time>
      </trkpt>
      <trkpt lat="46.47982" lon="5.96886">
        <ele>986.8</ele>
        <time>2019-07-30T08:27:16Z</time>
      </trkpt>
      <trkpt lat="46.47982" lon="5.96893">
        <ele>987.1</ele>
        <time>2019-07-30T08:27:20Z</time>
      </trkpt>
      <trkpt lat="46.47982" lon="5.969">
        <ele>987.3</ele>
        <time>2019-07-30T08:27:25Z</time>
      </trkpt>
      <trkpt lat="46.47981" lon="5.96907">
        <ele>987.5</ele>
        <time>2019-07-30T08:27:30Z</time>
      </trkpt>
      <trkpt lat="46.47981" lon="5.96914">
        <ele>987.6</ele>
        <time>2019-07-30T08:27:35Z</time>
      </trkpt>
      <trkpt lat="46.47981" lon="5.9692">
        <ele>987.7</ele>
        <time>2019-07-30T08:27:40Z</time>
      </trkpt>
      <trkpt lat="46.47981" lon="5.96927">
        <ele>988</ele>
        <time>2019-07-30T08:27:45Z</time>
      </trkpt>
      <trkpt lat="46.47983" lon="5.96933">
        <ele>988.2</ele>
        <time>2019-07-30T08:27:49Z</time>
      </trkpt>
      <trkpt lat="46.47986" lon="5.96941">
        <ele>988.4</ele>
        <time>2019-07-30T08:27:54Z</time>
      </trkpt>
      <trkpt lat="46.47988" lon="5.96948">
        <ele>988.5</ele>
        <time>2019-07-30T08:27:59Z</time>
      </trkpt>
      <trkpt lat="46.47988" lon="5.96956">
        <ele>988.6</ele>
        <time>2019-07-30T08:28:04Z</time>
      </trkpt>
      <trkpt lat="46.47987" lon="5.96962">
        <ele>988.7</ele>
        <time>2019-07-30T08:28:09Z</time>
      </trkpt>
      <trkpt lat="46.47986" lon="5.96969">
        <ele>988.5</ele>
        <time>2019-07-30T08:28:16Z</time>
      </trkpt>
      <trkpt lat="46.47986" lon="5.96977">
        <ele>988.3</ele>
        <time>2019-07-30T08:28:23Z</time>
      </trkpt>
      <trkpt lat="46.47986" lon="5.96984">
        <ele>988.3</ele>
        <time>2019-07-30T08:28:27Z</time>
      </trkpt>
      <trkpt lat="46.47987" lon="5.96992">
        <ele>988.6</ele>
        <time>2019-07-30T08:28:31Z</time>
      </trkpt>
      <trkpt lat="46.47987" lon="5.96999">
        <ele>989</ele>
        <time>2019-07-30T08:28:36Z</time>
      </trkpt>
      <trkpt lat="46.47988" lon="5.97005">
        <ele>989.3</ele>
        <time>2019-07-30T08:28:41Z</time>
      </trkpt>
      <trkpt lat="46.47989" lon="5.97013">
        <ele>989.7</ele>
        <time>2019-07-30T08:28:46Z</time>
      </trkpt>
      <trkpt lat="46.4799" lon="5.9702">
        <ele>990.1</ele>
        <time>2019-07-30T08:28:51Z</time>
      </trkpt>
      <trkpt lat="46.47993" lon="5.97027">
        <ele>990.9</ele>
        <time>2019-07-30T08:28:57Z</time>
      </trkpt>
      <trkpt lat="46.47994" lon="5.97034">
        <ele>991.6</ele>
        <time>2019-07-30T08:29:02Z</time>
      </trkpt>
      <trkpt lat="46.47995" lon="5.97042">
        <ele>992.2</ele>
        <time>2019-07-30T08:29:07Z</time>
      </trkpt>
      <trkpt lat="46.47994" lon="5.97049">
        <ele>992.8</ele>
        <time>2019-07-30T08:29:12Z</time>
      </trkpt>
      <trkpt lat="46.47995" lon="5.97056">
        <ele>993.4</ele>
        <time>2019-07-30T08:29:16Z</time>
      </trkpt>
      <trkpt lat="46.47994" lon="5.97063">
        <ele>993.9</ele>
        <time>2019-07-30T08:29:21Z</time>
      </trkpt>
      <trkpt lat="46.47994" lon="5.97071">
        <ele>994.2</ele>
        <time>2019-07-30T08:29:25Z</time>
      </trkpt>
      <trkpt lat="46.47993" lon="5.97078">
        <ele>994.6</ele>
        <time>2019-07-30T08:29:30Z</time>
      </trkpt>
      <trkpt lat="46.47993" lon="5.97085">
        <ele>995.1</ele>
        <time>2019-07-30T08:29:36Z</time>
      </trkpt>
      <trkpt lat="46.47993" lon="5.97092">
        <ele>995.4</ele>
        <time>2019-07-30T08:29:40Z</time>
      </trkpt>
      <trkpt lat="46.47992" lon="5.97099">
        <ele>995.6</ele>
        <time>2019-07-30T08:29:45Z</time>
      </trkpt>
      <trkpt lat="46.47991" lon="5.97106">
        <ele>995.9</ele>
        <time>2019-07-30T08:29:49Z</time>
      </trkpt>
      <trkpt lat="46.47991" lon="5.97113">
        <ele>996.2</ele>
        <time>2019-07-30T08:29:53Z</time>
      </trkpt>
      <trkpt lat="46.4799" lon="5.9712">
        <ele>996.5</ele>
        <time>2019-07-30T08:29:58Z</time>
      </trkpt>
      <trkpt lat="46.47989" lon="5.97128">
        <ele>996.7</ele>
        <time>2019-07-30T08:30:03Z</time>
      </trkpt>
      <trkpt lat="46.4799" lon="5.97136">
        <ele>996.8</ele>
        <time>2019-07-30T08:30:07Z</time>
      </trkpt>
      <trkpt lat="46.47991" lon="5.97144">
        <ele>996.9</ele>
        <time>2019-07-30T08:30:12Z</time>
      </trkpt>
      <trkpt lat="46.47992" lon="5.9715">
        <ele>997.1</ele>
        <time>2019-07-30T08:30:17Z</time>
      </trkpt>
      <trkpt lat="46.47994" lon="5.97158">
        <ele>997.3</ele>
        <time>2019-07-30T08:30:23Z</time>
      </trkpt>
      <trkpt lat="46.47995" lon="5.97165">
        <ele>997.5</ele>
        <time>2019-07-30T08:30:28Z</time>
      </trkpt>
      <trkpt lat="46.47996" lon="5.97171">
        <ele>997.5</ele>
        <time>2019-07-30T08:30:32Z</time>
      </trkpt>
      <trkpt lat="46.47997" lon="5.97178">
        <ele>997.3</ele>
        <time>2019-07-30T08:30:36Z</time>
      </trkpt>
      <trkpt lat="46.47998" lon="5.97185">
        <ele>997</ele>
        <time>2019-07-30T08:30:40Z</time>
      </trkpt>
      <trkpt lat="46.47998" lon="5.97192">
        <ele>996.8</ele>
        <time>2019-07-30T08:30:45Z</time>
      </trkpt>
      <trkpt lat="46.48" lon="5.97198">
        <ele>996.6</ele>
        <time>2019-07-30T08:30:53Z</time>
      </trkpt>
      <trkpt lat="46.47995" lon="5.97198">
        <ele>995.7</ele>
        <time>2019-07-30T08:31:12Z</time>
      </trkpt>
      <trkpt lat="46.47993" lon="5.97204">
        <ele>995.5</ele>
        <time>2019-07-30T08:31:50Z</time>
      </trkpt>
      <trkpt lat="46.47996" lon="5.97209">
        <ele>996.1</ele>
        <time>2019-07-30T08:32:07Z</time>
      </trkpt>
      <trkpt lat="46.47998" lon="5.97216">
        <ele>996.3</ele>
        <time>2019-07-30T08:32:12Z</time>
      </trkpt>
      <trkpt lat="46.48001" lon="5.97222">
        <ele>996.4</ele>
        <time>2019-07-30T08:32:16Z</time>
      </trkpt>
      <trkpt lat="46.48004" lon="5.97229">
        <ele>996.6</ele>
        <time>2019-07-30T08:32:20Z</time>
      </trkpt>
      <trkpt lat="46.48006" lon="5.97235">
        <ele>996.3</ele>
        <time>2019-07-30T08:32:25Z</time>
      </trkpt>
      <trkpt lat="46.48009" lon="5.9724">
        <ele>995.8</ele>
        <time>2019-07-30T08:32:31Z</time>
      </trkpt>
      <trkpt lat="46.48008" lon="5.97247">
        <ele>995.7</ele>
        <time>2019-07-30T08:32:39Z</time>
      </trkpt>
      <trkpt lat="46.4801" lon="5.97254">
        <ele>995.8</ele>
        <time>2019-07-30T08:32:43Z</time>
      </trkpt>
      <trkpt lat="46.48012" lon="5.97261">
        <ele>996.2</ele>
        <time>2019-07-30T08:32:49Z</time>
      </trkpt>
      <trkpt lat="46.48013" lon="5.97268">
        <ele>996.5</ele>
        <time>2019-07-30T08:32:54Z</time>
      </trkpt>
      <trkpt lat="46.48015" lon="5.97274">
        <ele>996.7</ele>
        <time>2019-07-30T08:32:58Z</time>
      </trkpt>
      <trkpt lat="46.48017" lon="5.9728">
        <ele>996.8</ele>
        <time>2019-07-30T08:33:02Z</time>
      </trkpt>
      <trkpt lat="46.48019" lon="5.97287">
        <ele>997</ele>
        <time>2019-07-30T08:33:07Z</time>
      </trkpt>
      <trkpt lat="46.48021" lon="5.97294">
        <ele>997.3</ele>
        <time>2019-07-30T08:33:12Z</time>
      </trkpt>
      <trkpt lat="46.48022" lon="5.97301">
        <ele>997.6</ele>
        <time>2019-07-30T08:33:18Z</time>
      </trkpt>
      <trkpt lat="46.48023" lon="5.97307">
        <ele>997.8</ele>
        <time>2019-07-30T08:33:22Z</time>
      </trkpt>
      <trkpt lat="46.48025" lon="5.97313">
        <ele>998</ele>
        <time>2019-07-30T08:33:27Z</time>
      </trkpt>
      <trkpt lat="46.48028" lon="5.97319">
        <ele>998.3</ele>
        <time>2019-07-30T08:33:31Z</time>
      </trkpt>
      <trkpt lat="46.48031" lon="5.97326">
        <ele>998.5</ele>
        <time>2019-07-30T08:33:36Z</time>
      </trkpt>
      <trkpt lat="46.48033" lon="5.97332">
        <ele>998.7</ele>
        <time>2019-07-30T08:33:40Z</time>
      </trkpt>
      <trkpt lat="46.48036" lon="5.97338">
        <ele>998.8</ele>
        <time>2019-07-30T08:33:44Z</time>
      </trkpt>
      <trkpt lat="46.48039" lon="5.97345">
        <ele>999.1</ele>
        <time>2019-07-30T08:33:49Z</time>
      </trkpt>
      <trkpt lat="46.48041" lon="5.97352">
        <ele>999.5</ele>
        <time>2019-07-30T08:33:54Z</time>
      </trkpt>
      <trkpt lat="46.48043" lon="5.97358">
        <ele>999.8</ele>
        <time>2019-07-30T08:33:59Z</time>
      </trkpt>
      <trkpt lat="46.48046" lon="5.97364">
        <ele>1000.4</ele>
        <time>2019-07-30T08:34:13Z</time>
      </trkpt>
      <trkpt lat="46.48048" lon="5.9737">
        <ele>1000.6</ele>
        <time>2019-07-30T08:34:16Z</time>
      </trkpt>
      <trkpt lat="46.48052" lon="5.97376">
        <ele>1001</ele>
        <time>2019-07-30T08:34:20Z</time>
      </trkpt>
      <trkpt lat="46.48055" lon="5.9738">
        <ele>1001.3</ele>
        <time>2019-07-30T08:34:24Z</time>
      </trkpt>
      <trkpt lat="46.48059" lon="5.97384">
        <ele>1001.9</ele>
        <time>2019-07-30T08:34:30Z</time>
      </trkpt>
      <trkpt lat="46.48063" lon="5.97389">
        <ele>1002.3</ele>
        <time>2019-07-30T08:34:35Z</time>
      </trkpt>
      <trkpt lat="46.48067" lon="5.97394">
        <ele>1002.4</ele>
        <time>2019-07-30T08:34:41Z</time>
      </trkpt>
      <trkpt lat="46.4807" lon="5.97399">
        <ele>1002.4</ele>
        <time>2019-07-30T08:34:44Z</time>
      </trkpt>
      <trkpt lat="46.48073" lon="5.97406">
        <ele>1002.4</ele>
        <time>2019-07-30T08:34:49Z</time>
      </trkpt>
      <trkpt lat="46.48076" lon="5.97411">
        <ele>1002.3</ele>
        <time>2019-07-30T08:34:55Z</time>
      </trkpt>
      <trkpt lat="46.48079" lon="5.97417">
        <ele>1002.2</ele>
        <time>2019-07-30T08:34:59Z</time>
      </trkpt>
      <trkpt lat="46.48081" lon="5.97423">
        <ele>1002.2</ele>
        <time>2019-07-30T08:35:03Z</time>
      </trkpt>
      <trkpt lat="46.48085" lon="5.97429">
        <ele>1002.2</ele>
        <time>2019-07-30T08:35:07Z</time>
      </trkpt>
      <trkpt lat="46.48086" lon="5.97435">
        <ele>1002.3</ele>
        <time>2019-07-30T08:35:17Z</time>
      </trkpt>
      <trkpt lat="46.4809" lon="5.97441">
        <ele>1002.4</ele>
        <time>2019-07-30T08:35:25Z</time>
      </trkpt>
      <trkpt lat="46.48093" lon="5.97446">
        <ele>1002.4</ele>
        <time>2019-07-30T08:35:28Z</time>
      </trkpt>
      <trkpt lat="46.48098" lon="5.97452">
        <ele>1002.5</ele>
        <time>2019-07-30T08:35:32Z</time>
      </trkpt>
      <trkpt lat="46.48101" lon="5.97457">
        <ele>1002.7</ele>
        <time>2019-07-30T08:35:37Z</time>
      </trkpt>
      <trkpt lat="46.48105" lon="5.97463">
        <ele>1002.8</ele>
        <time>2019-07-30T08:35:42Z</time>
      </trkpt>
      <trkpt lat="46.48108" lon="5.97468">
        <ele>1003</ele>
        <time>2019-07-30T08:35:46Z</time>
      </trkpt>
      <trkpt lat="46.4811" lon="5.97474">
        <ele>1003.1</ele>
        <time>2019-07-30T08:35:50Z</time>
      </trkpt>
      <trkpt lat="46.48115" lon="5.97477">
        <ele>1003.2</ele>
        <time>2019-07-30T08:35:54Z</time>
      </trkpt>
      <trkpt lat="46.4812" lon="5.97482">
        <ele>1003.4</ele>
        <time>2019-07-30T08:35:58Z</time>
      </trkpt>
      <trkpt lat="46.48121" lon="5.97488">
        <ele>1003.6</ele>
        <time>2019-07-30T08:36:01Z</time>
      </trkpt>
      <trkpt lat="46.48125" lon="5.97492">
        <ele>1003.8</ele>
        <time>2019-07-30T08:36:04Z</time>
      </trkpt>
      <trkpt lat="46.4813" lon="5.97496">
        <ele>1004.2</ele>
        <time>2019-07-30T08:36:07Z</time>
      </trkpt>
      <trkpt lat="46.48132" lon="5.97501">
        <ele>1004.7</ele>
        <time>2019-07-30T08:36:11Z</time>
      </trkpt>
      <trkpt lat="46.48135" lon="5.97508">
        <ele>1005.5</ele>
        <time>2019-07-30T08:36:17Z</time>
      </trkpt>
      <trkpt lat="46.48137" lon="5.97514">
        <ele>1006.1</ele>
        <time>2019-07-30T08:36:21Z</time>
      </trkpt>
      <trkpt lat="46.48137" lon="5.9752">
        <ele>1007.1</ele>
        <time>2019-07-30T08:36:28Z</time>
      </trkpt>
      <trkpt lat="46.48141" lon="5.97524">
        <ele>1007.8</ele>
        <time>2019-07-30T08:36:41Z</time>
      </trkpt>
      <trkpt lat="46.48144" lon="5.97528">
        <ele>1007.8</ele>
        <time>2019-07-30T08:36:50Z</time>
      </trkpt>
      <trkpt lat="46.48148" lon="5.97533">
        <ele>1007.5</ele>
        <time>2019-07-30T08:36:55Z</time>
      </trkpt>
      <trkpt lat="46.48152" lon="5.9754">
        <ele>1007</ele>
        <time>2019-07-30T08:37:00Z</time>
      </trkpt>
      <trkpt lat="46.48155" lon="5.97544">
        <ele>1006.8</ele>
        <time>2019-07-30T08:37:03Z</time>
      </trkpt>
      <trkpt lat="46.48158" lon="5.9755">
        <ele>1006.3</ele>
        <time>2019-07-30T08:37:09Z</time>
      </trkpt>
      <trkpt lat="46.48161" lon="5.97556">
        <ele>1005.8</ele>
        <time>2019-07-30T08:37:15Z</time>
      </trkpt>
      <trkpt lat="46.48162" lon="5.97563">
        <ele>1005.4</ele>
        <time>2019-07-30T08:37:19Z</time>
      </trkpt>
      <trkpt lat="46.48163" lon="5.9757">
        <ele>1005.2</ele>
        <time>2019-07-30T08:37:23Z</time>
      </trkpt>
      <trkpt lat="46.48164" lon="5.97578">
        <ele>1005.1</ele>
        <time>2019-07-30T08:37:28Z</time>
      </trkpt>
      <trkpt lat="46.48166" lon="5.97585">
        <ele>1005.2</ele>
        <time>2019-07-30T08:37:32Z</time>
      </trkpt>
      <trkpt lat="46.48168" lon="5.97591">
        <ele>1005.6</ele>
        <time>2019-07-30T08:37:37Z</time>
      </trkpt>
      <trkpt lat="46.48172" lon="5.97598">
        <ele>1005.8</ele>
        <time>2019-07-30T08:37:41Z</time>
      </trkpt>
      <trkpt lat="46.48174" lon="5.97603">
        <ele>1006.2</ele>
        <time>2019-07-30T08:37:46Z</time>
      </trkpt>
      <trkpt lat="46.48176" lon="5.9761">
        <ele>1006.6</ele>
        <time>2019-07-30T08:37:54Z</time>
      </trkpt>
      <trkpt lat="46.48179" lon="5.97617">
        <ele>1006.4</ele>
        <time>2019-07-30T08:37:59Z</time>
      </trkpt>
      <trkpt lat="46.48181" lon="5.97622">
        <ele>1006.1</ele>
        <time>2019-07-30T08:38:04Z</time>
      </trkpt>
      <trkpt lat="46.48184" lon="5.97629">
        <ele>1006</ele>
        <time>2019-07-30T08:38:09Z</time>
      </trkpt>
      <trkpt lat="46.48186" lon="5.97635">
        <ele>1005.8</ele>
        <time>2019-07-30T08:38:13Z</time>
      </trkpt>
      <trkpt lat="46.48188" lon="5.9764">
        <ele>1005.5</ele>
        <time>2019-07-30T08:38:18Z</time>
      </trkpt>
      <trkpt lat="46.48191" lon="5.97646">
        <ele>1005.2</ele>
        <time>2019-07-30T08:38:23Z</time>
      </trkpt>
      <trkpt lat="46.48194" lon="5.97652">
        <ele>1004.9</ele>
        <time>2019-07-30T08:38:26Z</time>
      </trkpt>
      <trkpt lat="46.48197" lon="5.97659">
        <ele>1004.6</ele>
        <time>2019-07-30T08:38:30Z</time>
      </trkpt>
      <trkpt lat="46.482" lon="5.97665">
        <ele>1004.5</ele>
        <time>2019-07-30T08:38:34Z</time>
      </trkpt>
      <trkpt lat="46.48203" lon="5.97671">
        <ele>1004.6</ele>
        <time>2019-07-30T08:38:39Z</time>
      </trkpt>
      <trkpt lat="46.48207" lon="5.97676">
        <ele>1004.6</ele>
        <time>2019-07-30T08:38:44Z</time>
      </trkpt>
      <trkpt lat="46.48212" lon="5.97679">
        <ele>1004.4</ele>
        <time>2019-07-30T08:38:50Z</time>
      </trkpt>
      <trkpt lat="46.48216" lon="5.97682">
        <ele>1004.5</ele>
        <time>2019-07-30T08:38:56Z</time>
      </trkpt>
      <trkpt lat="46.4822" lon="5.97688">
        <ele>1004.5</ele>
        <time>2019-07-30T08:39:01Z</time>
      </trkpt>
      <trkpt lat="46.4823" lon="5.97703">
        <ele>1005</ele>
        <time>2019-07-30T08:39:13Z</time>
      </trkpt>
      <trkpt lat="46.48232" lon="5.9771">
        <ele>1005.3</ele>
        <time>2019-07-30T08:39:19Z</time>
      </trkpt>
      <trkpt lat="46.48235" lon="5.97717">
        <ele>1005.5</ele>
        <time>2019-07-30T08:39:25Z</time>
      </trkpt>
      <trkpt lat="46.48239" lon="5.97722">
        <ele>1005.5</ele>
        <time>2019-07-30T08:39:30Z</time>
      </trkpt>
      <trkpt lat="46.48243" lon="5.97729">
        <ele>1005.5</ele>
        <time>2019-07-30T08:39:34Z</time>
      </trkpt>
      <trkpt lat="46.48246" lon="5.97734">
        <ele>1005.5</ele>
        <time>2019-07-30T08:39:38Z</time>
      </trkpt>
      <trkpt lat="46.48249" lon="5.97741">
        <ele>1005.4</ele>
        <time>2019-07-30T08:39:43Z</time>
      </trkpt>
      <trkpt lat="46.48251" lon="5.97748">
        <ele>1005.4</ele>
        <time>2019-07-30T08:39:48Z</time>
      </trkpt>
      <trkpt lat="46.48254" lon="5.97753">
        <ele>1005.5</ele>
        <time>2019-07-30T08:39:54Z</time>
      </trkpt>
      <trkpt lat="46.48258" lon="5.97758">
        <ele>1005.9</ele>
        <time>2019-07-30T08:39:59Z</time>
      </trkpt>
      <trkpt lat="46.48263" lon="5.97761">
        <ele>1006.1</ele>
        <time>2019-07-30T08:40:01Z</time>
      </trkpt>
      <trkpt lat="46.48266" lon="5.97766">
        <ele>1006.5</ele>
        <time>2019-07-30T08:40:05Z</time>
      </trkpt>
      <trkpt lat="46.48269" lon="5.97772">
        <ele>1006.8</ele>
        <time>2019-07-30T08:40:07Z</time>
      </trkpt>
      <trkpt lat="46.48272" lon="5.97778">
        <ele>1007.2</ele>
        <time>2019-07-30T08:40:10Z</time>
      </trkpt>
      <trkpt lat="46.48274" lon="5.97784">
        <ele>1008</ele>
        <time>2019-07-30T08:40:15Z</time>
      </trkpt>
      <trkpt lat="46.48276" lon="5.9779">
        <ele>1008.7</ele>
        <time>2019-07-30T08:40:20Z</time>
      </trkpt>
      <trkpt lat="46.48279" lon="5.97796">
        <ele>1009</ele>
        <time>2019-07-30T08:40:24Z</time>
      </trkpt>
      <trkpt lat="46.48282" lon="5.97803">
        <ele>1009.2</ele>
        <time>2019-07-30T08:40:29Z</time>
      </trkpt>
      <trkpt lat="46.48284" lon="5.97809">
        <ele>1009.5</ele>
        <time>2019-07-30T08:40:34Z</time>
      </trkpt>
      <trkpt lat="46.48287" lon="5.97814">
        <ele>1009.8</ele>
        <time>2019-07-30T08:40:38Z</time>
      </trkpt>
      <trkpt lat="46.48289" lon="5.97822">
        <ele>1010.3</ele>
        <time>2019-07-30T08:40:43Z</time>
      </trkpt>
      <trkpt lat="46.48291" lon="5.97828">
        <ele>1010.6</ele>
        <time>2019-07-30T08:40:48Z</time>
      </trkpt>
      <trkpt lat="46.48293" lon="5.97834">
        <ele>1010.7</ele>
        <time>2019-07-30T08:40:51Z</time>
      </trkpt>
      <trkpt lat="46.48295" lon="5.97841">
        <ele>1010.8</ele>
        <time>2019-07-30T08:40:55Z</time>
      </trkpt>
      <trkpt lat="46.48296" lon="5.9785">
        <ele>1011</ele>
        <time>2019-07-30T08:40:58Z</time>
      </trkpt>
      <trkpt lat="46.48296" lon="5.97857">
        <ele>1011.5</ele>
        <time>2019-07-30T08:41:02Z</time>
      </trkpt>
      <trkpt lat="46.48296" lon="5.97875">
        <ele>1014.8</ele>
        <time>2019-07-30T08:41:14Z</time>
      </trkpt>
      <trkpt lat="46.48301" lon="5.97889">
        <ele>1017.3</ele>
        <time>2019-07-30T08:41:22Z</time>
      </trkpt>
      <trkpt lat="46.48313" lon="5.97904">
        <ele>1017.6</ele>
        <time>2019-07-30T08:41:34Z</time>
      </trkpt>
      <trkpt lat="46.48316" lon="5.97909">
        <ele>1017.8</ele>
        <time>2019-07-30T08:41:38Z</time>
      </trkpt>
      <trkpt lat="46.4832" lon="5.97914">
        <ele>1018.1</ele>
        <time>2019-07-30T08:41:44Z</time>
      </trkpt>
      <trkpt lat="46.48323" lon="5.97919">
        <ele>1018.2</ele>
        <time>2019-07-30T08:41:48Z</time>
      </trkpt>
      <trkpt lat="46.48327" lon="5.97925">
        <ele>1018.4</ele>
        <time>2019-07-30T08:41:53Z</time>
      </trkpt>
      <trkpt lat="46.48329" lon="5.97931">
        <ele>1018.6</ele>
        <time>2019-07-30T08:41:57Z</time>
      </trkpt>
      <trkpt lat="46.48334" lon="5.97936">
        <ele>1018.8</ele>
        <time>2019-07-30T08:42:01Z</time>
      </trkpt>
      <trkpt lat="46.48337" lon="5.97942">
        <ele>1019</ele>
        <time>2019-07-30T08:42:05Z</time>
      </trkpt>
      <trkpt lat="46.4834" lon="5.97949">
        <ele>1019.5</ele>
        <time>2019-07-30T08:42:11Z</time>
      </trkpt>
      <trkpt lat="46.48342" lon="5.97955">
        <ele>1019.8</ele>
        <time>2019-07-30T08:42:16Z</time>
      </trkpt>
      <trkpt lat="46.48345" lon="5.97962">
        <ele>1020.1</ele>
        <time>2019-07-30T08:42:21Z</time>
      </trkpt>
      <trkpt lat="46.48347" lon="5.97969">
        <ele>1020.3</ele>
        <time>2019-07-30T08:42:24Z</time>
      </trkpt>
      <trkpt lat="46.48349" lon="5.97976">
        <ele>1020.4</ele>
        <time>2019-07-30T08:42:28Z</time>
      </trkpt>
      <trkpt lat="46.48352" lon="5.97982">
        <ele>1020.7</ele>
        <time>2019-07-30T08:42:33Z</time>
      </trkpt>
      <trkpt lat="46.48356" lon="5.97988">
        <ele>1021</ele>
        <time>2019-07-30T08:42:36Z</time>
      </trkpt>
      <trkpt lat="46.48358" lon="5.97995">
        <ele>1021.5</ele>
        <time>2019-07-30T08:42:40Z</time>
      </trkpt>
      <trkpt lat="46.48364" lon="5.98007">
        <ele>1022.4</ele>
        <time>2019-07-30T08:42:49Z</time>
      </trkpt>
      <trkpt lat="46.48367" lon="5.98013">
        <ele>1022.2</ele>
        <time>2019-07-30T08:42:53Z</time>
      </trkpt>
      <trkpt lat="46.48371" lon="5.98019">
        <ele>1021.9</ele>
        <time>2019-07-30T08:42:57Z</time>
      </trkpt>
      <trkpt lat="46.48374" lon="5.98025">
        <ele>1021.9</ele>
        <time>2019-07-30T08:43:01Z</time>
      </trkpt>
      <trkpt lat="46.48379" lon="5.98029">
        <ele>1021.8</ele>
        <time>2019-07-30T08:43:05Z</time>
      </trkpt>
      <trkpt lat="46.48382" lon="5.98035">
        <ele>1021.4</ele>
        <time>2019-07-30T08:43:10Z</time>
      </trkpt>
      <trkpt lat="46.48385" lon="5.98041">
        <ele>1021</ele>
        <time>2019-07-30T08:43:15Z</time>
      </trkpt>
      <trkpt lat="46.48387" lon="5.98047">
        <ele>1020.9</ele>
        <time>2019-07-30T08:43:20Z</time>
      </trkpt>
      <trkpt lat="46.48391" lon="5.98053">
        <ele>1021</ele>
        <time>2019-07-30T08:43:24Z</time>
      </trkpt>
      <trkpt lat="46.48393" lon="5.98059">
        <ele>1021.1</ele>
        <time>2019-07-30T08:43:28Z</time>
      </trkpt>
      <trkpt lat="46.48396" lon="5.98066">
        <ele>1021.4</ele>
        <time>2019-07-30T08:43:33Z</time>
      </trkpt>
      <trkpt lat="46.48399" lon="5.98072">
        <ele>1021.6</ele>
        <time>2019-07-30T08:43:38Z</time>
      </trkpt>
      <trkpt lat="46.48402" lon="5.98077">
        <ele>1021.6</ele>
        <time>2019-07-30T08:43:42Z</time>
      </trkpt>
      <trkpt lat="46.48404" lon="5.98085">
        <ele>1021.6</ele>
        <time>2019-07-30T08:43:47Z</time>
      </trkpt>
      <trkpt lat="46.48407" lon="5.98091">
        <ele>1021.5</ele>
        <time>2019-07-30T08:43:53Z</time>
      </trkpt>
      <trkpt lat="46.48411" lon="5.98094">
        <ele>1021.2</ele>
        <time>2019-07-30T08:43:58Z</time>
      </trkpt>
      <trkpt lat="46.48415" lon="5.98097">
        <ele>1021</ele>
        <time>2019-07-30T08:44:02Z</time>
      </trkpt>
      <trkpt lat="46.48418" lon="5.98104">
        <ele>1020.8</ele>
        <time>2019-07-30T08:44:06Z</time>
      </trkpt>
      <trkpt lat="46.48422" lon="5.98109">
        <ele>1020.6</ele>
        <time>2019-07-30T08:44:10Z</time>
      </trkpt>
      <trkpt lat="46.48424" lon="5.98115">
        <ele>1020.6</ele>
        <time>2019-07-30T08:44:14Z</time>
      </trkpt>
      <trkpt lat="46.48426" lon="5.9812">
        <ele>1020.7</ele>
        <time>2019-07-30T08:44:17Z</time>
      </trkpt>
      <trkpt lat="46.48429" lon="5.98127">
        <ele>1021</ele>
        <time>2019-07-30T08:44:21Z</time>
      </trkpt>
      <trkpt lat="46.48433" lon="5.98133">
        <ele>1021.4</ele>
        <time>2019-07-30T08:44:27Z</time>
      </trkpt>
      <trkpt lat="46.48437" lon="5.98143">
        <ele>1022.3</ele>
        <time>2019-07-30T08:44:49Z</time>
      </trkpt>
      <trkpt lat="46.48441" lon="5.98148">
        <ele>1022.4</ele>
        <time>2019-07-30T08:44:54Z</time>
      </trkpt>
      <trkpt lat="46.48445" lon="5.98153">
        <ele>1022.7</ele>
        <time>2019-07-30T08:45:00Z</time>
      </trkpt>
      <trkpt lat="46.48448" lon="5.98158">
        <ele>1023</ele>
        <time>2019-07-30T08:45:06Z</time>
      </trkpt>
      <trkpt lat="46.48451" lon="5.98164">
        <ele>1023.3</ele>
        <time>2019-07-30T08:45:10Z</time>
      </trkpt>
      <trkpt lat="46.48455" lon="5.98169">
        <ele>1023.5</ele>
        <time>2019-07-30T08:45:15Z</time>
      </trkpt>
      <trkpt lat="46.48458" lon="5.98176">
        <ele>1023.8</ele>
        <time>2019-07-30T08:45:19Z</time>
      </trkpt>
      <trkpt lat="46.4846" lon="5.98181">
        <ele>1024.1</ele>
        <time>2019-07-30T08:45:23Z</time>
      </trkpt>
      <trkpt lat="46.48464" lon="5.98187">
        <ele>1024.4</ele>
        <time>2019-07-30T08:45:27Z</time>
      </trkpt>
      <trkpt lat="46.48468" lon="5.98193">
        <ele>1024.6</ele>
        <time>2019-07-30T08:45:31Z</time>
      </trkpt>
      <trkpt lat="46.4847" lon="5.98198">
        <ele>1024.8</ele>
        <time>2019-07-30T08:45:35Z</time>
      </trkpt>
      <trkpt lat="46.48473" lon="5.98204">
        <ele>1025.1</ele>
        <time>2019-07-30T08:45:39Z</time>
      </trkpt>
      <trkpt lat="46.48476" lon="5.9821">
        <ele>1025.5</ele>
        <time>2019-07-30T08:45:43Z</time>
      </trkpt>
      <trkpt lat="46.48478" lon="5.98215">
        <ele>1025.7</ele>
        <time>2019-07-30T08:45:47Z</time>
      </trkpt>
      <trkpt lat="46.48481" lon="5.98222">
        <ele>1025.9</ele>
        <time>2019-07-30T08:45:52Z</time>
      </trkpt>
      <trkpt lat="46.48484" lon="5.98228">
        <ele>1026.2</ele>
        <time>2019-07-30T08:45:57Z</time>
      </trkpt>
      <trkpt lat="46.48487" lon="5.98234">
        <ele>1026.5</ele>
        <time>2019-07-30T08:46:01Z</time>
      </trkpt>
      <trkpt lat="46.48491" lon="5.98239">
        <ele>1026.8</ele>
        <time>2019-07-30T08:46:06Z</time>
      </trkpt>
      <trkpt lat="46.48494" lon="5.98244">
        <ele>1026.9</ele>
        <time>2019-07-30T08:46:10Z</time>
      </trkpt>
      <trkpt lat="46.48497" lon="5.9825">
        <ele>1026.9</ele>
        <time>2019-07-30T08:46:15Z</time>
      </trkpt>
      <trkpt lat="46.485" lon="5.98256">
        <ele>1027.1</ele>
        <time>2019-07-30T08:46:19Z</time>
      </trkpt>
      <trkpt lat="46.48502" lon="5.98262">
        <ele>1027.5</ele>
        <time>2019-07-30T08:46:23Z</time>
      </trkpt>
      <trkpt lat="46.48505" lon="5.98268">
        <ele>1027.8</ele>
        <time>2019-07-30T08:46:27Z</time>
      </trkpt>
      <trkpt lat="46.48509" lon="5.98275">
        <ele>1028.1</ele>
        <time>2019-07-30T08:46:31Z</time>
      </trkpt>
      <trkpt lat="46.48511" lon="5.98282">
        <ele>1028.3</ele>
        <time>2019-07-30T08:46:37Z</time>
      </trkpt>
      <trkpt lat="46.48514" lon="5.98289">
        <ele>1028.4</ele>
        <time>2019-07-30T08:46:43Z</time>
      </trkpt>
      <trkpt lat="46.48516" lon="5.98294">
        <ele>1028.4</ele>
        <time>2019-07-30T08:46:47Z</time>
      </trkpt>
      <trkpt lat="46.48518" lon="5.98301">
        <ele>1028.5</ele>
        <time>2019-07-30T08:46:51Z</time>
      </trkpt>
      <trkpt lat="46.48521" lon="5.98307">
        <ele>1028.6</ele>
        <time>2019-07-30T08:46:55Z</time>
      </trkpt>
      <trkpt lat="46.48524" lon="5.98313">
        <ele>1028.8</ele>
        <time>2019-07-30T08:46:59Z</time>
      </trkpt>
      <trkpt lat="46.48526" lon="5.98318">
        <ele>1029.1</ele>
        <time>2019-07-30T08:47:03Z</time>
      </trkpt>
      <trkpt lat="46.48528" lon="5.98324">
        <ele>1029.5</ele>
        <time>2019-07-30T08:47:07Z</time>
      </trkpt>
      <trkpt lat="46.48531" lon="5.98329">
        <ele>1030</ele>
        <time>2019-07-30T08:47:11Z</time>
      </trkpt>
      <trkpt lat="46.48534" lon="5.98335">
        <ele>1030.4</ele>
        <time>2019-07-30T08:47:15Z</time>
      </trkpt>
      <trkpt lat="46.48536" lon="5.98343">
        <ele>1030.7</ele>
        <time>2019-07-30T08:47:19Z</time>
      </trkpt>
      <trkpt lat="46.48538" lon="5.98349">
        <ele>1031.4</ele>
        <time>2019-07-30T08:47:25Z</time>
      </trkpt>
      <trkpt lat="46.48541" lon="5.98356">
        <ele>1031.8</ele>
        <time>2019-07-30T08:47:29Z</time>
      </trkpt>
      <trkpt lat="46.48544" lon="5.98363">
        <ele>1032.7</ele>
        <time>2019-07-30T08:47:34Z</time>
      </trkpt>
      <trkpt lat="46.48546" lon="5.98369">
        <ele>1033.7</ele>
        <time>2019-07-30T08:47:41Z</time>
      </trkpt>
      <trkpt lat="46.48547" lon="5.98377">
        <ele>1034.3</ele>
        <time>2019-07-30T08:47:47Z</time>
      </trkpt>
      <trkpt lat="46.48547" lon="5.98383">
        <ele>1034.5</ele>
        <time>2019-07-30T08:47:51Z</time>
      </trkpt>
      <trkpt lat="46.48549" lon="5.9839">
        <ele>1034.5</ele>
        <time>2019-07-30T08:47:54Z</time>
      </trkpt>
      <trkpt lat="46.4855" lon="5.98397">
        <ele>1034.4</ele>
        <time>2019-07-30T08:47:59Z</time>
      </trkpt>
      <trkpt lat="46.48551" lon="5.98403">
        <ele>1034.1</ele>
        <time>2019-07-30T08:48:03Z</time>
      </trkpt>
      <trkpt lat="46.48552" lon="5.9841">
        <ele>1033.8</ele>
        <time>2019-07-30T08:48:07Z</time>
      </trkpt>
      <trkpt lat="46.48553" lon="5.98417">
        <ele>1033.5</ele>
        <time>2019-07-30T08:48:12Z</time>
      </trkpt>
      <trkpt lat="46.48554" lon="5.98424">
        <ele>1033.4</ele>
        <time>2019-07-30T08:48:16Z</time>
      </trkpt>
      <trkpt lat="46.48555" lon="5.98432">
        <ele>1033.2</ele>
        <time>2019-07-30T08:48:21Z</time>
      </trkpt>
      <trkpt lat="46.48557" lon="5.98438">
        <ele>1033.2</ele>
        <time>2019-07-30T08:48:25Z</time>
      </trkpt>
      <trkpt lat="46.48559" lon="5.98445">
        <ele>1032.9</ele>
        <time>2019-07-30T08:48:30Z</time>
      </trkpt>
      <trkpt lat="46.48561" lon="5.98453">
        <ele>1032.7</ele>
        <time>2019-07-30T08:48:36Z</time>
      </trkpt>
      <trkpt lat="46.48563" lon="5.98459">
        <ele>1032.5</ele>
        <time>2019-07-30T08:48:40Z</time>
      </trkpt>
      <trkpt lat="46.48565" lon="5.98466">
        <ele>1032.2</ele>
        <time>2019-07-30T08:48:44Z</time>
      </trkpt>
      <trkpt lat="46.48566" lon="5.98474">
        <ele>1031.9</ele>
        <time>2019-07-30T08:48:48Z</time>
      </trkpt>
      <trkpt lat="46.48568" lon="5.98481">
        <ele>1031.7</ele>
        <time>2019-07-30T08:48:52Z</time>
      </trkpt>
      <trkpt lat="46.48568" lon="5.98488">
        <ele>1031.3</ele>
        <time>2019-07-30T08:48:57Z</time>
      </trkpt>
      <trkpt lat="46.48569" lon="5.98495">
        <ele>1030.8</ele>
        <time>2019-07-30T08:49:02Z</time>
      </trkpt>
      <trkpt lat="46.48571" lon="5.98503">
        <ele>1030.5</ele>
        <time>2019-07-30T08:49:07Z</time>
      </trkpt>
      <trkpt lat="46.48572" lon="5.9851">
        <ele>1030.4</ele>
        <time>2019-07-30T08:49:12Z</time>
      </trkpt>
      <trkpt lat="46.48572" lon="5.98516">
        <ele>1030.5</ele>
        <time>2019-07-30T08:49:16Z</time>
      </trkpt>
      <trkpt lat="46.48574" lon="5.98524">
        <ele>1030.8</ele>
        <time>2019-07-30T08:49:21Z</time>
      </trkpt>
      <trkpt lat="46.48575" lon="5.9853">
        <ele>1031.1</ele>
        <time>2019-07-30T08:49:26Z</time>
      </trkpt>
      <trkpt lat="46.48576" lon="5.98537">
        <ele>1031.3</ele>
        <time>2019-07-30T08:49:31Z</time>
      </trkpt>
      <trkpt lat="46.48577" lon="5.98544">
        <ele>1031.3</ele>
        <time>2019-07-30T08:49:35Z</time>
      </trkpt>
      <trkpt lat="46.48579" lon="5.98551">
        <ele>1031.3</ele>
        <time>2019-07-30T08:49:39Z</time>
      </trkpt>
      <trkpt lat="46.4858" lon="5.98558">
        <ele>1031</ele>
        <time>2019-07-30T08:49:44Z</time>
      </trkpt>
      <trkpt lat="46.48584" lon="5.98565">
        <ele>1030.7</ele>
        <time>2019-07-30T08:49:49Z</time>
      </trkpt>
      <trkpt lat="46.48586" lon="5.98572">
        <ele>1030.7</ele>
        <time>2019-07-30T08:49:53Z</time>
      </trkpt>
      <trkpt lat="46.48588" lon="5.98579">
        <ele>1030.6</ele>
        <time>2019-07-30T08:49:58Z</time>
      </trkpt>
      <trkpt lat="46.4859" lon="5.98587">
        <ele>1030.5</ele>
        <time>2019-07-30T08:50:02Z</time>
      </trkpt>
      <trkpt lat="46.48592" lon="5.98593">
        <ele>1030.4</ele>
        <time>2019-07-30T08:50:05Z</time>
      </trkpt>
      <trkpt lat="46.48594" lon="5.98599">
        <ele>1030.2</ele>
        <time>2019-07-30T08:50:09Z</time>
      </trkpt>
      <trkpt lat="46.48596" lon="5.98605">
        <ele>1029.9</ele>
        <time>2019-07-30T08:50:13Z</time>
      </trkpt>
      <trkpt lat="46.48599" lon="5.9861">
        <ele>1029.3</ele>
        <time>2019-07-30T08:50:18Z</time>
      </trkpt>
      <trkpt lat="46.48602" lon="5.98617">
        <ele>1028.8</ele>
        <time>2019-07-30T08:50:23Z</time>
      </trkpt>
      <trkpt lat="46.48604" lon="5.98624">
        <ele>1028.6</ele>
        <time>2019-07-30T08:50:27Z</time>
      </trkpt>
      <trkpt lat="46.48608" lon="5.98629">
        <ele>1028.3</ele>
        <time>2019-07-30T08:50:31Z</time>
      </trkpt>
      <trkpt lat="46.48612" lon="5.98635">
        <ele>1028</ele>
        <time>2019-07-30T08:50:36Z</time>
      </trkpt>
      <trkpt lat="46.48615" lon="5.98641">
        <ele>1027.6</ele>
        <time>2019-07-30T08:50:41Z</time>
      </trkpt>
      <trkpt lat="46.48618" lon="5.98647">
        <ele>1027.4</ele>
        <time>2019-07-30T08:50:45Z</time>
      </trkpt>
      <trkpt lat="46.48621" lon="5.98653">
        <ele>1027.1</ele>
        <time>2019-07-30T08:50:49Z</time>
      </trkpt>
      <trkpt lat="46.48624" lon="5.98658">
        <ele>1026.8</ele>
        <time>2019-07-30T08:50:54Z</time>
      </trkpt>
      <trkpt lat="46.48626" lon="5.98664">
        <ele>1026.5</ele>
        <time>2019-07-30T08:50:59Z</time>
      </trkpt>
      <trkpt lat="46.48628" lon="5.98671">
        <ele>1026.2</ele>
        <time>2019-07-30T08:51:04Z</time>
      </trkpt>
      <trkpt lat="46.4863" lon="5.98678">
        <ele>1026</ele>
        <time>2019-07-30T08:51:08Z</time>
      </trkpt>
      <trkpt lat="46.48631" lon="5.98684">
        <ele>1025.7</ele>
        <time>2019-07-30T08:51:12Z</time>
      </trkpt>
      <trkpt lat="46.48632" lon="5.98691">
        <ele>1025.3</ele>
        <time>2019-07-30T08:51:17Z</time>
      </trkpt>
      <trkpt lat="46.4863" lon="5.98698">
        <ele>1024.2</ele>
        <time>2019-07-30T08:51:24Z</time>
      </trkpt>
      <trkpt lat="46.4863" lon="5.98705">
        <ele>1022.8</ele>
        <time>2019-07-30T08:51:31Z</time>
      </trkpt>
      <trkpt lat="46.48628" lon="5.98711">
        <ele>1021.4</ele>
        <time>2019-07-30T08:51:37Z</time>
      </trkpt>
      <trkpt lat="46.48624" lon="5.98716">
        <ele>1019.6</ele>
        <time>2019-07-30T08:51:45Z</time>
      </trkpt>
      <trkpt lat="46.4862" lon="5.98719">
        <ele>1018.1</ele>
        <time>2019-07-30T08:51:50Z</time>
      </trkpt>
      <trkpt lat="46.48615" lon="5.98721">
        <ele>1016.9</ele>
        <time>2019-07-30T08:51:54Z</time>
      </trkpt>
      <trkpt lat="46.4861" lon="5.98724">
        <ele>1015.7</ele>
        <time>2019-07-30T08:51:58Z</time>
      </trkpt>
      <trkpt lat="46.48606" lon="5.98725">
        <ele>1014.5</ele>
        <time>2019-07-30T08:52:02Z</time>
      </trkpt>
      <trkpt lat="46.48601" lon="5.98725">
        <ele>1013.3</ele>
        <time>2019-07-30T08:52:07Z</time>
      </trkpt>
      <trkpt lat="46.48596" lon="5.98723">
        <ele>1012.6</ele>
        <time>2019-07-30T08:52:11Z</time>
      </trkpt>
      <trkpt lat="46.48591" lon="5.98725">
        <ele>1012.2</ele>
        <time>2019-07-30T08:52:14Z</time>
      </trkpt>
      <trkpt lat="46.48572" lon="5.98736">
        <ele>1013.4</ele>
        <time>2019-07-30T08:52:31Z</time>
      </trkpt>
      <trkpt lat="46.4857" lon="5.98743">
        <ele>1013.5</ele>
        <time>2019-07-30T08:52:35Z</time>
      </trkpt>
      <trkpt lat="46.4857" lon="5.9875">
        <ele>1013.8</ele>
        <time>2019-07-30T08:52:39Z</time>
      </trkpt>
      <trkpt lat="46.48571" lon="5.98759">
        <ele>1014.2</ele>
        <time>2019-07-30T08:52:43Z</time>
      </trkpt>
      <trkpt lat="46.48572" lon="5.98767">
        <ele>1014.7</ele>
        <time>2019-07-30T08:52:47Z</time>
      </trkpt>
      <trkpt lat="46.48573" lon="5.98774">
        <ele>1015</ele>
        <time>2019-07-30T08:52:51Z</time>
      </trkpt>
      <trkpt lat="46.48573" lon="5.98781">
        <ele>1015.6</ele>
        <time>2019-07-30T08:52:57Z</time>
      </trkpt>
      <trkpt lat="46.48575" lon="5.98788">
        <ele>1015.9</ele>
        <time>2019-07-30T08:53:02Z</time>
      </trkpt>
      <trkpt lat="46.48576" lon="5.98794">
        <ele>1016.2</ele>
        <time>2019-07-30T08:53:06Z</time>
      </trkpt>
      <trkpt lat="46.48577" lon="5.98801">
        <ele>1016.5</ele>
        <time>2019-07-30T08:53:11Z</time>
      </trkpt>
      <trkpt lat="46.48578" lon="5.98809">
        <ele>1017.1</ele>
        <time>2019-07-30T08:53:16Z</time>
      </trkpt>
      <trkpt lat="46.4858" lon="5.98815">
        <ele>1017.9</ele>
        <time>2019-07-30T08:53:21Z</time>
      </trkpt>
      <trkpt lat="46.4858" lon="5.98822">
        <ele>1018.5</ele>
        <time>2019-07-30T08:53:25Z</time>
      </trkpt>
      <trkpt lat="46.48582" lon="5.98829">
        <ele>1019</ele>
        <time>2019-07-30T08:53:29Z</time>
      </trkpt>
      <trkpt lat="46.48584" lon="5.98835">
        <ele>1019.4</ele>
        <time>2019-07-30T08:53:33Z</time>
      </trkpt>
      <trkpt lat="46.48585" lon="5.98842">
        <ele>1019.8</ele>
        <time>2019-07-30T08:53:38Z</time>
      </trkpt>
      <trkpt lat="46.48587" lon="5.98848">
        <ele>1020.2</ele>
        <time>2019-07-30T08:53:44Z</time>
      </trkpt>
      <trkpt lat="46.48588" lon="5.98855">
        <ele>1020.5</ele>
        <time>2019-07-30T08:53:48Z</time>
      </trkpt>
      <trkpt lat="46.4859" lon="5.98862">
        <ele>1020.8</ele>
        <time>2019-07-30T08:53:52Z</time>
      </trkpt>
      <trkpt lat="46.48591" lon="5.98869">
        <ele>1020.9</ele>
        <time>2019-07-30T08:53:55Z</time>
      </trkpt>
      <trkpt lat="46.48593" lon="5.98876">
        <ele>1021</ele>
        <time>2019-07-30T08:54:00Z</time>
      </trkpt>
      <trkpt lat="46.48594" lon="5.98883">
        <ele>1021</ele>
        <time>2019-07-30T08:54:05Z</time>
      </trkpt>
      <trkpt lat="46.48594" lon="5.9889">
        <ele>1021.2</ele>
        <time>2019-07-30T08:54:09Z</time>
      </trkpt>
      <trkpt lat="46.48595" lon="5.98896">
        <ele>1021.5</ele>
        <time>2019-07-30T08:54:13Z</time>
      </trkpt>
      <trkpt lat="46.48596" lon="5.98903">
        <ele>1021.9</ele>
        <time>2019-07-30T08:54:18Z</time>
      </trkpt>
      <trkpt lat="46.48596" lon="5.9891">
        <ele>1022.2</ele>
        <time>2019-07-30T08:54:22Z</time>
      </trkpt>
      <trkpt lat="46.48597" lon="5.98918">
        <ele>1022.4</ele>
        <time>2019-07-30T08:54:26Z</time>
      </trkpt>
      <trkpt lat="46.48598" lon="5.98925">
        <ele>1022.3</ele>
        <time>2019-07-30T08:54:31Z</time>
      </trkpt>
      <trkpt lat="46.486" lon="5.98932">
        <ele>1022.1</ele>
        <time>2019-07-30T08:54:36Z</time>
      </trkpt>
      <trkpt lat="46.48601" lon="5.98939">
        <ele>1022</ele>
        <time>2019-07-30T08:54:40Z</time>
      </trkpt>
      <trkpt lat="46.48602" lon="5.98946">
        <ele>1022</ele>
        <time>2019-07-30T08:54:45Z</time>
      </trkpt>
      <trkpt lat="46.48602" lon="5.98954">
        <ele>1021.9</ele>
        <time>2019-07-30T08:54:50Z</time>
      </trkpt>
      <trkpt lat="46.48602" lon="5.98961">
        <ele>1021.8</ele>
        <time>2019-07-30T08:54:55Z</time>
      </trkpt>
      <trkpt lat="46.48604" lon="5.98967">
        <ele>1021.6</ele>
        <time>2019-07-30T08:55:00Z</time>
      </trkpt>
      <trkpt lat="46.48606" lon="5.98975">
        <ele>1021.1</ele>
        <time>2019-07-30T08:55:07Z</time>
      </trkpt>
      <trkpt lat="46.48607" lon="5.98983">
        <ele>1020.9</ele>
        <time>2019-07-30T08:55:11Z</time>
      </trkpt>
      <trkpt lat="46.48609" lon="5.9899">
        <ele>1020.7</ele>
        <time>2019-07-30T08:55:15Z</time>
      </trkpt>
      <trkpt lat="46.48611" lon="5.98997">
        <ele>1020.6</ele>
        <time>2019-07-30T08:55:19Z</time>
      </trkpt>
      <trkpt lat="46.48614" lon="5.99003">
        <ele>1020.7</ele>
        <time>2019-07-30T08:55:22Z</time>
      </trkpt>
      <trkpt lat="46.48616" lon="5.9901">
        <ele>1020.6</ele>
        <time>2019-07-30T08:55:26Z</time>
      </trkpt>
      <trkpt lat="46.48619" lon="5.99017">
        <ele>1020.5</ele>
        <time>2019-07-30T08:55:31Z</time>
      </trkpt>
      <trkpt lat="46.48622" lon="5.99023">
        <ele>1020.4</ele>
        <time>2019-07-30T08:55:35Z</time>
      </trkpt>
      <trkpt lat="46.48626" lon="5.99028">
        <ele>1020.6</ele>
        <time>2019-07-30T08:55:40Z</time>
      </trkpt>
      <trkpt lat="46.4863" lon="5.99032">
        <ele>1020.8</ele>
        <time>2019-07-30T08:55:44Z</time>
      </trkpt>
      <trkpt lat="46.48633" lon="5.99037">
        <ele>1021</ele>
        <time>2019-07-30T08:55:48Z</time>
      </trkpt>
      <trkpt lat="46.48637" lon="5.99042">
        <ele>1021.1</ele>
        <time>2019-07-30T08:55:52Z</time>
      </trkpt>
      <trkpt lat="46.4864" lon="5.99046">
        <ele>1021.2</ele>
        <time>2019-07-30T08:55:57Z</time>
      </trkpt>
      <trkpt lat="46.48644" lon="5.99052">
        <ele>1021.2</ele>
        <time>2019-07-30T08:56:01Z</time>
      </trkpt>
      <trkpt lat="46.48648" lon="5.99057">
        <ele>1021.4</ele>
        <time>2019-07-30T08:56:06Z</time>
      </trkpt>
      <trkpt lat="46.48651" lon="5.99063">
        <ele>1021.7</ele>
        <time>2019-07-30T08:56:11Z</time>
      </trkpt>
      <trkpt lat="46.48655" lon="5.99069">
        <ele>1022</ele>
        <time>2019-07-30T08:56:16Z</time>
      </trkpt>
      <trkpt lat="46.48658" lon="5.99075">
        <ele>1022.3</ele>
        <time>2019-07-30T08:56:20Z</time>
      </trkpt>
      <trkpt lat="46.48661" lon="5.9908">
        <ele>1022.7</ele>
        <time>2019-07-30T08:56:24Z</time>
      </trkpt>
      <trkpt lat="46.48664" lon="5.99086">
        <ele>1023</ele>
        <time>2019-07-30T08:56:28Z</time>
      </trkpt>
      <trkpt lat="46.48667" lon="5.99092">
        <ele>1023.4</ele>
        <time>2019-07-30T08:56:33Z</time>
      </trkpt>
      <trkpt lat="46.4867" lon="5.99097">
        <ele>1023.7</ele>
        <time>2019-07-30T08:56:37Z</time>
      </trkpt>
      <trkpt lat="46.48672" lon="5.99103">
        <ele>1023.8</ele>
        <time>2019-07-30T08:56:40Z</time>
      </trkpt>
      <trkpt lat="46.48675" lon="5.99109">
        <ele>1023.8</ele>
        <time>2019-07-30T08:56:44Z</time>
      </trkpt>
      <trkpt lat="46.48679" lon="5.99115">
        <ele>1023.8</ele>
        <time>2019-07-30T08:56:50Z</time>
      </trkpt>
      <trkpt lat="46.48683" lon="5.99121">
        <ele>1023.8</ele>
        <time>2019-07-30T08:56:54Z</time>
      </trkpt>
      <trkpt lat="46.48686" lon="5.99126">
        <ele>1023.9</ele>
        <time>2019-07-30T08:56:58Z</time>
      </trkpt>
      <trkpt lat="46.4869" lon="5.99131">
        <ele>1024</ele>
        <time>2019-07-30T08:57:01Z</time>
      </trkpt>
      <trkpt lat="46.48692" lon="5.99137">
        <ele>1024.1</ele>
        <time>2019-07-30T08:57:04Z</time>
      </trkpt>
      <trkpt lat="46.48695" lon="5.99144">
        <ele>1024.2</ele>
        <time>2019-07-30T08:57:08Z</time>
      </trkpt>
      <trkpt lat="46.48698" lon="5.9915">
        <ele>1024.4</ele>
        <time>2019-07-30T08:57:12Z</time>
      </trkpt>
      <trkpt lat="46.487" lon="5.99157">
        <ele>1024.7</ele>
        <time>2019-07-30T08:57:17Z</time>
      </trkpt>
      <trkpt lat="46.48702" lon="5.99164">
        <ele>1024.9</ele>
        <time>2019-07-30T08:57:22Z</time>
      </trkpt>
      <trkpt lat="46.48704" lon="5.99171">
        <ele>1025</ele>
        <time>2019-07-30T08:57:28Z</time>
      </trkpt>
      <trkpt lat="46.48708" lon="5.99177">
        <ele>1025</ele>
        <time>2019-07-30T08:57:32Z</time>
      </trkpt>
      <trkpt lat="46.48711" lon="5.99183">
        <ele>1025.1</ele>
        <time>2019-07-30T08:57:37Z</time>
      </trkpt>
      <trkpt lat="46.48714" lon="5.9919">
        <ele>1025.1</ele>
        <time>2019-07-30T08:57:41Z</time>
      </trkpt>
      <trkpt lat="46.48718" lon="5.99195">
        <ele>1025.2</ele>
        <time>2019-07-30T08:57:45Z</time>
      </trkpt>
      <trkpt lat="46.48721" lon="5.992">
        <ele>1025.5</ele>
        <time>2019-07-30T08:57:50Z</time>
      </trkpt>
      <trkpt lat="46.48724" lon="5.99206">
        <ele>1025.8</ele>
        <time>2019-07-30T08:57:55Z</time>
      </trkpt>
      <trkpt lat="46.48727" lon="5.99213">
        <ele>1026.1</ele>
        <time>2019-07-30T08:58:00Z</time>
      </trkpt>
      <trkpt lat="46.48731" lon="5.99219">
        <ele>1026.4</ele>
        <time>2019-07-30T08:58:05Z</time>
      </trkpt>
      <trkpt lat="46.48734" lon="5.99223">
        <ele>1026.5</ele>
        <time>2019-07-30T08:58:09Z</time>
      </trkpt>
      <trkpt lat="46.48737" lon="5.99229">
        <ele>1026.7</ele>
        <time>2019-07-30T08:58:13Z</time>
      </trkpt>
      <trkpt lat="46.4874" lon="5.99234">
        <ele>1026.8</ele>
        <time>2019-07-30T08:58:18Z</time>
      </trkpt>
      <trkpt lat="46.48744" lon="5.99239">
        <ele>1026.9</ele>
        <time>2019-07-30T08:58:22Z</time>
      </trkpt>
      <trkpt lat="46.48748" lon="5.99245">
        <ele>1026.9</ele>
        <time>2019-07-30T08:58:26Z</time>
      </trkpt>
      <trkpt lat="46.48751" lon="5.99252">
        <ele>1026.7</ele>
        <time>2019-07-30T08:58:31Z</time>
      </trkpt>
      <trkpt lat="46.48754" lon="5.99258">
        <ele>1026.6</ele>
        <time>2019-07-30T08:58:36Z</time>
      </trkpt>
      <trkpt lat="46.48757" lon="5.99264">
        <ele>1026.7</ele>
        <time>2019-07-30T08:58:40Z</time>
      </trkpt>
      <trkpt lat="46.4876" lon="5.99271">
        <ele>1026.9</ele>
        <time>2019-07-30T08:58:45Z</time>
      </trkpt>
      <trkpt lat="46.48762" lon="5.99277">
        <ele>1027</ele>
        <time>2019-07-30T08:58:49Z</time>
      </trkpt>
      <trkpt lat="46.48764" lon="5.99284">
        <ele>1027.3</ele>
        <time>2019-07-30T08:58:54Z</time>
      </trkpt>
      <trkpt lat="46.48766" lon="5.99291">
        <ele>1027.5</ele>
        <time>2019-07-30T08:58:58Z</time>
      </trkpt>
      <trkpt lat="46.48768" lon="5.99298">
        <ele>1027.7</ele>
        <time>2019-07-30T08:59:02Z</time>
      </trkpt>
      <trkpt lat="46.4877" lon="5.99304">
        <ele>1028</ele>
        <time>2019-07-30T08:59:06Z</time>
      </trkpt>
      <trkpt lat="46.48771" lon="5.99311">
        <ele>1028.3</ele>
        <time>2019-07-30T08:59:10Z</time>
      </trkpt>
      <trkpt lat="46.48773" lon="5.99317">
        <ele>1028.6</ele>
        <time>2019-07-30T08:59:15Z</time>
      </trkpt>
      <trkpt lat="46.48776" lon="5.99323">
        <ele>1028.9</ele>
        <time>2019-07-30T08:59:19Z</time>
      </trkpt>
      <trkpt lat="46.48778" lon="5.99329">
        <ele>1029</ele>
        <time>2019-07-30T08:59:24Z</time>
      </trkpt>
      <trkpt lat="46.4878" lon="5.99335">
        <ele>1028.8</ele>
        <time>2019-07-30T08:59:29Z</time>
      </trkpt>
      <trkpt lat="46.48782" lon="5.9934">
        <ele>1028.5</ele>
        <time>2019-07-30T08:59:33Z</time>
      </trkpt>
      <trkpt lat="46.48785" lon="5.99347">
        <ele>1028.1</ele>
        <time>2019-07-30T08:59:37Z</time>
      </trkpt>
      <trkpt lat="46.48787" lon="5.99353">
        <ele>1027.5</ele>
        <time>2019-07-30T08:59:41Z</time>
      </trkpt>
      <trkpt lat="46.48789" lon="5.9936">
        <ele>1026.9</ele>
        <time>2019-07-30T08:59:47Z</time>
      </trkpt>
      <trkpt lat="46.48792" lon="5.99366">
        <ele>1026.6</ele>
        <time>2019-07-30T08:59:51Z</time>
      </trkpt>
      <trkpt lat="46.48794" lon="5.99372">
        <ele>1026.4</ele>
        <time>2019-07-30T08:59:54Z</time>
      </trkpt>
      <trkpt lat="46.48798" lon="5.99378">
        <ele>1026.2</ele>
        <time>2019-07-30T08:59:59Z</time>
      </trkpt>
      <trkpt lat="46.48801" lon="5.99383">
        <ele>1026.1</ele>
        <time>2019-07-30T09:00:03Z</time>
      </trkpt>
      <trkpt lat="46.48805" lon="5.99389">
        <ele>1026</ele>
        <time>2019-07-30T09:00:07Z</time>
      </trkpt>
      <trkpt lat="46.48808" lon="5.99394">
        <ele>1026</ele>
        <time>2019-07-30T09:00:11Z</time>
      </trkpt>
      <trkpt lat="46.4881" lon="5.994">
        <ele>1026.1</ele>
        <time>2019-07-30T09:00:15Z</time>
      </trkpt>
      <trkpt lat="46.48812" lon="5.99407">
        <ele>1026</ele>
        <time>2019-07-30T09:00:20Z</time>
      </trkpt>
      <trkpt lat="46.48815" lon="5.99413">
        <ele>1025.8</ele>
        <time>2019-07-30T09:00:25Z</time>
      </trkpt>
      <trkpt lat="46.48817" lon="5.99421">
        <ele>1025.8</ele>
        <time>2019-07-30T09:00:31Z</time>
      </trkpt>
      <trkpt lat="46.48817" lon="5.99428">
        <ele>1025.8</ele>
        <time>2019-07-30T09:00:35Z</time>
      </trkpt>
      <trkpt lat="46.48816" lon="5.99435">
        <ele>1025.8</ele>
        <time>2019-07-30T09:00:39Z</time>
      </trkpt>
      <trkpt lat="46.48814" lon="5.99442">
        <ele>1025.6</ele>
        <time>2019-07-30T09:00:44Z</time>
      </trkpt>
      <trkpt lat="46.48814" lon="5.99449">
        <ele>1025.2</ele>
        <time>2019-07-30T09:00:48Z</time>
      </trkpt>
      <trkpt lat="46.48815" lon="5.99457">
        <ele>1025</ele>
        <time>2019-07-30T09:00:53Z</time>
      </trkpt>
      <trkpt lat="46.48815" lon="5.99464">
        <ele>1025</ele>
        <time>2019-07-30T09:00:57Z</time>
      </trkpt>
      <trkpt lat="46.48816" lon="5.99471">
        <ele>1025</ele>
        <time>2019-07-30T09:01:02Z</time>
      </trkpt>
      <trkpt lat="46.48817" lon="5.99478">
        <ele>1024.9</ele>
        <time>2019-07-30T09:01:07Z</time>
      </trkpt>
      <trkpt lat="46.48818" lon="5.99485">
        <ele>1024.9</ele>
        <time>2019-07-30T09:01:12Z</time>
      </trkpt>
      <trkpt lat="46.48819" lon="5.99491">
        <ele>1024.9</ele>
        <time>2019-07-30T09:01:17Z</time>
      </trkpt>
      <trkpt lat="46.48822" lon="5.99497">
        <ele>1024.7</ele>
        <time>2019-07-30T09:01:24Z</time>
      </trkpt>
      <trkpt lat="46.48822" lon="5.99504">
        <ele>1021.7</ele>
        <time>2019-07-30T09:02:00Z</time>
      </trkpt>
      <trkpt lat="46.48824" lon="5.99511">
        <ele>1021.5</ele>
        <time>2019-07-30T09:02:06Z</time>
      </trkpt>
      <trkpt lat="46.48826" lon="5.99518">
        <ele>1021</ele>
        <time>2019-07-30T09:02:14Z</time>
      </trkpt>
      <trkpt lat="46.48827" lon="5.99524">
        <ele>1020.8</ele>
        <time>2019-07-30T09:02:19Z</time>
      </trkpt>
      <trkpt lat="46.48827" lon="5.99532">
        <ele>1020.6</ele>
        <time>2019-07-30T09:02:24Z</time>
      </trkpt>
      <trkpt lat="46.48828" lon="5.99539">
        <ele>1020.4</ele>
        <time>2019-07-30T09:02:30Z</time>
      </trkpt>
      <trkpt lat="46.4883" lon="5.99545">
        <ele>1020</ele>
        <time>2019-07-30T09:02:35Z</time>
      </trkpt>
      <trkpt lat="46.48832" lon="5.99551">
        <ele>1019.6</ele>
        <time>2019-07-30T09:02:40Z</time>
      </trkpt>
      <trkpt lat="46.48834" lon="5.99559">
        <ele>1019.2</ele>
        <time>2019-07-30T09:02:45Z</time>
      </trkpt>
      <trkpt lat="46.48834" lon="5.99566">
        <ele>1018.9</ele>
        <time>2019-07-30T09:02:50Z</time>
      </trkpt>
      <trkpt lat="46.48836" lon="5.99572">
        <ele>1018.7</ele>
        <time>2019-07-30T09:02:54Z</time>
      </trkpt>
      <trkpt lat="46.48836" lon="5.99579">
        <ele>1018.7</ele>
        <time>2019-07-30T09:02:58Z</time>
      </trkpt>
      <trkpt lat="46.48837" lon="5.99585">
        <ele>1018.7</ele>
        <time>2019-07-30T09:03:03Z</time>
      </trkpt>
      <trkpt lat="46.48837" lon="5.99593">
        <ele>1018.4</ele>
        <time>2019-07-30T09:03:09Z</time>
      </trkpt>
      <trkpt lat="46.48838" lon="5.99601">
        <ele>1018.5</ele>
        <time>2019-07-30T09:03:14Z</time>
      </trkpt>
      <trkpt lat="46.48838" lon="5.99608">
        <ele>1018.7</ele>
        <time>2019-07-30T09:03:18Z</time>
      </trkpt>
      <trkpt lat="46.48839" lon="5.99615">
        <ele>1018.8</ele>
        <time>2019-07-30T09:03:22Z</time>
      </trkpt>
      <trkpt lat="46.4884" lon="5.99622">
        <ele>1019</ele>
        <time>2019-07-30T09:03:27Z</time>
      </trkpt>
      <trkpt lat="46.48841" lon="5.99629">
        <ele>1019.1</ele>
        <time>2019-07-30T09:03:33Z</time>
      </trkpt>
      <trkpt lat="46.48844" lon="5.99634">
        <ele>1019.1</ele>
        <time>2019-07-30T09:03:39Z</time>
      </trkpt>
      <trkpt lat="46.48846" lon="5.9964">
        <ele>1019</ele>
        <time>2019-07-30T09:03:42Z</time>
      </trkpt>
      <trkpt lat="46.48849" lon="5.99647">
        <ele>1019.1</ele>
        <time>2019-07-30T09:03:48Z</time>
      </trkpt>
      <trkpt lat="46.48851" lon="5.99653">
        <ele>1019.8</ele>
        <time>2019-07-30T09:03:54Z</time>
      </trkpt>
      <trkpt lat="46.48852" lon="5.99659">
        <ele>1020.3</ele>
        <time>2019-07-30T09:03:59Z</time>
      </trkpt>
      <trkpt lat="46.48854" lon="5.99666">
        <ele>1020.6</ele>
        <time>2019-07-30T09:04:03Z</time>
      </trkpt>
      <trkpt lat="46.48856" lon="5.99673">
        <ele>1021</ele>
        <time>2019-07-30T09:04:08Z</time>
      </trkpt>
      <trkpt lat="46.4886" lon="5.99678">
        <ele>1021.5</ele>
        <time>2019-07-30T09:04:13Z</time>
      </trkpt>
      <trkpt lat="46.48864" lon="5.99682">
        <ele>1021.8</ele>
        <time>2019-07-30T09:04:16Z</time>
      </trkpt>
      <trkpt lat="46.48867" lon="5.99687">
        <ele>1022.1</ele>
        <time>2019-07-30T09:04:19Z</time>
      </trkpt>
      <trkpt lat="46.48871" lon="5.99692">
        <ele>1022.4</ele>
        <time>2019-07-30T09:04:23Z</time>
      </trkpt>
      <trkpt lat="46.48873" lon="5.99699">
        <ele>1023.1</ele>
        <time>2019-07-30T09:04:28Z</time>
      </trkpt>
      <trkpt lat="46.48876" lon="5.99704">
        <ele>1023.7</ele>
        <time>2019-07-30T09:04:33Z</time>
      </trkpt>
      <trkpt lat="46.48879" lon="5.9971">
        <ele>1024.3</ele>
        <time>2019-07-30T09:04:37Z</time>
      </trkpt>
      <trkpt lat="46.48887" lon="5.99724">
        <ele>1026.2</ele>
        <time>2019-07-30T09:04:48Z</time>
      </trkpt>
      <trkpt lat="46.4889" lon="5.99729">
        <ele>1026.6</ele>
        <time>2019-07-30T09:04:52Z</time>
      </trkpt>
      <trkpt lat="46.48892" lon="5.99736">
        <ele>1026.9</ele>
        <time>2019-07-30T09:04:56Z</time>
      </trkpt>
      <trkpt lat="46.48893" lon="5.99743">
        <ele>1027.4</ele>
        <time>2019-07-30T09:05:00Z</time>
      </trkpt>
      <trkpt lat="46.48893" lon="5.9975">
        <ele>1028</ele>
        <time>2019-07-30T09:05:05Z</time>
      </trkpt>
      <trkpt lat="46.48894" lon="5.99757">
        <ele>1028.3</ele>
        <time>2019-07-30T09:05:11Z</time>
      </trkpt>
      <trkpt lat="46.48892" lon="5.99766">
        <ele>1028.7</ele>
        <time>2019-07-30T09:05:16Z</time>
      </trkpt>
      <trkpt lat="46.48891" lon="5.99773">
        <ele>1029.1</ele>
        <time>2019-07-30T09:05:20Z</time>
      </trkpt>
      <trkpt lat="46.48891" lon="5.99779">
        <ele>1029.5</ele>
        <time>2019-07-30T09:05:24Z</time>
      </trkpt>
      <trkpt lat="46.48892" lon="5.99786">
        <ele>1030.1</ele>
        <time>2019-07-30T09:05:28Z</time>
      </trkpt>
      <trkpt lat="46.48893" lon="5.99794">
        <ele>1031.1</ele>
        <time>2019-07-30T09:05:34Z</time>
      </trkpt>
      <trkpt lat="46.48894" lon="5.998">
        <ele>1031.9</ele>
        <time>2019-07-30T09:05:42Z</time>
      </trkpt>
      <trkpt lat="46.48894" lon="5.99807">
        <ele>1031.9</ele>
        <time>2019-07-30T09:05:48Z</time>
      </trkpt>
      <trkpt lat="46.48895" lon="5.99814">
        <ele>1031.5</ele>
        <time>2019-07-30T09:05:53Z</time>
      </trkpt>
      <trkpt lat="46.48897" lon="5.9982">
        <ele>1031.1</ele>
        <time>2019-07-30T09:05:57Z</time>
      </trkpt>
      <trkpt lat="46.489" lon="5.99828">
        <ele>1030.5</ele>
        <time>2019-07-30T09:06:02Z</time>
      </trkpt>
      <trkpt lat="46.48901" lon="5.99834">
        <ele>1029.9</ele>
        <time>2019-07-30T09:06:07Z</time>
      </trkpt>
      <trkpt lat="46.48903" lon="5.99841">
        <ele>1029.5</ele>
        <time>2019-07-30T09:06:11Z</time>
      </trkpt>
      <trkpt lat="46.48904" lon="5.99848">
        <ele>1029.2</ele>
        <time>2019-07-30T09:06:15Z</time>
      </trkpt>
      <trkpt lat="46.48907" lon="5.99855">
        <ele>1028.8</ele>
        <time>2019-07-30T09:06:19Z</time>
      </trkpt>
      <trkpt lat="46.48909" lon="5.99863">
        <ele>1028.5</ele>
        <time>2019-07-30T09:06:24Z</time>
      </trkpt>
      <trkpt lat="46.48911" lon="5.99869">
        <ele>1028.2</ele>
        <time>2019-07-30T09:06:28Z</time>
      </trkpt>
      <trkpt lat="46.48913" lon="5.99876">
        <ele>1028.1</ele>
        <time>2019-07-30T09:06:32Z</time>
      </trkpt>
      <trkpt lat="46.4892" lon="5.99894">
        <ele>1027.5</ele>
        <time>2019-07-30T09:06:44Z</time>
      </trkpt>
      <trkpt lat="46.48923" lon="5.99899">
        <ele>1027.6</ele>
        <time>2019-07-30T09:06:48Z</time>
      </trkpt>
      <trkpt lat="46.48925" lon="5.99906">
        <ele>1027.6</ele>
        <time>2019-07-30T09:06:52Z</time>
      </trkpt>
      <trkpt lat="46.48928" lon="5.99913">
        <ele>1027.5</ele>
        <time>2019-07-30T09:06:56Z</time>
      </trkpt>
      <trkpt lat="46.48929" lon="5.9992">
        <ele>1027.2</ele>
        <time>2019-07-30T09:07:01Z</time>
      </trkpt>
      <trkpt lat="46.48931" lon="5.99927">
        <ele>1026.9</ele>
        <time>2019-07-30T09:07:06Z</time>
      </trkpt>
      <trkpt lat="46.48932" lon="5.99933">
        <ele>1026.5</ele>
        <time>2019-07-30T09:07:11Z</time>
      </trkpt>
      <trkpt lat="46.48933" lon="5.99941">
        <ele>1026.3</ele>
        <time>2019-07-30T09:07:16Z</time>
      </trkpt>
      <trkpt lat="46.48935" lon="5.99949">
        <ele>1026.1</ele>
        <time>2019-07-30T09:07:21Z</time>
      </trkpt>
      <trkpt lat="46.48937" lon="5.99955">
        <ele>1026</ele>
        <time>2019-07-30T09:07:24Z</time>
      </trkpt>
      <trkpt lat="46.48937" lon="5.99962">
        <ele>1025.5</ele>
        <time>2019-07-30T09:07:28Z</time>
      </trkpt>
      <trkpt lat="46.48937" lon="5.99969">
        <ele>1025</ele>
        <time>2019-07-30T09:07:33Z</time>
      </trkpt>
      <trkpt lat="46.48938" lon="5.99976">
        <ele>1024.6</ele>
        <time>2019-07-30T09:07:37Z</time>
      </trkpt>
      <trkpt lat="46.48938" lon="5.99983">
        <ele>1024</ele>
        <time>2019-07-30T09:07:42Z</time>
      </trkpt>
      <trkpt lat="46.48937" lon="5.9999">
        <ele>1023.6</ele>
        <time>2019-07-30T09:07:46Z</time>
      </trkpt>
      <trkpt lat="46.48935" lon="5.99997">
        <ele>1023.3</ele>
        <time>2019-07-30T09:07:51Z</time>
      </trkpt>
      <trkpt lat="46.48932" lon="6.00004">
        <ele>1023.1</ele>
        <time>2019-07-30T09:07:56Z</time>
      </trkpt>
      <trkpt lat="46.48928" lon="6.00008">
        <ele>1022.4</ele>
        <time>2019-07-30T09:08:02Z</time>
      </trkpt>
      <trkpt lat="46.48924" lon="6.00012">
        <ele>1021.9</ele>
        <time>2019-07-30T09:08:06Z</time>
      </trkpt>
      <trkpt lat="46.4892" lon="6.00016">
        <ele>1021.4</ele>
        <time>2019-07-30T09:08:10Z</time>
      </trkpt>
      <trkpt lat="46.48916" lon="6.0002">
        <ele>1020.8</ele>
        <time>2019-07-30T09:08:14Z</time>
      </trkpt>
      <trkpt lat="46.48912" lon="6.00026">
        <ele>1020</ele>
        <time>2019-07-30T09:08:19Z</time>
      </trkpt>
      <trkpt lat="46.48909" lon="6.00029">
        <ele>1019.2</ele>
        <time>2019-07-30T09:08:23Z</time>
      </trkpt>
      <trkpt lat="46.48904" lon="6.00032">
        <ele>1018.6</ele>
        <time>2019-07-30T09:08:27Z</time>
      </trkpt>
      <trkpt lat="46.48899" lon="6.00035">
        <ele>1018.1</ele>
        <time>2019-07-30T09:08:31Z</time>
      </trkpt>
      <trkpt lat="46.48895" lon="6.0004">
        <ele>1017.5</ele>
        <time>2019-07-30T09:08:37Z</time>
      </trkpt>
      <trkpt lat="46.4889" lon="6.00047">
        <ele>1017.1</ele>
        <time>2019-07-30T09:08:40Z</time>
      </trkpt>
      <trkpt lat="46.48887" lon="6.00051">
        <ele>1016.8</ele>
        <time>2019-07-30T09:08:43Z</time>
      </trkpt>
      <trkpt lat="46.48882" lon="6.00056">
        <ele>1016.4</ele>
        <time>2019-07-30T09:08:46Z</time>
      </trkpt>
      <trkpt lat="46.4888" lon="6.00061">
        <ele>1015.9</ele>
        <time>2019-07-30T09:08:50Z</time>
      </trkpt>
      <trkpt lat="46.48878" lon="6.00068">
        <ele>1015.6</ele>
        <time>2019-07-30T09:08:55Z</time>
      </trkpt>
      <trkpt lat="46.48878" lon="6.00075">
        <ele>1015.3</ele>
        <time>2019-07-30T09:09:00Z</time>
      </trkpt>
      <trkpt lat="46.4888" lon="6.00081">
        <ele>1015.5</ele>
        <time>2019-07-30T09:09:06Z</time>
      </trkpt>
      <trkpt lat="46.48883" lon="6.00087">
        <ele>1016</ele>
        <time>2019-07-30T09:09:10Z</time>
      </trkpt>
      <trkpt lat="46.48888" lon="6.00091">
        <ele>1016.7</ele>
        <time>2019-07-30T09:09:14Z</time>
      </trkpt>
      <trkpt lat="46.48893" lon="6.00094">
        <ele>1017.2</ele>
        <time>2019-07-30T09:09:17Z</time>
      </trkpt>
      <trkpt lat="46.48897" lon="6.00096">
        <ele>1017.6</ele>
        <time>2019-07-30T09:09:20Z</time>
      </trkpt>
      <trkpt lat="46.48901" lon="6.001">
        <ele>1018.6</ele>
        <time>2019-07-30T09:09:25Z</time>
      </trkpt>
      <trkpt lat="46.48906" lon="6.00103">
        <ele>1019.4</ele>
        <time>2019-07-30T09:09:29Z</time>
      </trkpt>
      <trkpt lat="46.4891" lon="6.00105">
        <ele>1020</ele>
        <time>2019-07-30T09:09:33Z</time>
      </trkpt>
      <trkpt lat="46.48914" lon="6.0011">
        <ele>1020.6</ele>
        <time>2019-07-30T09:09:38Z</time>
      </trkpt>
      <trkpt lat="46.48917" lon="6.00115">
        <ele>1020.9</ele>
        <time>2019-07-30T09:09:42Z</time>
      </trkpt>
      <trkpt lat="46.48932" lon="6.00131">
        <ele>1024.1</ele>
        <time>2019-07-30T09:09:58Z</time>
      </trkpt>
      <trkpt lat="46.48936" lon="6.00135">
        <ele>1024.8</ele>
        <time>2019-07-30T09:10:03Z</time>
      </trkpt>
      <trkpt lat="46.48939" lon="6.0014">
        <ele>1025.8</ele>
        <time>2019-07-30T09:10:07Z</time>
      </trkpt>
      <trkpt lat="46.48942" lon="6.00146">
        <ele>1026.5</ele>
        <time>2019-07-30T09:10:12Z</time>
      </trkpt>
      <trkpt lat="46.48945" lon="6.00151">
        <ele>1027.1</ele>
        <time>2019-07-30T09:10:16Z</time>
      </trkpt>
      <trkpt lat="46.48949" lon="6.00156">
        <ele>1027.5</ele>
        <time>2019-07-30T09:10:20Z</time>
      </trkpt>
      <trkpt lat="46.48952" lon="6.00162">
        <ele>1027.9</ele>
        <time>2019-07-30T09:10:25Z</time>
      </trkpt>
      <trkpt lat="46.48957" lon="6.00166">
        <ele>1028.3</ele>
        <time>2019-07-30T09:10:29Z</time>
      </trkpt>
      <trkpt lat="46.48961" lon="6.00169">
        <ele>1028.7</ele>
        <time>2019-07-30T09:10:32Z</time>
      </trkpt>
      <trkpt lat="46.48964" lon="6.00174">
        <ele>1029.3</ele>
        <time>2019-07-30T09:10:36Z</time>
      </trkpt>
      <trkpt lat="46.48969" lon="6.00178">
        <ele>1030.1</ele>
        <time>2019-07-30T09:10:41Z</time>
      </trkpt>
      <trkpt lat="46.48973" lon="6.00183">
        <ele>1030.9</ele>
        <time>2019-07-30T09:10:46Z</time>
      </trkpt>
      <trkpt lat="46.48976" lon="6.00188">
        <ele>1031.4</ele>
        <time>2019-07-30T09:10:49Z</time>
      </trkpt>
      <trkpt lat="46.48978" lon="6.00194">
        <ele>1031.8</ele>
        <time>2019-07-30T09:10:52Z</time>
      </trkpt>
      <trkpt lat="46.48982" lon="6.00198">
        <ele>1032.5</ele>
        <time>2019-07-30T09:10:56Z</time>
      </trkpt>
      <trkpt lat="46.48986" lon="6.00204">
        <ele>1033</ele>
        <time>2019-07-30T09:11:00Z</time>
      </trkpt>
      <trkpt lat="46.48989" lon="6.00209">
        <ele>1033.8</ele>
        <time>2019-07-30T09:11:05Z</time>
      </trkpt>
      <trkpt lat="46.48991" lon="6.00216">
        <ele>1034.6</ele>
        <time>2019-07-30T09:11:10Z</time>
      </trkpt>
      <trkpt lat="46.48995" lon="6.0022">
        <ele>1035.2</ele>
        <time>2019-07-30T09:11:14Z</time>
      </trkpt>
      <trkpt lat="46.48999" lon="6.00225">
        <ele>1036</ele>
        <time>2019-07-30T09:11:19Z</time>
      </trkpt>
      <trkpt lat="46.49004" lon="6.0023">
        <ele>1036.7</ele>
        <time>2019-07-30T09:11:23Z</time>
      </trkpt>
      <trkpt lat="46.49007" lon="6.00235">
        <ele>1037.5</ele>
        <time>2019-07-30T09:11:28Z</time>
      </trkpt>
      <trkpt lat="46.49013" lon="6.00244">
        <ele>1038.8</ele>
        <time>2019-07-30T09:11:38Z</time>
      </trkpt>
      <trkpt lat="46.49017" lon="6.00248">
        <ele>1038.7</ele>
        <time>2019-07-30T09:11:43Z</time>
      </trkpt>
      <trkpt lat="46.4902" lon="6.00253">
        <ele>1038.4</ele>
        <time>2019-07-30T09:11:48Z</time>
      </trkpt>
      <trkpt lat="46.49023" lon="6.00259">
        <ele>1037.9</ele>
        <time>2019-07-30T09:11:53Z</time>
      </trkpt>
      <trkpt lat="46.49027" lon="6.00264">
        <ele>1037.2</ele>
        <time>2019-07-30T09:11:57Z</time>
      </trkpt>
      <trkpt lat="46.49031" lon="6.00265">
        <ele>1036.7</ele>
        <time>2019-07-30T09:12:00Z</time>
      </trkpt>
      <trkpt lat="46.49035" lon="6.00269">
        <ele>1035.6</ele>
        <time>2019-07-30T09:12:08Z</time>
      </trkpt>
      <trkpt lat="46.49041" lon="6.00273">
        <ele>1035.2</ele>
        <time>2019-07-30T09:12:11Z</time>
      </trkpt>
      <trkpt lat="46.49043" lon="6.00279">
        <ele>1034.9</ele>
        <time>2019-07-30T09:12:13Z</time>
      </trkpt>
      <trkpt lat="46.49048" lon="6.00298">
        <ele>1034.5</ele>
        <time>2019-07-30T09:12:24Z</time>
      </trkpt>
      <trkpt lat="46.49057" lon="6.00323">
        <ele>1035.4</ele>
        <time>2019-07-30T09:12:41Z</time>
      </trkpt>
      <trkpt lat="46.49076" lon="6.00345">
        <ele>1036</ele>
        <time>2019-07-30T09:13:02Z</time>
      </trkpt>
      <trkpt lat="46.49088" lon="6.00355">
        <ele>1038</ele>
        <time>2019-07-30T09:13:13Z</time>
      </trkpt>
      <trkpt lat="46.49093" lon="6.00362">
        <ele>1038.8</ele>
        <time>2019-07-30T09:13:19Z</time>
      </trkpt>
      <trkpt lat="46.49097" lon="6.00367">
        <ele>1039.3</ele>
        <time>2019-07-30T09:13:22Z</time>
      </trkpt>
      <trkpt lat="46.49101" lon="6.00371">
        <ele>1040.4</ele>
        <time>2019-07-30T09:13:27Z</time>
      </trkpt>
      <trkpt lat="46.49104" lon="6.00376">
        <ele>1041.4</ele>
        <time>2019-07-30T09:13:32Z</time>
      </trkpt>
      <trkpt lat="46.49106" lon="6.00383">
        <ele>1042.4</ele>
        <time>2019-07-30T09:13:37Z</time>
      </trkpt>
      <trkpt lat="46.49108" lon="6.00392">
        <ele>1043.4</ele>
        <time>2019-07-30T09:13:42Z</time>
      </trkpt>
      <trkpt lat="46.49109" lon="6.00399">
        <ele>1044.2</ele>
        <time>2019-07-30T09:13:46Z</time>
      </trkpt>
      <trkpt lat="46.49133" lon="6.00434">
        <ele>1048.5</ele>
        <time>2019-07-30T09:14:20Z</time>
      </trkpt>
      <trkpt lat="46.49142" lon="6.0045">
        <ele>1050.9</ele>
        <time>2019-07-30T09:14:36Z</time>
      </trkpt>
      <trkpt lat="46.49144" lon="6.00459">
        <ele>1051.1</ele>
        <time>2019-07-30T09:14:38Z</time>
      </trkpt>
      <trkpt lat="46.49145" lon="6.00465">
        <ele>1051.5</ele>
        <time>2019-07-30T09:14:41Z</time>
      </trkpt>
      <trkpt lat="46.49152" lon="6.0049">
        <ele>1049.9</ele>
        <time>2019-07-30T09:14:59Z</time>
      </trkpt>
      <trkpt lat="46.49153" lon="6.00497">
        <ele>1049.4</ele>
        <time>2019-07-30T09:15:04Z</time>
      </trkpt>
      <trkpt lat="46.49154" lon="6.00504">
        <ele>1049.2</ele>
        <time>2019-07-30T09:15:09Z</time>
      </trkpt>
      <trkpt lat="46.49155" lon="6.00511">
        <ele>1049.2</ele>
        <time>2019-07-30T09:15:11Z</time>
      </trkpt>
      <trkpt lat="46.49156" lon="6.00518">
        <ele>1049.3</ele>
        <time>2019-07-30T09:15:13Z</time>
      </trkpt>
      <trkpt lat="46.49158" lon="6.00524">
        <ele>1049.5</ele>
        <time>2019-07-30T09:15:16Z</time>
      </trkpt>
      <trkpt lat="46.4916" lon="6.00532">
        <ele>1049.9</ele>
        <time>2019-07-30T09:15:20Z</time>
      </trkpt>
      <trkpt lat="46.49162" lon="6.00538">
        <ele>1050.2</ele>
        <time>2019-07-30T09:15:24Z</time>
      </trkpt>
      <trkpt lat="46.49165" lon="6.00544">
        <ele>1050.4</ele>
        <time>2019-07-30T09:15:28Z</time>
      </trkpt>
      <trkpt lat="46.49169" lon="6.00548">
        <ele>1050.6</ele>
        <time>2019-07-30T09:15:32Z</time>
      </trkpt>
      <trkpt lat="46.49173" lon="6.00553">
        <ele>1050.9</ele>
        <time>2019-07-30T09:15:36Z</time>
      </trkpt>
      <trkpt lat="46.49178" lon="6.00556">
        <ele>1051</ele>
        <time>2019-07-30T09:15:39Z</time>
      </trkpt>
      <trkpt lat="46.49182" lon="6.00561">
        <ele>1051.2</ele>
        <time>2019-07-30T09:15:42Z</time>
      </trkpt>
      <trkpt lat="46.49185" lon="6.00566">
        <ele>1051.4</ele>
        <time>2019-07-30T09:15:46Z</time>
      </trkpt>
      <trkpt lat="46.49187" lon="6.00572">
        <ele>1051.5</ele>
        <time>2019-07-30T09:15:50Z</time>
      </trkpt>
      <trkpt lat="46.4919" lon="6.00577">
        <ele>1051.6</ele>
        <time>2019-07-30T09:15:54Z</time>
      </trkpt>
      <trkpt lat="46.49193" lon="6.00582">
        <ele>1051.8</ele>
        <time>2019-07-30T09:16:00Z</time>
      </trkpt>
      <trkpt lat="46.49196" lon="6.0059">
        <ele>1052.1</ele>
        <time>2019-07-30T09:16:02Z</time>
      </trkpt>
      <trkpt lat="46.49199" lon="6.00596">
        <ele>1052.5</ele>
        <time>2019-07-30T09:16:05Z</time>
      </trkpt>
      <trkpt lat="46.492" lon="6.00602">
        <ele>1052.9</ele>
        <time>2019-07-30T09:16:08Z</time>
      </trkpt>
      <trkpt lat="46.49202" lon="6.00608">
        <ele>1053.5</ele>
        <time>2019-07-30T09:16:12Z</time>
      </trkpt>
      <trkpt lat="46.49205" lon="6.00614">
        <ele>1054.2</ele>
        <time>2019-07-30T09:16:17Z</time>
      </trkpt>
      <trkpt lat="46.49207" lon="6.0062">
        <ele>1054.6</ele>
        <time>2019-07-30T09:16:23Z</time>
      </trkpt>
      <trkpt lat="46.4921" lon="6.00627">
        <ele>1054.7</ele>
        <time>2019-07-30T09:16:27Z</time>
      </trkpt>
      <trkpt lat="46.49211" lon="6.00633">
        <ele>1054.7</ele>
        <time>2019-07-30T09:16:33Z</time>
      </trkpt>
      <trkpt lat="46.49212" lon="6.0064">
        <ele>1054.8</ele>
        <time>2019-07-30T09:16:37Z</time>
      </trkpt>
      <trkpt lat="46.49213" lon="6.00647">
        <ele>1054.8</ele>
        <time>2019-07-30T09:16:41Z</time>
      </trkpt>
      <trkpt lat="46.49214" lon="6.00654">
        <ele>1054.8</ele>
        <time>2019-07-30T09:16:46Z</time>
      </trkpt>
      <trkpt lat="46.49216" lon="6.0066">
        <ele>1054.7</ele>
        <time>2019-07-30T09:16:50Z</time>
      </trkpt>
      <trkpt lat="46.49218" lon="6.00668">
        <ele>1054.5</ele>
        <time>2019-07-30T09:16:54Z</time>
      </trkpt>
      <trkpt lat="46.4922" lon="6.00674">
        <ele>1054.2</ele>
        <time>2019-07-30T09:16:58Z</time>
      </trkpt>
      <trkpt lat="46.49222" lon="6.0068">
        <ele>1053.7</ele>
        <time>2019-07-30T09:17:02Z</time>
      </trkpt>
      <trkpt lat="46.49225" lon="6.00687">
        <ele>1053.1</ele>
        <time>2019-07-30T09:17:07Z</time>
      </trkpt>
      <trkpt lat="46.49228" lon="6.00693">
        <ele>1052.6</ele>
        <time>2019-07-30T09:17:11Z</time>
      </trkpt>
      <trkpt lat="46.4923" lon="6.00699">
        <ele>1052.4</ele>
        <time>2019-07-30T09:17:15Z</time>
      </trkpt>
      <trkpt lat="46.49232" lon="6.00706">
        <ele>1052.4</ele>
        <time>2019-07-30T09:17:19Z</time>
      </trkpt>
      <trkpt lat="46.49234" lon="6.00713">
        <ele>1052.5</ele>
        <time>2019-07-30T09:17:23Z</time>
      </trkpt>
      <trkpt lat="46.49236" lon="6.0072">
        <ele>1052.7</ele>
        <time>2019-07-30T09:17:27Z</time>
      </trkpt>
      <trkpt lat="46.4924" lon="6.00726">
        <ele>1052.9</ele>
        <time>2019-07-30T09:17:32Z</time>
      </trkpt>
      <trkpt lat="46.49242" lon="6.00733">
        <ele>1053</ele>
        <time>2019-07-30T09:17:37Z</time>
      </trkpt>
      <trkpt lat="46.49242" lon="6.00741">
        <ele>1053</ele>
        <time>2019-07-30T09:17:43Z</time>
      </trkpt>
      <trkpt lat="46.49244" lon="6.00748">
        <ele>1053</ele>
        <time>2019-07-30T09:17:47Z</time>
      </trkpt>
      <trkpt lat="46.49244" lon="6.00755">
        <ele>1053</ele>
        <time>2019-07-30T09:17:51Z</time>
      </trkpt>
      <trkpt lat="46.49244" lon="6.00763">
        <ele>1053</ele>
        <time>2019-07-30T09:17:54Z</time>
      </trkpt>
      <trkpt lat="46.49246" lon="6.00769">
        <ele>1053.1</ele>
        <time>2019-07-30T09:17:57Z</time>
      </trkpt>
      <trkpt lat="46.4925" lon="6.00775">
        <ele>1053.2</ele>
        <time>2019-07-30T09:18:01Z</time>
      </trkpt>
      <trkpt lat="46.49253" lon="6.0078">
        <ele>1053.2</ele>
        <time>2019-07-30T09:18:05Z</time>
      </trkpt>
      <trkpt lat="46.49256" lon="6.00786">
        <ele>1053.5</ele>
        <time>2019-07-30T09:18:10Z</time>
      </trkpt>
      <trkpt lat="46.49259" lon="6.00792">
        <ele>1053.8</ele>
        <time>2019-07-30T09:18:15Z</time>
      </trkpt>
      <trkpt lat="46.4926" lon="6.00798">
        <ele>1053.9</ele>
        <time>2019-07-30T09:18:19Z</time>
      </trkpt>
      <trkpt lat="46.4926" lon="6.00805">
        <ele>1053.9</ele>
        <time>2019-07-30T09:18:23Z</time>
      </trkpt>
      <trkpt lat="46.49261" lon="6.00812">
        <ele>1053.6</ele>
        <time>2019-07-30T09:18:29Z</time>
      </trkpt>
      <trkpt lat="46.49258" lon="6.00819">
        <ele>1053.1</ele>
        <time>2019-07-30T09:18:35Z</time>
      </trkpt>
      <trkpt lat="46.49258" lon="6.00826">
        <ele>1052.7</ele>
        <time>2019-07-30T09:18:40Z</time>
      </trkpt>
      <trkpt lat="46.4926" lon="6.00833">
        <ele>1052.3</ele>
        <time>2019-07-30T09:18:44Z</time>
      </trkpt>
      <trkpt lat="46.49262" lon="6.0084">
        <ele>1052.1</ele>
        <time>2019-07-30T09:18:48Z</time>
      </trkpt>
      <trkpt lat="46.49264" lon="6.00846">
        <ele>1051.8</ele>
        <time>2019-07-30T09:18:52Z</time>
      </trkpt>
      <trkpt lat="46.49265" lon="6.00853">
        <ele>1051.5</ele>
        <time>2019-07-30T09:18:57Z</time>
      </trkpt>
      <trkpt lat="46.49267" lon="6.0086">
        <ele>1051.4</ele>
        <time>2019-07-30T09:19:02Z</time>
      </trkpt>
      <trkpt lat="46.4927" lon="6.00866">
        <ele>1051.1</ele>
        <time>2019-07-30T09:19:06Z</time>
      </trkpt>
      <trkpt lat="46.49273" lon="6.00872">
        <ele>1050.7</ele>
        <time>2019-07-30T09:19:11Z</time>
      </trkpt>
      <trkpt lat="46.49276" lon="6.00878">
        <ele>1050.5</ele>
        <time>2019-07-30T09:19:15Z</time>
      </trkpt>
      <trkpt lat="46.49279" lon="6.00885">
        <ele>1050.3</ele>
        <time>2019-07-30T09:19:19Z</time>
      </trkpt>
      <trkpt lat="46.49283" lon="6.0089">
        <ele>1050.1</ele>
        <time>2019-07-30T09:19:24Z</time>
      </trkpt>
      <trkpt lat="46.49285" lon="6.00895">
        <ele>1050</ele>
        <time>2019-07-30T09:19:27Z</time>
      </trkpt>
      <trkpt lat="46.49288" lon="6.00902">
        <ele>1049.8</ele>
        <time>2019-07-30T09:19:32Z</time>
      </trkpt>
      <trkpt lat="46.49292" lon="6.00908">
        <ele>1049.8</ele>
        <time>2019-07-30T09:19:36Z</time>
      </trkpt>
      <trkpt lat="46.49294" lon="6.00914">
        <ele>1050</ele>
        <time>2019-07-30T09:19:40Z</time>
      </trkpt>
      <trkpt lat="46.49296" lon="6.00921">
        <ele>1050.2</ele>
        <time>2019-07-30T09:19:44Z</time>
      </trkpt>
      <trkpt lat="46.49299" lon="6.00927">
        <ele>1050.4</ele>
        <time>2019-07-30T09:19:49Z</time>
      </trkpt>
      <trkpt lat="46.49305" lon="6.00942">
        <ele>1050.4</ele>
        <time>2019-07-30T09:19:59Z</time>
      </trkpt>
      <trkpt lat="46.49309" lon="6.00948">
        <ele>1050.2</ele>
        <time>2019-07-30T09:20:04Z</time>
      </trkpt>
      <trkpt lat="46.49311" lon="6.00954">
        <ele>1050.1</ele>
        <time>2019-07-30T09:20:08Z</time>
      </trkpt>
      <trkpt lat="46.49314" lon="6.0096">
        <ele>1050.1</ele>
        <time>2019-07-30T09:20:12Z</time>
      </trkpt>
      <trkpt lat="46.49317" lon="6.00965">
        <ele>1050.3</ele>
        <time>2019-07-30T09:20:17Z</time>
      </trkpt>
      <trkpt lat="46.4932" lon="6.00972">
        <ele>1050.5</ele>
        <time>2019-07-30T09:20:21Z</time>
      </trkpt>
      <trkpt lat="46.49322" lon="6.00978">
        <ele>1050.4</ele>
        <time>2019-07-30T09:20:25Z</time>
      </trkpt>
      <trkpt lat="46.49326" lon="6.00984">
        <ele>1050.4</ele>
        <time>2019-07-30T09:20:29Z</time>
      </trkpt>
      <trkpt lat="46.4933" lon="6.00989">
        <ele>1050.2</ele>
        <time>2019-07-30T09:20:33Z</time>
      </trkpt>
      <trkpt lat="46.49334" lon="6.00995">
        <ele>1050</ele>
        <time>2019-07-30T09:20:37Z</time>
      </trkpt>
      <trkpt lat="46.49337" lon="6.01002">
        <ele>1049.9</ele>
        <time>2019-07-30T09:20:41Z</time>
      </trkpt>
      <trkpt lat="46.4934" lon="6.01008">
        <ele>1049.9</ele>
        <time>2019-07-30T09:20:44Z</time>
      </trkpt>
      <trkpt lat="46.49343" lon="6.01014">
        <ele>1049.9</ele>
        <time>2019-07-30T09:20:49Z</time>
      </trkpt>
      <trkpt lat="46.49342" lon="6.01021">
        <ele>1050</ele>
        <time>2019-07-30T09:20:56Z</time>
      </trkpt>
      <trkpt lat="46.49343" lon="6.01028">
        <ele>1049.6</ele>
        <time>2019-07-30T09:21:02Z</time>
      </trkpt>
      <trkpt lat="46.49343" lon="6.01035">
        <ele>1049.1</ele>
        <time>2019-07-30T09:21:07Z</time>
      </trkpt>
      <trkpt lat="46.49345" lon="6.01042">
        <ele>1048.7</ele>
        <time>2019-07-30T09:21:11Z</time>
      </trkpt>
      <trkpt lat="46.49352" lon="6.0106">
        <ele>1046.1</ele>
        <time>2019-07-30T09:21:23Z</time>
      </trkpt>
      <trkpt lat="46.49356" lon="6.01065">
        <ele>1045.8</ele>
        <time>2019-07-30T09:21:28Z</time>
      </trkpt>
      <trkpt lat="46.49359" lon="6.0107">
        <ele>1045.9</ele>
        <time>2019-07-30T09:21:33Z</time>
      </trkpt>
      <trkpt lat="46.49361" lon="6.01077">
        <ele>1046.2</ele>
        <time>2019-07-30T09:21:37Z</time>
      </trkpt>
      <trkpt lat="46.49362" lon="6.01084">
        <ele>1046.5</ele>
        <time>2019-07-30T09:21:41Z</time>
      </trkpt>
      <trkpt lat="46.49363" lon="6.01092">
        <ele>1046.6</ele>
        <time>2019-07-30T09:21:46Z</time>
      </trkpt>
      <trkpt lat="46.49364" lon="6.011">
        <ele>1046.7</ele>
        <time>2019-07-30T09:21:51Z</time>
      </trkpt>
      <trkpt lat="46.49365" lon="6.01107">
        <ele>1046.6</ele>
        <time>2019-07-30T09:21:56Z</time>
      </trkpt>
      <trkpt lat="46.49367" lon="6.01114">
        <ele>1046.8</ele>
        <time>2019-07-30T09:22:02Z</time>
      </trkpt>
      <trkpt lat="46.49366" lon="6.01122">
        <ele>1047.2</ele>
        <time>2019-07-30T09:22:09Z</time>
      </trkpt>
      <trkpt lat="46.49363" lon="6.01128">
        <ele>1047.4</ele>
        <time>2019-07-30T09:22:15Z</time>
      </trkpt>
      <trkpt lat="46.49359" lon="6.01131">
        <ele>1047.2</ele>
        <time>2019-07-30T09:22:20Z</time>
      </trkpt>
      <trkpt lat="46.49354" lon="6.01134">
        <ele>1046.6</ele>
        <time>2019-07-30T09:22:25Z</time>
      </trkpt>
      <trkpt lat="46.4935" lon="6.01138">
        <ele>1045.8</ele>
        <time>2019-07-30T09:22:30Z</time>
      </trkpt>
      <trkpt lat="46.49346" lon="6.01142">
        <ele>1045</ele>
        <time>2019-07-30T09:22:36Z</time>
      </trkpt>
      <trkpt lat="46.49342" lon="6.01146">
        <ele>1044.3</ele>
        <time>2019-07-30T09:22:41Z</time>
      </trkpt>
      <trkpt lat="46.49339" lon="6.01151">
        <ele>1043.8</ele>
        <time>2019-07-30T09:22:48Z</time>
      </trkpt>
      <trkpt lat="46.49335" lon="6.01157">
        <ele>1043.6</ele>
        <time>2019-07-30T09:22:52Z</time>
      </trkpt>
      <trkpt lat="46.49332" lon="6.01163">
        <ele>1043.6</ele>
        <time>2019-07-30T09:22:58Z</time>
      </trkpt>
      <trkpt lat="46.4933" lon="6.0117">
        <ele>1043.7</ele>
        <time>2019-07-30T09:23:02Z</time>
      </trkpt>
      <trkpt lat="46.49328" lon="6.01177">
        <ele>1043.6</ele>
        <time>2019-07-30T09:23:05Z</time>
      </trkpt>
      <trkpt lat="46.49329" lon="6.01184">
        <ele>1043.6</ele>
        <time>2019-07-30T09:23:09Z</time>
      </trkpt>
      <trkpt lat="46.49331" lon="6.01192">
        <ele>1043.7</ele>
        <time>2019-07-30T09:23:13Z</time>
      </trkpt>
      <trkpt lat="46.49334" lon="6.01199">
        <ele>1044</ele>
        <time>2019-07-30T09:23:17Z</time>
      </trkpt>
      <trkpt lat="46.49338" lon="6.01205">
        <ele>1044.3</ele>
        <time>2019-07-30T09:23:20Z</time>
      </trkpt>
      <trkpt lat="46.49341" lon="6.0121">
        <ele>1044.8</ele>
        <time>2019-07-30T09:23:26Z</time>
      </trkpt>
      <trkpt lat="46.49343" lon="6.01217">
        <ele>1044.9</ele>
        <time>2019-07-30T09:23:32Z</time>
      </trkpt>
      <trkpt lat="46.49344" lon="6.01223">
        <ele>1045.1</ele>
        <time>2019-07-30T09:23:38Z</time>
      </trkpt>
      <trkpt lat="46.49343" lon="6.01229">
        <ele>1045.6</ele>
        <time>2019-07-30T09:23:45Z</time>
      </trkpt>
      <trkpt lat="46.49339" lon="6.01232">
        <ele>1045.7</ele>
        <time>2019-07-30T09:23:51Z</time>
      </trkpt>
      <trkpt lat="46.49333" lon="6.01231">
        <ele>1045.5</ele>
        <time>2019-07-30T09:23:55Z</time>
      </trkpt>
      <trkpt lat="46.4933" lon="6.01225">
        <ele>1045</ele>
        <time>2019-07-30T09:24:00Z</time>
      </trkpt>
      <trkpt lat="46.49328" lon="6.01218">
        <ele>1044.6</ele>
        <time>2019-07-30T09:24:03Z</time>
      </trkpt>
      <trkpt lat="46.49323" lon="6.01206">
        <ele>1042.9</ele>
        <time>2019-07-30T09:24:13Z</time>
      </trkpt>
      <trkpt lat="46.49319" lon="6.01201">
        <ele>1042.8</ele>
        <time>2019-07-30T09:24:18Z</time>
      </trkpt>
      <trkpt lat="46.49314" lon="6.012">
        <ele>1043</ele>
        <time>2019-07-30T09:24:22Z</time>
      </trkpt>
      <trkpt lat="46.4931" lon="6.01197">
        <ele>1043.6</ele>
        <time>2019-07-30T09:24:27Z</time>
      </trkpt>
      <trkpt lat="46.49306" lon="6.01194">
        <ele>1044.2</ele>
        <time>2019-07-30T09:24:32Z</time>
      </trkpt>
      <trkpt lat="46.49303" lon="6.01188">
        <ele>1044.7</ele>
        <time>2019-07-30T09:24:38Z</time>
      </trkpt>
      <trkpt lat="46.49299" lon="6.01187">
        <ele>1044.8</ele>
        <time>2019-07-30T09:24:47Z</time>
      </trkpt>
      <trkpt lat="46.49294" lon="6.01187">
        <ele>1044.5</ele>
        <time>2019-07-30T09:24:51Z</time>
      </trkpt>
      <trkpt lat="46.49289" lon="6.01189">
        <ele>1044.1</ele>
        <time>2019-07-30T09:24:56Z</time>
      </trkpt>
      <trkpt lat="46.49283" lon="6.01197">
        <ele>1043.8</ele>
        <time>2019-07-30T09:25:00Z</time>
      </trkpt>
      <trkpt lat="46.49279" lon="6.01202">
        <ele>1043.6</ele>
        <time>2019-07-30T09:25:02Z</time>
      </trkpt>
      <trkpt lat="46.49274" lon="6.01207">
        <ele>1043.6</ele>
        <time>2019-07-30T09:25:04Z</time>
      </trkpt>
      <trkpt lat="46.49271" lon="6.01211">
        <ele>1043.5</ele>
        <time>2019-07-30T09:25:06Z</time>
      </trkpt>
      <trkpt lat="46.49267" lon="6.01217">
        <ele>1043.5</ele>
        <time>2019-07-30T09:25:11Z</time>
      </trkpt>
      <trkpt lat="46.49264" lon="6.01222">
        <ele>1043.6</ele>
        <time>2019-07-30T09:25:14Z</time>
      </trkpt>
      <trkpt lat="46.49262" lon="6.01228">
        <ele>1044.1</ele>
        <time>2019-07-30T09:25:18Z</time>
      </trkpt>
      <trkpt lat="46.49259" lon="6.01234">
        <ele>1045.1</ele>
        <time>2019-07-30T09:25:23Z</time>
      </trkpt>
      <trkpt lat="46.49256" lon="6.0124">
        <ele>1046.6</ele>
        <time>2019-07-30T09:25:28Z</time>
      </trkpt>
      <trkpt lat="46.49251" lon="6.01256">
        <ele>1051.8</ele>
        <time>2019-07-30T09:25:39Z</time>
      </trkpt>
      <trkpt lat="46.49249" lon="6.01263">
        <ele>1053</ele>
        <time>2019-07-30T09:25:43Z</time>
      </trkpt>
      <trkpt lat="46.49245" lon="6.01283">
        <ele>1059.3</ele>
        <time>2019-07-30T09:25:57Z</time>
      </trkpt>
      <trkpt lat="46.49243" lon="6.01289">
        <ele>1060.1</ele>
        <time>2019-07-30T09:26:01Z</time>
      </trkpt>
      <trkpt lat="46.49237" lon="6.01301">
        <ele>1063.9</ele>
        <time>2019-07-30T09:26:13Z</time>
      </trkpt>
      <trkpt lat="46.49219" lon="6.01307">
        <ele>1069.3</ele>
        <time>2019-07-30T09:26:35Z</time>
      </trkpt>
      <trkpt lat="46.49214" lon="6.01307">
        <ele>1069.9</ele>
        <time>2019-07-30T09:26:40Z</time>
      </trkpt>
      <trkpt lat="46.49209" lon="6.01306">
        <ele>1070.4</ele>
        <time>2019-07-30T09:26:44Z</time>
      </trkpt>
      <trkpt lat="46.49205" lon="6.01303">
        <ele>1070.9</ele>
        <time>2019-07-30T09:26:50Z</time>
      </trkpt>
      <trkpt lat="46.49198" lon="6.01302">
        <ele>1071.4</ele>
        <time>2019-07-30T09:26:55Z</time>
      </trkpt>
      <trkpt lat="46.49193" lon="6.01301">
        <ele>1071.7</ele>
        <time>2019-07-30T09:26:57Z</time>
      </trkpt>
      <trkpt lat="46.49185" lon="6.01297">
        <ele>1074</ele>
        <time>2019-07-30T09:27:17Z</time>
      </trkpt>
      <trkpt lat="46.4918" lon="6.01291">
        <ele>1074.9</ele>
        <time>2019-07-30T09:27:22Z</time>
      </trkpt>
      <trkpt lat="46.49172" lon="6.01281">
        <ele>1077.6</ele>
        <time>2019-07-30T09:27:35Z</time>
      </trkpt>
      <trkpt lat="46.49168" lon="6.01275">
        <ele>1077.8</ele>
        <time>2019-07-30T09:27:37Z</time>
      </trkpt>
      <trkpt lat="46.49165" lon="6.0127">
        <ele>1078.3</ele>
        <time>2019-07-30T09:27:41Z</time>
      </trkpt>
      <trkpt lat="46.49162" lon="6.01264">
        <ele>1078.7</ele>
        <time>2019-07-30T09:27:44Z</time>
      </trkpt>
      <trkpt lat="46.49157" lon="6.01261">
        <ele>1079.4</ele>
        <time>2019-07-30T09:27:50Z</time>
      </trkpt>
      <trkpt lat="46.49152" lon="6.01259">
        <ele>1079.7</ele>
        <time>2019-07-30T09:27:55Z</time>
      </trkpt>
      <trkpt lat="46.4914" lon="6.01262">
        <ele>1078.7</ele>
        <time>2019-07-30T09:28:14Z</time>
      </trkpt>
      <trkpt lat="46.49135" lon="6.0126">
        <ele>1078.4</ele>
        <time>2019-07-30T09:28:22Z</time>
      </trkpt>
      <trkpt lat="46.4913" lon="6.01259">
        <ele>1078.2</ele>
        <time>2019-07-30T09:28:26Z</time>
      </trkpt>
      <trkpt lat="46.49126" lon="6.01257">
        <ele>1077.9</ele>
        <time>2019-07-30T09:28:29Z</time>
      </trkpt>
      <trkpt lat="46.49121" lon="6.01253">
        <ele>1077.5</ele>
        <time>2019-07-30T09:28:34Z</time>
      </trkpt>
      <trkpt lat="46.49117" lon="6.01249">
        <ele>1077.2</ele>
        <time>2019-07-30T09:28:38Z</time>
      </trkpt>
      <trkpt lat="46.49113" lon="6.01245">
        <ele>1076.7</ele>
        <time>2019-07-30T09:28:45Z</time>
      </trkpt>
      <trkpt lat="46.4911" lon="6.0124">
        <ele>1076.4</ele>
        <time>2019-07-30T09:28:50Z</time>
      </trkpt>
      <trkpt lat="46.49106" lon="6.01235">
        <ele>1076</ele>
        <time>2019-07-30T09:28:55Z</time>
      </trkpt>
      <trkpt lat="46.49101" lon="6.01232">
        <ele>1074.5</ele>
        <time>2019-07-30T09:29:20Z</time>
      </trkpt>
      <trkpt lat="46.49098" lon="6.01227">
        <ele>1074.3</ele>
        <time>2019-07-30T09:29:24Z</time>
      </trkpt>
      <trkpt lat="46.49094" lon="6.01223">
        <ele>1073.8</ele>
        <time>2019-07-30T09:29:28Z</time>
      </trkpt>
      <trkpt lat="46.49086" lon="6.01216">
        <ele>1072.9</ele>
        <time>2019-07-30T09:29:36Z</time>
      </trkpt>
      <trkpt lat="46.49081" lon="6.01215">
        <ele>1072.7</ele>
        <time>2019-07-30T09:29:38Z</time>
      </trkpt>
      <trkpt lat="46.49077" lon="6.01213">
        <ele>1072.1</ele>
        <time>2019-07-30T09:29:44Z</time>
      </trkpt>
      <trkpt lat="46.49072" lon="6.01211">
        <ele>1071.9</ele>
        <time>2019-07-30T09:29:50Z</time>
      </trkpt>
      <trkpt lat="46.49067" lon="6.0121">
        <ele>1072</ele>
        <time>2019-07-30T09:29:54Z</time>
      </trkpt>
      <trkpt lat="46.49062" lon="6.01208">
        <ele>1072.1</ele>
        <time>2019-07-30T09:29:59Z</time>
      </trkpt>
      <trkpt lat="46.49058" lon="6.01209">
        <ele>1072.2</ele>
        <time>2019-07-30T09:30:01Z</time>
      </trkpt>
      <trkpt lat="46.49053" lon="6.01209">
        <ele>1072.5</ele>
        <time>2019-07-30T09:30:05Z</time>
      </trkpt>
      <trkpt lat="46.49048" lon="6.01208">
        <ele>1073.3</ele>
        <time>2019-07-30T09:30:09Z</time>
      </trkpt>
      <trkpt lat="46.49044" lon="6.01208">
        <ele>1074.2</ele>
        <time>2019-07-30T09:30:13Z</time>
      </trkpt>
      <trkpt lat="46.49039" lon="6.01209">
        <ele>1075.2</ele>
        <time>2019-07-30T09:30:17Z</time>
      </trkpt>
      <trkpt lat="46.49035" lon="6.01212">
        <ele>1076.2</ele>
        <time>2019-07-30T09:30:21Z</time>
      </trkpt>
      <trkpt lat="46.4903" lon="6.01213">
        <ele>1077.4</ele>
        <time>2019-07-30T09:30:28Z</time>
      </trkpt>
      <trkpt lat="46.49026" lon="6.01215">
        <ele>1079.3</ele>
        <time>2019-07-30T09:30:38Z</time>
      </trkpt>
      <trkpt lat="46.49021" lon="6.01224">
        <ele>1080.6</ele>
        <time>2019-07-30T09:30:55Z</time>
      </trkpt>
      <trkpt lat="46.49018" lon="6.01232">
        <ele>1080.3</ele>
        <time>2019-07-30T09:31:03Z</time>
      </trkpt>
      <trkpt lat="46.49016" lon="6.01239">
        <ele>1080.2</ele>
        <time>2019-07-30T09:31:07Z</time>
      </trkpt>
      <trkpt lat="46.48995" lon="6.01273">
        <ele>1077.4</ele>
        <time>2019-07-30T09:31:36Z</time>
      </trkpt>
      <trkpt lat="46.4899" lon="6.01276">
        <ele>1077.1</ele>
        <time>2019-07-30T09:31:39Z</time>
      </trkpt>
      <trkpt lat="46.4899" lon="6.01285">
        <ele>1077</ele>
        <time>2019-07-30T09:31:42Z</time>
      </trkpt>
      <trkpt lat="46.48991" lon="6.01292">
        <ele>1077.1</ele>
        <time>2019-07-30T09:31:46Z</time>
      </trkpt>
      <trkpt lat="46.48985" lon="6.01287">
        <ele>1078.8</ele>
        <time>2019-07-30T09:32:26Z</time>
      </trkpt>
      <trkpt lat="46.48981" lon="6.01285">
        <ele>1078.7</ele>
        <time>2019-07-30T09:32:29Z</time>
      </trkpt>
      <trkpt lat="46.48976" lon="6.01282">
        <ele>1078.6</ele>
        <time>2019-07-30T09:32:32Z</time>
      </trkpt>
      <trkpt lat="46.48971" lon="6.01279">
        <ele>1078.1</ele>
        <time>2019-07-30T09:32:37Z</time>
      </trkpt>
      <trkpt lat="46.48967" lon="6.01278">
        <ele>1077.6</ele>
        <time>2019-07-30T09:32:41Z</time>
      </trkpt>
      <trkpt lat="46.48961" lon="6.01277">
        <ele>1077.1</ele>
        <time>2019-07-30T09:32:45Z</time>
      </trkpt>
      <trkpt lat="46.48956" lon="6.01275">
        <ele>1077</ele>
        <time>2019-07-30T09:32:50Z</time>
      </trkpt>
      <trkpt lat="46.48952" lon="6.01277">
        <ele>1078.1</ele>
        <time>2019-07-30T09:32:57Z</time>
      </trkpt>
      <trkpt lat="46.48949" lon="6.01283">
        <ele>1080.2</ele>
        <time>2019-07-30T09:33:06Z</time>
      </trkpt>
      <trkpt lat="46.48946" lon="6.01289">
        <ele>1081.5</ele>
        <time>2019-07-30T09:33:13Z</time>
      </trkpt>
      <trkpt lat="46.48943" lon="6.01298">
        <ele>1082</ele>
        <time>2019-07-30T09:33:16Z</time>
      </trkpt>
      <trkpt lat="46.48941" lon="6.01306">
        <ele>1083.1</ele>
        <time>2019-07-30T09:33:21Z</time>
      </trkpt>
      <trkpt lat="46.48941" lon="6.01313">
        <ele>1083.5</ele>
        <time>2019-07-30T09:33:23Z</time>
      </trkpt>
      <trkpt lat="46.48935" lon="6.01325">
        <ele>1085.3</ele>
        <time>2019-07-30T09:33:34Z</time>
      </trkpt>
      <trkpt lat="46.4893" lon="6.01329">
        <ele>1086.2</ele>
        <time>2019-07-30T09:33:40Z</time>
      </trkpt>
      <trkpt lat="46.48925" lon="6.01335">
        <ele>1086.7</ele>
        <time>2019-07-30T09:33:43Z</time>
      </trkpt>
      <trkpt lat="46.48912" lon="6.01352">
        <ele>1089.7</ele>
        <time>2019-07-30T09:33:57Z</time>
      </trkpt>
      <trkpt lat="46.48908" lon="6.01358">
        <ele>1090.2</ele>
        <time>2019-07-30T09:34:02Z</time>
      </trkpt>
      <trkpt lat="46.48897" lon="6.01388">
        <ele>1091.6</ele>
        <time>2019-07-30T09:34:34Z</time>
      </trkpt>
      <trkpt lat="46.4889" lon="6.01404">
        <ele>1094.8</ele>
        <time>2019-07-30T09:34:57Z</time>
      </trkpt>
      <trkpt lat="46.48891" lon="6.01412">
        <ele>1095.3</ele>
        <time>2019-07-30T09:35:00Z</time>
      </trkpt>
      <trkpt lat="46.48893" lon="6.01419">
        <ele>1095.5</ele>
        <time>2019-07-30T09:35:03Z</time>
      </trkpt>
      <trkpt lat="46.48887" lon="6.01439">
        <ele>1095.3</ele>
        <time>2019-07-30T09:35:16Z</time>
      </trkpt>
      <trkpt lat="46.48884" lon="6.01444">
        <ele>1095.3</ele>
        <time>2019-07-30T09:35:18Z</time>
      </trkpt>
      <trkpt lat="46.48878" lon="6.0145">
        <ele>1095.2</ele>
        <time>2019-07-30T09:35:22Z</time>
      </trkpt>
      <trkpt lat="46.48873" lon="6.01454">
        <ele>1095</ele>
        <time>2019-07-30T09:35:24Z</time>
      </trkpt>
      <trkpt lat="46.48868" lon="6.01457">
        <ele>1094.7</ele>
        <time>2019-07-30T09:35:28Z</time>
      </trkpt>
      <trkpt lat="46.48864" lon="6.01461">
        <ele>1094.3</ele>
        <time>2019-07-30T09:35:34Z</time>
      </trkpt>
      <trkpt lat="46.48859" lon="6.01465">
        <ele>1093.9</ele>
        <time>2019-07-30T09:35:40Z</time>
      </trkpt>
      <trkpt lat="46.48853" lon="6.01469">
        <ele>1093.8</ele>
        <time>2019-07-30T09:35:42Z</time>
      </trkpt>
      <trkpt lat="46.48847" lon="6.01471">
        <ele>1093.6</ele>
        <time>2019-07-30T09:35:46Z</time>
      </trkpt>
      <trkpt lat="46.48822" lon="6.01465">
        <ele>1094.5</ele>
        <time>2019-07-30T09:36:02Z</time>
      </trkpt>
      <trkpt lat="46.48816" lon="6.01462">
        <ele>1095</ele>
        <time>2019-07-30T09:36:06Z</time>
      </trkpt>
      <trkpt lat="46.48812" lon="6.0146">
        <ele>1095.5</ele>
        <time>2019-07-30T09:36:10Z</time>
      </trkpt>
      <trkpt lat="46.48807" lon="6.01459">
        <ele>1095.8</ele>
        <time>2019-07-30T09:36:12Z</time>
      </trkpt>
      <trkpt lat="46.488" lon="6.01461">
        <ele>1096.3</ele>
        <time>2019-07-30T09:36:15Z</time>
      </trkpt>
      <trkpt lat="46.48795" lon="6.01458">
        <ele>1096.6</ele>
        <time>2019-07-30T09:36:18Z</time>
      </trkpt>
      <trkpt lat="46.48779" lon="6.01504">
        <ele>1098.3</ele>
        <time>2019-07-30T09:37:11Z</time>
      </trkpt>
      <trkpt lat="46.48776" lon="6.01509">
        <ele>1098.6</ele>
        <time>2019-07-30T09:37:20Z</time>
      </trkpt>
      <trkpt lat="46.48764" lon="6.0152">
        <ele>1101.6</ele>
        <time>2019-07-30T09:37:50Z</time>
      </trkpt>
      <trkpt lat="46.48759" lon="6.01528">
        <ele>1101.6</ele>
        <time>2019-07-30T09:37:52Z</time>
      </trkpt>
      <trkpt lat="46.48755" lon="6.01532">
        <ele>1101.6</ele>
        <time>2019-07-30T09:37:54Z</time>
      </trkpt>
      <trkpt lat="46.48743" lon="6.01542">
        <ele>1102.4</ele>
        <time>2019-07-30T09:38:13Z</time>
      </trkpt>
      <trkpt lat="46.4874" lon="6.01549">
        <ele>1102.9</ele>
        <time>2019-07-30T09:38:16Z</time>
      </trkpt>
      <trkpt lat="46.48735" lon="6.01552">
        <ele>1103.7</ele>
        <time>2019-07-30T09:38:21Z</time>
      </trkpt>
      <trkpt lat="46.48731" lon="6.01551">
        <ele>1105.2</ele>
        <time>2019-07-30T09:38:30Z</time>
      </trkpt>
      <trkpt lat="46.48725" lon="6.01556">
        <ele>1106.2</ele>
        <time>2019-07-30T09:38:41Z</time>
      </trkpt>
      <trkpt lat="46.48721" lon="6.01555">
        <ele>1106.1</ele>
        <time>2019-07-30T09:38:46Z</time>
      </trkpt>
      <trkpt lat="46.48714" lon="6.01556">
        <ele>1104.4</ele>
        <time>2019-07-30T09:39:02Z</time>
      </trkpt>
      <trkpt lat="46.48709" lon="6.01557">
        <ele>1093.1</ele>
        <time>2019-07-30T09:50:18Z</time>
      </trkpt>
      <trkpt lat="46.48716" lon="6.0155">
        <ele>1109</ele>
        <time>2019-07-30T10:30:04Z</time>
      </trkpt>
      <trkpt lat="46.4872" lon="6.01546">
        <ele>1107.5</ele>
        <time>2019-07-30T10:30:12Z</time>
      </trkpt>
      <trkpt lat="46.48737" lon="6.0152">
        <ele>1102</ele>
        <time>2019-07-30T10:30:49Z</time>
      </trkpt>
      <trkpt lat="46.48744" lon="6.0151">
        <ele>1097.5</ele>
        <time>2019-07-30T10:31:17Z</time>
      </trkpt>
      <trkpt lat="46.48759" lon="6.01505">
        <ele>1093</ele>
        <time>2019-07-30T10:31:36Z</time>
      </trkpt>
      <trkpt lat="46.48773" lon="6.01491">
        <ele>1087.5</ele>
        <time>2019-07-30T10:32:02Z</time>
      </trkpt>
      <trkpt lat="46.48781" lon="6.01476">
        <ele>1086.7</ele>
        <time>2019-07-30T10:32:27Z</time>
      </trkpt>
      <trkpt lat="46.48786" lon="6.01473">
        <ele>1086.7</ele>
        <time>2019-07-30T10:32:31Z</time>
      </trkpt>
      <trkpt lat="46.48796" lon="6.01451">
        <ele>1085.5</ele>
        <time>2019-07-30T10:32:40Z</time>
      </trkpt>
      <trkpt lat="46.48798" lon="6.01444">
        <ele>1085.3</ele>
        <time>2019-07-30T10:32:42Z</time>
      </trkpt>
      <trkpt lat="46.48801" lon="6.01438">
        <ele>1084.9</ele>
        <time>2019-07-30T10:32:49Z</time>
      </trkpt>
      <trkpt lat="46.48807" lon="6.01443">
        <ele>1085</ele>
        <time>2019-07-30T10:32:56Z</time>
      </trkpt>
      <trkpt lat="46.48812" lon="6.01445">
        <ele>1085.2</ele>
        <time>2019-07-30T10:32:58Z</time>
      </trkpt>
      <trkpt lat="46.48833" lon="6.01458">
        <ele>1088.9</ele>
        <time>2019-07-30T10:33:13Z</time>
      </trkpt>
      <trkpt lat="46.48838" lon="6.01461">
        <ele>1089.2</ele>
        <time>2019-07-30T10:33:15Z</time>
      </trkpt>
      <trkpt lat="46.48857" lon="6.01462">
        <ele>1094</ele>
        <time>2019-07-30T10:33:43Z</time>
      </trkpt>
      <trkpt lat="46.4886" lon="6.01456">
        <ele>1093.9</ele>
        <time>2019-07-30T10:33:47Z</time>
      </trkpt>
      <trkpt lat="46.4887" lon="6.01436">
        <ele>1094.1</ele>
        <time>2019-07-30T10:34:01Z</time>
      </trkpt>
      <trkpt lat="46.48872" lon="6.01426">
        <ele>1095</ele>
        <time>2019-07-30T10:34:09Z</time>
      </trkpt>
      <trkpt lat="46.4887" lon="6.01419">
        <ele>1095.5</ele>
        <time>2019-07-30T10:34:14Z</time>
      </trkpt>
      <trkpt lat="46.48868" lon="6.01413">
        <ele>1095.9</ele>
        <time>2019-07-30T10:34:20Z</time>
      </trkpt>
      <trkpt lat="46.48869" lon="6.01406">
        <ele>1096.1</ele>
        <time>2019-07-30T10:34:25Z</time>
      </trkpt>
      <trkpt lat="46.4887" lon="6.01399">
        <ele>1096.1</ele>
        <time>2019-07-30T10:34:29Z</time>
      </trkpt>
      <trkpt lat="46.48873" lon="6.01394">
        <ele>1095.7</ele>
        <time>2019-07-30T10:34:35Z</time>
      </trkpt>
      <trkpt lat="46.48876" lon="6.01388">
        <ele>1095.7</ele>
        <time>2019-07-30T10:34:39Z</time>
      </trkpt>
      <trkpt lat="46.4888" lon="6.01383">
        <ele>1095.9</ele>
        <time>2019-07-30T10:34:43Z</time>
      </trkpt>
      <trkpt lat="46.48883" lon="6.01379">
        <ele>1096</ele>
        <time>2019-07-30T10:34:47Z</time>
      </trkpt>
      <trkpt lat="46.48886" lon="6.01372">
        <ele>1095.8</ele>
        <time>2019-07-30T10:34:54Z</time>
      </trkpt>
      <trkpt lat="46.48892" lon="6.01353">
        <ele>1093.9</ele>
        <time>2019-07-30T10:35:05Z</time>
      </trkpt>
      <trkpt lat="46.48905" lon="6.01331">
        <ele>1093.3</ele>
        <time>2019-07-30T10:35:26Z</time>
      </trkpt>
      <trkpt lat="46.48909" lon="6.01329">
        <ele>1093</ele>
        <time>2019-07-30T10:35:29Z</time>
      </trkpt>
      <trkpt lat="46.48914" lon="6.01328">
        <ele>1092.3</ele>
        <time>2019-07-30T10:35:36Z</time>
      </trkpt>
      <trkpt lat="46.48936" lon="6.01316">
        <ele>1092.8</ele>
        <time>2019-07-30T10:35:54Z</time>
      </trkpt>
      <trkpt lat="46.48939" lon="6.01311">
        <ele>1093.1</ele>
        <time>2019-07-30T10:35:58Z</time>
      </trkpt>
      <trkpt lat="46.48941" lon="6.01301">
        <ele>1093.3</ele>
        <time>2019-07-30T10:36:03Z</time>
      </trkpt>
      <trkpt lat="46.48942" lon="6.01294">
        <ele>1093.3</ele>
        <time>2019-07-30T10:36:05Z</time>
      </trkpt>
      <trkpt lat="46.48943" lon="6.01288">
        <ele>1093</ele>
        <time>2019-07-30T10:36:10Z</time>
      </trkpt>
      <trkpt lat="46.48948" lon="6.01271">
        <ele>1090.1</ele>
        <time>2019-07-30T10:36:28Z</time>
      </trkpt>
      <trkpt lat="46.48949" lon="6.01262">
        <ele>1089.8</ele>
        <time>2019-07-30T10:36:30Z</time>
      </trkpt>
      <trkpt lat="46.48952" lon="6.01256">
        <ele>1089.2</ele>
        <time>2019-07-30T10:36:33Z</time>
      </trkpt>
      <trkpt lat="46.48968" lon="6.01265">
        <ele>1081.5</ele>
        <time>2019-07-30T10:36:56Z</time>
      </trkpt>
      <trkpt lat="46.48972" lon="6.01269">
        <ele>1080.4</ele>
        <time>2019-07-30T10:37:01Z</time>
      </trkpt>
      <trkpt lat="46.48998" lon="6.01277">
        <ele>1077.8</ele>
        <time>2019-07-30T10:37:10Z</time>
      </trkpt>
      <trkpt lat="46.49002" lon="6.01275">
        <ele>1077.2</ele>
        <time>2019-07-30T10:37:16Z</time>
      </trkpt>
      <trkpt lat="46.49006" lon="6.01271">
        <ele>1076.3</ele>
        <time>2019-07-30T10:37:24Z</time>
      </trkpt>
      <trkpt lat="46.49006" lon="6.01264">
        <ele>1075.4</ele>
        <time>2019-07-30T10:37:33Z</time>
      </trkpt>
      <trkpt lat="46.49009" lon="6.01257">
        <ele>1075.1</ele>
        <time>2019-07-30T10:37:43Z</time>
      </trkpt>
      <trkpt lat="46.49009" lon="6.01238">
        <ele>1074.3</ele>
        <time>2019-07-30T10:37:52Z</time>
      </trkpt>
      <trkpt lat="46.49011" lon="6.0123">
        <ele>1074.2</ele>
        <time>2019-07-30T10:37:54Z</time>
      </trkpt>
      <trkpt lat="46.49012" lon="6.01223">
        <ele>1073.8</ele>
        <time>2019-07-30T10:38:00Z</time>
      </trkpt>
      <trkpt lat="46.49016" lon="6.01219">
        <ele>1073.5</ele>
        <time>2019-07-30T10:38:06Z</time>
      </trkpt>
      <trkpt lat="46.49017" lon="6.01209">
        <ele>1073.2</ele>
        <time>2019-07-30T10:38:10Z</time>
      </trkpt>
      <trkpt lat="46.49021" lon="6.01186">
        <ele>1071.6</ele>
        <time>2019-07-30T10:38:26Z</time>
      </trkpt>
      <trkpt lat="46.49026" lon="6.0119">
        <ele>1070.9</ele>
        <time>2019-07-30T10:38:29Z</time>
      </trkpt>
      <trkpt lat="46.4904" lon="6.01191">
        <ele>1064.7</ele>
        <time>2019-07-30T10:38:53Z</time>
      </trkpt>
      <trkpt lat="46.49047" lon="6.01192">
        <ele>1064.5</ele>
        <time>2019-07-30T10:38:55Z</time>
      </trkpt>
      <trkpt lat="46.49054" lon="6.01192">
        <ele>1064.3</ele>
        <time>2019-07-30T10:38:57Z</time>
      </trkpt>
      <trkpt lat="46.4906" lon="6.01194">
        <ele>1064.1</ele>
        <time>2019-07-30T10:38:59Z</time>
      </trkpt>
      <trkpt lat="46.49065" lon="6.01196">
        <ele>1063.7</ele>
        <time>2019-07-30T10:39:03Z</time>
      </trkpt>
      <trkpt lat="46.49097" lon="6.01223">
        <ele>1062.5</ele>
        <time>2019-07-30T10:39:48Z</time>
      </trkpt>
      <trkpt lat="46.491" lon="6.01228">
        <ele>1062.3</ele>
        <time>2019-07-30T10:39:52Z</time>
      </trkpt>
      <trkpt lat="46.49113" lon="6.01244">
        <ele>1061.5</ele>
        <time>2019-07-30T10:40:07Z</time>
      </trkpt>
      <trkpt lat="46.49117" lon="6.01249">
        <ele>1060.9</ele>
        <time>2019-07-30T10:40:16Z</time>
      </trkpt>
      <trkpt lat="46.49122" lon="6.01246">
        <ele>1060.6</ele>
        <time>2019-07-30T10:40:19Z</time>
      </trkpt>
      <trkpt lat="46.49129" lon="6.01248">
        <ele>1060.5</ele>
        <time>2019-07-30T10:40:21Z</time>
      </trkpt>
      <trkpt lat="46.49147" lon="6.01248">
        <ele>1060.1</ele>
        <time>2019-07-30T10:40:30Z</time>
      </trkpt>
      <trkpt lat="46.49151" lon="6.0125">
        <ele>1060.2</ele>
        <time>2019-07-30T10:40:35Z</time>
      </trkpt>
      <trkpt lat="46.49156" lon="6.0125">
        <ele>1060.3</ele>
        <time>2019-07-30T10:40:41Z</time>
      </trkpt>
      <trkpt lat="46.49161" lon="6.01246">
        <ele>1060.2</ele>
        <time>2019-07-30T10:40:44Z</time>
      </trkpt>
      <trkpt lat="46.49169" lon="6.01248">
        <ele>1059.9</ele>
        <time>2019-07-30T10:40:58Z</time>
      </trkpt>
      <trkpt lat="46.49171" lon="6.01256">
        <ele>1060.3</ele>
        <time>2019-07-30T10:41:02Z</time>
      </trkpt>
      <trkpt lat="46.49172" lon="6.01263">
        <ele>1060.5</ele>
        <time>2019-07-30T10:41:05Z</time>
      </trkpt>
      <trkpt lat="46.49175" lon="6.01271">
        <ele>1060.8</ele>
        <time>2019-07-30T10:41:08Z</time>
      </trkpt>
      <trkpt lat="46.49178" lon="6.01279">
        <ele>1061</ele>
        <time>2019-07-30T10:41:10Z</time>
      </trkpt>
      <trkpt lat="46.49182" lon="6.01284">
        <ele>1061.2</ele>
        <time>2019-07-30T10:41:12Z</time>
      </trkpt>
      <trkpt lat="46.49188" lon="6.01288">
        <ele>1061.5</ele>
        <time>2019-07-30T10:41:14Z</time>
      </trkpt>
      <trkpt lat="46.49201" lon="6.01299">
        <ele>1064</ele>
        <time>2019-07-30T10:41:33Z</time>
      </trkpt>
      <trkpt lat="46.49207" lon="6.01302">
        <ele>1065.2</ele>
        <time>2019-07-30T10:41:49Z</time>
      </trkpt>
      <trkpt lat="46.49212" lon="6.01302">
        <ele>1066.1</ele>
        <time>2019-07-30T10:41:56Z</time>
      </trkpt>
      <trkpt lat="46.49225" lon="6.013">
        <ele>1067.3</ele>
        <time>2019-07-30T10:42:09Z</time>
      </trkpt>
      <trkpt lat="46.49228" lon="6.01295">
        <ele>1067.3</ele>
        <time>2019-07-30T10:42:12Z</time>
      </trkpt>
      <trkpt lat="46.49232" lon="6.01291">
        <ele>1067.1</ele>
        <time>2019-07-30T10:42:17Z</time>
      </trkpt>
      <trkpt lat="46.49236" lon="6.01287">
        <ele>1066.6</ele>
        <time>2019-07-30T10:42:22Z</time>
      </trkpt>
      <trkpt lat="46.4924" lon="6.01283">
        <ele>1066.2</ele>
        <time>2019-07-30T10:42:25Z</time>
      </trkpt>
      <trkpt lat="46.49243" lon="6.01277">
        <ele>1065.8</ele>
        <time>2019-07-30T10:42:28Z</time>
      </trkpt>
      <trkpt lat="46.4925" lon="6.0126">
        <ele>1064.9</ele>
        <time>2019-07-30T10:42:40Z</time>
      </trkpt>
      <trkpt lat="46.49252" lon="6.01254">
        <ele>1064.7</ele>
        <time>2019-07-30T10:42:45Z</time>
      </trkpt>
      <trkpt lat="46.49256" lon="6.01249">
        <ele>1064.1</ele>
        <time>2019-07-30T10:42:51Z</time>
      </trkpt>
      <trkpt lat="46.49261" lon="6.01244">
        <ele>1063.8</ele>
        <time>2019-07-30T10:42:55Z</time>
      </trkpt>
      <trkpt lat="46.49264" lon="6.01239">
        <ele>1063.7</ele>
        <time>2019-07-30T10:42:58Z</time>
      </trkpt>
      <trkpt lat="46.49268" lon="6.01229">
        <ele>1062.9</ele>
        <time>2019-07-30T10:43:07Z</time>
      </trkpt>
      <trkpt lat="46.49272" lon="6.01222">
        <ele>1062.6</ele>
        <time>2019-07-30T10:43:10Z</time>
      </trkpt>
      <trkpt lat="46.49273" lon="6.01216">
        <ele>1062.3</ele>
        <time>2019-07-30T10:43:12Z</time>
      </trkpt>
      <trkpt lat="46.49275" lon="6.0121">
        <ele>1061.8</ele>
        <time>2019-07-30T10:43:15Z</time>
      </trkpt>
      <trkpt lat="46.49278" lon="6.01204">
        <ele>1061.1</ele>
        <time>2019-07-30T10:43:19Z</time>
      </trkpt>
      <trkpt lat="46.49281" lon="6.01198">
        <ele>1060.5</ele>
        <time>2019-07-30T10:43:24Z</time>
      </trkpt>
      <trkpt lat="46.49283" lon="6.01192">
        <ele>1059.7</ele>
        <time>2019-07-30T10:43:41Z</time>
      </trkpt>
      <trkpt lat="46.49287" lon="6.01187">
        <ele>1060.3</ele>
        <time>2019-07-30T10:43:47Z</time>
      </trkpt>
      <trkpt lat="46.49292" lon="6.01186">
        <ele>1061.5</ele>
        <time>2019-07-30T10:43:54Z</time>
      </trkpt>
      <trkpt lat="46.49297" lon="6.01189">
        <ele>1061.9</ele>
        <time>2019-07-30T10:43:58Z</time>
      </trkpt>
      <trkpt lat="46.49302" lon="6.01195">
        <ele>1062.1</ele>
        <time>2019-07-30T10:44:00Z</time>
      </trkpt>
      <trkpt lat="46.49307" lon="6.012">
        <ele>1062.2</ele>
        <time>2019-07-30T10:44:02Z</time>
      </trkpt>
      <trkpt lat="46.49312" lon="6.01205">
        <ele>1062.4</ele>
        <time>2019-07-30T10:44:05Z</time>
      </trkpt>
      <trkpt lat="46.49316" lon="6.01209">
        <ele>1062.8</ele>
        <time>2019-07-30T10:44:09Z</time>
      </trkpt>
      <trkpt lat="46.4932" lon="6.01215">
        <ele>1063.1</ele>
        <time>2019-07-30T10:44:13Z</time>
      </trkpt>
      <trkpt lat="46.49324" lon="6.0122">
        <ele>1063.3</ele>
        <time>2019-07-30T10:44:17Z</time>
      </trkpt>
      <trkpt lat="46.49327" lon="6.01225">
        <ele>1063.4</ele>
        <time>2019-07-30T10:44:21Z</time>
      </trkpt>
      <trkpt lat="46.49331" lon="6.0123">
        <ele>1063</ele>
        <time>2019-07-30T10:44:27Z</time>
      </trkpt>
      <trkpt lat="46.49335" lon="6.01234">
        <ele>1062.4</ele>
        <time>2019-07-30T10:44:32Z</time>
      </trkpt>
      <trkpt lat="46.49344" lon="6.01233">
        <ele>1057.7</ele>
        <time>2019-07-30T10:44:54Z</time>
      </trkpt>
      <trkpt lat="46.49343" lon="6.01226">
        <ele>1056.3</ele>
        <time>2019-07-30T10:44:59Z</time>
      </trkpt>
      <trkpt lat="46.49343" lon="6.01218">
        <ele>1055.4</ele>
        <time>2019-07-30T10:45:03Z</time>
      </trkpt>
      <trkpt lat="46.49341" lon="6.01211">
        <ele>1054.6</ele>
        <time>2019-07-30T10:45:08Z</time>
      </trkpt>
      <trkpt lat="46.49339" lon="6.01205">
        <ele>1054.3</ele>
        <time>2019-07-30T10:45:15Z</time>
      </trkpt>
      <trkpt lat="46.49335" lon="6.01199">
        <ele>1054.3</ele>
        <time>2019-07-30T10:45:19Z</time>
      </trkpt>
      <trkpt lat="46.49332" lon="6.01193">
        <ele>1054.4</ele>
        <time>2019-07-30T10:45:21Z</time>
      </trkpt>
      <trkpt lat="46.49329" lon="6.01187">
        <ele>1054.4</ele>
        <time>2019-07-30T10:45:23Z</time>
      </trkpt>
      <trkpt lat="46.49326" lon="6.01181">
        <ele>1054.6</ele>
        <time>2019-07-30T10:45:25Z</time>
      </trkpt>
      <trkpt lat="46.49324" lon="6.01173">
        <ele>1054.7</ele>
        <time>2019-07-30T10:45:28Z</time>
      </trkpt>
      <trkpt lat="46.49324" lon="6.01166">
        <ele>1055</ele>
        <time>2019-07-30T10:45:33Z</time>
      </trkpt>
      <trkpt lat="46.49326" lon="6.01159">
        <ele>1055.2</ele>
        <time>2019-07-30T10:45:39Z</time>
      </trkpt>
      <trkpt lat="46.49329" lon="6.01153">
        <ele>1055.2</ele>
        <time>2019-07-30T10:45:45Z</time>
      </trkpt>
      <trkpt lat="46.49332" lon="6.01149">
        <ele>1055</ele>
        <time>2019-07-30T10:45:51Z</time>
      </trkpt>
      <trkpt lat="46.4934" lon="6.01142">
        <ele>1053.8</ele>
        <time>2019-07-30T10:46:03Z</time>
      </trkpt>
      <trkpt lat="46.49344" lon="6.01137">
        <ele>1053.5</ele>
        <time>2019-07-30T10:46:08Z</time>
      </trkpt>
      <trkpt lat="46.49348" lon="6.01134">
        <ele>1053.1</ele>
        <time>2019-07-30T10:46:13Z</time>
      </trkpt>
      <trkpt lat="46.49353" lon="6.01131">
        <ele>1052.5</ele>
        <time>2019-07-30T10:46:18Z</time>
      </trkpt>
      <trkpt lat="46.49358" lon="6.01127">
        <ele>1051.7</ele>
        <time>2019-07-30T10:46:23Z</time>
      </trkpt>
      <trkpt lat="46.49361" lon="6.01122">
        <ele>1050.7</ele>
        <time>2019-07-30T10:46:29Z</time>
      </trkpt>
      <trkpt lat="46.49373" lon="6.01116">
        <ele>1044.2</ele>
        <time>2019-07-30T10:46:50Z</time>
      </trkpt>
      <trkpt lat="46.49378" lon="6.01118">
        <ele>1041.3</ele>
        <time>2019-07-30T10:47:00Z</time>
      </trkpt>
      <trkpt lat="46.49383" lon="6.01122">
        <ele>1040.1</ele>
        <time>2019-07-30T10:47:04Z</time>
      </trkpt>
      <trkpt lat="46.49387" lon="6.01125">
        <ele>1039.1</ele>
        <time>2019-07-30T10:47:07Z</time>
      </trkpt>
      <trkpt lat="46.49391" lon="6.01129">
        <ele>1037.7</ele>
        <time>2019-07-30T10:47:11Z</time>
      </trkpt>
      <trkpt lat="46.49394" lon="6.01133">
        <ele>1036.2</ele>
        <time>2019-07-30T10:47:16Z</time>
      </trkpt>
      <trkpt lat="46.49398" lon="6.01139">
        <ele>1034.6</ele>
        <time>2019-07-30T10:47:22Z</time>
      </trkpt>
      <trkpt lat="46.49403" lon="6.01142">
        <ele>1033.6</ele>
        <time>2019-07-30T10:47:27Z</time>
      </trkpt>
      <trkpt lat="46.49408" lon="6.01146">
        <ele>1033</ele>
        <time>2019-07-30T10:47:30Z</time>
      </trkpt>
      <trkpt lat="46.49412" lon="6.01151">
        <ele>1032.2</ele>
        <time>2019-07-30T10:47:36Z</time>
      </trkpt>
      <trkpt lat="46.49427" lon="6.01163">
        <ele>1030.4</ele>
        <time>2019-07-30T10:49:17Z</time>
      </trkpt>
      <trkpt lat="46.49431" lon="6.01167">
        <ele>1030.5</ele>
        <time>2019-07-30T10:49:22Z</time>
      </trkpt>
      <trkpt lat="46.49438" lon="6.01178">
        <ele>1034.1</ele>
        <time>2019-07-30T10:49:35Z</time>
      </trkpt>
      <trkpt lat="46.4945" lon="6.01198">
        <ele>1039</ele>
        <time>2019-07-30T10:49:57Z</time>
      </trkpt>
      <trkpt lat="46.49453" lon="6.01202">
        <ele>1038.6</ele>
        <time>2019-07-30T10:50:04Z</time>
      </trkpt>
      <trkpt lat="46.49458" lon="6.01205">
        <ele>1038.6</ele>
        <time>2019-07-30T10:50:09Z</time>
      </trkpt>
      <trkpt lat="46.49463" lon="6.01208">
        <ele>1038.6</ele>
        <time>2019-07-30T10:50:14Z</time>
      </trkpt>
      <trkpt lat="46.49468" lon="6.01212">
        <ele>1038.1</ele>
        <time>2019-07-30T10:50:19Z</time>
      </trkpt>
      <trkpt lat="46.4949" lon="6.01233">
        <ele>1028.7</ele>
        <time>2019-07-30T10:50:57Z</time>
      </trkpt>
      <trkpt lat="46.49494" lon="6.01235">
        <ele>1028.3</ele>
        <time>2019-07-30T10:51:02Z</time>
      </trkpt>
      <trkpt lat="46.49519" lon="6.0126">
        <ele>1028.4</ele>
        <time>2019-07-30T10:51:23Z</time>
      </trkpt>
      <trkpt lat="46.49523" lon="6.01265">
        <ele>1028.9</ele>
        <time>2019-07-30T10:51:27Z</time>
      </trkpt>
      <trkpt lat="46.49532" lon="6.01273">
        <ele>1031.2</ele>
        <time>2019-07-30T10:51:37Z</time>
      </trkpt>
      <trkpt lat="46.49538" lon="6.01276">
        <ele>1031.4</ele>
        <time>2019-07-30T10:51:40Z</time>
      </trkpt>
      <trkpt lat="46.49542" lon="6.0128">
        <ele>1031.7</ele>
        <time>2019-07-30T10:51:45Z</time>
      </trkpt>
      <trkpt lat="46.49546" lon="6.01285">
        <ele>1031.8</ele>
        <time>2019-07-30T10:51:50Z</time>
      </trkpt>
      <trkpt lat="46.4955" lon="6.01288">
        <ele>1031</ele>
        <time>2019-07-30T10:51:58Z</time>
      </trkpt>
      <trkpt lat="46.49556" lon="6.01293">
        <ele>1028.7</ele>
        <time>2019-07-30T10:52:09Z</time>
      </trkpt>
      <trkpt lat="46.49561" lon="6.01297">
        <ele>1027.6</ele>
        <time>2019-07-30T10:52:14Z</time>
      </trkpt>
      <trkpt lat="46.49564" lon="6.01301">
        <ele>1026</ele>
        <time>2019-07-30T10:52:21Z</time>
      </trkpt>
      <trkpt lat="46.49568" lon="6.01304">
        <ele>1024.2</ele>
        <time>2019-07-30T10:52:29Z</time>
      </trkpt>
      <trkpt lat="46.49572" lon="6.01307">
        <ele>1021.2</ele>
        <time>2019-07-30T10:52:41Z</time>
      </trkpt>
      <trkpt lat="46.49577" lon="6.01308">
        <ele>1020</ele>
        <time>2019-07-30T10:52:48Z</time>
      </trkpt>
      <trkpt lat="46.49583" lon="6.0131">
        <ele>1019.9</ele>
        <time>2019-07-30T10:52:52Z</time>
      </trkpt>
      <trkpt lat="46.49589" lon="6.01311">
        <ele>1020.1</ele>
        <time>2019-07-30T10:52:55Z</time>
      </trkpt>
      <trkpt lat="46.49594" lon="6.01313">
        <ele>1020.2</ele>
        <time>2019-07-30T10:52:57Z</time>
      </trkpt>
      <trkpt lat="46.49598" lon="6.01314">
        <ele>1020.5</ele>
        <time>2019-07-30T10:52:59Z</time>
      </trkpt>
      <trkpt lat="46.49603" lon="6.01319">
        <ele>1021.7</ele>
        <time>2019-07-30T10:53:07Z</time>
      </trkpt>
      <trkpt lat="46.49608" lon="6.01322">
        <ele>1022.3</ele>
        <time>2019-07-30T10:53:11Z</time>
      </trkpt>
      <trkpt lat="46.49611" lon="6.01327">
        <ele>1022.8</ele>
        <time>2019-07-30T10:53:16Z</time>
      </trkpt>
      <trkpt lat="46.49617" lon="6.0133">
        <ele>1023.1</ele>
        <time>2019-07-30T10:53:20Z</time>
      </trkpt>
      <trkpt lat="46.49621" lon="6.01333">
        <ele>1023.2</ele>
        <time>2019-07-30T10:53:24Z</time>
      </trkpt>
      <trkpt lat="46.49626" lon="6.01338">
        <ele>1023.2</ele>
        <time>2019-07-30T10:53:28Z</time>
      </trkpt>
      <trkpt lat="46.49631" lon="6.01341">
        <ele>1023.1</ele>
        <time>2019-07-30T10:53:32Z</time>
      </trkpt>
      <trkpt lat="46.49636" lon="6.01345">
        <ele>1022.6</ele>
        <time>2019-07-30T10:53:37Z</time>
      </trkpt>
      <trkpt lat="46.49639" lon="6.0135">
        <ele>1022</ele>
        <time>2019-07-30T10:53:42Z</time>
      </trkpt>
      <trkpt lat="46.49641" lon="6.01356">
        <ele>1020.6</ele>
        <time>2019-07-30T10:53:49Z</time>
      </trkpt>
      <trkpt lat="46.49644" lon="6.01362">
        <ele>1019.5</ele>
        <time>2019-07-30T10:53:54Z</time>
      </trkpt>
      <trkpt lat="46.49646" lon="6.01368">
        <ele>1018</ele>
        <time>2019-07-30T10:54:00Z</time>
      </trkpt>
      <trkpt lat="46.49651" lon="6.01372">
        <ele>1016.8</ele>
        <time>2019-07-30T10:54:05Z</time>
      </trkpt>
      <trkpt lat="46.49655" lon="6.01376">
        <ele>1015.3</ele>
        <time>2019-07-30T10:54:11Z</time>
      </trkpt>
      <trkpt lat="46.49661" lon="6.01375">
        <ele>1013.1</ele>
        <time>2019-07-30T10:54:25Z</time>
      </trkpt>
      <trkpt lat="46.49674" lon="6.01377">
        <ele>1012.5</ele>
        <time>2019-07-30T10:54:48Z</time>
      </trkpt>
      <trkpt lat="46.49685" lon="6.0139">
        <ele>1014.2</ele>
        <time>2019-07-30T10:54:58Z</time>
      </trkpt>
      <trkpt lat="46.49688" lon="6.01395">
        <ele>1014.8</ele>
        <time>2019-07-30T10:55:03Z</time>
      </trkpt>
      <trkpt lat="46.49694" lon="6.01401">
        <ele>1015.6</ele>
        <time>2019-07-30T10:55:11Z</time>
      </trkpt>
      <trkpt lat="46.49699" lon="6.01405">
        <ele>1015.8</ele>
        <time>2019-07-30T10:55:15Z</time>
      </trkpt>
      <trkpt lat="46.49703" lon="6.01407">
        <ele>1016.1</ele>
        <time>2019-07-30T10:55:21Z</time>
      </trkpt>
      <trkpt lat="46.49709" lon="6.01405">
        <ele>1016.4</ele>
        <time>2019-07-30T10:55:25Z</time>
      </trkpt>
      <trkpt lat="46.49714" lon="6.01403">
        <ele>1016.9</ele>
        <time>2019-07-30T10:55:29Z</time>
      </trkpt>
      <trkpt lat="46.49719" lon="6.014">
        <ele>1017.2</ele>
        <time>2019-07-30T10:55:31Z</time>
      </trkpt>
      <trkpt lat="46.49724" lon="6.01395">
        <ele>1017.7</ele>
        <time>2019-07-30T10:55:36Z</time>
      </trkpt>
      <trkpt lat="46.4973" lon="6.01389">
        <ele>1017.9</ele>
        <time>2019-07-30T10:55:39Z</time>
      </trkpt>
      <trkpt lat="46.4977" lon="6.01442">
        <ele>1015.5</ele>
        <time>2019-07-30T10:56:40Z</time>
      </trkpt>
      <trkpt lat="46.49774" lon="6.01447">
        <ele>1015.6</ele>
        <time>2019-07-30T10:56:44Z</time>
      </trkpt>
      <trkpt lat="46.49778" lon="6.01454">
        <ele>1015.6</ele>
        <time>2019-07-30T10:56:46Z</time>
      </trkpt>
      <trkpt lat="46.49782" lon="6.0146">
        <ele>1015.6</ele>
        <time>2019-07-30T10:56:48Z</time>
      </trkpt>
      <trkpt lat="46.49785" lon="6.01464">
        <ele>1015.6</ele>
        <time>2019-07-30T10:56:51Z</time>
      </trkpt>
      <trkpt lat="46.49788" lon="6.01469">
        <ele>1015.1</ele>
        <time>2019-07-30T10:56:59Z</time>
      </trkpt>
      <trkpt lat="46.49797" lon="6.01479">
        <ele>1013.1</ele>
        <time>2019-07-30T10:57:14Z</time>
      </trkpt>
      <trkpt lat="46.498" lon="6.01484">
        <ele>1012.3</ele>
        <time>2019-07-30T10:57:21Z</time>
      </trkpt>
      <trkpt lat="46.49809" lon="6.01501">
        <ele>1011.2</ele>
        <time>2019-07-30T10:57:45Z</time>
      </trkpt>
      <trkpt lat="46.49812" lon="6.01509">
        <ele>1011.2</ele>
        <time>2019-07-30T10:57:47Z</time>
      </trkpt>
      <trkpt lat="46.49815" lon="6.01515">
        <ele>1010.8</ele>
        <time>2019-07-30T10:57:51Z</time>
      </trkpt>
      <trkpt lat="46.4982" lon="6.01522">
        <ele>1009.9</ele>
        <time>2019-07-30T10:57:57Z</time>
      </trkpt>
      <trkpt lat="46.49822" lon="6.01527">
        <ele>1009.2</ele>
        <time>2019-07-30T10:58:02Z</time>
      </trkpt>
      <trkpt lat="46.49825" lon="6.01533">
        <ele>1008</ele>
        <time>2019-07-30T10:58:11Z</time>
      </trkpt>
      <trkpt lat="46.49829" lon="6.01539">
        <ele>1007.3</ele>
        <time>2019-07-30T10:58:18Z</time>
      </trkpt>
      <trkpt lat="46.49837" lon="6.01548">
        <ele>1007.1</ele>
        <time>2019-07-30T10:58:32Z</time>
      </trkpt>
      <trkpt lat="46.49842" lon="6.01552">
        <ele>1006.9</ele>
        <time>2019-07-30T10:58:37Z</time>
      </trkpt>
      <trkpt lat="46.49846" lon="6.01557">
        <ele>1006.9</ele>
        <time>2019-07-30T10:58:41Z</time>
      </trkpt>
      <trkpt lat="46.4986" lon="6.01575">
        <ele>1007</ele>
        <time>2019-07-30T10:58:50Z</time>
      </trkpt>
      <trkpt lat="46.49866" lon="6.01579">
        <ele>1007</ele>
        <time>2019-07-30T10:58:53Z</time>
      </trkpt>
      <trkpt lat="46.4987" lon="6.01582">
        <ele>1006.8</ele>
        <time>2019-07-30T10:58:57Z</time>
      </trkpt>
      <trkpt lat="46.49875" lon="6.01589">
        <ele>1006.7</ele>
        <time>2019-07-30T10:59:05Z</time>
      </trkpt>
      <trkpt lat="46.49879" lon="6.01594">
        <ele>1006.8</ele>
        <time>2019-07-30T10:59:09Z</time>
      </trkpt>
      <trkpt lat="46.49883" lon="6.01599">
        <ele>1007.1</ele>
        <time>2019-07-30T10:59:14Z</time>
      </trkpt>
      <trkpt lat="46.49884" lon="6.01606">
        <ele>1007.7</ele>
        <time>2019-07-30T10:59:20Z</time>
      </trkpt>
      <trkpt lat="46.4989" lon="6.01619">
        <ele>1007.1</ele>
        <time>2019-07-30T10:59:37Z</time>
      </trkpt>
      <trkpt lat="46.49893" lon="6.01625">
        <ele>1006.8</ele>
        <time>2019-07-30T10:59:42Z</time>
      </trkpt>
      <trkpt lat="46.49896" lon="6.01631">
        <ele>1006.5</ele>
        <time>2019-07-30T10:59:48Z</time>
      </trkpt>
      <trkpt lat="46.49899" lon="6.01637">
        <ele>1005.8</ele>
        <time>2019-07-30T10:59:54Z</time>
      </trkpt>
      <trkpt lat="46.49902" lon="6.01641">
        <ele>1004</ele>
        <time>2019-07-30T11:00:03Z</time>
      </trkpt>
      <trkpt lat="46.49906" lon="6.01646">
        <ele>1003.5</ele>
        <time>2019-07-30T11:00:05Z</time>
      </trkpt>
      <trkpt lat="46.4991" lon="6.01651">
        <ele>1003.2</ele>
        <time>2019-07-30T11:00:08Z</time>
      </trkpt>
      <trkpt lat="46.49914" lon="6.01659">
        <ele>1002.7</ele>
        <time>2019-07-30T11:00:11Z</time>
      </trkpt>
      <trkpt lat="46.49918" lon="6.01665">
        <ele>1002.2</ele>
        <time>2019-07-30T11:00:15Z</time>
      </trkpt>
      <trkpt lat="46.49921" lon="6.0167">
        <ele>1001.6</ele>
        <time>2019-07-30T11:00:22Z</time>
      </trkpt>
      <trkpt lat="46.49923" lon="6.01676">
        <ele>1001.3</ele>
        <time>2019-07-30T11:00:31Z</time>
      </trkpt>
      <trkpt lat="46.49926" lon="6.01682">
        <ele>1001.2</ele>
        <time>2019-07-30T11:00:35Z</time>
      </trkpt>
      <trkpt lat="46.4993" lon="6.01688">
        <ele>1000.9</ele>
        <time>2019-07-30T11:00:41Z</time>
      </trkpt>
      <trkpt lat="46.49933" lon="6.01692">
        <ele>1000.8</ele>
        <time>2019-07-30T11:00:45Z</time>
      </trkpt>
      <trkpt lat="46.49937" lon="6.01697">
        <ele>1000.6</ele>
        <time>2019-07-30T11:00:50Z</time>
      </trkpt>
      <trkpt lat="46.4994" lon="6.01702">
        <ele>1000.4</ele>
        <time>2019-07-30T11:00:55Z</time>
      </trkpt>
      <trkpt lat="46.49943" lon="6.01708">
        <ele>1000</ele>
        <time>2019-07-30T11:01:00Z</time>
      </trkpt>
      <trkpt lat="46.49946" lon="6.01714">
        <ele>999.6</ele>
        <time>2019-07-30T11:01:06Z</time>
      </trkpt>
      <trkpt lat="46.4995" lon="6.01719">
        <ele>999.2</ele>
        <time>2019-07-30T11:01:11Z</time>
      </trkpt>
      <trkpt lat="46.49953" lon="6.01725">
        <ele>998.8</ele>
        <time>2019-07-30T11:01:15Z</time>
      </trkpt>
      <trkpt lat="46.49958" lon="6.0173">
        <ele>998.3</ele>
        <time>2019-07-30T11:01:19Z</time>
      </trkpt>
      <trkpt lat="46.49962" lon="6.01734">
        <ele>997.4</ele>
        <time>2019-07-30T11:01:26Z</time>
      </trkpt>
      <trkpt lat="46.49965" lon="6.01739">
        <ele>996.2</ele>
        <time>2019-07-30T11:01:32Z</time>
      </trkpt>
      <trkpt lat="46.49968" lon="6.01744">
        <ele>994</ele>
        <time>2019-07-30T11:01:39Z</time>
      </trkpt>
      <trkpt lat="46.49971" lon="6.0175">
        <ele>991.9</ele>
        <time>2019-07-30T11:01:45Z</time>
      </trkpt>
      <trkpt lat="46.49974" lon="6.01755">
        <ele>988.6</ele>
        <time>2019-07-30T11:01:54Z</time>
      </trkpt>
      <trkpt lat="46.49977" lon="6.0176">
        <ele>985.1</ele>
        <time>2019-07-30T11:02:03Z</time>
      </trkpt>
      <trkpt lat="46.49981" lon="6.01763">
        <ele>982.4</ele>
        <time>2019-07-30T11:02:11Z</time>
      </trkpt>
      <trkpt lat="46.49986" lon="6.01762">
        <ele>981.1</ele>
        <time>2019-07-30T11:02:16Z</time>
      </trkpt>
      <trkpt lat="46.4999" lon="6.01759">
        <ele>979.9</ele>
        <time>2019-07-30T11:02:22Z</time>
      </trkpt>
      <trkpt lat="46.49995" lon="6.01755">
        <ele>979.5</ele>
        <time>2019-07-30T11:02:29Z</time>
      </trkpt>
      <trkpt lat="46.5" lon="6.01751">
        <ele>979.6</ele>
        <time>2019-07-30T11:02:34Z</time>
      </trkpt>
      <trkpt lat="46.50006" lon="6.0175">
        <ele>980.3</ele>
        <time>2019-07-30T11:02:41Z</time>
      </trkpt>
      <trkpt lat="46.50012" lon="6.0175">
        <ele>981.4</ele>
        <time>2019-07-30T11:02:52Z</time>
      </trkpt>
      <trkpt lat="46.50017" lon="6.01752">
        <ele>981.5</ele>
        <time>2019-07-30T11:02:54Z</time>
      </trkpt>
      <trkpt lat="46.50021" lon="6.01753">
        <ele>981.5</ele>
        <time>2019-07-30T11:02:57Z</time>
      </trkpt>
      <trkpt lat="46.50031" lon="6.01757">
        <ele>979.9</ele>
        <time>2019-07-30T11:03:13Z</time>
      </trkpt>
      <trkpt lat="46.50036" lon="6.01759">
        <ele>979.3</ele>
        <time>2019-07-30T11:03:18Z</time>
      </trkpt>
      <trkpt lat="46.50042" lon="6.01759">
        <ele>979</ele>
        <time>2019-07-30T11:03:20Z</time>
      </trkpt>
      <trkpt lat="46.50047" lon="6.01759">
        <ele>978.3</ele>
        <time>2019-07-30T11:03:24Z</time>
      </trkpt>
      <trkpt lat="46.50052" lon="6.01759">
        <ele>976.3</ele>
        <time>2019-07-30T11:03:37Z</time>
      </trkpt>
      <trkpt lat="46.50062" lon="6.01752">
        <ele>973.8</ele>
        <time>2019-07-30T11:03:54Z</time>
      </trkpt>
      <trkpt lat="46.50067" lon="6.01754">
        <ele>973</ele>
        <time>2019-07-30T11:04:02Z</time>
      </trkpt>
      <trkpt lat="46.50085" lon="6.01751">
        <ele>970.7</ele>
        <time>2019-07-30T11:04:13Z</time>
      </trkpt>
      <trkpt lat="46.50089" lon="6.0175">
        <ele>970.1</ele>
        <time>2019-07-30T11:04:16Z</time>
      </trkpt>
      <trkpt lat="46.50092" lon="6.01743">
        <ele>969.5</ele>
        <time>2019-07-30T11:04:20Z</time>
      </trkpt>
      <trkpt lat="46.50096" lon="6.01738">
        <ele>968.9</ele>
        <time>2019-07-30T11:04:28Z</time>
      </trkpt>
      <trkpt lat="46.501" lon="6.01734">
        <ele>968.8</ele>
        <time>2019-07-30T11:04:30Z</time>
      </trkpt>
      <trkpt lat="46.50105" lon="6.01731">
        <ele>968</ele>
        <time>2019-07-30T11:04:39Z</time>
      </trkpt>
      <trkpt lat="46.5011" lon="6.01726">
        <ele>967.6</ele>
        <time>2019-07-30T11:04:43Z</time>
      </trkpt>
      <trkpt lat="46.50114" lon="6.01718">
        <ele>967.4</ele>
        <time>2019-07-30T11:04:45Z</time>
      </trkpt>
      <trkpt lat="46.50119" lon="6.01713">
        <ele>967.2</ele>
        <time>2019-07-30T11:04:48Z</time>
      </trkpt>
      <trkpt lat="46.50122" lon="6.0171">
        <ele>966.5</ele>
        <time>2019-07-30T11:04:57Z</time>
      </trkpt>
      <trkpt lat="46.50127" lon="6.01707">
        <ele>965.9</ele>
        <time>2019-07-30T11:05:02Z</time>
      </trkpt>
      <trkpt lat="46.50132" lon="6.01702">
        <ele>965.7</ele>
        <time>2019-07-30T11:05:05Z</time>
      </trkpt>
      <trkpt lat="46.50136" lon="6.017">
        <ele>965.6</ele>
        <time>2019-07-30T11:05:11Z</time>
      </trkpt>
      <trkpt lat="46.50141" lon="6.01698">
        <ele>965.3</ele>
        <time>2019-07-30T11:05:19Z</time>
      </trkpt>
      <trkpt lat="46.50146" lon="6.01696">
        <ele>965.4</ele>
        <time>2019-07-30T11:05:25Z</time>
      </trkpt>
      <trkpt lat="46.50152" lon="6.01696">
        <ele>965.5</ele>
        <time>2019-07-30T11:05:29Z</time>
      </trkpt>
      <trkpt lat="46.50157" lon="6.01695">
        <ele>965.8</ele>
        <time>2019-07-30T11:05:33Z</time>
      </trkpt>
      <trkpt lat="46.50163" lon="6.01686">
        <ele>966.5</ele>
        <time>2019-07-30T11:05:39Z</time>
      </trkpt>
      <trkpt lat="46.50169" lon="6.01678">
        <ele>966.7</ele>
        <time>2019-07-30T11:05:41Z</time>
      </trkpt>
      <trkpt lat="46.50174" lon="6.01675">
        <ele>966.9</ele>
        <time>2019-07-30T11:05:44Z</time>
      </trkpt>
      <trkpt lat="46.50179" lon="6.01673">
        <ele>967.3</ele>
        <time>2019-07-30T11:05:50Z</time>
      </trkpt>
      <trkpt lat="46.50185" lon="6.01673">
        <ele>967.9</ele>
        <time>2019-07-30T11:05:57Z</time>
      </trkpt>
      <trkpt lat="46.5019" lon="6.0167">
        <ele>968.9</ele>
        <time>2019-07-30T11:06:04Z</time>
      </trkpt>
      <trkpt lat="46.50191" lon="6.01662">
        <ele>969.8</ele>
        <time>2019-07-30T11:06:10Z</time>
      </trkpt>
      <trkpt lat="46.50202" lon="6.01654">
        <ele>971.4</ele>
        <time>2019-07-30T11:06:26Z</time>
      </trkpt>
      <trkpt lat="46.50206" lon="6.01655">
        <ele>971.3</ele>
        <time>2019-07-30T11:06:31Z</time>
      </trkpt>
      <trkpt lat="46.50224" lon="6.01666">
        <ele>967.5</ele>
        <time>2019-07-30T11:06:44Z</time>
      </trkpt>
      <trkpt lat="46.50229" lon="6.01669">
        <ele>966.8</ele>
        <time>2019-07-30T11:06:47Z</time>
      </trkpt>
      <trkpt lat="46.50234" lon="6.01673">
        <ele>966.4</ele>
        <time>2019-07-30T11:06:49Z</time>
      </trkpt>
      <trkpt lat="46.50239" lon="6.01676">
        <ele>965</ele>
        <time>2019-07-30T11:06:57Z</time>
      </trkpt>
      <trkpt lat="46.50261" lon="6.01679">
        <ele>959.2</ele>
        <time>2019-07-30T11:07:42Z</time>
      </trkpt>
      <trkpt lat="46.50268" lon="6.01683">
        <ele>958.7</ele>
        <time>2019-07-30T11:07:47Z</time>
      </trkpt>
      <trkpt lat="46.50273" lon="6.01686">
        <ele>958.5</ele>
        <time>2019-07-30T11:07:49Z</time>
      </trkpt>
      <trkpt lat="46.50277" lon="6.01688">
        <ele>958.2</ele>
        <time>2019-07-30T11:07:52Z</time>
      </trkpt>
      <trkpt lat="46.50282" lon="6.01691">
        <ele>958.5</ele>
        <time>2019-07-30T11:08:07Z</time>
      </trkpt>
      <trkpt lat="46.50299" lon="6.01698">
        <ele>958.3</ele>
        <time>2019-07-30T11:08:28Z</time>
      </trkpt>
      <trkpt lat="46.50305" lon="6.01697">
        <ele>958.2</ele>
        <time>2019-07-30T11:08:30Z</time>
      </trkpt>
      <trkpt lat="46.50312" lon="6.01696">
        <ele>958.1</ele>
        <time>2019-07-30T11:08:32Z</time>
      </trkpt>
      <trkpt lat="46.50322" lon="6.01691">
        <ele>956.5</ele>
        <time>2019-07-30T11:08:48Z</time>
      </trkpt>
      <trkpt lat="46.50326" lon="6.01688">
        <ele>955.7</ele>
        <time>2019-07-30T11:08:52Z</time>
      </trkpt>
      <trkpt lat="46.50332" lon="6.01688">
        <ele>955.3</ele>
        <time>2019-07-30T11:08:54Z</time>
      </trkpt>
      <trkpt lat="46.50337" lon="6.01688">
        <ele>953.8</ele>
        <time>2019-07-30T11:09:01Z</time>
      </trkpt>
      <trkpt lat="46.50343" lon="6.01685">
        <ele>953</ele>
        <time>2019-07-30T11:09:05Z</time>
      </trkpt>
      <trkpt lat="46.50347" lon="6.01684">
        <ele>951.9</ele>
        <time>2019-07-30T11:09:11Z</time>
      </trkpt>
      <trkpt lat="46.50351" lon="6.01681">
        <ele>950.1</ele>
        <time>2019-07-30T11:09:22Z</time>
      </trkpt>
      <trkpt lat="46.50358" lon="6.0168">
        <ele>947</ele>
        <time>2019-07-30T11:09:55Z</time>
      </trkpt>
      <trkpt lat="46.50363" lon="6.01677">
        <ele>946.6</ele>
        <time>2019-07-30T11:09:59Z</time>
      </trkpt>
      <trkpt lat="46.50367" lon="6.01673">
        <ele>946</ele>
        <time>2019-07-30T11:10:07Z</time>
      </trkpt>
      <trkpt lat="46.50372" lon="6.0167">
        <ele>945.9</ele>
        <time>2019-07-30T11:10:10Z</time>
      </trkpt>
      <trkpt lat="46.50377" lon="6.01665">
        <ele>945.5</ele>
        <time>2019-07-30T11:10:15Z</time>
      </trkpt>
      <trkpt lat="46.50381" lon="6.01663">
        <ele>945.3</ele>
        <time>2019-07-30T11:10:17Z</time>
      </trkpt>
      <trkpt lat="46.50386" lon="6.01658">
        <ele>945</ele>
        <time>2019-07-30T11:10:20Z</time>
      </trkpt>
      <trkpt lat="46.50391" lon="6.01655">
        <ele>944.2</ele>
        <time>2019-07-30T11:10:26Z</time>
      </trkpt>
      <trkpt lat="46.50394" lon="6.0165">
        <ele>943.6</ele>
        <time>2019-07-30T11:10:31Z</time>
      </trkpt>
      <trkpt lat="46.50398" lon="6.01645">
        <ele>942.9</ele>
        <time>2019-07-30T11:10:38Z</time>
      </trkpt>
      <trkpt lat="46.50405" lon="6.01636">
        <ele>941.1</ele>
        <time>2019-07-30T11:10:48Z</time>
      </trkpt>
      <trkpt lat="46.50408" lon="6.01629">
        <ele>940.8</ele>
        <time>2019-07-30T11:10:54Z</time>
      </trkpt>
      <trkpt lat="46.5041" lon="6.01623">
        <ele>940.9</ele>
        <time>2019-07-30T11:10:58Z</time>
      </trkpt>
      <trkpt lat="46.50413" lon="6.01617">
        <ele>941.6</ele>
        <time>2019-07-30T11:11:05Z</time>
      </trkpt>
      <trkpt lat="46.50424" lon="6.01617">
        <ele>945.4</ele>
        <time>2019-07-30T11:11:20Z</time>
      </trkpt>
      <trkpt lat="46.5043" lon="6.01617">
        <ele>945.5</ele>
        <time>2019-07-30T11:11:22Z</time>
      </trkpt>
      <trkpt lat="46.50434" lon="6.01616">
        <ele>945.7</ele>
        <time>2019-07-30T11:11:24Z</time>
      </trkpt>
      <trkpt lat="46.50439" lon="6.01614">
        <ele>946</ele>
        <time>2019-07-30T11:11:30Z</time>
      </trkpt>
      <trkpt lat="46.50443" lon="6.01611">
        <ele>946.1</ele>
        <time>2019-07-30T11:11:35Z</time>
      </trkpt>
      <trkpt lat="46.50447" lon="6.01608">
        <ele>946.1</ele>
        <time>2019-07-30T11:11:40Z</time>
      </trkpt>
      <trkpt lat="46.50451" lon="6.01605">
        <ele>946.4</ele>
        <time>2019-07-30T11:11:47Z</time>
      </trkpt>
      <trkpt lat="46.50456" lon="6.01602">
        <ele>946.3</ele>
        <time>2019-07-30T11:11:52Z</time>
      </trkpt>
      <trkpt lat="46.50461" lon="6.01599">
        <ele>945.9</ele>
        <time>2019-07-30T11:11:57Z</time>
      </trkpt>
      <trkpt lat="46.50468" lon="6.01598">
        <ele>945.2</ele>
        <time>2019-07-30T11:12:03Z</time>
      </trkpt>
      <trkpt lat="46.50472" lon="6.01596">
        <ele>944.3</ele>
        <time>2019-07-30T11:12:08Z</time>
      </trkpt>
      <trkpt lat="46.50477" lon="6.01595">
        <ele>943.9</ele>
        <time>2019-07-30T11:12:10Z</time>
      </trkpt>
      <trkpt lat="46.50481" lon="6.01594">
        <ele>943.1</ele>
        <time>2019-07-30T11:12:19Z</time>
      </trkpt>
      <trkpt lat="46.50486" lon="6.01588">
        <ele>942.3</ele>
        <time>2019-07-30T11:12:26Z</time>
      </trkpt>
      <trkpt lat="46.5049" lon="6.01585">
        <ele>939.5</ele>
        <time>2019-07-30T11:12:40Z</time>
      </trkpt>
      <trkpt lat="46.50504" lon="6.01576">
        <ele>938.9</ele>
        <time>2019-07-30T11:12:52Z</time>
      </trkpt>
      <trkpt lat="46.50509" lon="6.01574">
        <ele>938.6</ele>
        <time>2019-07-30T11:12:57Z</time>
      </trkpt>
      <trkpt lat="46.50514" lon="6.01566">
        <ele>938.5</ele>
        <time>2019-07-30T11:13:00Z</time>
      </trkpt>
      <trkpt lat="46.50517" lon="6.01561">
        <ele>938.4</ele>
        <time>2019-07-30T11:13:04Z</time>
      </trkpt>
      <trkpt lat="46.50522" lon="6.01561">
        <ele>937.2</ele>
        <time>2019-07-30T11:13:14Z</time>
      </trkpt>
      <trkpt lat="46.50527" lon="6.01563">
        <ele>936</ele>
        <time>2019-07-30T11:13:19Z</time>
      </trkpt>
      <trkpt lat="46.50533" lon="6.01566">
        <ele>935.4</ele>
        <time>2019-07-30T11:13:22Z</time>
      </trkpt>
      <trkpt lat="46.50538" lon="6.01569">
        <ele>935</ele>
        <time>2019-07-30T11:13:25Z</time>
      </trkpt>
      <trkpt lat="46.50543" lon="6.01573">
        <ele>934.8</ele>
        <time>2019-07-30T11:13:28Z</time>
      </trkpt>
      <trkpt lat="46.50547" lon="6.01579">
        <ele>934.4</ele>
        <time>2019-07-30T11:13:33Z</time>
      </trkpt>
      <trkpt lat="46.50551" lon="6.01583">
        <ele>934.3</ele>
        <time>2019-07-30T11:13:36Z</time>
      </trkpt>
      <trkpt lat="46.50555" lon="6.01587">
        <ele>934</ele>
        <time>2019-07-30T11:13:41Z</time>
      </trkpt>
      <trkpt lat="46.50559" lon="6.01591">
        <ele>933.3</ele>
        <time>2019-07-30T11:13:49Z</time>
      </trkpt>
      <trkpt lat="46.50571" lon="6.01605">
        <ele>929.4</ele>
        <time>2019-07-30T11:14:10Z</time>
      </trkpt>
      <trkpt lat="46.50566" lon="6.01609">
        <ele>928.9</ele>
        <time>2019-07-30T11:14:17Z</time>
      </trkpt>
      <trkpt lat="46.50562" lon="6.01612">
        <ele>928.8</ele>
        <time>2019-07-30T11:14:21Z</time>
      </trkpt>
      <trkpt lat="46.50558" lon="6.01616">
        <ele>928.6</ele>
        <time>2019-07-30T11:14:26Z</time>
      </trkpt>
      <trkpt lat="46.50554" lon="6.0162">
        <ele>928.4</ele>
        <time>2019-07-30T11:14:31Z</time>
      </trkpt>
      <trkpt lat="46.50553" lon="6.01627">
        <ele>926.4</ele>
        <time>2019-07-30T11:14:44Z</time>
      </trkpt>
      <trkpt lat="46.50557" lon="6.01632">
        <ele>924.6</ele>
        <time>2019-07-30T11:14:52Z</time>
      </trkpt>
      <trkpt lat="46.50561" lon="6.01637">
        <ele>923.6</ele>
        <time>2019-07-30T11:14:56Z</time>
      </trkpt>
      <trkpt lat="46.50571" lon="6.01639">
        <ele>922.2</ele>
        <time>2019-07-30T11:15:10Z</time>
      </trkpt>
      <trkpt lat="46.50576" lon="6.01638">
        <ele>922.2</ele>
        <time>2019-07-30T11:15:12Z</time>
      </trkpt>
      <trkpt lat="46.50581" lon="6.01636">
        <ele>922.3</ele>
        <time>2019-07-30T11:15:18Z</time>
      </trkpt>
      <trkpt lat="46.50586" lon="6.01633">
        <ele>922.8</ele>
        <time>2019-07-30T11:15:23Z</time>
      </trkpt>
      <trkpt lat="46.50591" lon="6.0163">
        <ele>923.5</ele>
        <time>2019-07-30T11:15:28Z</time>
      </trkpt>
      <trkpt lat="46.50595" lon="6.01626">
        <ele>925.5</ele>
        <time>2019-07-30T11:15:38Z</time>
      </trkpt>
      <trkpt lat="46.50597" lon="6.0162">
        <ele>927.9</ele>
        <time>2019-07-30T11:15:47Z</time>
      </trkpt>
      <trkpt lat="46.50606" lon="6.01614">
        <ele>933.5</ele>
        <time>2019-07-30T11:15:59Z</time>
      </trkpt>
      <trkpt lat="46.5061" lon="6.01612">
        <ele>936.1</ele>
        <time>2019-07-30T11:16:06Z</time>
      </trkpt>
      <trkpt lat="46.50619" lon="6.01605">
        <ele>943.4</ele>
        <time>2019-07-30T11:16:24Z</time>
      </trkpt>
      <trkpt lat="46.50623" lon="6.01601">
        <ele>944.6</ele>
        <time>2019-07-30T11:16:29Z</time>
      </trkpt>
      <trkpt lat="46.50629" lon="6.01597">
        <ele>945.1</ele>
        <time>2019-07-30T11:16:31Z</time>
      </trkpt>
      <trkpt lat="46.50633" lon="6.01594">
        <ele>945.8</ele>
        <time>2019-07-30T11:16:34Z</time>
      </trkpt>
      <trkpt lat="46.50638" lon="6.01592">
        <ele>946.8</ele>
        <time>2019-07-30T11:16:40Z</time>
      </trkpt>
      <trkpt lat="46.50642" lon="6.01588">
        <ele>948.1</ele>
        <time>2019-07-30T11:16:49Z</time>
      </trkpt>
      <trkpt lat="46.50648" lon="6.01579">
        <ele>946.9</ele>
        <time>2019-07-30T11:17:50Z</time>
      </trkpt>
      <trkpt lat="46.50651" lon="6.01574">
        <ele>946.2</ele>
        <time>2019-07-30T11:17:57Z</time>
      </trkpt>
      <trkpt lat="46.50655" lon="6.01568">
        <ele>945.8</ele>
        <time>2019-07-30T11:18:02Z</time>
      </trkpt>
      <trkpt lat="46.50659" lon="6.01563">
        <ele>945.5</ele>
        <time>2019-07-30T11:18:05Z</time>
      </trkpt>
      <trkpt lat="46.50661" lon="6.01555">
        <ele>945.4</ele>
        <time>2019-07-30T11:18:07Z</time>
      </trkpt>
      <trkpt lat="46.50663" lon="6.01548">
        <ele>945.2</ele>
        <time>2019-07-30T11:18:12Z</time>
      </trkpt>
      <trkpt lat="46.50665" lon="6.01543">
        <ele>945.5</ele>
        <time>2019-07-30T11:18:19Z</time>
      </trkpt>
      <trkpt lat="46.50668" lon="6.01538">
        <ele>946.4</ele>
        <time>2019-07-30T11:18:26Z</time>
      </trkpt>
      <trkpt lat="46.50673" lon="6.01535">
        <ele>947.1</ele>
        <time>2019-07-30T11:18:31Z</time>
      </trkpt>
      <trkpt lat="46.50676" lon="6.0153">
        <ele>947.4</ele>
        <time>2019-07-30T11:18:34Z</time>
      </trkpt>
      <trkpt lat="46.5068" lon="6.01527">
        <ele>947.8</ele>
        <time>2019-07-30T11:18:40Z</time>
      </trkpt>
      <trkpt lat="46.50685" lon="6.01525">
        <ele>947.6</ele>
        <time>2019-07-30T11:18:46Z</time>
      </trkpt>
      <trkpt lat="46.5069" lon="6.01522">
        <ele>947.5</ele>
        <time>2019-07-30T11:18:51Z</time>
      </trkpt>
      <trkpt lat="46.50695" lon="6.01519">
        <ele>947.7</ele>
        <time>2019-07-30T11:18:55Z</time>
      </trkpt>
      <trkpt lat="46.50698" lon="6.01514">
        <ele>947.3</ele>
        <time>2019-07-30T11:19:08Z</time>
      </trkpt>
      <trkpt lat="46.50703" lon="6.01512">
        <ele>947.8</ele>
        <time>2019-07-30T11:19:17Z</time>
      </trkpt>
      <trkpt lat="46.50707" lon="6.01508">
        <ele>948.6</ele>
        <time>2019-07-30T11:19:22Z</time>
      </trkpt>
      <trkpt lat="46.50712" lon="6.01505">
        <ele>950.8</ele>
        <time>2019-07-30T11:19:30Z</time>
      </trkpt>
      <trkpt lat="46.50715" lon="6.01501">
        <ele>952.7</ele>
        <time>2019-07-30T11:19:36Z</time>
      </trkpt>
      <trkpt lat="46.50719" lon="6.01497">
        <ele>954.5</ele>
        <time>2019-07-30T11:19:42Z</time>
      </trkpt>
      <trkpt lat="46.50721" lon="6.0149">
        <ele>955.5</ele>
        <time>2019-07-30T11:19:45Z</time>
      </trkpt>
      <trkpt lat="46.50726" lon="6.01484">
        <ele>967.9</ele>
        <time>2019-07-30T11:22:05Z</time>
      </trkpt>
      <trkpt lat="46.5073" lon="6.01479">
        <ele>969</ele>
        <time>2019-07-30T11:22:10Z</time>
      </trkpt>
      <trkpt lat="46.50735" lon="6.01476">
        <ele>969.9</ele>
        <time>2019-07-30T11:22:15Z</time>
      </trkpt>
      <trkpt lat="46.5074" lon="6.01473">
        <ele>970.4</ele>
        <time>2019-07-30T11:22:19Z</time>
      </trkpt>
      <trkpt lat="46.50744" lon="6.01469">
        <ele>971.2</ele>
        <time>2019-07-30T11:22:24Z</time>
      </trkpt>
      <trkpt lat="46.50749" lon="6.01467">
        <ele>971.8</ele>
        <time>2019-07-30T11:22:29Z</time>
      </trkpt>
      <trkpt lat="46.50754" lon="6.01465">
        <ele>972.3</ele>
        <time>2019-07-30T11:22:33Z</time>
      </trkpt>
      <trkpt lat="46.50759" lon="6.01463">
        <ele>972.6</ele>
        <time>2019-07-30T11:22:40Z</time>
      </trkpt>
      <trkpt lat="46.50763" lon="6.01461">
        <ele>972.3</ele>
        <time>2019-07-30T11:22:50Z</time>
      </trkpt>
      <trkpt lat="46.50768" lon="6.01461">
        <ele>972</ele>
        <time>2019-07-30T11:22:54Z</time>
      </trkpt>
      <trkpt lat="46.50773" lon="6.01461">
        <ele>971.4</ele>
        <time>2019-07-30T11:22:59Z</time>
      </trkpt>
      <trkpt lat="46.50779" lon="6.01461">
        <ele>970.7</ele>
        <time>2019-07-30T11:23:03Z</time>
      </trkpt>
      <trkpt lat="46.50784" lon="6.0146">
        <ele>970.2</ele>
        <time>2019-07-30T11:23:06Z</time>
      </trkpt>
      <trkpt lat="46.50788" lon="6.01459">
        <ele>969</ele>
        <time>2019-07-30T11:23:11Z</time>
      </trkpt>
      <trkpt lat="46.50793" lon="6.01457">
        <ele>967.8</ele>
        <time>2019-07-30T11:23:16Z</time>
      </trkpt>
      <trkpt lat="46.50798" lon="6.01456">
        <ele>966.6</ele>
        <time>2019-07-30T11:23:21Z</time>
      </trkpt>
      <trkpt lat="46.50804" lon="6.01455">
        <ele>965.8</ele>
        <time>2019-07-30T11:23:27Z</time>
      </trkpt>
      <trkpt lat="46.50809" lon="6.01454">
        <ele>965.5</ele>
        <time>2019-07-30T11:23:34Z</time>
      </trkpt>
      <trkpt lat="46.50814" lon="6.01451">
        <ele>965.4</ele>
        <time>2019-07-30T11:23:40Z</time>
      </trkpt>
      <trkpt lat="46.50818" lon="6.01449">
        <ele>965.6</ele>
        <time>2019-07-30T11:23:44Z</time>
      </trkpt>
      <trkpt lat="46.50822" lon="6.01446">
        <ele>965.8</ele>
        <time>2019-07-30T11:23:48Z</time>
      </trkpt>
      <trkpt lat="46.50827" lon="6.01444">
        <ele>966.1</ele>
        <time>2019-07-30T11:23:52Z</time>
      </trkpt>
      <trkpt lat="46.50832" lon="6.01441">
        <ele>966.4</ele>
        <time>2019-07-30T11:23:57Z</time>
      </trkpt>
      <trkpt lat="46.50836" lon="6.01437">
        <ele>966.6</ele>
        <time>2019-07-30T11:24:03Z</time>
      </trkpt>
      <trkpt lat="46.50841" lon="6.01433">
        <ele>966.8</ele>
        <time>2019-07-30T11:24:09Z</time>
      </trkpt>
      <trkpt lat="46.50844" lon="6.01428">
        <ele>966.9</ele>
        <time>2019-07-30T11:24:13Z</time>
      </trkpt>
      <trkpt lat="46.50849" lon="6.01425">
        <ele>967.4</ele>
        <time>2019-07-30T11:24:18Z</time>
      </trkpt>
      <trkpt lat="46.50853" lon="6.01422">
        <ele>968</ele>
        <time>2019-07-30T11:24:22Z</time>
      </trkpt>
      <trkpt lat="46.50857" lon="6.01417">
        <ele>969.2</ele>
        <time>2019-07-30T11:24:27Z</time>
      </trkpt>
      <trkpt lat="46.5086" lon="6.0141">
        <ele>970.3</ele>
        <time>2019-07-30T11:24:31Z</time>
      </trkpt>
      <trkpt lat="46.50862" lon="6.01403">
        <ele>972.2</ele>
        <time>2019-07-30T11:24:37Z</time>
      </trkpt>
      <trkpt lat="46.50865" lon="6.01398">
        <ele>973.5</ele>
        <time>2019-07-30T11:24:41Z</time>
      </trkpt>
      <trkpt lat="46.5087" lon="6.01395">
        <ele>975.2</ele>
        <time>2019-07-30T11:24:46Z</time>
      </trkpt>
      <trkpt lat="46.50874" lon="6.0139">
        <ele>976.4</ele>
        <time>2019-07-30T11:24:50Z</time>
      </trkpt>
      <trkpt lat="46.50878" lon="6.01386">
        <ele>977.9</ele>
        <time>2019-07-30T11:24:55Z</time>
      </trkpt>
      <trkpt lat="46.50883" lon="6.01383">
        <ele>979.3</ele>
        <time>2019-07-30T11:25:01Z</time>
      </trkpt>
      <trkpt lat="46.50888" lon="6.01381">
        <ele>980.2</ele>
        <time>2019-07-30T11:25:07Z</time>
      </trkpt>
      <trkpt lat="46.50894" lon="6.01381">
        <ele>980.7</ele>
        <time>2019-07-30T11:25:12Z</time>
      </trkpt>
      <trkpt lat="46.50899" lon="6.01381">
        <ele>981.1</ele>
        <time>2019-07-30T11:25:16Z</time>
      </trkpt>
      <trkpt lat="46.50904" lon="6.01379">
        <ele>981.4</ele>
        <time>2019-07-30T11:25:19Z</time>
      </trkpt>
      <trkpt lat="46.50908" lon="6.01377">
        <ele>981.6</ele>
        <time>2019-07-30T11:25:21Z</time>
      </trkpt>
      <trkpt lat="46.50912" lon="6.01374">
        <ele>982</ele>
        <time>2019-07-30T11:25:25Z</time>
      </trkpt>
      <trkpt lat="46.50917" lon="6.01373">
        <ele>982.6</ele>
        <time>2019-07-30T11:25:30Z</time>
      </trkpt>
      <trkpt lat="46.50922" lon="6.01372">
        <ele>983</ele>
        <time>2019-07-30T11:25:35Z</time>
      </trkpt>
      <trkpt lat="46.50927" lon="6.0137">
        <ele>983.5</ele>
        <time>2019-07-30T11:25:41Z</time>
      </trkpt>
      <trkpt lat="46.50932" lon="6.01368">
        <ele>983.7</ele>
        <time>2019-07-30T11:25:47Z</time>
      </trkpt>
      <trkpt lat="46.50937" lon="6.01367">
        <ele>984.3</ele>
        <time>2019-07-30T11:25:53Z</time>
      </trkpt>
      <trkpt lat="46.50942" lon="6.01367">
        <ele>985.1</ele>
        <time>2019-07-30T11:25:58Z</time>
      </trkpt>
      <trkpt lat="46.50947" lon="6.01366">
        <ele>985.7</ele>
        <time>2019-07-30T11:26:03Z</time>
      </trkpt>
      <trkpt lat="46.50952" lon="6.01367">
        <ele>986</ele>
        <time>2019-07-30T11:26:08Z</time>
      </trkpt>
      <trkpt lat="46.50962" lon="6.01368">
        <ele>985.5</ele>
        <time>2019-07-30T11:26:20Z</time>
      </trkpt>
      <trkpt lat="46.50967" lon="6.01369">
        <ele>985.3</ele>
        <time>2019-07-30T11:26:24Z</time>
      </trkpt>
      <trkpt lat="46.50976" lon="6.01369">
        <ele>982.5</ele>
        <time>2019-07-30T11:26:41Z</time>
      </trkpt>
      <trkpt lat="46.50981" lon="6.01369">
        <ele>981.8</ele>
        <time>2019-07-30T11:26:50Z</time>
      </trkpt>
      <trkpt lat="46.50985" lon="6.0137">
        <ele>981.4</ele>
        <time>2019-07-30T11:26:54Z</time>
      </trkpt>
      <trkpt lat="46.5099" lon="6.01369">
        <ele>981.3</ele>
        <time>2019-07-30T11:26:57Z</time>
      </trkpt>
      <trkpt lat="46.51014" lon="6.01362">
        <ele>980.8</ele>
        <time>2019-07-30T11:27:10Z</time>
      </trkpt>
      <trkpt lat="46.51019" lon="6.01359">
        <ele>981</ele>
        <time>2019-07-30T11:27:15Z</time>
      </trkpt>
      <trkpt lat="46.51023" lon="6.01356">
        <ele>981.5</ele>
        <time>2019-07-30T11:27:20Z</time>
      </trkpt>
      <trkpt lat="46.51028" lon="6.01353">
        <ele>982.3</ele>
        <time>2019-07-30T11:27:25Z</time>
      </trkpt>
      <trkpt lat="46.51033" lon="6.01352">
        <ele>983.7</ele>
        <time>2019-07-30T11:27:33Z</time>
      </trkpt>
      <trkpt lat="46.51039" lon="6.01354">
        <ele>984.8</ele>
        <time>2019-07-30T11:27:40Z</time>
      </trkpt>
      <trkpt lat="46.51043" lon="6.01354">
        <ele>985.4</ele>
        <time>2019-07-30T11:27:45Z</time>
      </trkpt>
      <trkpt lat="46.51048" lon="6.01354">
        <ele>985.9</ele>
        <time>2019-07-30T11:27:51Z</time>
      </trkpt>
      <trkpt lat="46.51054" lon="6.01353">
        <ele>986.2</ele>
        <time>2019-07-30T11:27:56Z</time>
      </trkpt>
      <trkpt lat="46.51059" lon="6.01353">
        <ele>986.4</ele>
        <time>2019-07-30T11:27:59Z</time>
      </trkpt>
      <trkpt lat="46.51065" lon="6.01353">
        <ele>986.6</ele>
        <time>2019-07-30T11:28:03Z</time>
      </trkpt>
      <trkpt lat="46.5107" lon="6.01353">
        <ele>986.8</ele>
        <time>2019-07-30T11:28:07Z</time>
      </trkpt>
      <trkpt lat="46.51075" lon="6.01353">
        <ele>986.9</ele>
        <time>2019-07-30T11:28:12Z</time>
      </trkpt>
      <trkpt lat="46.51079" lon="6.01351">
        <ele>986.4</ele>
        <time>2019-07-30T11:28:23Z</time>
      </trkpt>
      <trkpt lat="46.51084" lon="6.0135">
        <ele>985.9</ele>
        <time>2019-07-30T11:28:29Z</time>
      </trkpt>
      <trkpt lat="46.51089" lon="6.01348">
        <ele>985.5</ele>
        <time>2019-07-30T11:28:35Z</time>
      </trkpt>
      <trkpt lat="46.51093" lon="6.01345">
        <ele>985.5</ele>
        <time>2019-07-30T11:28:40Z</time>
      </trkpt>
      <trkpt lat="46.51097" lon="6.01341">
        <ele>985.7</ele>
        <time>2019-07-30T11:28:45Z</time>
      </trkpt>
      <trkpt lat="46.51101" lon="6.01337">
        <ele>986.2</ele>
        <time>2019-07-30T11:28:50Z</time>
      </trkpt>
      <trkpt lat="46.51103" lon="6.01331">
        <ele>986.8</ele>
        <time>2019-07-30T11:28:54Z</time>
      </trkpt>
      <trkpt lat="46.51105" lon="6.01323">
        <ele>987.4</ele>
        <time>2019-07-30T11:28:58Z</time>
      </trkpt>
      <trkpt lat="46.51107" lon="6.01316">
        <ele>988.2</ele>
        <time>2019-07-30T11:29:02Z</time>
      </trkpt>
      <trkpt lat="46.51108" lon="6.01308">
        <ele>989.1</ele>
        <time>2019-07-30T11:29:06Z</time>
      </trkpt>
      <trkpt lat="46.51109" lon="6.01302">
        <ele>989.9</ele>
        <time>2019-07-30T11:29:09Z</time>
      </trkpt>
      <trkpt lat="46.51111" lon="6.01294">
        <ele>991.1</ele>
        <time>2019-07-30T11:29:13Z</time>
      </trkpt>
      <trkpt lat="46.51113" lon="6.01288">
        <ele>992.4</ele>
        <time>2019-07-30T11:29:17Z</time>
      </trkpt>
      <trkpt lat="46.51114" lon="6.01281">
        <ele>994</ele>
        <time>2019-07-30T11:29:22Z</time>
      </trkpt>
      <trkpt lat="46.51115" lon="6.01274">
        <ele>996.4</ele>
        <time>2019-07-30T11:29:30Z</time>
      </trkpt>
      <trkpt lat="46.51118" lon="6.01269">
        <ele>997.9</ele>
        <time>2019-07-30T11:29:35Z</time>
      </trkpt>
      <trkpt lat="46.51122" lon="6.01263">
        <ele>999.2</ele>
        <time>2019-07-30T11:29:40Z</time>
      </trkpt>
      <trkpt lat="46.51126" lon="6.01258">
        <ele>1000.2</ele>
        <time>2019-07-30T11:29:44Z</time>
      </trkpt>
      <trkpt lat="46.51129" lon="6.01252">
        <ele>1000.9</ele>
        <time>2019-07-30T11:29:48Z</time>
      </trkpt>
      <trkpt lat="46.51132" lon="6.01246">
        <ele>1001.7</ele>
        <time>2019-07-30T11:29:53Z</time>
      </trkpt>
      <trkpt lat="46.51135" lon="6.01241">
        <ele>1002.4</ele>
        <time>2019-07-30T11:29:57Z</time>
      </trkpt>
      <trkpt lat="46.51139" lon="6.01236">
        <ele>1003.2</ele>
        <time>2019-07-30T11:30:01Z</time>
      </trkpt>
      <trkpt lat="46.51143" lon="6.01232">
        <ele>1004</ele>
        <time>2019-07-30T11:30:04Z</time>
      </trkpt>
      <trkpt lat="46.51147" lon="6.01227">
        <ele>1004.8</ele>
        <time>2019-07-30T11:30:07Z</time>
      </trkpt>
      <trkpt lat="46.51151" lon="6.01223">
        <ele>1006.2</ele>
        <time>2019-07-30T11:30:11Z</time>
      </trkpt>
      <trkpt lat="46.51155" lon="6.0122">
        <ele>1008.1</ele>
        <time>2019-07-30T11:30:16Z</time>
      </trkpt>
      <trkpt lat="46.51158" lon="6.01216">
        <ele>1010.5</ele>
        <time>2019-07-30T11:30:26Z</time>
      </trkpt>
      <trkpt lat="46.51162" lon="6.0121">
        <ele>1011.2</ele>
        <time>2019-07-30T11:30:31Z</time>
      </trkpt>
      <trkpt lat="46.51165" lon="6.01205">
        <ele>1011.8</ele>
        <time>2019-07-30T11:30:36Z</time>
      </trkpt>
      <trkpt lat="46.51164" lon="6.01197">
        <ele>1012.3</ele>
        <time>2019-07-30T11:30:40Z</time>
      </trkpt>
      <trkpt lat="46.51178" lon="6.01182">
        <ele>1013.8</ele>
        <time>2019-07-30T11:30:55Z</time>
      </trkpt>
      <trkpt lat="46.51183" lon="6.0118">
        <ele>1014.6</ele>
        <time>2019-07-30T11:31:02Z</time>
      </trkpt>
      <trkpt lat="46.51205" lon="6.01165">
        <ele>1017.6</ele>
        <time>2019-07-30T11:31:20Z</time>
      </trkpt>
      <trkpt lat="46.51209" lon="6.0116">
        <ele>1018.7</ele>
        <time>2019-07-30T11:31:26Z</time>
      </trkpt>
      <trkpt lat="46.51212" lon="6.01155">
        <ele>1021</ele>
        <time>2019-07-30T11:31:35Z</time>
      </trkpt>
      <trkpt lat="46.51213" lon="6.01148">
        <ele>1021.9</ele>
        <time>2019-07-30T11:31:38Z</time>
      </trkpt>
      <trkpt lat="46.51214" lon="6.01141">
        <ele>1023.2</ele>
        <time>2019-07-30T11:31:48Z</time>
      </trkpt>
      <trkpt lat="46.51217" lon="6.01135">
        <ele>1022.4</ele>
        <time>2019-07-30T11:31:57Z</time>
      </trkpt>
      <trkpt lat="46.51219" lon="6.01129">
        <ele>1021</ele>
        <time>2019-07-30T11:32:03Z</time>
      </trkpt>
      <trkpt lat="46.51219" lon="6.01122">
        <ele>1019.2</ele>
        <time>2019-07-30T11:32:08Z</time>
      </trkpt>
      <trkpt lat="46.51218" lon="6.01115">
        <ele>1017.5</ele>
        <time>2019-07-30T11:32:12Z</time>
      </trkpt>
      <trkpt lat="46.51217" lon="6.01107">
        <ele>1015.6</ele>
        <time>2019-07-30T11:32:16Z</time>
      </trkpt>
      <trkpt lat="46.51217" lon="6.011">
        <ele>1014.2</ele>
        <time>2019-07-30T11:32:19Z</time>
      </trkpt>
      <trkpt lat="46.51216" lon="6.01093">
        <ele>1012.9</ele>
        <time>2019-07-30T11:32:22Z</time>
      </trkpt>
      <trkpt lat="46.51216" lon="6.01086">
        <ele>1011</ele>
        <time>2019-07-30T11:32:27Z</time>
      </trkpt>
      <trkpt lat="46.51219" lon="6.0108">
        <ele>1009.2</ele>
        <time>2019-07-30T11:32:33Z</time>
      </trkpt>
      <trkpt lat="46.51222" lon="6.01074">
        <ele>1007.7</ele>
        <time>2019-07-30T11:32:38Z</time>
      </trkpt>
      <trkpt lat="46.51225" lon="6.01068">
        <ele>1005.8</ele>
        <time>2019-07-30T11:32:43Z</time>
      </trkpt>
      <trkpt lat="46.51227" lon="6.01062">
        <ele>1002.3</ele>
        <time>2019-07-30T11:32:51Z</time>
      </trkpt>
      <trkpt lat="46.5123" lon="6.01055">
        <ele>999.3</ele>
        <time>2019-07-30T11:32:58Z</time>
      </trkpt>
      <trkpt lat="46.51231" lon="6.01049">
        <ele>998.1</ele>
        <time>2019-07-30T11:33:06Z</time>
      </trkpt>
      <trkpt lat="46.51231" lon="6.01034">
        <ele>1001.8</ele>
        <time>2019-07-30T11:33:21Z</time>
      </trkpt>
      <trkpt lat="46.51235" lon="6.0103">
        <ele>1003.4</ele>
        <time>2019-07-30T11:33:29Z</time>
      </trkpt>
      <trkpt lat="46.51238" lon="6.01024">
        <ele>1004.2</ele>
        <time>2019-07-30T11:33:34Z</time>
      </trkpt>
      <trkpt lat="46.51239" lon="6.01015">
        <ele>1004.9</ele>
        <time>2019-07-30T11:33:38Z</time>
      </trkpt>
      <trkpt lat="46.5124" lon="6.01008">
        <ele>1005.9</ele>
        <time>2019-07-30T11:33:43Z</time>
      </trkpt>
      <trkpt lat="46.51241" lon="6.01001">
        <ele>1007.2</ele>
        <time>2019-07-30T11:33:48Z</time>
      </trkpt>
      <trkpt lat="46.51245" lon="6.00996">
        <ele>1008.1</ele>
        <time>2019-07-30T11:33:52Z</time>
      </trkpt>
      <trkpt lat="46.51247" lon="6.0099">
        <ele>1008.6</ele>
        <time>2019-07-30T11:33:54Z</time>
      </trkpt>
      <trkpt lat="46.51256" lon="6.00971">
        <ele>1013.2</ele>
        <time>2019-07-30T11:34:05Z</time>
      </trkpt>
      <trkpt lat="46.5126" lon="6.00966">
        <ele>1015.1</ele>
        <time>2019-07-30T11:34:10Z</time>
      </trkpt>
      <trkpt lat="46.51264" lon="6.00961">
        <ele>1017.5</ele>
        <time>2019-07-30T11:34:15Z</time>
      </trkpt>
      <trkpt lat="46.51268" lon="6.00958">
        <ele>1020.1</ele>
        <time>2019-07-30T11:34:20Z</time>
      </trkpt>
      <trkpt lat="46.51271" lon="6.00953">
        <ele>1021.9</ele>
        <time>2019-07-30T11:34:24Z</time>
      </trkpt>
      <trkpt lat="46.51275" lon="6.00949">
        <ele>1024</ele>
        <time>2019-07-30T11:34:30Z</time>
      </trkpt>
      <trkpt lat="46.51279" lon="6.00945">
        <ele>1025.8</ele>
        <time>2019-07-30T11:34:37Z</time>
      </trkpt>
      <trkpt lat="46.51283" lon="6.0094">
        <ele>1026.7</ele>
        <time>2019-07-30T11:34:43Z</time>
      </trkpt>
      <trkpt lat="46.51287" lon="6.00937">
        <ele>1026.9</ele>
        <time>2019-07-30T11:34:47Z</time>
      </trkpt>
      <trkpt lat="46.5129" lon="6.00932">
        <ele>1026.9</ele>
        <time>2019-07-30T11:34:51Z</time>
      </trkpt>
      <trkpt lat="46.51294" lon="6.00928">
        <ele>1026.7</ele>
        <time>2019-07-30T11:34:57Z</time>
      </trkpt>
      <trkpt lat="46.51299" lon="6.00924">
        <ele>1026.6</ele>
        <time>2019-07-30T11:35:01Z</time>
      </trkpt>
      <trkpt lat="46.51303" lon="6.0092">
        <ele>1026.6</ele>
        <time>2019-07-30T11:35:05Z</time>
      </trkpt>
      <trkpt lat="46.51307" lon="6.00915">
        <ele>1026.6</ele>
        <time>2019-07-30T11:35:09Z</time>
      </trkpt>
      <trkpt lat="46.5131" lon="6.0091">
        <ele>1026.8</ele>
        <time>2019-07-30T11:35:14Z</time>
      </trkpt>
      <trkpt lat="46.51314" lon="6.00905">
        <ele>1027</ele>
        <time>2019-07-30T11:35:19Z</time>
      </trkpt>
      <trkpt lat="46.51316" lon="6.00897">
        <ele>1027.3</ele>
        <time>2019-07-30T11:35:26Z</time>
      </trkpt>
      <trkpt lat="46.51317" lon="6.0089">
        <ele>1027.4</ele>
        <time>2019-07-30T11:35:30Z</time>
      </trkpt>
      <trkpt lat="46.51319" lon="6.00883">
        <ele>1027.5</ele>
        <time>2019-07-30T11:35:33Z</time>
      </trkpt>
      <trkpt lat="46.5132" lon="6.00876">
        <ele>1027.6</ele>
        <time>2019-07-30T11:35:37Z</time>
      </trkpt>
      <trkpt lat="46.5132" lon="6.00869">
        <ele>1027.7</ele>
        <time>2019-07-30T11:35:40Z</time>
      </trkpt>
      <trkpt lat="46.5132" lon="6.00863">
        <ele>1027.7</ele>
        <time>2019-07-30T11:35:46Z</time>
      </trkpt>
      <trkpt lat="46.51322" lon="6.00856">
        <ele>1026.3</ele>
        <time>2019-07-30T11:35:57Z</time>
      </trkpt>
      <trkpt lat="46.51324" lon="6.0085">
        <ele>1024.5</ele>
        <time>2019-07-30T11:36:02Z</time>
      </trkpt>
      <trkpt lat="46.51324" lon="6.00843">
        <ele>1023.5</ele>
        <time>2019-07-30T11:36:05Z</time>
      </trkpt>
      <trkpt lat="46.51323" lon="6.00835">
        <ele>1022.7</ele>
        <time>2019-07-30T11:36:07Z</time>
      </trkpt>
      <trkpt lat="46.51322" lon="6.00827">
        <ele>1021.4</ele>
        <time>2019-07-30T11:36:11Z</time>
      </trkpt>
      <trkpt lat="46.51323" lon="6.0082">
        <ele>1020.2</ele>
        <time>2019-07-30T11:36:15Z</time>
      </trkpt>
      <trkpt lat="46.51322" lon="6.00812">
        <ele>1019.3</ele>
        <time>2019-07-30T11:36:19Z</time>
      </trkpt>
      <trkpt lat="46.5132" lon="6.00805">
        <ele>1018.6</ele>
        <time>2019-07-30T11:36:23Z</time>
      </trkpt>
      <trkpt lat="46.51319" lon="6.00797">
        <ele>1017.9</ele>
        <time>2019-07-30T11:36:28Z</time>
      </trkpt>
      <trkpt lat="46.51319" lon="6.0079">
        <ele>1017.1</ele>
        <time>2019-07-30T11:36:34Z</time>
      </trkpt>
      <trkpt lat="46.51318" lon="6.00783">
        <ele>1016.3</ele>
        <time>2019-07-30T11:36:39Z</time>
      </trkpt>
      <trkpt lat="46.51318" lon="6.00776">
        <ele>1015.5</ele>
        <time>2019-07-30T11:36:44Z</time>
      </trkpt>
      <trkpt lat="46.51318" lon="6.00769">
        <ele>1014.9</ele>
        <time>2019-07-30T11:36:48Z</time>
      </trkpt>
      <trkpt lat="46.51318" lon="6.00762">
        <ele>1014</ele>
        <time>2019-07-30T11:36:52Z</time>
      </trkpt>
      <trkpt lat="46.51318" lon="6.00755">
        <ele>1013</ele>
        <time>2019-07-30T11:36:56Z</time>
      </trkpt>
      <trkpt lat="46.51318" lon="6.00748">
        <ele>1012</ele>
        <time>2019-07-30T11:37:00Z</time>
      </trkpt>
      <trkpt lat="46.51317" lon="6.0074">
        <ele>1010.9</ele>
        <time>2019-07-30T11:37:04Z</time>
      </trkpt>
      <trkpt lat="46.51316" lon="6.00733">
        <ele>1010</ele>
        <time>2019-07-30T11:37:08Z</time>
      </trkpt>
      <trkpt lat="46.51315" lon="6.00726">
        <ele>1009.2</ele>
        <time>2019-07-30T11:37:13Z</time>
      </trkpt>
      <trkpt lat="46.51314" lon="6.00718">
        <ele>1008.8</ele>
        <time>2019-07-30T11:37:18Z</time>
      </trkpt>
      <trkpt lat="46.51313" lon="6.0071">
        <ele>1008.6</ele>
        <time>2019-07-30T11:37:24Z</time>
      </trkpt>
      <trkpt lat="46.51312" lon="6.00703">
        <ele>1008.6</ele>
        <time>2019-07-30T11:37:28Z</time>
      </trkpt>
      <trkpt lat="46.51311" lon="6.00696">
        <ele>1008.5</ele>
        <time>2019-07-30T11:37:31Z</time>
      </trkpt>
      <trkpt lat="46.51311" lon="6.00688">
        <ele>1008.6</ele>
        <time>2019-07-30T11:37:34Z</time>
      </trkpt>
      <trkpt lat="46.5131" lon="6.00682">
        <ele>1008.9</ele>
        <time>2019-07-30T11:37:37Z</time>
      </trkpt>
      <trkpt lat="46.51309" lon="6.00675">
        <ele>1009.4</ele>
        <time>2019-07-30T11:37:41Z</time>
      </trkpt>
      <trkpt lat="46.51307" lon="6.00669">
        <ele>1010.1</ele>
        <time>2019-07-30T11:37:45Z</time>
      </trkpt>
      <trkpt lat="46.51307" lon="6.00662">
        <ele>1011.4</ele>
        <time>2019-07-30T11:37:51Z</time>
      </trkpt>
      <trkpt lat="46.51304" lon="6.00656">
        <ele>1012.4</ele>
        <time>2019-07-30T11:38:01Z</time>
      </trkpt>
      <trkpt lat="46.51302" lon="6.0065">
        <ele>1012.9</ele>
        <time>2019-07-30T11:38:06Z</time>
      </trkpt>
      <trkpt lat="46.51301" lon="6.00642">
        <ele>1013.5</ele>
        <time>2019-07-30T11:38:12Z</time>
      </trkpt>
      <trkpt lat="46.51299" lon="6.00636">
        <ele>1014.1</ele>
        <time>2019-07-30T11:38:17Z</time>
      </trkpt>
      <trkpt lat="46.51298" lon="6.00629">
        <ele>1014.6</ele>
        <time>2019-07-30T11:38:24Z</time>
      </trkpt>
      <trkpt lat="46.51298" lon="6.00621">
        <ele>1014.7</ele>
        <time>2019-07-30T11:38:30Z</time>
      </trkpt>
      <trkpt lat="46.51295" lon="6.00615">
        <ele>1014.5</ele>
        <time>2019-07-30T11:38:35Z</time>
      </trkpt>
      <trkpt lat="46.51294" lon="6.00609">
        <ele>1014.5</ele>
        <time>2019-07-30T11:38:40Z</time>
      </trkpt>
      <trkpt lat="46.51292" lon="6.00603">
        <ele>1015</ele>
        <time>2019-07-30T11:38:46Z</time>
      </trkpt>
      <trkpt lat="46.5129" lon="6.00595">
        <ele>1015.5</ele>
        <time>2019-07-30T11:38:50Z</time>
      </trkpt>
      <trkpt lat="46.51287" lon="6.00589">
        <ele>1016.2</ele>
        <time>2019-07-30T11:38:55Z</time>
      </trkpt>
      <trkpt lat="46.51285" lon="6.00583">
        <ele>1016.6</ele>
        <time>2019-07-30T11:39:00Z</time>
      </trkpt>
      <trkpt lat="46.51283" lon="6.00575">
        <ele>1017</ele>
        <time>2019-07-30T11:39:06Z</time>
      </trkpt>
      <trkpt lat="46.5128" lon="6.00569">
        <ele>1017.1</ele>
        <time>2019-07-30T11:39:10Z</time>
      </trkpt>
      <trkpt lat="46.51283" lon="6.00575">
        <ele>1016.4</ele>
        <time>2019-07-30T11:39:24Z</time>
      </trkpt>
      <trkpt lat="46.51283" lon="6.00579">
        <ele>1019</ele>
        <time>2019-07-30T11:40:30Z</time>
      </trkpt>
      <trkpt lat="46.51279" lon="6.00575">
        <ele>1018.2</ele>
        <time>2019-07-30T11:40:35Z</time>
      </trkpt>
      <trkpt lat="46.51275" lon="6.0057">
        <ele>1017.5</ele>
        <time>2019-07-30T11:40:39Z</time>
      </trkpt>
      <trkpt lat="46.51272" lon="6.00565">
        <ele>1017.2</ele>
        <time>2019-07-30T11:40:42Z</time>
      </trkpt>
      <trkpt lat="46.51269" lon="6.0056">
        <ele>1017</ele>
        <time>2019-07-30T11:40:45Z</time>
      </trkpt>
      <trkpt lat="46.51266" lon="6.00555">
        <ele>1017</ele>
        <time>2019-07-30T11:40:48Z</time>
      </trkpt>
      <trkpt lat="46.51261" lon="6.00551">
        <ele>1017.2</ele>
        <time>2019-07-30T11:40:51Z</time>
      </trkpt>
      <trkpt lat="46.51257" lon="6.00546">
        <ele>1017.4</ele>
        <time>2019-07-30T11:40:55Z</time>
      </trkpt>
      <trkpt lat="46.51254" lon="6.00541">
        <ele>1017.7</ele>
        <time>2019-07-30T11:40:59Z</time>
      </trkpt>
      <trkpt lat="46.5125" lon="6.00536">
        <ele>1018.1</ele>
        <time>2019-07-30T11:41:03Z</time>
      </trkpt>
      <trkpt lat="46.51247" lon="6.00529">
        <ele>1017.3</ele>
        <time>2019-07-30T11:41:29Z</time>
      </trkpt>
      <trkpt lat="46.51244" lon="6.00524">
        <ele>1016.7</ele>
        <time>2019-07-30T11:41:36Z</time>
      </trkpt>
      <trkpt lat="46.5124" lon="6.0052">
        <ele>1016.4</ele>
        <time>2019-07-30T11:41:49Z</time>
      </trkpt>
      <trkpt lat="46.51236" lon="6.00515">
        <ele>1016.8</ele>
        <time>2019-07-30T11:42:12Z</time>
      </trkpt>
      <trkpt lat="46.51234" lon="6.00509">
        <ele>1017.5</ele>
        <time>2019-07-30T11:42:16Z</time>
      </trkpt>
      <trkpt lat="46.5123" lon="6.00503">
        <ele>1018.5</ele>
        <time>2019-07-30T11:42:21Z</time>
      </trkpt>
      <trkpt lat="46.51227" lon="6.00497">
        <ele>1018.7</ele>
        <time>2019-07-30T11:42:29Z</time>
      </trkpt>
      <trkpt lat="46.51229" lon="6.00491">
        <ele>1018</ele>
        <time>2019-07-30T11:42:38Z</time>
      </trkpt>
      <trkpt lat="46.51227" lon="6.00484">
        <ele>1017.9</ele>
        <time>2019-07-30T11:42:46Z</time>
      </trkpt>
      <trkpt lat="46.51222" lon="6.00482">
        <ele>1018.2</ele>
        <time>2019-07-30T11:42:50Z</time>
      </trkpt>
      <trkpt lat="46.51218" lon="6.00479">
        <ele>1018.9</ele>
        <time>2019-07-30T11:42:55Z</time>
      </trkpt>
      <trkpt lat="46.51215" lon="6.00473">
        <ele>1019.8</ele>
        <time>2019-07-30T11:43:00Z</time>
      </trkpt>
      <trkpt lat="46.51214" lon="6.00466">
        <ele>1020.6</ele>
        <time>2019-07-30T11:43:06Z</time>
      </trkpt>
      <trkpt lat="46.51213" lon="6.0046">
        <ele>1020.8</ele>
        <time>2019-07-30T11:43:11Z</time>
      </trkpt>
      <trkpt lat="46.51213" lon="6.00452">
        <ele>1020.8</ele>
        <time>2019-07-30T11:43:16Z</time>
      </trkpt>
      <trkpt lat="46.51212" lon="6.00444">
        <ele>1020.6</ele>
        <time>2019-07-30T11:43:22Z</time>
      </trkpt>
      <trkpt lat="46.51211" lon="6.00437">
        <ele>1020.4</ele>
        <time>2019-07-30T11:43:25Z</time>
      </trkpt>
      <trkpt lat="46.5121" lon="6.0043">
        <ele>1020.2</ele>
        <time>2019-07-30T11:43:29Z</time>
      </trkpt>
      <trkpt lat="46.51209" lon="6.00423">
        <ele>1019.6</ele>
        <time>2019-07-30T11:43:34Z</time>
      </trkpt>
      <trkpt lat="46.51207" lon="6.00416">
        <ele>1018.9</ele>
        <time>2019-07-30T11:43:39Z</time>
      </trkpt>
      <trkpt lat="46.51205" lon="6.00409">
        <ele>1018.2</ele>
        <time>2019-07-30T11:43:45Z</time>
      </trkpt>
      <trkpt lat="46.51201" lon="6.00404">
        <ele>1017.2</ele>
        <time>2019-07-30T11:43:52Z</time>
      </trkpt>
      <trkpt lat="46.51197" lon="6.00399">
        <ele>1016.8</ele>
        <time>2019-07-30T11:43:57Z</time>
      </trkpt>
      <trkpt lat="46.51193" lon="6.00395">
        <ele>1016.7</ele>
        <time>2019-07-30T11:44:01Z</time>
      </trkpt>
      <trkpt lat="46.5119" lon="6.0039">
        <ele>1016</ele>
        <time>2019-07-30T11:44:09Z</time>
      </trkpt>
      <trkpt lat="46.51185" lon="6.00387">
        <ele>1015.4</ele>
        <time>2019-07-30T11:44:15Z</time>
      </trkpt>
      <trkpt lat="46.51181" lon="6.00382">
        <ele>1014.9</ele>
        <time>2019-07-30T11:44:19Z</time>
      </trkpt>
      <trkpt lat="46.51177" lon="6.00378">
        <ele>1014.2</ele>
        <time>2019-07-30T11:44:23Z</time>
      </trkpt>
      <trkpt lat="46.51173" lon="6.00373">
        <ele>1013.3</ele>
        <time>2019-07-30T11:44:27Z</time>
      </trkpt>
      <trkpt lat="46.51169" lon="6.00368">
        <ele>1012</ele>
        <time>2019-07-30T11:44:32Z</time>
      </trkpt>
      <trkpt lat="46.51165" lon="6.00364">
        <ele>1010.8</ele>
        <time>2019-07-30T11:44:38Z</time>
      </trkpt>
      <trkpt lat="46.5116" lon="6.0036">
        <ele>1010.3</ele>
        <time>2019-07-30T11:44:42Z</time>
      </trkpt>
      <trkpt lat="46.51156" lon="6.00356">
        <ele>1009.7</ele>
        <time>2019-07-30T11:44:46Z</time>
      </trkpt>
      <trkpt lat="46.51152" lon="6.00351">
        <ele>1009.2</ele>
        <time>2019-07-30T11:44:50Z</time>
      </trkpt>
      <trkpt lat="46.51148" lon="6.00346">
        <ele>1008.6</ele>
        <time>2019-07-30T11:44:54Z</time>
      </trkpt>
      <trkpt lat="46.51144" lon="6.00341">
        <ele>1008.1</ele>
        <time>2019-07-30T11:44:58Z</time>
      </trkpt>
      <trkpt lat="46.51139" lon="6.00337">
        <ele>1007.6</ele>
        <time>2019-07-30T11:45:02Z</time>
      </trkpt>
      <trkpt lat="46.51135" lon="6.00333">
        <ele>1007</ele>
        <time>2019-07-30T11:45:06Z</time>
      </trkpt>
      <trkpt lat="46.51132" lon="6.00327">
        <ele>1006.5</ele>
        <time>2019-07-30T11:45:11Z</time>
      </trkpt>
      <trkpt lat="46.5113" lon="6.00321">
        <ele>1006</ele>
        <time>2019-07-30T11:45:20Z</time>
      </trkpt>
      <trkpt lat="46.51127" lon="6.00315">
        <ele>1005.6</ele>
        <time>2019-07-30T11:45:26Z</time>
      </trkpt>
      <trkpt lat="46.51121" lon="6.00306">
        <ele>1005.2</ele>
        <time>2019-07-30T11:45:37Z</time>
      </trkpt>
      <trkpt lat="46.51115" lon="6.00306">
        <ele>1006.1</ele>
        <time>2019-07-30T11:45:43Z</time>
      </trkpt>
      <trkpt lat="46.51111" lon="6.00303">
        <ele>1007.4</ele>
        <time>2019-07-30T11:45:47Z</time>
      </trkpt>
      <trkpt lat="46.51106" lon="6.00298">
        <ele>1009.1</ele>
        <time>2019-07-30T11:45:51Z</time>
      </trkpt>
      <trkpt lat="46.51102" lon="6.00293">
        <ele>1011.1</ele>
        <time>2019-07-30T11:45:55Z</time>
      </trkpt>
      <trkpt lat="46.51098" lon="6.00287">
        <ele>1013.3</ele>
        <time>2019-07-30T11:46:00Z</time>
      </trkpt>
      <trkpt lat="46.51097" lon="6.00281">
        <ele>1016.1</ele>
        <time>2019-07-30T11:46:06Z</time>
      </trkpt>
      <trkpt lat="46.51095" lon="6.00273">
        <ele>1018.7</ele>
        <time>2019-07-30T11:46:12Z</time>
      </trkpt>
      <trkpt lat="46.51094" lon="6.00266">
        <ele>1020.2</ele>
        <time>2019-07-30T11:46:17Z</time>
      </trkpt>
      <trkpt lat="46.51094" lon="6.00259">
        <ele>1021.4</ele>
        <time>2019-07-30T11:46:22Z</time>
      </trkpt>
      <trkpt lat="46.51092" lon="6.00252">
        <ele>1022.3</ele>
        <time>2019-07-30T11:46:27Z</time>
      </trkpt>
      <trkpt lat="46.5109" lon="6.00245">
        <ele>1023</ele>
        <time>2019-07-30T11:46:31Z</time>
      </trkpt>
      <trkpt lat="46.51088" lon="6.00239">
        <ele>1023.5</ele>
        <time>2019-07-30T11:46:37Z</time>
      </trkpt>
      <trkpt lat="46.51087" lon="6.0023">
        <ele>1023.8</ele>
        <time>2019-07-30T11:46:42Z</time>
      </trkpt>
      <trkpt lat="46.51085" lon="6.00224">
        <ele>1024.1</ele>
        <time>2019-07-30T11:46:47Z</time>
      </trkpt>
      <trkpt lat="46.51084" lon="6.00217">
        <ele>1024.9</ele>
        <time>2019-07-30T11:46:54Z</time>
      </trkpt>
      <trkpt lat="46.51084" lon="6.00209">
        <ele>1025.1</ele>
        <time>2019-07-30T11:47:01Z</time>
      </trkpt>
      <trkpt lat="46.51081" lon="6.00203">
        <ele>1024.7</ele>
        <time>2019-07-30T11:47:09Z</time>
      </trkpt>
      <trkpt lat="46.51081" lon="6.00196">
        <ele>1024.3</ele>
        <time>2019-07-30T11:47:16Z</time>
      </trkpt>
      <trkpt lat="46.5108" lon="6.00189">
        <ele>1024.2</ele>
        <time>2019-07-30T11:47:23Z</time>
      </trkpt>
      <trkpt lat="46.51077" lon="6.00183">
        <ele>1024</ele>
        <time>2019-07-30T11:47:29Z</time>
      </trkpt>
      <trkpt lat="46.51076" lon="6.00175">
        <ele>1023.8</ele>
        <time>2019-07-30T11:47:34Z</time>
      </trkpt>
      <trkpt lat="46.51076" lon="6.00168">
        <ele>1023.7</ele>
        <time>2019-07-30T11:47:38Z</time>
      </trkpt>
      <trkpt lat="46.51074" lon="6.00162">
        <ele>1023.6</ele>
        <time>2019-07-30T11:47:42Z</time>
      </trkpt>
      <trkpt lat="46.51072" lon="6.00155">
        <ele>1023.1</ele>
        <time>2019-07-30T11:47:46Z</time>
      </trkpt>
      <trkpt lat="46.51069" lon="6.00149">
        <ele>1022.2</ele>
        <time>2019-07-30T11:47:50Z</time>
      </trkpt>
      <trkpt lat="46.51066" lon="6.00144">
        <ele>1021.3</ele>
        <time>2019-07-30T11:47:54Z</time>
      </trkpt>
      <trkpt lat="46.51064" lon="6.00138">
        <ele>1020.2</ele>
        <time>2019-07-30T11:48:00Z</time>
      </trkpt>
      <trkpt lat="46.51062" lon="6.00132">
        <ele>1019.3</ele>
        <time>2019-07-30T11:48:05Z</time>
      </trkpt>
      <trkpt lat="46.51058" lon="6.00126">
        <ele>1018.3</ele>
        <time>2019-07-30T11:48:10Z</time>
      </trkpt>
      <trkpt lat="46.51055" lon="6.0012">
        <ele>1017.4</ele>
        <time>2019-07-30T11:48:14Z</time>
      </trkpt>
      <trkpt lat="46.51051" lon="6.00115">
        <ele>1015.9</ele>
        <time>2019-07-30T11:48:20Z</time>
      </trkpt>
      <trkpt lat="46.51047" lon="6.00111">
        <ele>1014.5</ele>
        <time>2019-07-30T11:48:25Z</time>
      </trkpt>
      <trkpt lat="46.51043" lon="6.00106">
        <ele>1013.3</ele>
        <time>2019-07-30T11:48:29Z</time>
      </trkpt>
      <trkpt lat="46.51038" lon="6.001">
        <ele>1011.9</ele>
        <time>2019-07-30T11:48:33Z</time>
      </trkpt>
      <trkpt lat="46.51034" lon="6.00094">
        <ele>1010.8</ele>
        <time>2019-07-30T11:48:36Z</time>
      </trkpt>
      <trkpt lat="46.5103" lon="6.00089">
        <ele>1009.3</ele>
        <time>2019-07-30T11:48:40Z</time>
      </trkpt>
      <trkpt lat="46.51026" lon="6.00085">
        <ele>1007.7</ele>
        <time>2019-07-30T11:48:45Z</time>
      </trkpt>
      <trkpt lat="46.51021" lon="6.00082">
        <ele>1006.5</ele>
        <time>2019-07-30T11:48:50Z</time>
      </trkpt>
      <trkpt lat="46.51017" lon="6.00079">
        <ele>1005</ele>
        <time>2019-07-30T11:48:55Z</time>
      </trkpt>
      <trkpt lat="46.51013" lon="6.00074">
        <ele>1003.4</ele>
        <time>2019-07-30T11:48:59Z</time>
      </trkpt>
      <trkpt lat="46.51009" lon="6.0007">
        <ele>1001.4</ele>
        <time>2019-07-30T11:49:03Z</time>
      </trkpt>
      <trkpt lat="46.51006" lon="6.00065">
        <ele>998.8</ele>
        <time>2019-07-30T11:49:08Z</time>
      </trkpt>
      <trkpt lat="46.51003" lon="6.0006">
        <ele>996.3</ele>
        <time>2019-07-30T11:49:13Z</time>
      </trkpt>
      <trkpt lat="46.51001" lon="6.00054">
        <ele>994.3</ele>
        <time>2019-07-30T11:49:17Z</time>
      </trkpt>
      <trkpt lat="46.50999" lon="6.00047">
        <ele>992.2</ele>
        <time>2019-07-30T11:49:22Z</time>
      </trkpt>
      <trkpt lat="46.50998" lon="6.0004">
        <ele>990.4</ele>
        <time>2019-07-30T11:49:27Z</time>
      </trkpt>
      <trkpt lat="46.50996" lon="6.00033">
        <ele>989.1</ele>
        <time>2019-07-30T11:49:31Z</time>
      </trkpt>
      <trkpt lat="46.50995" lon="6.00027">
        <ele>988.1</ele>
        <time>2019-07-30T11:49:34Z</time>
      </trkpt>
      <trkpt lat="46.50995" lon="6.00019">
        <ele>986.4</ele>
        <time>2019-07-30T11:49:39Z</time>
      </trkpt>
      <trkpt lat="46.50995" lon="6.00012">
        <ele>984.4</ele>
        <time>2019-07-30T11:49:45Z</time>
      </trkpt>
      <trkpt lat="46.50993" lon="6.00006">
        <ele>983.6</ele>
        <time>2019-07-30T11:49:49Z</time>
      </trkpt>
      <trkpt lat="46.50991" lon="5.99999">
        <ele>982.9</ele>
        <time>2019-07-30T11:49:54Z</time>
      </trkpt>
      <trkpt lat="46.5099" lon="5.99992">
        <ele>982.3</ele>
        <time>2019-07-30T11:49:58Z</time>
      </trkpt>
      <trkpt lat="46.5099" lon="5.99985">
        <ele>981.6</ele>
        <time>2019-07-30T11:50:03Z</time>
      </trkpt>
      <trkpt lat="46.5099" lon="5.99978">
        <ele>980.2</ele>
        <time>2019-07-30T11:50:10Z</time>
      </trkpt>
      <trkpt lat="46.50989" lon="5.9997">
        <ele>979.9</ele>
        <time>2019-07-30T11:50:15Z</time>
      </trkpt>
      <trkpt lat="46.50988" lon="5.99963">
        <ele>980.2</ele>
        <time>2019-07-30T11:50:20Z</time>
      </trkpt>
      <trkpt lat="46.5099" lon="5.99957">
        <ele>980.8</ele>
        <time>2019-07-30T11:50:24Z</time>
      </trkpt>
      <trkpt lat="46.50992" lon="5.9995">
        <ele>981.6</ele>
        <time>2019-07-30T11:50:29Z</time>
      </trkpt>
      <trkpt lat="46.50992" lon="5.99941">
        <ele>982</ele>
        <time>2019-07-30T11:50:33Z</time>
      </trkpt>
      <trkpt lat="46.5099" lon="5.99933">
        <ele>982.3</ele>
        <time>2019-07-30T11:50:36Z</time>
      </trkpt>
      <trkpt lat="46.50989" lon="5.99926">
        <ele>982.5</ele>
        <time>2019-07-30T11:50:40Z</time>
      </trkpt>
      <trkpt lat="46.5099" lon="5.99919">
        <ele>982.1</ele>
        <time>2019-07-30T11:50:46Z</time>
      </trkpt>
      <trkpt lat="46.50992" lon="5.99912">
        <ele>981.5</ele>
        <time>2019-07-30T11:50:51Z</time>
      </trkpt>
      <trkpt lat="46.50993" lon="5.99905">
        <ele>980.9</ele>
        <time>2019-07-30T11:50:56Z</time>
      </trkpt>
      <trkpt lat="46.50995" lon="5.99898">
        <ele>980.4</ele>
        <time>2019-07-30T11:51:01Z</time>
      </trkpt>
      <trkpt lat="46.50996" lon="5.99892">
        <ele>980.1</ele>
        <time>2019-07-30T11:51:05Z</time>
      </trkpt>
      <trkpt lat="46.50995" lon="5.99885">
        <ele>979.9</ele>
        <time>2019-07-30T11:51:09Z</time>
      </trkpt>
      <trkpt lat="46.50995" lon="5.99877">
        <ele>979.8</ele>
        <time>2019-07-30T11:51:14Z</time>
      </trkpt>
      <trkpt lat="46.50995" lon="5.99869">
        <ele>979.9</ele>
        <time>2019-07-30T11:51:19Z</time>
      </trkpt>
      <trkpt lat="46.50993" lon="5.99861">
        <ele>979.9</ele>
        <time>2019-07-30T11:51:24Z</time>
      </trkpt>
      <trkpt lat="46.50993" lon="5.99854">
        <ele>979.7</ele>
        <time>2019-07-30T11:51:29Z</time>
      </trkpt>
      <trkpt lat="46.50995" lon="5.99847">
        <ele>979.4</ele>
        <time>2019-07-30T11:51:33Z</time>
      </trkpt>
      <trkpt lat="46.50997" lon="5.99841">
        <ele>978.9</ele>
        <time>2019-07-30T11:51:38Z</time>
      </trkpt>
      <trkpt lat="46.50999" lon="5.99835">
        <ele>978.4</ele>
        <time>2019-07-30T11:51:42Z</time>
      </trkpt>
      <trkpt lat="46.51" lon="5.99826">
        <ele>978</ele>
        <time>2019-07-30T11:51:46Z</time>
      </trkpt>
      <trkpt lat="46.51002" lon="5.99818">
        <ele>977.6</ele>
        <time>2019-07-30T11:51:50Z</time>
      </trkpt>
      <trkpt lat="46.51003" lon="5.99811">
        <ele>977.2</ele>
        <time>2019-07-30T11:51:55Z</time>
      </trkpt>
      <trkpt lat="46.51004" lon="5.99805">
        <ele>977</ele>
        <time>2019-07-30T11:51:59Z</time>
      </trkpt>
      <trkpt lat="46.51006" lon="5.99798">
        <ele>977.1</ele>
        <time>2019-07-30T11:52:03Z</time>
      </trkpt>
      <trkpt lat="46.51007" lon="5.99791">
        <ele>977</ele>
        <time>2019-07-30T11:52:07Z</time>
      </trkpt>
      <trkpt lat="46.51007" lon="5.99784">
        <ele>976.9</ele>
        <time>2019-07-30T11:52:11Z</time>
      </trkpt>
      <trkpt lat="46.51009" lon="5.99777">
        <ele>977</ele>
        <time>2019-07-30T11:52:15Z</time>
      </trkpt>
      <trkpt lat="46.5101" lon="5.9977">
        <ele>977.2</ele>
        <time>2019-07-30T11:52:19Z</time>
      </trkpt>
      <trkpt lat="46.51011" lon="5.99762">
        <ele>977.5</ele>
        <time>2019-07-30T11:52:23Z</time>
      </trkpt>
      <trkpt lat="46.51012" lon="5.99754">
        <ele>977.7</ele>
        <time>2019-07-30T11:52:28Z</time>
      </trkpt>
      <trkpt lat="46.51013" lon="5.99748">
        <ele>977.9</ele>
        <time>2019-07-30T11:52:32Z</time>
      </trkpt>
      <trkpt lat="46.51014" lon="5.99741">
        <ele>977.9</ele>
        <time>2019-07-30T11:52:36Z</time>
      </trkpt>
      <trkpt lat="46.51014" lon="5.99733">
        <ele>977.9</ele>
        <time>2019-07-30T11:52:41Z</time>
      </trkpt>
      <trkpt lat="46.51014" lon="5.99726">
        <ele>977.6</ele>
        <time>2019-07-30T11:52:47Z</time>
      </trkpt>
      <trkpt lat="46.51014" lon="5.99719">
        <ele>977.4</ele>
        <time>2019-07-30T11:52:52Z</time>
      </trkpt>
      <trkpt lat="46.51015" lon="5.99711">
        <ele>977.3</ele>
        <time>2019-07-30T11:52:56Z</time>
      </trkpt>
      <trkpt lat="46.51015" lon="5.99703">
        <ele>977.1</ele>
        <time>2019-07-30T11:53:00Z</time>
      </trkpt>
      <trkpt lat="46.51016" lon="5.99695">
        <ele>976.8</ele>
        <time>2019-07-30T11:53:04Z</time>
      </trkpt>
      <trkpt lat="46.51019" lon="5.99688">
        <ele>976.3</ele>
        <time>2019-07-30T11:53:09Z</time>
      </trkpt>
      <trkpt lat="46.51021" lon="5.99681">
        <ele>975.6</ele>
        <time>2019-07-30T11:53:14Z</time>
      </trkpt>
      <trkpt lat="46.51022" lon="5.99674">
        <ele>975</ele>
        <time>2019-07-30T11:53:21Z</time>
      </trkpt>
      <trkpt lat="46.51024" lon="5.99668">
        <ele>974.8</ele>
        <time>2019-07-30T11:53:25Z</time>
      </trkpt>
      <trkpt lat="46.51027" lon="5.99662">
        <ele>974.7</ele>
        <time>2019-07-30T11:53:28Z</time>
      </trkpt>
      <trkpt lat="46.51031" lon="5.99658">
        <ele>974.6</ele>
        <time>2019-07-30T11:53:33Z</time>
      </trkpt>
      <trkpt lat="46.51034" lon="5.99652">
        <ele>974.6</ele>
        <time>2019-07-30T11:53:39Z</time>
      </trkpt>
      <trkpt lat="46.51037" lon="5.99646">
        <ele>974.3</ele>
        <time>2019-07-30T11:53:45Z</time>
      </trkpt>
      <trkpt lat="46.51042" lon="5.99643">
        <ele>973.8</ele>
        <time>2019-07-30T11:53:50Z</time>
      </trkpt>
      <trkpt lat="46.51047" lon="5.99641">
        <ele>973.4</ele>
        <time>2019-07-30T11:53:54Z</time>
      </trkpt>
      <trkpt lat="46.51051" lon="5.99636">
        <ele>973</ele>
        <time>2019-07-30T11:53:58Z</time>
      </trkpt>
      <trkpt lat="46.51053" lon="5.99629">
        <ele>972.6</ele>
        <time>2019-07-30T11:54:02Z</time>
      </trkpt>
      <trkpt lat="46.51056" lon="5.99624">
        <ele>972</ele>
        <time>2019-07-30T11:54:07Z</time>
      </trkpt>
      <trkpt lat="46.51059" lon="5.99618">
        <ele>971.3</ele>
        <time>2019-07-30T11:54:11Z</time>
      </trkpt>
      <trkpt lat="46.51062" lon="5.99612">
        <ele>970.5</ele>
        <time>2019-07-30T11:54:15Z</time>
      </trkpt>
      <trkpt lat="46.51066" lon="5.99606">
        <ele>969.8</ele>
        <time>2019-07-30T11:54:20Z</time>
      </trkpt>
      <trkpt lat="46.51069" lon="5.99601">
        <ele>969.3</ele>
        <time>2019-07-30T11:54:24Z</time>
      </trkpt>
      <trkpt lat="46.51074" lon="5.99598">
        <ele>968.6</ele>
        <time>2019-07-30T11:54:29Z</time>
      </trkpt>
      <trkpt lat="46.51078" lon="5.99596">
        <ele>967.9</ele>
        <time>2019-07-30T11:54:33Z</time>
      </trkpt>
      <trkpt lat="46.51083" lon="5.99594">
        <ele>967.1</ele>
        <time>2019-07-30T11:54:37Z</time>
      </trkpt>
      <trkpt lat="46.51087" lon="5.99591">
        <ele>965.5</ele>
        <time>2019-07-30T11:54:43Z</time>
      </trkpt>
      <trkpt lat="46.51088" lon="5.99583">
        <ele>964.2</ele>
        <time>2019-07-30T11:54:49Z</time>
      </trkpt>
      <trkpt lat="46.51088" lon="5.99575">
        <ele>963.6</ele>
        <time>2019-07-30T11:54:53Z</time>
      </trkpt>
      <trkpt lat="46.51087" lon="5.99568">
        <ele>963.3</ele>
        <time>2019-07-30T11:54:57Z</time>
      </trkpt>
      <trkpt lat="46.51086" lon="5.99561">
        <ele>963</ele>
        <time>2019-07-30T11:55:02Z</time>
      </trkpt>
      <trkpt lat="46.51084" lon="5.99554">
        <ele>962.6</ele>
        <time>2019-07-30T11:55:07Z</time>
      </trkpt>
      <trkpt lat="46.5108" lon="5.99548">
        <ele>961.9</ele>
        <time>2019-07-30T11:55:13Z</time>
      </trkpt>
      <trkpt lat="46.51076" lon="5.99543">
        <ele>961.4</ele>
        <time>2019-07-30T11:55:19Z</time>
      </trkpt>
      <trkpt lat="46.51074" lon="5.99537">
        <ele>961.3</ele>
        <time>2019-07-30T11:55:25Z</time>
      </trkpt>
      <trkpt lat="46.51071" lon="5.99529">
        <ele>961.4</ele>
        <time>2019-07-30T11:55:29Z</time>
      </trkpt>
      <trkpt lat="46.5107" lon="5.99522">
        <ele>961.6</ele>
        <time>2019-07-30T11:55:32Z</time>
      </trkpt>
      <trkpt lat="46.51067" lon="5.99516">
        <ele>961.8</ele>
        <time>2019-07-30T11:55:35Z</time>
      </trkpt>
      <trkpt lat="46.51066" lon="5.99509">
        <ele>962.1</ele>
        <time>2019-07-30T11:55:39Z</time>
      </trkpt>
      <trkpt lat="46.51064" lon="5.99502">
        <ele>962.6</ele>
        <time>2019-07-30T11:55:44Z</time>
      </trkpt>
      <trkpt lat="46.51062" lon="5.99496">
        <ele>963</ele>
        <time>2019-07-30T11:55:48Z</time>
      </trkpt>
      <trkpt lat="46.5106" lon="5.99489">
        <ele>963.4</ele>
        <time>2019-07-30T11:55:52Z</time>
      </trkpt>
      <trkpt lat="46.51059" lon="5.99481">
        <ele>964.2</ele>
        <time>2019-07-30T11:55:57Z</time>
      </trkpt>
      <trkpt lat="46.51058" lon="5.99474">
        <ele>965.3</ele>
        <time>2019-07-30T11:56:03Z</time>
      </trkpt>
      <trkpt lat="46.51057" lon="5.99467">
        <ele>966</ele>
        <time>2019-07-30T11:56:07Z</time>
      </trkpt>
      <trkpt lat="46.51055" lon="5.9946">
        <ele>967</ele>
        <time>2019-07-30T11:56:13Z</time>
      </trkpt>
      <trkpt lat="46.51051" lon="5.99457">
        <ele>968.7</ele>
        <time>2019-07-30T11:56:18Z</time>
      </trkpt>
      <trkpt lat="46.51047" lon="5.99454">
        <ele>970.6</ele>
        <time>2019-07-30T11:56:22Z</time>
      </trkpt>
      <trkpt lat="46.51043" lon="5.9945">
        <ele>972.6</ele>
        <time>2019-07-30T11:56:26Z</time>
      </trkpt>
      <trkpt lat="46.51041" lon="5.99443">
        <ele>975.5</ele>
        <time>2019-07-30T11:56:32Z</time>
      </trkpt>
      <trkpt lat="46.5104" lon="5.99436">
        <ele>977.9</ele>
        <time>2019-07-30T11:56:38Z</time>
      </trkpt>
      <trkpt lat="46.51038" lon="5.99428">
        <ele>979.1</ele>
        <time>2019-07-30T11:56:43Z</time>
      </trkpt>
      <trkpt lat="46.51035" lon="5.99422">
        <ele>979.8</ele>
        <time>2019-07-30T11:56:47Z</time>
      </trkpt>
      <trkpt lat="46.51033" lon="5.99415">
        <ele>980.3</ele>
        <time>2019-07-30T11:56:52Z</time>
      </trkpt>
      <trkpt lat="46.5103" lon="5.99409">
        <ele>980.5</ele>
        <time>2019-07-30T11:56:57Z</time>
      </trkpt>
      <trkpt lat="46.51027" lon="5.99403">
        <ele>980.5</ele>
        <time>2019-07-30T11:57:01Z</time>
      </trkpt>
      <trkpt lat="46.51026" lon="5.99395">
        <ele>980.6</ele>
        <time>2019-07-30T11:57:06Z</time>
      </trkpt>
      <trkpt lat="46.51025" lon="5.99387">
        <ele>980.2</ele>
        <time>2019-07-30T11:57:11Z</time>
      </trkpt>
      <trkpt lat="46.51025" lon="5.99381">
        <ele>979.4</ele>
        <time>2019-07-30T11:57:16Z</time>
      </trkpt>
      <trkpt lat="46.51023" lon="5.99374">
        <ele>978.5</ele>
        <time>2019-07-30T11:57:21Z</time>
      </trkpt>
      <trkpt lat="46.51021" lon="5.99368">
        <ele>978.2</ele>
        <time>2019-07-30T11:57:28Z</time>
      </trkpt>
      <trkpt lat="46.51019" lon="5.99362">
        <ele>978.4</ele>
        <time>2019-07-30T11:57:32Z</time>
      </trkpt>
      <trkpt lat="46.51016" lon="5.99354">
        <ele>978.8</ele>
        <time>2019-07-30T11:57:36Z</time>
      </trkpt>
      <trkpt lat="46.51015" lon="5.99348">
        <ele>979.4</ele>
        <time>2019-07-30T11:57:40Z</time>
      </trkpt>
      <trkpt lat="46.51014" lon="5.99341">
        <ele>980.3</ele>
        <time>2019-07-30T11:57:44Z</time>
      </trkpt>
      <trkpt lat="46.51012" lon="5.99334">
        <ele>981.2</ele>
        <time>2019-07-30T11:57:51Z</time>
      </trkpt>
      <trkpt lat="46.5101" lon="5.99327">
        <ele>981.4</ele>
        <time>2019-07-30T11:57:55Z</time>
      </trkpt>
      <trkpt lat="46.51008" lon="5.99321">
        <ele>981.6</ele>
        <time>2019-07-30T11:57:59Z</time>
      </trkpt>
      <trkpt lat="46.51006" lon="5.99314">
        <ele>981.9</ele>
        <time>2019-07-30T11:58:04Z</time>
      </trkpt>
      <trkpt lat="46.51004" lon="5.99306">
        <ele>982</ele>
        <time>2019-07-30T11:58:09Z</time>
      </trkpt>
      <trkpt lat="46.51001" lon="5.99299">
        <ele>982</ele>
        <time>2019-07-30T11:58:13Z</time>
      </trkpt>
      <trkpt lat="46.50999" lon="5.99292">
        <ele>981.9</ele>
        <time>2019-07-30T11:58:19Z</time>
      </trkpt>
      <trkpt lat="46.50996" lon="5.99287">
        <ele>982.2</ele>
        <time>2019-07-30T11:58:26Z</time>
      </trkpt>
      <trkpt lat="46.50993" lon="5.99281">
        <ele>982.6</ele>
        <time>2019-07-30T11:58:30Z</time>
      </trkpt>
      <trkpt lat="46.50991" lon="5.99275">
        <ele>982.9</ele>
        <time>2019-07-30T11:58:34Z</time>
      </trkpt>
      <trkpt lat="46.50989" lon="5.99268">
        <ele>983.3</ele>
        <time>2019-07-30T11:58:38Z</time>
      </trkpt>
      <trkpt lat="46.50986" lon="5.99261">
        <ele>983.6</ele>
        <time>2019-07-30T11:58:42Z</time>
      </trkpt>
      <trkpt lat="46.50984" lon="5.99256">
        <ele>983.8</ele>
        <time>2019-07-30T11:58:45Z</time>
      </trkpt>
      <trkpt lat="46.50981" lon="5.9925">
        <ele>984</ele>
        <time>2019-07-30T11:58:48Z</time>
      </trkpt>
      <trkpt lat="46.50978" lon="5.99244">
        <ele>984.3</ele>
        <time>2019-07-30T11:58:52Z</time>
      </trkpt>
      <trkpt lat="46.50976" lon="5.99238">
        <ele>984.8</ele>
        <time>2019-07-30T11:58:57Z</time>
      </trkpt>
      <trkpt lat="46.50973" lon="5.99232">
        <ele>985</ele>
        <time>2019-07-30T11:59:01Z</time>
      </trkpt>
      <trkpt lat="46.5097" lon="5.99225">
        <ele>985.1</ele>
        <time>2019-07-30T11:59:05Z</time>
      </trkpt>
      <trkpt lat="46.50969" lon="5.99217">
        <ele>985.2</ele>
        <time>2019-07-30T11:59:10Z</time>
      </trkpt>
      <trkpt lat="46.50966" lon="5.99211">
        <ele>985.4</ele>
        <time>2019-07-30T11:59:15Z</time>
      </trkpt>
      <trkpt lat="46.50963" lon="5.99206">
        <ele>985.4</ele>
        <time>2019-07-30T11:59:20Z</time>
      </trkpt>
      <trkpt lat="46.50959" lon="5.99201">
        <ele>985.8</ele>
        <time>2019-07-30T11:59:26Z</time>
      </trkpt>
      <trkpt lat="46.50955" lon="5.99196">
        <ele>986.2</ele>
        <time>2019-07-30T11:59:31Z</time>
      </trkpt>
      <trkpt lat="46.50952" lon="5.99191">
        <ele>986.6</ele>
        <time>2019-07-30T11:59:35Z</time>
      </trkpt>
      <trkpt lat="46.5095" lon="5.99184">
        <ele>987.3</ele>
        <time>2019-07-30T11:59:40Z</time>
      </trkpt>
      <trkpt lat="46.50948" lon="5.99177">
        <ele>988.2</ele>
        <time>2019-07-30T11:59:45Z</time>
      </trkpt>
      <trkpt lat="46.50947" lon="5.99171">
        <ele>988.8</ele>
        <time>2019-07-30T11:59:49Z</time>
      </trkpt>
      <trkpt lat="46.50945" lon="5.99163">
        <ele>989.5</ele>
        <time>2019-07-30T11:59:53Z</time>
      </trkpt>
      <trkpt lat="46.50946" lon="5.99155">
        <ele>990.2</ele>
        <time>2019-07-30T11:59:58Z</time>
      </trkpt>
      <trkpt lat="46.50946" lon="5.99147">
        <ele>991.1</ele>
        <time>2019-07-30T12:00:03Z</time>
      </trkpt>
      <trkpt lat="46.50946" lon="5.9914">
        <ele>991.6</ele>
        <time>2019-07-30T12:00:07Z</time>
      </trkpt>
      <trkpt lat="46.50946" lon="5.99133">
        <ele>992.1</ele>
        <time>2019-07-30T12:00:12Z</time>
      </trkpt>
      <trkpt lat="46.50945" lon="5.99125">
        <ele>992.3</ele>
        <time>2019-07-30T12:00:17Z</time>
      </trkpt>
      <trkpt lat="46.50943" lon="5.99118">
        <ele>992.5</ele>
        <time>2019-07-30T12:00:21Z</time>
      </trkpt>
      <trkpt lat="46.50941" lon="5.99111">
        <ele>992.5</ele>
        <time>2019-07-30T12:00:25Z</time>
      </trkpt>
      <trkpt lat="46.50938" lon="5.99105">
        <ele>992.5</ele>
        <time>2019-07-30T12:00:29Z</time>
      </trkpt>
      <trkpt lat="46.50934" lon="5.99099">
        <ele>992.6</ele>
        <time>2019-07-30T12:00:33Z</time>
      </trkpt>
      <trkpt lat="46.50932" lon="5.99093">
        <ele>992.7</ele>
        <time>2019-07-30T12:00:36Z</time>
      </trkpt>
      <trkpt lat="46.50929" lon="5.99088">
        <ele>992.7</ele>
        <time>2019-07-30T12:00:39Z</time>
      </trkpt>
      <trkpt lat="46.50926" lon="5.99081">
        <ele>992.6</ele>
        <time>2019-07-30T12:00:43Z</time>
      </trkpt>
      <trkpt lat="46.50923" lon="5.99075">
        <ele>992.5</ele>
        <time>2019-07-30T12:00:49Z</time>
      </trkpt>
      <trkpt lat="46.50921" lon="5.99069">
        <ele>992.4</ele>
        <time>2019-07-30T12:00:54Z</time>
      </trkpt>
      <trkpt lat="46.50918" lon="5.99061">
        <ele>992.5</ele>
        <time>2019-07-30T12:00:58Z</time>
      </trkpt>
      <trkpt lat="46.50916" lon="5.99056">
        <ele>992.3</ele>
        <time>2019-07-30T12:01:04Z</time>
      </trkpt>
      <trkpt lat="46.50916" lon="5.99049">
        <ele>990.4</ele>
        <time>2019-07-30T12:01:15Z</time>
      </trkpt>
      <trkpt lat="46.50913" lon="5.99042">
        <ele>988.9</ele>
        <time>2019-07-30T12:01:20Z</time>
      </trkpt>
      <trkpt lat="46.5091" lon="5.99035">
        <ele>987.6</ele>
        <time>2019-07-30T12:01:24Z</time>
      </trkpt>
      <trkpt lat="46.50907" lon="5.9903">
        <ele>986.6</ele>
        <time>2019-07-30T12:01:27Z</time>
      </trkpt>
      <trkpt lat="46.50905" lon="5.99024">
        <ele>984</ele>
        <time>2019-07-30T12:01:38Z</time>
      </trkpt>
      <trkpt lat="46.50903" lon="5.99017">
        <ele>982.3</ele>
        <time>2019-07-30T12:01:44Z</time>
      </trkpt>
      <trkpt lat="46.509" lon="5.99012">
        <ele>981.2</ele>
        <time>2019-07-30T12:01:48Z</time>
      </trkpt>
      <trkpt lat="46.50896" lon="5.99007">
        <ele>980.1</ele>
        <time>2019-07-30T12:01:52Z</time>
      </trkpt>
      <trkpt lat="46.50892" lon="5.99003">
        <ele>979</ele>
        <time>2019-07-30T12:01:56Z</time>
      </trkpt>
      <trkpt lat="46.50887" lon="5.99">
        <ele>977.7</ele>
        <time>2019-07-30T12:02:01Z</time>
      </trkpt>
      <trkpt lat="46.50883" lon="5.98996">
        <ele>976.5</ele>
        <time>2019-07-30T12:02:06Z</time>
      </trkpt>
      <trkpt lat="46.50879" lon="5.98992">
        <ele>975.2</ele>
        <time>2019-07-30T12:02:11Z</time>
      </trkpt>
      <trkpt lat="46.50875" lon="5.98986">
        <ele>973.8</ele>
        <time>2019-07-30T12:02:16Z</time>
      </trkpt>
      <trkpt lat="46.50872" lon="5.98981">
        <ele>972.5</ele>
        <time>2019-07-30T12:02:21Z</time>
      </trkpt>
      <trkpt lat="46.50867" lon="5.98975">
        <ele>971.1</ele>
        <time>2019-07-30T12:02:26Z</time>
      </trkpt>
      <trkpt lat="46.50864" lon="5.98971">
        <ele>970.1</ele>
        <time>2019-07-30T12:02:30Z</time>
      </trkpt>
      <trkpt lat="46.50859" lon="5.98968">
        <ele>968.8</ele>
        <time>2019-07-30T12:02:35Z</time>
      </trkpt>
      <trkpt lat="46.50854" lon="5.98965">
        <ele>967.5</ele>
        <time>2019-07-30T12:02:40Z</time>
      </trkpt>
      <trkpt lat="46.5085" lon="5.98962">
        <ele>966.2</ele>
        <time>2019-07-30T12:02:45Z</time>
      </trkpt>
      <trkpt lat="46.50846" lon="5.98958">
        <ele>965.4</ele>
        <time>2019-07-30T12:02:50Z</time>
      </trkpt>
      <trkpt lat="46.50841" lon="5.98955">
        <ele>964.8</ele>
        <time>2019-07-30T12:02:55Z</time>
      </trkpt>
      <trkpt lat="46.50837" lon="5.9895">
        <ele>964.5</ele>
        <time>2019-07-30T12:03:01Z</time>
      </trkpt>
      <trkpt lat="46.50833" lon="5.98948">
        <ele>964.4</ele>
        <time>2019-07-30T12:03:06Z</time>
      </trkpt>
      <trkpt lat="46.50827" lon="5.98947">
        <ele>964.3</ele>
        <time>2019-07-30T12:03:11Z</time>
      </trkpt>
      <trkpt lat="46.50822" lon="5.98948">
        <ele>964.4</ele>
        <time>2019-07-30T12:03:14Z</time>
      </trkpt>
      <trkpt lat="46.50816" lon="5.9895">
        <ele>964.7</ele>
        <time>2019-07-30T12:03:17Z</time>
      </trkpt>
      <trkpt lat="46.5081" lon="5.98953">
        <ele>965.2</ele>
        <time>2019-07-30T12:03:20Z</time>
      </trkpt>
      <trkpt lat="46.50806" lon="5.98954">
        <ele>965.7</ele>
        <time>2019-07-30T12:03:23Z</time>
      </trkpt>
      <trkpt lat="46.50801" lon="5.98954">
        <ele>966.6</ele>
        <time>2019-07-30T12:03:27Z</time>
      </trkpt>
      <trkpt lat="46.50797" lon="5.98952">
        <ele>967.7</ele>
        <time>2019-07-30T12:03:31Z</time>
      </trkpt>
      <trkpt lat="46.50792" lon="5.98951">
        <ele>968.8</ele>
        <time>2019-07-30T12:03:35Z</time>
      </trkpt>
      <trkpt lat="46.50787" lon="5.9895">
        <ele>970</ele>
        <time>2019-07-30T12:03:40Z</time>
      </trkpt>
      <trkpt lat="46.50782" lon="5.98949">
        <ele>971.1</ele>
        <time>2019-07-30T12:03:44Z</time>
      </trkpt>
      <trkpt lat="46.50777" lon="5.98947">
        <ele>972.4</ele>
        <time>2019-07-30T12:03:48Z</time>
      </trkpt>
      <trkpt lat="46.50772" lon="5.98944">
        <ele>973.5</ele>
        <time>2019-07-30T12:03:51Z</time>
      </trkpt>
      <trkpt lat="46.50767" lon="5.98943">
        <ele>975.3</ele>
        <time>2019-07-30T12:03:56Z</time>
      </trkpt>
      <trkpt lat="46.50762" lon="5.9894">
        <ele>977.4</ele>
        <time>2019-07-30T12:04:02Z</time>
      </trkpt>
      <trkpt lat="46.50758" lon="5.98941">
        <ele>979.8</ele>
        <time>2019-07-30T12:04:14Z</time>
      </trkpt>
      <trkpt lat="46.50753" lon="5.98938">
        <ele>980.3</ele>
        <time>2019-07-30T12:04:21Z</time>
      </trkpt>
      <trkpt lat="46.50749" lon="5.98936">
        <ele>980.1</ele>
        <time>2019-07-30T12:04:25Z</time>
      </trkpt>
      <trkpt lat="46.50744" lon="5.98933">
        <ele>979.9</ele>
        <time>2019-07-30T12:04:29Z</time>
      </trkpt>
      <trkpt lat="46.50739" lon="5.98931">
        <ele>979.5</ele>
        <time>2019-07-30T12:04:33Z</time>
      </trkpt>
      <trkpt lat="46.50735" lon="5.98928">
        <ele>978.8</ele>
        <time>2019-07-30T12:04:40Z</time>
      </trkpt>
      <trkpt lat="46.50729" lon="5.98926">
        <ele>978.4</ele>
        <time>2019-07-30T12:04:44Z</time>
      </trkpt>
      <trkpt lat="46.50725" lon="5.98923">
        <ele>978</ele>
        <time>2019-07-30T12:04:49Z</time>
      </trkpt>
      <trkpt lat="46.5072" lon="5.98921">
        <ele>977.6</ele>
        <time>2019-07-30T12:04:55Z</time>
      </trkpt>
      <trkpt lat="46.50716" lon="5.98917">
        <ele>977.4</ele>
        <time>2019-07-30T12:05:00Z</time>
      </trkpt>
      <trkpt lat="46.50711" lon="5.98913">
        <ele>977.2</ele>
        <time>2019-07-30T12:05:04Z</time>
      </trkpt>
      <trkpt lat="46.50707" lon="5.98909">
        <ele>976.9</ele>
        <time>2019-07-30T12:05:08Z</time>
      </trkpt>
      <trkpt lat="46.50703" lon="5.98905">
        <ele>976.5</ele>
        <time>2019-07-30T12:05:13Z</time>
      </trkpt>
      <trkpt lat="46.50698" lon="5.989">
        <ele>975.8</ele>
        <time>2019-07-30T12:05:18Z</time>
      </trkpt>
      <trkpt lat="46.50694" lon="5.98896">
        <ele>975.1</ele>
        <time>2019-07-30T12:05:22Z</time>
      </trkpt>
      <trkpt lat="46.5069" lon="5.98892">
        <ele>974.5</ele>
        <time>2019-07-30T12:05:26Z</time>
      </trkpt>
      <trkpt lat="46.50685" lon="5.98888">
        <ele>973.8</ele>
        <time>2019-07-30T12:05:30Z</time>
      </trkpt>
      <trkpt lat="46.50681" lon="5.98883">
        <ele>973.4</ele>
        <time>2019-07-30T12:05:35Z</time>
      </trkpt>
      <trkpt lat="46.50677" lon="5.98878">
        <ele>973.2</ele>
        <time>2019-07-30T12:05:40Z</time>
      </trkpt>
      <trkpt lat="46.50674" lon="5.98874">
        <ele>973.2</ele>
        <time>2019-07-30T12:05:44Z</time>
      </trkpt>
      <trkpt lat="46.5067" lon="5.98869">
        <ele>973.2</ele>
        <time>2019-07-30T12:05:49Z</time>
      </trkpt>
      <trkpt lat="46.50665" lon="5.98865">
        <ele>973.2</ele>
        <time>2019-07-30T12:05:54Z</time>
      </trkpt>
      <trkpt lat="46.50661" lon="5.98861">
        <ele>973.1</ele>
        <time>2019-07-30T12:05:59Z</time>
      </trkpt>
      <trkpt lat="46.50657" lon="5.98856">
        <ele>972.8</ele>
        <time>2019-07-30T12:06:04Z</time>
      </trkpt>
      <trkpt lat="46.50653" lon="5.98852">
        <ele>972.4</ele>
        <time>2019-07-30T12:06:13Z</time>
      </trkpt>
      <trkpt lat="46.5065" lon="5.98846">
        <ele>972</ele>
        <time>2019-07-30T12:06:21Z</time>
      </trkpt>
      <trkpt lat="46.50647" lon="5.98841">
        <ele>971.5</ele>
        <time>2019-07-30T12:06:25Z</time>
      </trkpt>
      <trkpt lat="46.50642" lon="5.98837">
        <ele>971</ele>
        <time>2019-07-30T12:06:29Z</time>
      </trkpt>
      <trkpt lat="46.50638" lon="5.98833">
        <ele>970.2</ele>
        <time>2019-07-30T12:06:34Z</time>
      </trkpt>
      <trkpt lat="46.50633" lon="5.9883">
        <ele>969.4</ele>
        <time>2019-07-30T12:06:38Z</time>
      </trkpt>
      <trkpt lat="46.50629" lon="5.98827">
        <ele>968.7</ele>
        <time>2019-07-30T12:06:43Z</time>
      </trkpt>
      <trkpt lat="46.50625" lon="5.98823">
        <ele>967.9</ele>
        <time>2019-07-30T12:06:47Z</time>
      </trkpt>
      <trkpt lat="46.50621" lon="5.9882">
        <ele>967.1</ele>
        <time>2019-07-30T12:06:51Z</time>
      </trkpt>
      <trkpt lat="46.50617" lon="5.98816">
        <ele>965.9</ele>
        <time>2019-07-30T12:06:56Z</time>
      </trkpt>
      <trkpt lat="46.50614" lon="5.98812">
        <ele>964.6</ele>
        <time>2019-07-30T12:07:01Z</time>
      </trkpt>
      <trkpt lat="46.50609" lon="5.98808">
        <ele>963.5</ele>
        <time>2019-07-30T12:07:06Z</time>
      </trkpt>
      <trkpt lat="46.50611" lon="5.98802">
        <ele>964.1</ele>
        <time>2019-07-30T12:07:31Z</time>
      </trkpt>
      <trkpt lat="46.50605" lon="5.98802">
        <ele>967.1</ele>
        <time>2019-07-30T12:07:45Z</time>
      </trkpt>
      <trkpt lat="46.506" lon="5.98804">
        <ele>967.7</ele>
        <time>2019-07-30T12:07:49Z</time>
      </trkpt>
      <trkpt lat="46.50595" lon="5.98803">
        <ele>968.4</ele>
        <time>2019-07-30T12:07:53Z</time>
      </trkpt>
      <trkpt lat="46.50591" lon="5.98801">
        <ele>969.1</ele>
        <time>2019-07-30T12:07:57Z</time>
      </trkpt>
      <trkpt lat="46.50586" lon="5.98799">
        <ele>969.6</ele>
        <time>2019-07-30T12:08:01Z</time>
      </trkpt>
      <trkpt lat="46.50581" lon="5.98797">
        <ele>971.3</ele>
        <time>2019-07-30T12:08:12Z</time>
      </trkpt>
      <trkpt lat="46.50577" lon="5.98797">
        <ele>971.7</ele>
        <time>2019-07-30T12:08:18Z</time>
      </trkpt>
      <trkpt lat="46.50572" lon="5.98796">
        <ele>971.8</ele>
        <time>2019-07-30T12:08:22Z</time>
      </trkpt>
      <trkpt lat="46.50568" lon="5.98794">
        <ele>971.3</ele>
        <time>2019-07-30T12:08:28Z</time>
      </trkpt>
      <trkpt lat="46.5057" lon="5.98789">
        <ele>967.8</ele>
        <time>2019-07-30T12:08:59Z</time>
      </trkpt>
      <trkpt lat="46.50568" lon="5.98784">
        <ele>968.8</ele>
        <time>2019-07-30T12:10:53Z</time>
      </trkpt>
      <trkpt lat="46.50562" lon="5.98786">
        <ele>969.2</ele>
        <time>2019-07-30T12:12:05Z</time>
      </trkpt>
      <trkpt lat="46.50558" lon="5.98784">
        <ele>969.5</ele>
        <time>2019-07-30T12:12:08Z</time>
      </trkpt>
      <trkpt lat="46.50553" lon="5.98781">
        <ele>969.7</ele>
        <time>2019-07-30T12:12:12Z</time>
      </trkpt>
      <trkpt lat="46.5055" lon="5.98775">
        <ele>969.9</ele>
        <time>2019-07-30T12:12:18Z</time>
      </trkpt>
      <trkpt lat="46.50548" lon="5.98769">
        <ele>970.3</ele>
        <time>2019-07-30T12:12:24Z</time>
      </trkpt>
      <trkpt lat="46.50547" lon="5.98761">
        <ele>971</ele>
        <time>2019-07-30T12:12:29Z</time>
      </trkpt>
      <trkpt lat="46.50545" lon="5.98753">
        <ele>971.8</ele>
        <time>2019-07-30T12:12:33Z</time>
      </trkpt>
      <trkpt lat="46.50544" lon="5.98746">
        <ele>972.9</ele>
        <time>2019-07-30T12:12:37Z</time>
      </trkpt>
      <trkpt lat="46.50542" lon="5.98739">
        <ele>974</ele>
        <time>2019-07-30T12:12:41Z</time>
      </trkpt>
      <trkpt lat="46.5054" lon="5.98732">
        <ele>975.1</ele>
        <time>2019-07-30T12:12:45Z</time>
      </trkpt>
      <trkpt lat="46.50538" lon="5.98726">
        <ele>976.1</ele>
        <time>2019-07-30T12:12:49Z</time>
      </trkpt>
      <trkpt lat="46.50537" lon="5.98719">
        <ele>977.1</ele>
        <time>2019-07-30T12:12:57Z</time>
      </trkpt>
      <trkpt lat="46.50538" lon="5.98712">
        <ele>977.1</ele>
        <time>2019-07-30T12:13:05Z</time>
      </trkpt>
      <trkpt lat="46.50538" lon="5.98705">
        <ele>976.8</ele>
        <time>2019-07-30T12:13:12Z</time>
      </trkpt>
      <trkpt lat="46.50542" lon="5.987">
        <ele>976</ele>
        <time>2019-07-30T12:13:23Z</time>
      </trkpt>
      <trkpt lat="46.50546" lon="5.98701">
        <ele>975.4</ele>
        <time>2019-07-30T12:13:30Z</time>
      </trkpt>
      <trkpt lat="46.50551" lon="5.98699">
        <ele>974.2</ele>
        <time>2019-07-30T12:13:39Z</time>
      </trkpt>
      <trkpt lat="46.50551" lon="5.98692">
        <ele>973.2</ele>
        <time>2019-07-30T12:13:45Z</time>
      </trkpt>
      <trkpt lat="46.50548" lon="5.98687">
        <ele>972.3</ele>
        <time>2019-07-30T12:13:50Z</time>
      </trkpt>
      <trkpt lat="46.50546" lon="5.9868">
        <ele>971.5</ele>
        <time>2019-07-30T12:13:56Z</time>
      </trkpt>
      <trkpt lat="46.50543" lon="5.98673">
        <ele>970.7</ele>
        <time>2019-07-30T12:14:01Z</time>
      </trkpt>
      <trkpt lat="46.5054" lon="5.98667">
        <ele>970.1</ele>
        <time>2019-07-30T12:14:05Z</time>
      </trkpt>
      <trkpt lat="46.50537" lon="5.98661">
        <ele>969.5</ele>
        <time>2019-07-30T12:14:09Z</time>
      </trkpt>
      <trkpt lat="46.50534" lon="5.98656">
        <ele>968.9</ele>
        <time>2019-07-30T12:14:14Z</time>
      </trkpt>
      <trkpt lat="46.5053" lon="5.98652">
        <ele>968.6</ele>
        <time>2019-07-30T12:14:18Z</time>
      </trkpt>
      <trkpt lat="46.50526" lon="5.98647">
        <ele>968.3</ele>
        <time>2019-07-30T12:14:22Z</time>
      </trkpt>
      <trkpt lat="46.50522" lon="5.98642">
        <ele>967.9</ele>
        <time>2019-07-30T12:14:26Z</time>
      </trkpt>
      <trkpt lat="46.50519" lon="5.98636">
        <ele>967.4</ele>
        <time>2019-07-30T12:14:31Z</time>
      </trkpt>
      <trkpt lat="46.50517" lon="5.98629">
        <ele>967.1</ele>
        <time>2019-07-30T12:14:35Z</time>
      </trkpt>
      <trkpt lat="46.50515" lon="5.98623">
        <ele>966.9</ele>
        <time>2019-07-30T12:14:39Z</time>
      </trkpt>
      <trkpt lat="46.50512" lon="5.98617">
        <ele>966.5</ele>
        <time>2019-07-30T12:14:45Z</time>
      </trkpt>
      <trkpt lat="46.5051" lon="5.9861">
        <ele>966.4</ele>
        <time>2019-07-30T12:14:49Z</time>
      </trkpt>
      <trkpt lat="46.50508" lon="5.98604">
        <ele>966.2</ele>
        <time>2019-07-30T12:14:54Z</time>
      </trkpt>
      <trkpt lat="46.50508" lon="5.98597">
        <ele>965.9</ele>
        <time>2019-07-30T12:15:00Z</time>
      </trkpt>
      <trkpt lat="46.50506" lon="5.98591">
        <ele>965.7</ele>
        <time>2019-07-30T12:15:05Z</time>
      </trkpt>
      <trkpt lat="46.50504" lon="5.98584">
        <ele>965.4</ele>
        <time>2019-07-30T12:15:09Z</time>
      </trkpt>
      <trkpt lat="46.50501" lon="5.98577">
        <ele>965.1</ele>
        <time>2019-07-30T12:15:13Z</time>
      </trkpt>
      <trkpt lat="46.50498" lon="5.98572">
        <ele>965</ele>
        <time>2019-07-30T12:15:17Z</time>
      </trkpt>
      <trkpt lat="46.50496" lon="5.98566">
        <ele>964.8</ele>
        <time>2019-07-30T12:15:23Z</time>
      </trkpt>
      <trkpt lat="46.50494" lon="5.9856">
        <ele>964.4</ele>
        <time>2019-07-30T12:15:29Z</time>
      </trkpt>
      <trkpt lat="46.50491" lon="5.98555">
        <ele>963.8</ele>
        <time>2019-07-30T12:15:35Z</time>
      </trkpt>
      <trkpt lat="46.50487" lon="5.9855">
        <ele>963.2</ele>
        <time>2019-07-30T12:15:40Z</time>
      </trkpt>
      <trkpt lat="46.50483" lon="5.98544">
        <ele>962.2</ele>
        <time>2019-07-30T12:15:46Z</time>
      </trkpt>
      <trkpt lat="46.5048" lon="5.98539">
        <ele>961.2</ele>
        <time>2019-07-30T12:15:51Z</time>
      </trkpt>
      <trkpt lat="46.50476" lon="5.98534">
        <ele>960.1</ele>
        <time>2019-07-30T12:15:56Z</time>
      </trkpt>
      <trkpt lat="46.50471" lon="5.98529">
        <ele>959.2</ele>
        <time>2019-07-30T12:16:00Z</time>
      </trkpt>
      <trkpt lat="46.50468" lon="5.98525">
        <ele>958.4</ele>
        <time>2019-07-30T12:16:03Z</time>
      </trkpt>
      <trkpt lat="46.50464" lon="5.9852">
        <ele>956.9</ele>
        <time>2019-07-30T12:16:08Z</time>
      </trkpt>
      <trkpt lat="46.5046" lon="5.98515">
        <ele>956</ele>
        <time>2019-07-30T12:16:12Z</time>
      </trkpt>
      <trkpt lat="46.50456" lon="5.9851">
        <ele>955.3</ele>
        <time>2019-07-30T12:16:16Z</time>
      </trkpt>
      <trkpt lat="46.50452" lon="5.98506">
        <ele>954.8</ele>
        <time>2019-07-30T12:16:19Z</time>
      </trkpt>
      <trkpt lat="46.50449" lon="5.98502">
        <ele>954.2</ele>
        <time>2019-07-30T12:16:23Z</time>
      </trkpt>
      <trkpt lat="46.50445" lon="5.98496">
        <ele>953.6</ele>
        <time>2019-07-30T12:16:28Z</time>
      </trkpt>
      <trkpt lat="46.50442" lon="5.98491">
        <ele>953.1</ele>
        <time>2019-07-30T12:16:32Z</time>
      </trkpt>
      <trkpt lat="46.50439" lon="5.98486">
        <ele>952.4</ele>
        <time>2019-07-30T12:16:36Z</time>
      </trkpt>
      <trkpt lat="46.50437" lon="5.98479">
        <ele>951.5</ele>
        <time>2019-07-30T12:16:41Z</time>
      </trkpt>
      <trkpt lat="46.50436" lon="5.98471">
        <ele>950.9</ele>
        <time>2019-07-30T12:16:46Z</time>
      </trkpt>
      <trkpt lat="46.50433" lon="5.98464">
        <ele>950.6</ele>
        <time>2019-07-30T12:16:51Z</time>
      </trkpt>
      <trkpt lat="46.50431" lon="5.98458">
        <ele>950.5</ele>
        <time>2019-07-30T12:16:55Z</time>
      </trkpt>
      <trkpt lat="46.50427" lon="5.98452">
        <ele>950.2</ele>
        <time>2019-07-30T12:17:00Z</time>
      </trkpt>
      <trkpt lat="46.50424" lon="5.98447">
        <ele>949.4</ele>
        <time>2019-07-30T12:17:07Z</time>
      </trkpt>
      <trkpt lat="46.50421" lon="5.9844">
        <ele>948.5</ele>
        <time>2019-07-30T12:17:13Z</time>
      </trkpt>
      <trkpt lat="46.50419" lon="5.98434">
        <ele>947.9</ele>
        <time>2019-07-30T12:17:18Z</time>
      </trkpt>
      <trkpt lat="46.50416" lon="5.98427">
        <ele>947.6</ele>
        <time>2019-07-30T12:17:22Z</time>
      </trkpt>
      <trkpt lat="46.50414" lon="5.98421">
        <ele>947.4</ele>
        <time>2019-07-30T12:17:25Z</time>
      </trkpt>
      <trkpt lat="46.50412" lon="5.98414">
        <ele>947</ele>
        <time>2019-07-30T12:17:29Z</time>
      </trkpt>
      <trkpt lat="46.50408" lon="5.98409">
        <ele>946.5</ele>
        <time>2019-07-30T12:17:34Z</time>
      </trkpt>
      <trkpt lat="46.50404" lon="5.98403">
        <ele>946.1</ele>
        <time>2019-07-30T12:17:38Z</time>
      </trkpt>
      <trkpt lat="46.50402" lon="5.98397">
        <ele>945.4</ele>
        <time>2019-07-30T12:17:43Z</time>
      </trkpt>
      <trkpt lat="46.50399" lon="5.98392">
        <ele>944.6</ele>
        <time>2019-07-30T12:17:48Z</time>
      </trkpt>
      <trkpt lat="46.50395" lon="5.98388">
        <ele>943.9</ele>
        <time>2019-07-30T12:17:53Z</time>
      </trkpt>
      <trkpt lat="46.50391" lon="5.98383">
        <ele>943.1</ele>
        <time>2019-07-30T12:17:58Z</time>
      </trkpt>
      <trkpt lat="46.50388" lon="5.98377">
        <ele>942.2</ele>
        <time>2019-07-30T12:18:03Z</time>
      </trkpt>
      <trkpt lat="46.50385" lon="5.98374">
        <ele>941.6</ele>
        <time>2019-07-30T12:18:07Z</time>
      </trkpt>
      <trkpt lat="46.50381" lon="5.9837">
        <ele>940.8</ele>
        <time>2019-07-30T12:18:11Z</time>
      </trkpt>
      <trkpt lat="46.50377" lon="5.98365">
        <ele>939.7</ele>
        <time>2019-07-30T12:18:16Z</time>
      </trkpt>
      <trkpt lat="46.50373" lon="5.98361">
        <ele>938.6</ele>
        <time>2019-07-30T12:18:21Z</time>
      </trkpt>
      <trkpt lat="46.50368" lon="5.98356">
        <ele>937.5</ele>
        <time>2019-07-30T12:18:26Z</time>
      </trkpt>
      <trkpt lat="46.50364" lon="5.98352">
        <ele>936.3</ele>
        <time>2019-07-30T12:18:31Z</time>
      </trkpt>
      <trkpt lat="46.5036" lon="5.98351">
        <ele>934.9</ele>
        <time>2019-07-30T12:18:36Z</time>
      </trkpt>
      <trkpt lat="46.50355" lon="5.98349">
        <ele>933.8</ele>
        <time>2019-07-30T12:18:40Z</time>
      </trkpt>
      <trkpt lat="46.5035" lon="5.98346">
        <ele>932.8</ele>
        <time>2019-07-30T12:18:44Z</time>
      </trkpt>
      <trkpt lat="46.50345" lon="5.98342">
        <ele>931.9</ele>
        <time>2019-07-30T12:18:48Z</time>
      </trkpt>
      <trkpt lat="46.50342" lon="5.98337">
        <ele>931.3</ele>
        <time>2019-07-30T12:18:52Z</time>
      </trkpt>
      <trkpt lat="46.50338" lon="5.98332">
        <ele>931</ele>
        <time>2019-07-30T12:18:57Z</time>
      </trkpt>
      <trkpt lat="46.50333" lon="5.98329">
        <ele>930.6</ele>
        <time>2019-07-30T12:19:03Z</time>
      </trkpt>
      <trkpt lat="46.50329" lon="5.98324">
        <ele>930.3</ele>
        <time>2019-07-30T12:19:08Z</time>
      </trkpt>
      <trkpt lat="46.50324" lon="5.9832">
        <ele>929.9</ele>
        <time>2019-07-30T12:19:13Z</time>
      </trkpt>
      <trkpt lat="46.5032" lon="5.98318">
        <ele>929.5</ele>
        <time>2019-07-30T12:19:17Z</time>
      </trkpt>
      <trkpt lat="46.50315" lon="5.98315">
        <ele>929</ele>
        <time>2019-07-30T12:19:21Z</time>
      </trkpt>
      <trkpt lat="46.50312" lon="5.98311">
        <ele>928.3</ele>
        <time>2019-07-30T12:19:27Z</time>
      </trkpt>
      <trkpt lat="46.50308" lon="5.98307">
        <ele>927.8</ele>
        <time>2019-07-30T12:19:32Z</time>
      </trkpt>
      <trkpt lat="46.50305" lon="5.98301">
        <ele>927.1</ele>
        <time>2019-07-30T12:19:37Z</time>
      </trkpt>
      <trkpt lat="46.503" lon="5.98298">
        <ele>926.6</ele>
        <time>2019-07-30T12:19:41Z</time>
      </trkpt>
      <trkpt lat="46.50295" lon="5.98295">
        <ele>926</ele>
        <time>2019-07-30T12:19:46Z</time>
      </trkpt>
      <trkpt lat="46.50291" lon="5.98292">
        <ele>925.4</ele>
        <time>2019-07-30T12:19:50Z</time>
      </trkpt>
      <trkpt lat="46.50286" lon="5.98287">
        <ele>924.8</ele>
        <time>2019-07-30T12:19:55Z</time>
      </trkpt>
      <trkpt lat="46.50282" lon="5.98282">
        <ele>924.4</ele>
        <time>2019-07-30T12:19:59Z</time>
      </trkpt>
      <trkpt lat="46.50279" lon="5.98278">
        <ele>924.1</ele>
        <time>2019-07-30T12:20:03Z</time>
      </trkpt>
      <trkpt lat="46.50275" lon="5.98272">
        <ele>923.8</ele>
        <time>2019-07-30T12:20:08Z</time>
      </trkpt>
      <trkpt lat="46.50271" lon="5.98267">
        <ele>923.7</ele>
        <time>2019-07-30T12:20:12Z</time>
      </trkpt>
      <trkpt lat="46.50271" lon="5.98259">
        <ele>923.8</ele>
        <time>2019-07-30T12:20:17Z</time>
      </trkpt>
      <trkpt lat="46.50273" lon="5.98253">
        <ele>924</ele>
        <time>2019-07-30T12:20:21Z</time>
      </trkpt>
      <trkpt lat="46.50276" lon="5.98247">
        <ele>924.2</ele>
        <time>2019-07-30T12:20:25Z</time>
      </trkpt>
      <trkpt lat="46.50278" lon="5.98241">
        <ele>924.3</ele>
        <time>2019-07-30T12:20:30Z</time>
      </trkpt>
      <trkpt lat="46.50282" lon="5.98235">
        <ele>924.6</ele>
        <time>2019-07-30T12:20:36Z</time>
      </trkpt>
      <trkpt lat="46.50286" lon="5.9823">
        <ele>924.9</ele>
        <time>2019-07-30T12:20:40Z</time>
      </trkpt>
      <trkpt lat="46.5029" lon="5.98228">
        <ele>925.1</ele>
        <time>2019-07-30T12:20:44Z</time>
      </trkpt>
      <trkpt lat="46.50296" lon="5.98226">
        <ele>925.3</ele>
        <time>2019-07-30T12:20:48Z</time>
      </trkpt>
      <trkpt lat="46.50301" lon="5.98226">
        <ele>925.4</ele>
        <time>2019-07-30T12:20:52Z</time>
      </trkpt>
      <trkpt lat="46.50307" lon="5.98225">
        <ele>925.7</ele>
        <time>2019-07-30T12:20:56Z</time>
      </trkpt>
      <trkpt lat="46.50312" lon="5.98224">
        <ele>925.9</ele>
        <time>2019-07-30T12:20:59Z</time>
      </trkpt>
      <trkpt lat="46.50316" lon="5.98223">
        <ele>925.9</ele>
        <time>2019-07-30T12:21:01Z</time>
      </trkpt>
      <trkpt lat="46.50321" lon="5.98222">
        <ele>925.8</ele>
        <time>2019-07-30T12:21:03Z</time>
      </trkpt>
      <trkpt lat="46.50326" lon="5.98222">
        <ele>925.5</ele>
        <time>2019-07-30T12:21:06Z</time>
      </trkpt>
      <trkpt lat="46.50332" lon="5.98222">
        <ele>925</ele>
        <time>2019-07-30T12:21:09Z</time>
      </trkpt>
      <trkpt lat="46.50337" lon="5.98223">
        <ele>924.5</ele>
        <time>2019-07-30T12:21:12Z</time>
      </trkpt>
      <trkpt lat="46.50342" lon="5.98224">
        <ele>923.9</ele>
        <time>2019-07-30T12:21:15Z</time>
      </trkpt>
      <trkpt lat="46.50347" lon="5.98226">
        <ele>923</ele>
        <time>2019-07-30T12:21:20Z</time>
      </trkpt>
      <trkpt lat="46.50352" lon="5.98227">
        <ele>921.3</ele>
        <time>2019-07-30T12:21:28Z</time>
      </trkpt>
      <trkpt lat="46.50357" lon="5.98229">
        <ele>920.2</ele>
        <time>2019-07-30T12:21:33Z</time>
      </trkpt>
      <trkpt lat="46.50362" lon="5.98231">
        <ele>919</ele>
        <time>2019-07-30T12:21:38Z</time>
      </trkpt>
      <trkpt lat="46.50367" lon="5.98233">
        <ele>917.6</ele>
        <time>2019-07-30T12:21:43Z</time>
      </trkpt>
      <trkpt lat="46.50372" lon="5.98234">
        <ele>915.9</ele>
        <time>2019-07-30T12:21:49Z</time>
      </trkpt>
      <trkpt lat="46.50377" lon="5.98235">
        <ele>914.7</ele>
        <time>2019-07-30T12:21:55Z</time>
      </trkpt>
      <trkpt lat="46.50382" lon="5.98234">
        <ele>914</ele>
        <time>2019-07-30T12:22:00Z</time>
      </trkpt>
      <trkpt lat="46.50386" lon="5.98231">
        <ele>912.5</ele>
        <time>2019-07-30T12:22:17Z</time>
      </trkpt>
      <trkpt lat="46.5039" lon="5.98226">
        <ele>912.4</ele>
        <time>2019-07-30T12:22:22Z</time>
      </trkpt>
      <trkpt lat="46.50393" lon="5.9822">
        <ele>912.4</ele>
        <time>2019-07-30T12:22:28Z</time>
      </trkpt>
      <trkpt lat="46.50396" lon="5.98215">
        <ele>912.5</ele>
        <time>2019-07-30T12:22:32Z</time>
      </trkpt>
      <trkpt lat="46.50398" lon="5.98209">
        <ele>912.6</ele>
        <time>2019-07-30T12:22:36Z</time>
      </trkpt>
      <trkpt lat="46.50401" lon="5.98203">
        <ele>913</ele>
        <time>2019-07-30T12:22:42Z</time>
      </trkpt>
      <trkpt lat="46.50403" lon="5.98196">
        <ele>913.3</ele>
        <time>2019-07-30T12:22:47Z</time>
      </trkpt>
      <trkpt lat="46.50406" lon="5.9819">
        <ele>913.8</ele>
        <time>2019-07-30T12:22:52Z</time>
      </trkpt>
      <trkpt lat="46.50408" lon="5.98183">
        <ele>914</ele>
        <time>2019-07-30T12:22:57Z</time>
      </trkpt>
      <trkpt lat="46.5041" lon="5.98176">
        <ele>914.3</ele>
        <time>2019-07-30T12:23:01Z</time>
      </trkpt>
      <trkpt lat="46.50414" lon="5.9817">
        <ele>914.8</ele>
        <time>2019-07-30T12:23:07Z</time>
      </trkpt>
      <trkpt lat="46.50417" lon="5.98164">
        <ele>915.1</ele>
        <time>2019-07-30T12:23:12Z</time>
      </trkpt>
      <trkpt lat="46.50419" lon="5.98158">
        <ele>915.3</ele>
        <time>2019-07-30T12:23:17Z</time>
      </trkpt>
      <trkpt lat="46.50421" lon="5.98151">
        <ele>915.1</ele>
        <time>2019-07-30T12:23:21Z</time>
      </trkpt>
      <trkpt lat="46.50423" lon="5.98145">
        <ele>915</ele>
        <time>2019-07-30T12:23:25Z</time>
      </trkpt>
      <trkpt lat="46.50424" lon="5.98138">
        <ele>914.8</ele>
        <time>2019-07-30T12:23:30Z</time>
      </trkpt>
      <trkpt lat="46.50426" lon="5.98132">
        <ele>914.9</ele>
        <time>2019-07-30T12:23:34Z</time>
      </trkpt>
      <trkpt lat="46.50429" lon="5.98126">
        <ele>915</ele>
        <time>2019-07-30T12:23:38Z</time>
      </trkpt>
      <trkpt lat="46.50432" lon="5.9812">
        <ele>915.3</ele>
        <time>2019-07-30T12:23:44Z</time>
      </trkpt>
      <trkpt lat="46.50433" lon="5.98113">
        <ele>915.6</ele>
        <time>2019-07-30T12:23:50Z</time>
      </trkpt>
      <trkpt lat="46.50432" lon="5.98106">
        <ele>915.6</ele>
        <time>2019-07-30T12:23:54Z</time>
      </trkpt>
      <trkpt lat="46.50433" lon="5.98098">
        <ele>915.6</ele>
        <time>2019-07-30T12:23:58Z</time>
      </trkpt>
      <trkpt lat="46.50435" lon="5.98091">
        <ele>915.7</ele>
        <time>2019-07-30T12:24:03Z</time>
      </trkpt>
      <trkpt lat="46.50437" lon="5.98085">
        <ele>915.4</ele>
        <time>2019-07-30T12:24:08Z</time>
      </trkpt>
      <trkpt lat="46.50441" lon="5.98079">
        <ele>915.1</ele>
        <time>2019-07-30T12:24:13Z</time>
      </trkpt>
      <trkpt lat="46.50444" lon="5.98073">
        <ele>914.7</ele>
        <time>2019-07-30T12:24:17Z</time>
      </trkpt>
      <trkpt lat="46.50446" lon="5.98066">
        <ele>914.1</ele>
        <time>2019-07-30T12:24:22Z</time>
      </trkpt>
      <trkpt lat="46.50448" lon="5.9806">
        <ele>913.5</ele>
        <time>2019-07-30T12:24:28Z</time>
      </trkpt>
      <trkpt lat="46.50452" lon="5.98054">
        <ele>913.3</ele>
        <time>2019-07-30T12:24:33Z</time>
      </trkpt>
      <trkpt lat="46.50457" lon="5.9805">
        <ele>913.4</ele>
        <time>2019-07-30T12:24:37Z</time>
      </trkpt>
      <trkpt lat="46.50461" lon="5.98049">
        <ele>913.4</ele>
        <time>2019-07-30T12:24:40Z</time>
      </trkpt>
      <trkpt lat="46.50466" lon="5.98045">
        <ele>913.3</ele>
        <time>2019-07-30T12:24:46Z</time>
      </trkpt>
      <trkpt lat="46.5047" lon="5.98041">
        <ele>912.2</ele>
        <time>2019-07-30T12:24:54Z</time>
      </trkpt>
      <trkpt lat="46.50475" lon="5.9804">
        <ele>909.8</ele>
        <time>2019-07-30T12:25:01Z</time>
      </trkpt>
      <trkpt lat="46.50478" lon="5.98045">
        <ele>908.1</ele>
        <time>2019-07-30T12:25:06Z</time>
      </trkpt>
      <trkpt lat="46.50482" lon="5.98048">
        <ele>907.1</ele>
        <time>2019-07-30T12:25:10Z</time>
      </trkpt>
      <trkpt lat="46.50486" lon="5.98052">
        <ele>906.3</ele>
        <time>2019-07-30T12:25:14Z</time>
      </trkpt>
      <trkpt lat="46.5049" lon="5.98056">
        <ele>905.7</ele>
        <time>2019-07-30T12:25:18Z</time>
      </trkpt>
      <trkpt lat="46.50494" lon="5.98058">
        <ele>905.3</ele>
        <time>2019-07-30T12:25:22Z</time>
      </trkpt>
      <trkpt lat="46.50499" lon="5.98061">
        <ele>904.8</ele>
        <time>2019-07-30T12:25:28Z</time>
      </trkpt>
      <trkpt lat="46.50504" lon="5.98064">
        <ele>904.1</ele>
        <time>2019-07-30T12:25:34Z</time>
      </trkpt>
      <trkpt lat="46.50509" lon="5.98067">
        <ele>903.6</ele>
        <time>2019-07-30T12:25:38Z</time>
      </trkpt>
      <trkpt lat="46.50514" lon="5.9807">
        <ele>903.1</ele>
        <time>2019-07-30T12:25:42Z</time>
      </trkpt>
      <trkpt lat="46.50517" lon="5.98076">
        <ele>902.4</ele>
        <time>2019-07-30T12:25:46Z</time>
      </trkpt>
      <trkpt lat="46.50521" lon="5.98081">
        <ele>901.4</ele>
        <time>2019-07-30T12:25:51Z</time>
      </trkpt>
      <trkpt lat="46.50525" lon="5.98085">
        <ele>900.6</ele>
        <time>2019-07-30T12:25:55Z</time>
      </trkpt>
      <trkpt lat="46.50528" lon="5.98089">
        <ele>899.8</ele>
        <time>2019-07-30T12:25:59Z</time>
      </trkpt>
      <trkpt lat="46.50531" lon="5.98095">
        <ele>897.7</ele>
        <time>2019-07-30T12:26:12Z</time>
      </trkpt>
      <trkpt lat="46.50534" lon="5.98101">
        <ele>896.9</ele>
        <time>2019-07-30T12:26:18Z</time>
      </trkpt>
      <trkpt lat="46.50537" lon="5.98109">
        <ele>896.6</ele>
        <time>2019-07-30T12:26:23Z</time>
      </trkpt>
      <trkpt lat="46.5054" lon="5.98115">
        <ele>896.8</ele>
        <time>2019-07-30T12:26:26Z</time>
      </trkpt>
      <trkpt lat="46.50542" lon="5.98121">
        <ele>897.1</ele>
        <time>2019-07-30T12:26:30Z</time>
      </trkpt>
      <trkpt lat="46.50546" lon="5.98126">
        <ele>897.8</ele>
        <time>2019-07-30T12:26:36Z</time>
      </trkpt>
    </trkseg>
  </trk>
</gpx>